<?xml version="1.0" encoding="UTF-8" standalone="no" ?>
<gpx xmlns="http://www.topografix.com/GPX/1/1" xmlns:xsi="http://www.w3.org/2001/XMLSchema-instance" xsi:schemaLocation="http://www.topografix.com/GPX/1/1 http://www.topografix.com/GPX/1/1/gpx.xsd" version="1.1" creator="VisuGPX - https://www.visugpx.com">
  <metadata>
    <name>Clamouse - Saint Guilhem - Cap Ginestet</name>
    <desc><![CDATA[2019-03 - Clamouse - Saint Guilhem le Désert - Cap Ginestet

[b]album[/b] : [url]https://photos.app.goo.gl/whSd9bqTwA2hRRgo7[/url]
[img]https://blogger.googleusercontent.com/img/b/R29vZ2xl/AVvXsEhS8cK-V3HuznvJbEJ8NucMhLpW12cz21HND-Z1dCv0iNaCeYvir-0g352GAWqkC-LIXhKr538D3C2ou7zT0TgUez46-kYzUvZjSGy7UtiB9-A1PrEZgF44Ld9DKdiEFcTMBytKS4ZU3LRiBplSIe7dNXF9rozZ-25ox3KGnaQkswy7F_vlWVPl5sQrelek/s600/2019-03-26%20Saint-Guilhem.JPG[/img]
[b]Idées de randonnées dans la même région[/b]
Parcours : [url]https://www.visugpx.com/membres/24856/causses/saint-guilhem/[/url]
Photos : [url]https://jcvertygo.blogspot.com/p/saint-guilhem.html[/url]]]></desc>
  </metadata>
  <trk>
    <name><![CDATA[SityTrail - Clamouse - Saint Guilhem le Désert - Cap Ginestet]]></name>
    <extensions>
      <line xmlns="http://www.topografix.com/GPX/gpx_style/0/2">
        <color>0000FF</color>
        <width>4</width>
      </line>
    </extensions>
    <trkseg>
      <trkpt lat="43.7108" lon="3.55272">
        <ele>63</ele>
        <time>2019-03-26T08:50:34.298Z</time>
      </trkpt>
      <trkpt lat="43.71081" lon="3.55272">
        <ele>63</ele>
        <time>2019-03-26T08:50:35.306Z</time>
      </trkpt>
      <trkpt lat="43.71083" lon="3.5527">
        <ele>63</ele>
        <time>2019-03-26T08:50:40.275Z</time>
      </trkpt>
      <trkpt lat="43.71087" lon="3.55268">
        <ele>63</ele>
        <time>2019-03-26T08:50:45.260Z</time>
      </trkpt>
      <trkpt lat="43.71092" lon="3.55268">
        <ele>63</ele>
        <time>2019-03-26T08:50:49.288Z</time>
      </trkpt>
      <trkpt lat="43.71098" lon="3.55263">
        <ele>72</ele>
        <time>2019-03-26T08:50:54.289Z</time>
      </trkpt>
      <trkpt lat="43.71101" lon="3.55262">
        <ele>72</ele>
        <time>2019-03-26T08:50:59.296Z</time>
      </trkpt>
      <trkpt lat="43.71106" lon="3.55261">
        <ele>72</ele>
        <time>2019-03-26T08:51:04.282Z</time>
      </trkpt>
      <trkpt lat="43.7111" lon="3.55262">
        <ele>72</ele>
        <time>2019-03-26T08:51:08.292Z</time>
      </trkpt>
      <trkpt lat="43.71114" lon="3.55261">
        <ele>72</ele>
        <time>2019-03-26T08:51:13.259Z</time>
      </trkpt>
      <trkpt lat="43.71115" lon="3.55262">
        <ele>72</ele>
        <time>2019-03-26T08:51:17.262Z</time>
      </trkpt>
      <trkpt lat="43.71116" lon="3.55261">
        <ele>72</ele>
        <time>2019-03-26T08:51:22.263Z</time>
      </trkpt>
      <trkpt lat="43.71118" lon="3.55256">
        <ele>72</ele>
        <time>2019-03-26T08:51:31.278Z</time>
      </trkpt>
      <trkpt lat="43.71123" lon="3.55252">
        <ele>72</ele>
        <time>2019-03-26T08:51:36.279Z</time>
      </trkpt>
      <trkpt lat="43.71129" lon="3.55249">
        <ele>73</ele>
        <time>2019-03-26T08:51:41.289Z</time>
      </trkpt>
      <trkpt lat="43.71135" lon="3.55247">
        <ele>73</ele>
        <time>2019-03-26T08:51:46.282Z</time>
      </trkpt>
      <trkpt lat="43.7114" lon="3.55245">
        <ele>73</ele>
        <time>2019-03-26T08:51:50.292Z</time>
      </trkpt>
      <trkpt lat="43.71145" lon="3.55242">
        <ele>73</ele>
        <time>2019-03-26T08:51:55.258Z</time>
      </trkpt>
      <trkpt lat="43.71148" lon="3.55241">
        <ele>73</ele>
        <time>2019-03-26T08:51:59.277Z</time>
      </trkpt>
      <trkpt lat="43.71152" lon="3.5524">
        <ele>73</ele>
        <time>2019-03-26T08:52:03.286Z</time>
      </trkpt>
      <trkpt lat="43.71156" lon="3.55239">
        <ele>69</ele>
        <time>2019-03-26T08:52:07.314Z</time>
      </trkpt>
      <trkpt lat="43.71162" lon="3.55238">
        <ele>69</ele>
        <time>2019-03-26T08:52:12.283Z</time>
      </trkpt>
      <trkpt lat="43.71165" lon="3.55238">
        <ele>69</ele>
        <time>2019-03-26T08:52:17.307Z</time>
      </trkpt>
      <trkpt lat="43.71167" lon="3.55238">
        <ele>69</ele>
        <time>2019-03-26T08:53:22.309Z</time>
      </trkpt>
      <trkpt lat="43.71174" lon="3.55238">
        <ele>69</ele>
        <time>2019-03-26T08:53:27.291Z</time>
      </trkpt>
      <trkpt lat="43.7118" lon="3.55237">
        <ele>69</ele>
        <time>2019-03-26T08:53:32.288Z</time>
      </trkpt>
      <trkpt lat="43.71186" lon="3.55236">
        <ele>64</ele>
        <time>2019-03-26T08:53:37.279Z</time>
      </trkpt>
      <trkpt lat="43.71191" lon="3.55236">
        <ele>64</ele>
        <time>2019-03-26T08:53:41.286Z</time>
      </trkpt>
      <trkpt lat="43.71198" lon="3.55236">
        <ele>64</ele>
        <time>2019-03-26T08:53:46.314Z</time>
      </trkpt>
      <trkpt lat="43.71205" lon="3.55236">
        <ele>64</ele>
        <time>2019-03-26T08:53:51.314Z</time>
      </trkpt>
      <trkpt lat="43.71211" lon="3.55236">
        <ele>73</ele>
        <time>2019-03-26T08:53:56.278Z</time>
      </trkpt>
      <trkpt lat="43.71217" lon="3.55237">
        <ele>64</ele>
        <time>2019-03-26T08:54:00.286Z</time>
      </trkpt>
      <trkpt lat="43.71223" lon="3.5524">
        <ele>64</ele>
        <time>2019-03-26T08:54:05.278Z</time>
      </trkpt>
      <trkpt lat="43.71229" lon="3.55242">
        <ele>64</ele>
        <time>2019-03-26T08:54:10.286Z</time>
      </trkpt>
      <trkpt lat="43.71235" lon="3.55242">
        <ele>64</ele>
        <time>2019-03-26T08:54:15.277Z</time>
      </trkpt>
      <trkpt lat="43.7124" lon="3.55241">
        <ele>69</ele>
        <time>2019-03-26T08:54:19.304Z</time>
      </trkpt>
      <trkpt lat="43.71247" lon="3.55239">
        <ele>69</ele>
        <time>2019-03-26T08:54:24.281Z</time>
      </trkpt>
      <trkpt lat="43.71253" lon="3.55238">
        <ele>69</ele>
        <time>2019-03-26T08:54:28.292Z</time>
      </trkpt>
      <trkpt lat="43.71259" lon="3.55238">
        <ele>69</ele>
        <time>2019-03-26T08:54:32.314Z</time>
      </trkpt>
      <trkpt lat="43.71265" lon="3.55238">
        <ele>75</ele>
        <time>2019-03-26T08:54:37.279Z</time>
      </trkpt>
      <trkpt lat="43.71271" lon="3.55238">
        <ele>75</ele>
        <time>2019-03-26T08:54:42.294Z</time>
      </trkpt>
      <trkpt lat="43.71277" lon="3.55239">
        <ele>75</ele>
        <time>2019-03-26T08:54:47.279Z</time>
      </trkpt>
      <trkpt lat="43.71284" lon="3.55242">
        <ele>75</ele>
        <time>2019-03-26T08:54:52.313Z</time>
      </trkpt>
      <trkpt lat="43.7129" lon="3.55247">
        <ele>75</ele>
        <time>2019-03-26T08:54:57.283Z</time>
      </trkpt>
      <trkpt lat="43.71295" lon="3.55252">
        <ele>78</ele>
        <time>2019-03-26T08:55:02.309Z</time>
      </trkpt>
      <trkpt lat="43.71301" lon="3.55257">
        <ele>78</ele>
        <time>2019-03-26T08:55:07.276Z</time>
      </trkpt>
      <trkpt lat="43.71306" lon="3.55261">
        <ele>78</ele>
        <time>2019-03-26T08:55:11.285Z</time>
      </trkpt>
      <trkpt lat="43.7131" lon="3.55265">
        <ele>69</ele>
        <time>2019-03-26T08:55:16.278Z</time>
      </trkpt>
      <trkpt lat="43.71315" lon="3.55268">
        <ele>69</ele>
        <time>2019-03-26T08:55:21.286Z</time>
      </trkpt>
      <trkpt lat="43.7132" lon="3.5527">
        <ele>72</ele>
        <time>2019-03-26T08:55:25.310Z</time>
      </trkpt>
      <trkpt lat="43.71325" lon="3.55272">
        <ele>72</ele>
        <time>2019-03-26T08:55:30.282Z</time>
      </trkpt>
      <trkpt lat="43.71333" lon="3.55271">
        <ele>72</ele>
        <time>2019-03-26T08:55:35.313Z</time>
      </trkpt>
      <trkpt lat="43.71341" lon="3.55271">
        <ele>72</ele>
        <time>2019-03-26T08:55:40.291Z</time>
      </trkpt>
      <trkpt lat="43.71349" lon="3.5527">
        <ele>68</ele>
        <time>2019-03-26T08:55:45.273Z</time>
      </trkpt>
      <trkpt lat="43.71354" lon="3.5527">
        <ele>68</ele>
        <time>2019-03-26T08:55:49.279Z</time>
      </trkpt>
      <trkpt lat="43.7136" lon="3.5527">
        <ele>68</ele>
        <time>2019-03-26T08:55:53.328Z</time>
      </trkpt>
      <trkpt lat="43.71367" lon="3.55269">
        <ele>68</ele>
        <time>2019-03-26T08:55:58.279Z</time>
      </trkpt>
      <trkpt lat="43.71373" lon="3.55267">
        <ele>68</ele>
        <time>2019-03-26T08:56:02.296Z</time>
      </trkpt>
      <trkpt lat="43.71379" lon="3.55266">
        <ele>64</ele>
        <time>2019-03-26T08:56:07.284Z</time>
      </trkpt>
      <trkpt lat="43.71383" lon="3.55267">
        <ele>64</ele>
        <time>2019-03-26T08:56:11.296Z</time>
      </trkpt>
      <trkpt lat="43.71388" lon="3.55269">
        <ele>64</ele>
        <time>2019-03-26T08:56:16.281Z</time>
      </trkpt>
      <trkpt lat="43.71394" lon="3.55268">
        <ele>64</ele>
        <time>2019-03-26T08:56:21.293Z</time>
      </trkpt>
      <trkpt lat="43.71401" lon="3.55263">
        <ele>74</ele>
        <time>2019-03-26T08:56:26.290Z</time>
      </trkpt>
      <trkpt lat="43.71406" lon="3.5526">
        <ele>69</ele>
        <time>2019-03-26T08:56:31.283Z</time>
      </trkpt>
      <trkpt lat="43.71411" lon="3.5526">
        <ele>69</ele>
        <time>2019-03-26T08:56:36.285Z</time>
      </trkpt>
      <trkpt lat="43.71415" lon="3.55261">
        <ele>69</ele>
        <time>2019-03-26T08:56:40.289Z</time>
      </trkpt>
      <trkpt lat="43.7142" lon="3.55262">
        <ele>69</ele>
        <time>2019-03-26T08:56:45.303Z</time>
      </trkpt>
      <trkpt lat="43.71424" lon="3.55263">
        <ele>69</ele>
        <time>2019-03-26T08:56:50.286Z</time>
      </trkpt>
      <trkpt lat="43.71431" lon="3.55265">
        <ele>61</ele>
        <time>2019-03-26T08:56:55.317Z</time>
      </trkpt>
      <trkpt lat="43.71438" lon="3.55263">
        <ele>71</ele>
        <time>2019-03-26T08:57:00.306Z</time>
      </trkpt>
      <trkpt lat="43.71443" lon="3.55262">
        <ele>71</ele>
        <time>2019-03-26T08:57:04.316Z</time>
      </trkpt>
      <trkpt lat="43.71449" lon="3.5526">
        <ele>71</ele>
        <time>2019-03-26T08:57:09.286Z</time>
      </trkpt>
      <trkpt lat="43.71457" lon="3.55257">
        <ele>71</ele>
        <time>2019-03-26T08:57:14.286Z</time>
      </trkpt>
      <trkpt lat="43.71464" lon="3.55253">
        <ele>74</ele>
        <time>2019-03-26T08:57:19.288Z</time>
      </trkpt>
      <trkpt lat="43.71473" lon="3.55251">
        <ele>74</ele>
        <time>2019-03-26T08:57:24.287Z</time>
      </trkpt>
      <trkpt lat="43.7148" lon="3.55251">
        <ele>74</ele>
        <time>2019-03-26T08:57:29.274Z</time>
      </trkpt>
      <trkpt lat="43.71485" lon="3.55251">
        <ele>74</ele>
        <time>2019-03-26T08:57:33.317Z</time>
      </trkpt>
      <trkpt lat="43.71491" lon="3.5525">
        <ele>73</ele>
        <time>2019-03-26T08:57:38.287Z</time>
      </trkpt>
      <trkpt lat="43.71498" lon="3.5525">
        <ele>73</ele>
        <time>2019-03-26T08:57:43.293Z</time>
      </trkpt>
      <trkpt lat="43.71504" lon="3.55252">
        <ele>73</ele>
        <time>2019-03-26T08:57:48.277Z</time>
      </trkpt>
      <trkpt lat="43.7151" lon="3.55255">
        <ele>73</ele>
        <time>2019-03-26T08:57:53.278Z</time>
      </trkpt>
      <trkpt lat="43.71515" lon="3.55256">
        <ele>69</ele>
        <time>2019-03-26T08:57:57.290Z</time>
      </trkpt>
      <trkpt lat="43.7152" lon="3.55255">
        <ele>69</ele>
        <time>2019-03-26T08:58:01.309Z</time>
      </trkpt>
      <trkpt lat="43.71528" lon="3.55255">
        <ele>69</ele>
        <time>2019-03-26T08:58:06.309Z</time>
      </trkpt>
      <trkpt lat="43.71535" lon="3.55254">
        <ele>69</ele>
        <time>2019-03-26T08:58:11.288Z</time>
      </trkpt>
      <trkpt lat="43.7154" lon="3.55252">
        <ele>69</ele>
        <time>2019-03-26T08:58:15.311Z</time>
      </trkpt>
      <trkpt lat="43.71546" lon="3.55254">
        <ele>68</ele>
        <time>2019-03-26T08:58:20.288Z</time>
      </trkpt>
      <trkpt lat="43.71551" lon="3.55254">
        <ele>68</ele>
        <time>2019-03-26T08:58:25.283Z</time>
      </trkpt>
      <trkpt lat="43.71558" lon="3.55255">
        <ele>68</ele>
        <time>2019-03-26T08:58:30.280Z</time>
      </trkpt>
      <trkpt lat="43.71564" lon="3.55256">
        <ele>68</ele>
        <time>2019-03-26T08:58:35.284Z</time>
      </trkpt>
      <trkpt lat="43.71569" lon="3.55257">
        <ele>68</ele>
        <time>2019-03-26T08:58:40.282Z</time>
      </trkpt>
      <trkpt lat="43.71574" lon="3.55259">
        <ele>69</ele>
        <time>2019-03-26T08:58:44.310Z</time>
      </trkpt>
      <trkpt lat="43.71579" lon="3.55259">
        <ele>69</ele>
        <time>2019-03-26T08:58:49.262Z</time>
      </trkpt>
      <trkpt lat="43.71585" lon="3.55259">
        <ele>69</ele>
        <time>2019-03-26T08:58:53.279Z</time>
      </trkpt>
      <trkpt lat="43.71592" lon="3.55257">
        <ele>69</ele>
        <time>2019-03-26T08:58:58.316Z</time>
      </trkpt>
      <trkpt lat="43.71598" lon="3.55257">
        <ele>72</ele>
        <time>2019-03-26T08:59:03.321Z</time>
      </trkpt>
      <trkpt lat="43.71604" lon="3.55257">
        <ele>72</ele>
        <time>2019-03-26T08:59:08.284Z</time>
      </trkpt>
      <trkpt lat="43.71609" lon="3.55256">
        <ele>72</ele>
        <time>2019-03-26T08:59:12.319Z</time>
      </trkpt>
      <trkpt lat="43.71616" lon="3.55257">
        <ele>72</ele>
        <time>2019-03-26T08:59:17.288Z</time>
      </trkpt>
      <trkpt lat="43.71621" lon="3.55259">
        <ele>72</ele>
        <time>2019-03-26T08:59:21.310Z</time>
      </trkpt>
      <trkpt lat="43.71629" lon="3.5526">
        <ele>74</ele>
        <time>2019-03-26T08:59:26.277Z</time>
      </trkpt>
      <trkpt lat="43.71636" lon="3.5526">
        <ele>74</ele>
        <time>2019-03-26T08:59:31.334Z</time>
      </trkpt>
      <trkpt lat="43.71643" lon="3.5526">
        <ele>74</ele>
        <time>2019-03-26T08:59:36.275Z</time>
      </trkpt>
      <trkpt lat="43.71649" lon="3.5526">
        <ele>74</ele>
        <time>2019-03-26T08:59:41.281Z</time>
      </trkpt>
      <trkpt lat="43.71655" lon="3.55258">
        <ele>79</ele>
        <time>2019-03-26T08:59:45.279Z</time>
      </trkpt>
      <trkpt lat="43.71662" lon="3.55256">
        <ele>79</ele>
        <time>2019-03-26T08:59:50.288Z</time>
      </trkpt>
      <trkpt lat="43.71669" lon="3.55256">
        <ele>79</ele>
        <time>2019-03-26T08:59:55.284Z</time>
      </trkpt>
      <trkpt lat="43.71675" lon="3.55258">
        <ele>79</ele>
        <time>2019-03-26T09:00:00.260Z</time>
      </trkpt>
      <trkpt lat="43.71678" lon="3.5526">
        <ele>79</ele>
        <time>2019-03-26T09:00:04.283Z</time>
      </trkpt>
      <trkpt lat="43.71683" lon="3.55262">
        <ele>83</ele>
        <time>2019-03-26T09:00:09.284Z</time>
      </trkpt>
      <trkpt lat="43.71689" lon="3.55267">
        <ele>73</ele>
        <time>2019-03-26T09:00:14.291Z</time>
      </trkpt>
      <trkpt lat="43.71694" lon="3.55272">
        <ele>73</ele>
        <time>2019-03-26T09:00:19.297Z</time>
      </trkpt>
      <trkpt lat="43.71699" lon="3.55278">
        <ele>73</ele>
        <time>2019-03-26T09:00:24.280Z</time>
      </trkpt>
      <trkpt lat="43.71703" lon="3.55283">
        <ele>73</ele>
        <time>2019-03-26T09:00:29.310Z</time>
      </trkpt>
      <trkpt lat="43.71709" lon="3.55288">
        <ele>78</ele>
        <time>2019-03-26T09:00:34.280Z</time>
      </trkpt>
      <trkpt lat="43.71714" lon="3.55291">
        <ele>78</ele>
        <time>2019-03-26T09:00:39.291Z</time>
      </trkpt>
      <trkpt lat="43.71719" lon="3.55295">
        <ele>66</ele>
        <time>2019-03-26T09:00:43.311Z</time>
      </trkpt>
      <trkpt lat="43.71726" lon="3.55298">
        <ele>66</ele>
        <time>2019-03-26T09:00:48.301Z</time>
      </trkpt>
      <trkpt lat="43.71733" lon="3.553">
        <ele>66</ele>
        <time>2019-03-26T09:00:53.281Z</time>
      </trkpt>
      <trkpt lat="43.71741" lon="3.55304">
        <ele>69</ele>
        <time>2019-03-26T09:00:58.279Z</time>
      </trkpt>
      <trkpt lat="43.71748" lon="3.55307">
        <ele>69</ele>
        <time>2019-03-26T09:01:03.279Z</time>
      </trkpt>
      <trkpt lat="43.71755" lon="3.5531">
        <ele>69</ele>
        <time>2019-03-26T09:01:08.300Z</time>
      </trkpt>
      <trkpt lat="43.71761" lon="3.55311">
        <ele>69</ele>
        <time>2019-03-26T09:01:13.286Z</time>
      </trkpt>
      <trkpt lat="43.71765" lon="3.55313">
        <ele>76</ele>
        <time>2019-03-26T09:01:18.283Z</time>
      </trkpt>
      <trkpt lat="43.71767" lon="3.55313">
        <ele>76</ele>
        <time>2019-03-26T09:01:36.289Z</time>
      </trkpt>
      <trkpt lat="43.71774" lon="3.55316">
        <ele>76</ele>
        <time>2019-03-26T09:01:41.282Z</time>
      </trkpt>
      <trkpt lat="43.7178" lon="3.55318">
        <ele>76</ele>
        <time>2019-03-26T09:01:46.280Z</time>
      </trkpt>
      <trkpt lat="43.71787" lon="3.55321">
        <ele>58</ele>
        <time>2019-03-26T09:01:51.284Z</time>
      </trkpt>
      <trkpt lat="43.71792" lon="3.55325">
        <ele>68</ele>
        <time>2019-03-26T09:01:56.283Z</time>
      </trkpt>
      <trkpt lat="43.71797" lon="3.55329">
        <ele>68</ele>
        <time>2019-03-26T09:02:00.280Z</time>
      </trkpt>
      <trkpt lat="43.71802" lon="3.55332">
        <ele>68</ele>
        <time>2019-03-26T09:02:05.281Z</time>
      </trkpt>
      <trkpt lat="43.71807" lon="3.55334">
        <ele>68</ele>
        <time>2019-03-26T09:02:10.283Z</time>
      </trkpt>
      <trkpt lat="43.71811" lon="3.55339">
        <ele>68</ele>
        <time>2019-03-26T09:02:15.280Z</time>
      </trkpt>
      <trkpt lat="43.71814" lon="3.55341">
        <ele>68</ele>
        <time>2019-03-26T09:02:19.294Z</time>
      </trkpt>
      <trkpt lat="43.7182" lon="3.55343">
        <ele>71</ele>
        <time>2019-03-26T09:02:24.314Z</time>
      </trkpt>
      <trkpt lat="43.71826" lon="3.55343">
        <ele>71</ele>
        <time>2019-03-26T09:02:29.282Z</time>
      </trkpt>
      <trkpt lat="43.7183" lon="3.55344">
        <ele>71</ele>
        <time>2019-03-26T09:02:33.291Z</time>
      </trkpt>
      <trkpt lat="43.71836" lon="3.55345">
        <ele>71</ele>
        <time>2019-03-26T09:02:38.285Z</time>
      </trkpt>
      <trkpt lat="43.71841" lon="3.55346">
        <ele>71</ele>
        <time>2019-03-26T09:02:42.283Z</time>
      </trkpt>
      <trkpt lat="43.71846" lon="3.55347">
        <ele>71</ele>
        <time>2019-03-26T09:02:46.320Z</time>
      </trkpt>
      <trkpt lat="43.71854" lon="3.55348">
        <ele>63</ele>
        <time>2019-03-26T09:02:51.261Z</time>
      </trkpt>
      <trkpt lat="43.71859" lon="3.55348">
        <ele>63</ele>
        <time>2019-03-26T09:02:55.288Z</time>
      </trkpt>
      <trkpt lat="43.71868" lon="3.55352">
        <ele>63</ele>
        <time>2019-03-26T09:03:23.270Z</time>
      </trkpt>
      <trkpt lat="43.71869" lon="3.55344">
        <ele>74</ele>
        <time>2019-03-26T09:03:28.284Z</time>
      </trkpt>
      <trkpt lat="43.71877" lon="3.55342">
        <ele>76</ele>
        <time>2019-03-26T09:03:33.286Z</time>
      </trkpt>
      <trkpt lat="43.71882" lon="3.55342">
        <ele>76</ele>
        <time>2019-03-26T09:03:38.288Z</time>
      </trkpt>
      <trkpt lat="43.71888" lon="3.55343">
        <ele>76</ele>
        <time>2019-03-26T09:03:43.281Z</time>
      </trkpt>
      <trkpt lat="43.71895" lon="3.55343">
        <ele>76</ele>
        <time>2019-03-26T09:03:48.280Z</time>
      </trkpt>
      <trkpt lat="43.71901" lon="3.55343">
        <ele>76</ele>
        <time>2019-03-26T09:03:53.306Z</time>
      </trkpt>
      <trkpt lat="43.71906" lon="3.55344">
        <ele>78</ele>
        <time>2019-03-26T09:03:58.282Z</time>
      </trkpt>
      <trkpt lat="43.71909" lon="3.55346">
        <ele>78</ele>
        <time>2019-03-26T09:04:02.290Z</time>
      </trkpt>
      <trkpt lat="43.71913" lon="3.55347">
        <ele>78</ele>
        <time>2019-03-26T09:04:06.310Z</time>
      </trkpt>
      <trkpt lat="43.71919" lon="3.55346">
        <ele>78</ele>
        <time>2019-03-26T09:04:11.284Z</time>
      </trkpt>
      <trkpt lat="43.71925" lon="3.55345">
        <ele>78</ele>
        <time>2019-03-26T09:04:16.283Z</time>
      </trkpt>
      <trkpt lat="43.71933" lon="3.55344">
        <ele>81</ele>
        <time>2019-03-26T09:04:21.307Z</time>
      </trkpt>
      <trkpt lat="43.71939" lon="3.55345">
        <ele>81</ele>
        <time>2019-03-26T09:04:26.315Z</time>
      </trkpt>
      <trkpt lat="43.71946" lon="3.55344">
        <ele>81</ele>
        <time>2019-03-26T09:04:31.787Z</time>
      </trkpt>
      <trkpt lat="43.71952" lon="3.55344">
        <ele>81</ele>
        <time>2019-03-26T09:04:36.284Z</time>
      </trkpt>
      <trkpt lat="43.71958" lon="3.55346">
        <ele>81</ele>
        <time>2019-03-26T09:04:41.286Z</time>
      </trkpt>
      <trkpt lat="43.71962" lon="3.55346">
        <ele>83</ele>
        <time>2019-03-26T09:04:45.313Z</time>
      </trkpt>
      <trkpt lat="43.71967" lon="3.55347">
        <ele>83</ele>
        <time>2019-03-26T09:04:50.281Z</time>
      </trkpt>
      <trkpt lat="43.71971" lon="3.55347">
        <ele>64</ele>
        <time>2019-03-26T09:04:54.312Z</time>
      </trkpt>
      <trkpt lat="43.71978" lon="3.55348">
        <ele>64</ele>
        <time>2019-03-26T09:04:59.280Z</time>
      </trkpt>
      <trkpt lat="43.71983" lon="3.55348">
        <ele>64</ele>
        <time>2019-03-26T09:05:04.274Z</time>
      </trkpt>
      <trkpt lat="43.71989" lon="3.5535">
        <ele>68</ele>
        <time>2019-03-26T09:05:09.279Z</time>
      </trkpt>
      <trkpt lat="43.71994" lon="3.55351">
        <ele>68</ele>
        <time>2019-03-26T09:05:13.283Z</time>
      </trkpt>
      <trkpt lat="43.72" lon="3.55354">
        <ele>68</ele>
        <time>2019-03-26T09:05:18.289Z</time>
      </trkpt>
      <trkpt lat="43.72006" lon="3.55356">
        <ele>68</ele>
        <time>2019-03-26T09:05:23.285Z</time>
      </trkpt>
      <trkpt lat="43.72011" lon="3.55357">
        <ele>68</ele>
        <time>2019-03-26T09:05:27.310Z</time>
      </trkpt>
      <trkpt lat="43.72017" lon="3.55356">
        <ele>73</ele>
        <time>2019-03-26T09:05:32.281Z</time>
      </trkpt>
      <trkpt lat="43.72023" lon="3.55356">
        <ele>73</ele>
        <time>2019-03-26T09:05:36.314Z</time>
      </trkpt>
      <trkpt lat="43.72029" lon="3.55358">
        <ele>73</ele>
        <time>2019-03-26T09:05:41.285Z</time>
      </trkpt>
      <trkpt lat="43.72035" lon="3.55359">
        <ele>73</ele>
        <time>2019-03-26T09:05:46.317Z</time>
      </trkpt>
      <trkpt lat="43.72041" lon="3.55359">
        <ele>73</ele>
        <time>2019-03-26T09:05:51.280Z</time>
      </trkpt>
      <trkpt lat="43.72047" lon="3.55358">
        <ele>69</ele>
        <time>2019-03-26T09:05:56.281Z</time>
      </trkpt>
      <trkpt lat="43.72054" lon="3.55356">
        <ele>69</ele>
        <time>2019-03-26T09:06:01.282Z</time>
      </trkpt>
      <trkpt lat="43.72063" lon="3.55352">
        <ele>69</ele>
        <time>2019-03-26T09:06:06.285Z</time>
      </trkpt>
      <trkpt lat="43.72071" lon="3.55352">
        <ele>65</ele>
        <time>2019-03-26T09:06:11.286Z</time>
      </trkpt>
      <trkpt lat="43.72079" lon="3.55352">
        <ele>65</ele>
        <time>2019-03-26T09:06:16.283Z</time>
      </trkpt>
      <trkpt lat="43.72087" lon="3.55348">
        <ele>65</ele>
        <time>2019-03-26T09:06:21.278Z</time>
      </trkpt>
      <trkpt lat="43.72096" lon="3.55342">
        <ele>69</ele>
        <time>2019-03-26T09:06:26.310Z</time>
      </trkpt>
      <trkpt lat="43.72104" lon="3.55339">
        <ele>71</ele>
        <time>2019-03-26T09:06:31.284Z</time>
      </trkpt>
      <trkpt lat="43.72108" lon="3.55338">
        <ele>71</ele>
        <time>2019-03-26T09:06:35.299Z</time>
      </trkpt>
      <trkpt lat="43.72113" lon="3.55337">
        <ele>71</ele>
        <time>2019-03-26T09:06:40.283Z</time>
      </trkpt>
      <trkpt lat="43.72119" lon="3.55337">
        <ele>71</ele>
        <time>2019-03-26T09:06:45.314Z</time>
      </trkpt>
      <trkpt lat="43.72124" lon="3.55336">
        <ele>71</ele>
        <time>2019-03-26T09:06:50.291Z</time>
      </trkpt>
      <trkpt lat="43.72129" lon="3.55335">
        <ele>69</ele>
        <time>2019-03-26T09:06:55.292Z</time>
      </trkpt>
      <trkpt lat="43.72134" lon="3.55334">
        <ele>69</ele>
        <time>2019-03-26T09:06:59.285Z</time>
      </trkpt>
      <trkpt lat="43.7214" lon="3.55332">
        <ele>69</ele>
        <time>2019-03-26T09:07:04.288Z</time>
      </trkpt>
      <trkpt lat="43.72145" lon="3.55328">
        <ele>69</ele>
        <time>2019-03-26T09:07:09.290Z</time>
      </trkpt>
      <trkpt lat="43.72149" lon="3.55327">
        <ele>69</ele>
        <time>2019-03-26T09:07:13.310Z</time>
      </trkpt>
      <trkpt lat="43.72155" lon="3.55325">
        <ele>66</ele>
        <time>2019-03-26T09:07:18.289Z</time>
      </trkpt>
      <trkpt lat="43.72161" lon="3.5532">
        <ele>66</ele>
        <time>2019-03-26T09:07:23.283Z</time>
      </trkpt>
      <trkpt lat="43.72165" lon="3.55319">
        <ele>76</ele>
        <time>2019-03-26T09:07:27.284Z</time>
      </trkpt>
      <trkpt lat="43.7217" lon="3.55316">
        <ele>76</ele>
        <time>2019-03-26T09:07:31.308Z</time>
      </trkpt>
      <trkpt lat="43.72176" lon="3.55312">
        <ele>76</ele>
        <time>2019-03-26T09:07:36.285Z</time>
      </trkpt>
      <trkpt lat="43.72182" lon="3.55309">
        <ele>73</ele>
        <time>2019-03-26T09:07:41.279Z</time>
      </trkpt>
      <trkpt lat="43.7219" lon="3.55307">
        <ele>73</ele>
        <time>2019-03-26T09:07:46.282Z</time>
      </trkpt>
      <trkpt lat="43.72195" lon="3.55305">
        <ele>73</ele>
        <time>2019-03-26T09:07:50.319Z</time>
      </trkpt>
      <trkpt lat="43.72203" lon="3.55303">
        <ele>73</ele>
        <time>2019-03-26T09:07:55.280Z</time>
      </trkpt>
      <trkpt lat="43.72208" lon="3.55301">
        <ele>73</ele>
        <time>2019-03-26T09:07:59.285Z</time>
      </trkpt>
      <trkpt lat="43.72215" lon="3.55301">
        <ele>68</ele>
        <time>2019-03-26T09:08:04.281Z</time>
      </trkpt>
      <trkpt lat="43.72222" lon="3.553">
        <ele>68</ele>
        <time>2019-03-26T09:08:09.316Z</time>
      </trkpt>
      <trkpt lat="43.72229" lon="3.553">
        <ele>68</ele>
        <time>2019-03-26T09:08:14.281Z</time>
      </trkpt>
      <trkpt lat="43.72236" lon="3.55297">
        <ele>68</ele>
        <time>2019-03-26T09:08:19.284Z</time>
      </trkpt>
      <trkpt lat="43.72241" lon="3.55296">
        <ele>61</ele>
        <time>2019-03-26T09:08:24.284Z</time>
      </trkpt>
      <trkpt lat="43.72247" lon="3.55295">
        <ele>61</ele>
        <time>2019-03-26T09:08:29.297Z</time>
      </trkpt>
      <trkpt lat="43.72253" lon="3.55295">
        <ele>61</ele>
        <time>2019-03-26T09:08:34.282Z</time>
      </trkpt>
      <trkpt lat="43.7226" lon="3.55293">
        <ele>61</ele>
        <time>2019-03-26T09:08:39.273Z</time>
      </trkpt>
      <trkpt lat="43.72267" lon="3.55291">
        <ele>68</ele>
        <time>2019-03-26T09:08:44.288Z</time>
      </trkpt>
      <trkpt lat="43.72273" lon="3.55288">
        <ele>68</ele>
        <time>2019-03-26T09:08:49.278Z</time>
      </trkpt>
      <trkpt lat="43.7228" lon="3.55285">
        <ele>68</ele>
        <time>2019-03-26T09:08:54.289Z</time>
      </trkpt>
      <trkpt lat="43.72285" lon="3.55282">
        <ele>68</ele>
        <time>2019-03-26T09:08:59.289Z</time>
      </trkpt>
      <trkpt lat="43.72289" lon="3.5528">
        <ele>68</ele>
        <time>2019-03-26T09:09:03.286Z</time>
      </trkpt>
      <trkpt lat="43.72295" lon="3.5528">
        <ele>64</ele>
        <time>2019-03-26T09:09:08.287Z</time>
      </trkpt>
      <trkpt lat="43.723" lon="3.55277">
        <ele>64</ele>
        <time>2019-03-26T09:09:13.284Z</time>
      </trkpt>
      <trkpt lat="43.72304" lon="3.55274">
        <ele>64</ele>
        <time>2019-03-26T09:09:18.285Z</time>
      </trkpt>
      <trkpt lat="43.7231" lon="3.55269">
        <ele>64</ele>
        <time>2019-03-26T09:09:23.305Z</time>
      </trkpt>
      <trkpt lat="43.72315" lon="3.55263">
        <ele>71</ele>
        <time>2019-03-26T09:09:28.282Z</time>
      </trkpt>
      <trkpt lat="43.72319" lon="3.5526">
        <ele>71</ele>
        <time>2019-03-26T09:09:32.300Z</time>
      </trkpt>
      <trkpt lat="43.72324" lon="3.55256">
        <ele>63</ele>
        <time>2019-03-26T09:09:37.284Z</time>
      </trkpt>
      <trkpt lat="43.72329" lon="3.55251">
        <ele>63</ele>
        <time>2019-03-26T09:09:42.319Z</time>
      </trkpt>
      <trkpt lat="43.72333" lon="3.55246">
        <ele>63</ele>
        <time>2019-03-26T09:09:47.282Z</time>
      </trkpt>
      <trkpt lat="43.72337" lon="3.55239">
        <ele>63</ele>
        <time>2019-03-26T09:09:52.264Z</time>
      </trkpt>
      <trkpt lat="43.7234" lon="3.55233">
        <ele>66</ele>
        <time>2019-03-26T09:09:56.284Z</time>
      </trkpt>
      <trkpt lat="43.72342" lon="3.55224">
        <ele>66</ele>
        <time>2019-03-26T09:10:01.294Z</time>
      </trkpt>
      <trkpt lat="43.72346" lon="3.55214">
        <ele>66</ele>
        <time>2019-03-26T09:10:06.280Z</time>
      </trkpt>
      <trkpt lat="43.72351" lon="3.55205">
        <ele>64</ele>
        <time>2019-03-26T09:10:11.272Z</time>
      </trkpt>
      <trkpt lat="43.72354" lon="3.55198">
        <ele>64</ele>
        <time>2019-03-26T09:10:15.314Z</time>
      </trkpt>
      <trkpt lat="43.72356" lon="3.55192">
        <ele>64</ele>
        <time>2019-03-26T09:10:20.291Z</time>
      </trkpt>
      <trkpt lat="43.72357" lon="3.55184">
        <ele>64</ele>
        <time>2019-03-26T09:10:25.288Z</time>
      </trkpt>
      <trkpt lat="43.72359" lon="3.55177">
        <ele>67</ele>
        <time>2019-03-26T09:10:30.285Z</time>
      </trkpt>
      <trkpt lat="43.72363" lon="3.55171">
        <ele>67</ele>
        <time>2019-03-26T09:10:35.287Z</time>
      </trkpt>
      <trkpt lat="43.72366" lon="3.55166">
        <ele>67</ele>
        <time>2019-03-26T09:10:40.303Z</time>
      </trkpt>
      <trkpt lat="43.72369" lon="3.55158">
        <ele>67</ele>
        <time>2019-03-26T09:10:45.324Z</time>
      </trkpt>
      <trkpt lat="43.7237" lon="3.5515">
        <ele>70</ele>
        <time>2019-03-26T09:10:50.311Z</time>
      </trkpt>
      <trkpt lat="43.72373" lon="3.55143">
        <ele>70</ele>
        <time>2019-03-26T09:10:55.313Z</time>
      </trkpt>
      <trkpt lat="43.72377" lon="3.55136">
        <ele>64</ele>
        <time>2019-03-26T09:11:00.259Z</time>
      </trkpt>
      <trkpt lat="43.72378" lon="3.55132">
        <ele>64</ele>
        <time>2019-03-26T09:11:04.262Z</time>
      </trkpt>
      <trkpt lat="43.72381" lon="3.55127">
        <ele>64</ele>
        <time>2019-03-26T09:11:13.284Z</time>
      </trkpt>
      <trkpt lat="43.72383" lon="3.55127">
        <ele>64</ele>
        <time>2019-03-26T09:11:18.279Z</time>
      </trkpt>
      <trkpt lat="43.72385" lon="3.55129">
        <ele>64</ele>
        <time>2019-03-26T09:11:22.285Z</time>
      </trkpt>
      <trkpt lat="43.72389" lon="3.55127">
        <ele>64</ele>
        <time>2019-03-26T09:11:26.314Z</time>
      </trkpt>
      <trkpt lat="43.72393" lon="3.55121">
        <ele>68</ele>
        <time>2019-03-26T09:11:31.281Z</time>
      </trkpt>
      <trkpt lat="43.72398" lon="3.55117">
        <ele>68</ele>
        <time>2019-03-26T09:11:36.279Z</time>
      </trkpt>
      <trkpt lat="43.72403" lon="3.55114">
        <ele>68</ele>
        <time>2019-03-26T09:11:41.288Z</time>
      </trkpt>
      <trkpt lat="43.72407" lon="3.55108">
        <ele>61</ele>
        <time>2019-03-26T09:11:46.283Z</time>
      </trkpt>
      <trkpt lat="43.72411" lon="3.55101">
        <ele>61</ele>
        <time>2019-03-26T09:11:51.284Z</time>
      </trkpt>
      <trkpt lat="43.72414" lon="3.55096">
        <ele>64</ele>
        <time>2019-03-26T09:11:56.279Z</time>
      </trkpt>
      <trkpt lat="43.72416" lon="3.55094">
        <ele>64</ele>
        <time>2019-03-26T09:12:00.291Z</time>
      </trkpt>
      <trkpt lat="43.72423" lon="3.55088">
        <ele>64</ele>
        <time>2019-03-26T09:12:05.281Z</time>
      </trkpt>
      <trkpt lat="43.72427" lon="3.55084">
        <ele>64</ele>
        <time>2019-03-26T09:12:10.283Z</time>
      </trkpt>
      <trkpt lat="43.7243" lon="3.55078">
        <ele>64</ele>
        <time>2019-03-26T09:12:15.311Z</time>
      </trkpt>
      <trkpt lat="43.72434" lon="3.55072">
        <ele>61</ele>
        <time>2019-03-26T09:12:20.297Z</time>
      </trkpt>
      <trkpt lat="43.72439" lon="3.55069">
        <ele>65</ele>
        <time>2019-03-26T09:12:25.294Z</time>
      </trkpt>
      <trkpt lat="43.72444" lon="3.55066">
        <ele>65</ele>
        <time>2019-03-26T09:12:30.283Z</time>
      </trkpt>
      <trkpt lat="43.7245" lon="3.55061">
        <ele>65</ele>
        <time>2019-03-26T09:12:35.288Z</time>
      </trkpt>
      <trkpt lat="43.72455" lon="3.55057">
        <ele>65</ele>
        <time>2019-03-26T09:12:40.262Z</time>
      </trkpt>
      <trkpt lat="43.72459" lon="3.55055">
        <ele>67</ele>
        <time>2019-03-26T09:12:44.276Z</time>
      </trkpt>
      <trkpt lat="43.72464" lon="3.55052">
        <ele>67</ele>
        <time>2019-03-26T09:12:49.285Z</time>
      </trkpt>
      <trkpt lat="43.72467" lon="3.55048">
        <ele>67</ele>
        <time>2019-03-26T09:12:54.277Z</time>
      </trkpt>
      <trkpt lat="43.72472" lon="3.55047">
        <ele>67</ele>
        <time>2019-03-26T09:12:58.310Z</time>
      </trkpt>
      <trkpt lat="43.72477" lon="3.55048">
        <ele>67</ele>
        <time>2019-03-26T09:13:03.277Z</time>
      </trkpt>
      <trkpt lat="43.72482" lon="3.55049">
        <ele>67</ele>
        <time>2019-03-26T09:13:07.290Z</time>
      </trkpt>
      <trkpt lat="43.72487" lon="3.5505">
        <ele>66</ele>
        <time>2019-03-26T09:13:11.296Z</time>
      </trkpt>
      <trkpt lat="43.72494" lon="3.55052">
        <ele>66</ele>
        <time>2019-03-26T09:13:16.265Z</time>
      </trkpt>
      <trkpt lat="43.72498" lon="3.55053">
        <ele>66</ele>
        <time>2019-03-26T09:13:20.310Z</time>
      </trkpt>
      <trkpt lat="43.72504" lon="3.55052">
        <ele>66</ele>
        <time>2019-03-26T09:13:25.310Z</time>
      </trkpt>
      <trkpt lat="43.72511" lon="3.55051">
        <ele>66</ele>
        <time>2019-03-26T09:13:30.281Z</time>
      </trkpt>
      <trkpt lat="43.72517" lon="3.55051">
        <ele>61</ele>
        <time>2019-03-26T09:13:34.284Z</time>
      </trkpt>
      <trkpt lat="43.72524" lon="3.55049">
        <ele>61</ele>
        <time>2019-03-26T09:13:39.282Z</time>
      </trkpt>
      <trkpt lat="43.7253" lon="3.55049">
        <ele>61</ele>
        <time>2019-03-26T09:13:44.283Z</time>
      </trkpt>
      <trkpt lat="43.72536" lon="3.55046">
        <ele>61</ele>
        <time>2019-03-26T09:13:49.277Z</time>
      </trkpt>
      <trkpt lat="43.7254" lon="3.55043">
        <ele>61</ele>
        <time>2019-03-26T09:13:53.307Z</time>
      </trkpt>
      <trkpt lat="43.72546" lon="3.55042">
        <ele>64</ele>
        <time>2019-03-26T09:13:57.313Z</time>
      </trkpt>
      <trkpt lat="43.72551" lon="3.55039">
        <ele>64</ele>
        <time>2019-03-26T09:14:01.322Z</time>
      </trkpt>
      <trkpt lat="43.72556" lon="3.55039">
        <ele>64</ele>
        <time>2019-03-26T09:14:06.284Z</time>
      </trkpt>
      <trkpt lat="43.7256" lon="3.55038">
        <ele>64</ele>
        <time>2019-03-26T09:14:10.328Z</time>
      </trkpt>
      <trkpt lat="43.72565" lon="3.55038">
        <ele>64</ele>
        <time>2019-03-26T09:14:15.280Z</time>
      </trkpt>
      <trkpt lat="43.7257" lon="3.55038">
        <ele>62</ele>
        <time>2019-03-26T09:14:20.311Z</time>
      </trkpt>
      <trkpt lat="43.72575" lon="3.55037">
        <ele>62</ele>
        <time>2019-03-26T09:14:25.288Z</time>
      </trkpt>
      <trkpt lat="43.7258" lon="3.55034">
        <ele>62</ele>
        <time>2019-03-26T09:14:30.302Z</time>
      </trkpt>
      <trkpt lat="43.72584" lon="3.55032">
        <ele>62</ele>
        <time>2019-03-26T09:14:35.277Z</time>
      </trkpt>
      <trkpt lat="43.72589" lon="3.55031">
        <ele>62</ele>
        <time>2019-03-26T09:14:39.284Z</time>
      </trkpt>
      <trkpt lat="43.72594" lon="3.55033">
        <ele>62</ele>
        <time>2019-03-26T09:14:44.284Z</time>
      </trkpt>
      <trkpt lat="43.72598" lon="3.55036">
        <ele>61</ele>
        <time>2019-03-26T09:14:49.285Z</time>
      </trkpt>
      <trkpt lat="43.72605" lon="3.55035">
        <ele>61</ele>
        <time>2019-03-26T09:14:54.283Z</time>
      </trkpt>
      <trkpt lat="43.7261" lon="3.55035">
        <ele>61</ele>
        <time>2019-03-26T09:14:58.287Z</time>
      </trkpt>
      <trkpt lat="43.72615" lon="3.55031">
        <ele>61</ele>
        <time>2019-03-26T09:15:03.310Z</time>
      </trkpt>
      <trkpt lat="43.72621" lon="3.55029">
        <ele>61</ele>
        <time>2019-03-26T09:15:08.283Z</time>
      </trkpt>
      <trkpt lat="43.72627" lon="3.55027">
        <ele>61</ele>
        <time>2019-03-26T09:15:13.286Z</time>
      </trkpt>
      <trkpt lat="43.7263" lon="3.55026">
        <ele>61</ele>
        <time>2019-03-26T09:15:18.284Z</time>
      </trkpt>
      <trkpt lat="43.72631" lon="3.55025">
        <ele>61</ele>
        <time>2019-03-26T09:15:28.268Z</time>
      </trkpt>
      <trkpt lat="43.72637" lon="3.55024">
        <ele>61</ele>
        <time>2019-03-26T09:15:32.295Z</time>
      </trkpt>
      <trkpt lat="43.72645" lon="3.55022">
        <ele>61</ele>
        <time>2019-03-26T09:15:37.267Z</time>
      </trkpt>
      <trkpt lat="43.72647" lon="3.55022">
        <ele>61</ele>
        <time>2019-03-26T09:15:42.272Z</time>
      </trkpt>
      <trkpt lat="43.72648" lon="3.55022">
        <ele>61</ele>
        <time>2019-03-26T09:15:47.263Z</time>
      </trkpt>
      <trkpt lat="43.72655" lon="3.55022">
        <ele>66</ele>
        <time>2019-03-26T09:15:52.261Z</time>
      </trkpt>
      <trkpt lat="43.7266" lon="3.55021">
        <ele>66</ele>
        <time>2019-03-26T09:15:57.263Z</time>
      </trkpt>
      <trkpt lat="43.72664" lon="3.55021">
        <ele>66</ele>
        <time>2019-03-26T09:16:01.282Z</time>
      </trkpt>
      <trkpt lat="43.72667" lon="3.55023">
        <ele>66</ele>
        <time>2019-03-26T09:16:06.307Z</time>
      </trkpt>
      <trkpt lat="43.72672" lon="3.55026">
        <ele>66</ele>
        <time>2019-03-26T09:16:11.285Z</time>
      </trkpt>
      <trkpt lat="43.72677" lon="3.55026">
        <ele>66</ele>
        <time>2019-03-26T09:16:16.284Z</time>
      </trkpt>
      <trkpt lat="43.72681" lon="3.55028">
        <ele>75</ele>
        <time>2019-03-26T09:16:21.279Z</time>
      </trkpt>
      <trkpt lat="43.72686" lon="3.55031">
        <ele>75</ele>
        <time>2019-03-26T09:16:26.287Z</time>
      </trkpt>
      <trkpt lat="43.7269" lon="3.55034">
        <ele>75</ele>
        <time>2019-03-26T09:16:31.291Z</time>
      </trkpt>
      <trkpt lat="43.72696" lon="3.55037">
        <ele>75</ele>
        <time>2019-03-26T09:16:36.286Z</time>
      </trkpt>
      <trkpt lat="43.72701" lon="3.55042">
        <ele>75</ele>
        <time>2019-03-26T09:16:41.311Z</time>
      </trkpt>
      <trkpt lat="43.72706" lon="3.55047">
        <ele>62</ele>
        <time>2019-03-26T09:16:46.282Z</time>
      </trkpt>
      <trkpt lat="43.72709" lon="3.55054">
        <ele>67</ele>
        <time>2019-03-26T09:16:50.287Z</time>
      </trkpt>
      <trkpt lat="43.72714" lon="3.55056">
        <ele>67</ele>
        <time>2019-03-26T09:16:55.287Z</time>
      </trkpt>
      <trkpt lat="43.7272" lon="3.55059">
        <ele>67</ele>
        <time>2019-03-26T09:17:00.283Z</time>
      </trkpt>
      <trkpt lat="43.72726" lon="3.55061">
        <ele>67</ele>
        <time>2019-03-26T09:17:05.286Z</time>
      </trkpt>
      <trkpt lat="43.72733" lon="3.55061">
        <ele>67</ele>
        <time>2019-03-26T09:17:10.293Z</time>
      </trkpt>
      <trkpt lat="43.72739" lon="3.55063">
        <ele>72</ele>
        <time>2019-03-26T09:17:15.285Z</time>
      </trkpt>
      <trkpt lat="43.72745" lon="3.55067">
        <ele>72</ele>
        <time>2019-03-26T09:17:20.283Z</time>
      </trkpt>
      <trkpt lat="43.72749" lon="3.55071">
        <ele>66</ele>
        <time>2019-03-26T09:17:24.302Z</time>
      </trkpt>
      <trkpt lat="43.72753" lon="3.55072">
        <ele>66</ele>
        <time>2019-03-26T09:17:28.320Z</time>
      </trkpt>
      <trkpt lat="43.72757" lon="3.55074">
        <ele>66</ele>
        <time>2019-03-26T09:17:33.275Z</time>
      </trkpt>
      <trkpt lat="43.72762" lon="3.55076">
        <ele>66</ele>
        <time>2019-03-26T09:17:37.284Z</time>
      </trkpt>
      <trkpt lat="43.72767" lon="3.55079">
        <ele>69</ele>
        <time>2019-03-26T09:17:42.283Z</time>
      </trkpt>
      <trkpt lat="43.7277" lon="3.55082">
        <ele>69</ele>
        <time>2019-03-26T09:17:46.282Z</time>
      </trkpt>
      <trkpt lat="43.72774" lon="3.55086">
        <ele>69</ele>
        <time>2019-03-26T09:17:50.333Z</time>
      </trkpt>
      <trkpt lat="43.7278" lon="3.5509">
        <ele>69</ele>
        <time>2019-03-26T09:17:55.321Z</time>
      </trkpt>
      <trkpt lat="43.72786" lon="3.55093">
        <ele>69</ele>
        <time>2019-03-26T09:18:00.283Z</time>
      </trkpt>
      <trkpt lat="43.72791" lon="3.55097">
        <ele>69</ele>
        <time>2019-03-26T09:18:04.287Z</time>
      </trkpt>
      <trkpt lat="43.72795" lon="3.55104">
        <ele>71</ele>
        <time>2019-03-26T09:18:09.293Z</time>
      </trkpt>
      <trkpt lat="43.72798" lon="3.55115">
        <ele>71</ele>
        <time>2019-03-26T09:18:14.317Z</time>
      </trkpt>
      <trkpt lat="43.72798" lon="3.55116">
        <ele>71</ele>
        <time>2019-03-26T09:18:19.270Z</time>
      </trkpt>
      <trkpt lat="43.728" lon="3.55112">
        <ele>71</ele>
        <time>2019-03-26T09:18:29.267Z</time>
      </trkpt>
      <trkpt lat="43.72802" lon="3.55108">
        <ele>71</ele>
        <time>2019-03-26T09:18:34.265Z</time>
      </trkpt>
      <trkpt lat="43.72804" lon="3.55108">
        <ele>71</ele>
        <time>2019-03-26T09:18:39.261Z</time>
      </trkpt>
      <trkpt lat="43.72813" lon="3.55105">
        <ele>71</ele>
        <time>2019-03-26T09:18:43.262Z</time>
      </trkpt>
      <trkpt lat="43.72817" lon="3.55106">
        <ele>71</ele>
        <time>2019-03-26T09:18:57.276Z</time>
      </trkpt>
      <trkpt lat="43.72824" lon="3.5511">
        <ele>79</ele>
        <time>2019-03-26T09:19:02.310Z</time>
      </trkpt>
      <trkpt lat="43.72828" lon="3.55111">
        <ele>79</ele>
        <time>2019-03-26T09:19:07.265Z</time>
      </trkpt>
      <trkpt lat="43.72829" lon="3.55111">
        <ele>79</ele>
        <time>2019-03-26T09:19:11.266Z</time>
      </trkpt>
      <trkpt lat="43.7283" lon="3.55111">
        <ele>79</ele>
        <time>2019-03-26T09:19:21.263Z</time>
      </trkpt>
      <trkpt lat="43.7283" lon="3.55112">
        <ele>79</ele>
        <time>2019-03-26T09:19:26.274Z</time>
      </trkpt>
      <trkpt lat="43.72836" lon="3.55114">
        <ele>79</ele>
        <time>2019-03-26T09:19:31.269Z</time>
      </trkpt>
      <trkpt lat="43.72839" lon="3.55117">
        <ele>79</ele>
        <time>2019-03-26T09:19:35.273Z</time>
      </trkpt>
      <trkpt lat="43.72843" lon="3.55123">
        <ele>79</ele>
        <time>2019-03-26T09:19:40.283Z</time>
      </trkpt>
      <trkpt lat="43.72846" lon="3.55127">
        <ele>70</ele>
        <time>2019-03-26T09:19:44.314Z</time>
      </trkpt>
      <trkpt lat="43.7285" lon="3.55133">
        <ele>77</ele>
        <time>2019-03-26T09:19:49.281Z</time>
      </trkpt>
      <trkpt lat="43.72855" lon="3.55138">
        <ele>77</ele>
        <time>2019-03-26T09:19:54.319Z</time>
      </trkpt>
      <trkpt lat="43.72859" lon="3.55144">
        <ele>77</ele>
        <time>2019-03-26T09:19:59.310Z</time>
      </trkpt>
      <trkpt lat="43.72862" lon="3.5515">
        <ele>77</ele>
        <time>2019-03-26T09:20:04.302Z</time>
      </trkpt>
      <trkpt lat="43.72866" lon="3.55153">
        <ele>77</ele>
        <time>2019-03-26T09:20:09.291Z</time>
      </trkpt>
      <trkpt lat="43.72867" lon="3.55157">
        <ele>69</ele>
        <time>2019-03-26T09:20:14.318Z</time>
      </trkpt>
      <trkpt lat="43.72872" lon="3.55163">
        <ele>69</ele>
        <time>2019-03-26T09:20:19.291Z</time>
      </trkpt>
      <trkpt lat="43.72876" lon="3.5517">
        <ele>77</ele>
        <time>2019-03-26T09:20:24.291Z</time>
      </trkpt>
      <trkpt lat="43.72878" lon="3.55174">
        <ele>77</ele>
        <time>2019-03-26T09:20:29.281Z</time>
      </trkpt>
      <trkpt lat="43.72879" lon="3.55176">
        <ele>77</ele>
        <time>2019-03-26T09:20:33.289Z</time>
      </trkpt>
      <trkpt lat="43.72885" lon="3.55179">
        <ele>77</ele>
        <time>2019-03-26T09:20:53.264Z</time>
      </trkpt>
      <trkpt lat="43.7289" lon="3.55182">
        <ele>69</ele>
        <time>2019-03-26T09:20:57.281Z</time>
      </trkpt>
      <trkpt lat="43.72893" lon="3.55188">
        <ele>69</ele>
        <time>2019-03-26T09:21:01.290Z</time>
      </trkpt>
      <trkpt lat="43.72897" lon="3.5519">
        <ele>69</ele>
        <time>2019-03-26T09:21:05.296Z</time>
      </trkpt>
      <trkpt lat="43.72897" lon="3.55191">
        <ele>69</ele>
        <time>2019-03-26T09:21:10.279Z</time>
      </trkpt>
      <trkpt lat="43.72903" lon="3.55191">
        <ele>69</ele>
        <time>2019-03-26T09:21:33.296Z</time>
      </trkpt>
      <trkpt lat="43.72911" lon="3.55193">
        <ele>75</ele>
        <time>2019-03-26T09:21:38.315Z</time>
      </trkpt>
      <trkpt lat="43.72916" lon="3.55194">
        <ele>75</ele>
        <time>2019-03-26T09:21:43.287Z</time>
      </trkpt>
      <trkpt lat="43.72919" lon="3.55198">
        <ele>75</ele>
        <time>2019-03-26T09:21:48.279Z</time>
      </trkpt>
      <trkpt lat="43.72922" lon="3.55202">
        <ele>75</ele>
        <time>2019-03-26T09:21:53.276Z</time>
      </trkpt>
      <trkpt lat="43.72925" lon="3.55205">
        <ele>75</ele>
        <time>2019-03-26T09:21:57.287Z</time>
      </trkpt>
      <trkpt lat="43.72929" lon="3.55209">
        <ele>70</ele>
        <time>2019-03-26T09:22:02.289Z</time>
      </trkpt>
      <trkpt lat="43.7293" lon="3.55212">
        <ele>70</ele>
        <time>2019-03-26T09:22:06.288Z</time>
      </trkpt>
      <trkpt lat="43.72931" lon="3.55213">
        <ele>73</ele>
        <time>2019-03-26T09:22:11.282Z</time>
      </trkpt>
      <trkpt lat="43.72938" lon="3.55218">
        <ele>73</ele>
        <time>2019-03-26T09:22:16.279Z</time>
      </trkpt>
      <trkpt lat="43.72944" lon="3.55222">
        <ele>73</ele>
        <time>2019-03-26T09:22:20.303Z</time>
      </trkpt>
      <trkpt lat="43.72948" lon="3.55227">
        <ele>73</ele>
        <time>2019-03-26T09:22:25.279Z</time>
      </trkpt>
      <trkpt lat="43.72951" lon="3.55229">
        <ele>73</ele>
        <time>2019-03-26T09:22:30.287Z</time>
      </trkpt>
      <trkpt lat="43.72955" lon="3.55235">
        <ele>73</ele>
        <time>2019-03-26T09:22:35.309Z</time>
      </trkpt>
      <trkpt lat="43.7296" lon="3.55242">
        <ele>74</ele>
        <time>2019-03-26T09:22:40.286Z</time>
      </trkpt>
      <trkpt lat="43.72965" lon="3.55248">
        <ele>74</ele>
        <time>2019-03-26T09:22:44.320Z</time>
      </trkpt>
      <trkpt lat="43.72971" lon="3.55257">
        <ele>74</ele>
        <time>2019-03-26T09:22:49.293Z</time>
      </trkpt>
      <trkpt lat="43.72973" lon="3.55261">
        <ele>74</ele>
        <time>2019-03-26T09:22:54.281Z</time>
      </trkpt>
      <trkpt lat="43.72977" lon="3.55266">
        <ele>68</ele>
        <time>2019-03-26T09:22:58.287Z</time>
      </trkpt>
      <trkpt lat="43.72982" lon="3.5527">
        <ele>68</ele>
        <time>2019-03-26T09:23:02.311Z</time>
      </trkpt>
      <trkpt lat="43.72987" lon="3.55273">
        <ele>73</ele>
        <time>2019-03-26T09:23:07.288Z</time>
      </trkpt>
      <trkpt lat="43.72992" lon="3.55276">
        <ele>73</ele>
        <time>2019-03-26T09:23:12.287Z</time>
      </trkpt>
      <trkpt lat="43.72996" lon="3.55278">
        <ele>73</ele>
        <time>2019-03-26T09:23:17.280Z</time>
      </trkpt>
      <trkpt lat="43.73002" lon="3.55282">
        <ele>73</ele>
        <time>2019-03-26T09:23:22.274Z</time>
      </trkpt>
      <trkpt lat="43.73004" lon="3.55283">
        <ele>73</ele>
        <time>2019-03-26T09:23:27.288Z</time>
      </trkpt>
      <trkpt lat="43.73009" lon="3.55287">
        <ele>73</ele>
        <time>2019-03-26T09:23:32.284Z</time>
      </trkpt>
      <trkpt lat="43.73015" lon="3.55289">
        <ele>74</ele>
        <time>2019-03-26T09:23:37.288Z</time>
      </trkpt>
      <trkpt lat="43.73022" lon="3.55289">
        <ele>74</ele>
        <time>2019-03-26T09:23:42.289Z</time>
      </trkpt>
      <trkpt lat="43.73028" lon="3.55291">
        <ele>74</ele>
        <time>2019-03-26T09:23:47.281Z</time>
      </trkpt>
      <trkpt lat="43.73034" lon="3.55294">
        <ele>68</ele>
        <time>2019-03-26T09:23:52.284Z</time>
      </trkpt>
      <trkpt lat="43.7304" lon="3.55298">
        <ele>68</ele>
        <time>2019-03-26T09:23:57.313Z</time>
      </trkpt>
      <trkpt lat="43.73048" lon="3.55299">
        <ele>68</ele>
        <time>2019-03-26T09:24:02.296Z</time>
      </trkpt>
      <trkpt lat="43.73054" lon="3.55302">
        <ele>68</ele>
        <time>2019-03-26T09:24:07.290Z</time>
      </trkpt>
      <trkpt lat="43.7306" lon="3.55307">
        <ele>68</ele>
        <time>2019-03-26T09:24:12.288Z</time>
      </trkpt>
      <trkpt lat="43.73066" lon="3.55312">
        <ele>68</ele>
        <time>2019-03-26T09:24:17.288Z</time>
      </trkpt>
      <trkpt lat="43.7307" lon="3.55315">
        <ele>75</ele>
        <time>2019-03-26T09:24:22.289Z</time>
      </trkpt>
      <trkpt lat="43.73074" lon="3.55317">
        <ele>75</ele>
        <time>2019-03-26T09:24:26.311Z</time>
      </trkpt>
      <trkpt lat="43.7308" lon="3.5532">
        <ele>67</ele>
        <time>2019-03-26T09:24:31.279Z</time>
      </trkpt>
      <trkpt lat="43.73086" lon="3.55323">
        <ele>67</ele>
        <time>2019-03-26T09:24:36.288Z</time>
      </trkpt>
      <trkpt lat="43.73093" lon="3.55329">
        <ele>67</ele>
        <time>2019-03-26T09:24:41.286Z</time>
      </trkpt>
      <trkpt lat="43.73099" lon="3.55331">
        <ele>72</ele>
        <time>2019-03-26T09:24:46.281Z</time>
      </trkpt>
      <trkpt lat="43.73106" lon="3.55331">
        <ele>72</ele>
        <time>2019-03-26T09:24:50.318Z</time>
      </trkpt>
      <trkpt lat="43.73112" lon="3.5533">
        <ele>72</ele>
        <time>2019-03-26T09:24:55.284Z</time>
      </trkpt>
      <trkpt lat="43.73119" lon="3.55328">
        <ele>72</ele>
        <time>2019-03-26T09:25:00.317Z</time>
      </trkpt>
      <trkpt lat="43.73126" lon="3.5533">
        <ele>74</ele>
        <time>2019-03-26T09:25:05.314Z</time>
      </trkpt>
      <trkpt lat="43.73133" lon="3.55332">
        <ele>74</ele>
        <time>2019-03-26T09:25:10.281Z</time>
      </trkpt>
      <trkpt lat="43.73139" lon="3.55334">
        <ele>74</ele>
        <time>2019-03-26T09:25:15.287Z</time>
      </trkpt>
      <trkpt lat="43.73145" lon="3.55337">
        <ele>74</ele>
        <time>2019-03-26T09:25:20.305Z</time>
      </trkpt>
      <trkpt lat="43.73151" lon="3.5534">
        <ele>74</ele>
        <time>2019-03-26T09:25:25.287Z</time>
      </trkpt>
      <trkpt lat="43.73156" lon="3.5534">
        <ele>78</ele>
        <time>2019-03-26T09:25:30.282Z</time>
      </trkpt>
      <trkpt lat="43.7316" lon="3.55339">
        <ele>78</ele>
        <time>2019-03-26T09:25:35.285Z</time>
      </trkpt>
      <trkpt lat="43.73163" lon="3.55341">
        <ele>78</ele>
        <time>2019-03-26T09:25:39.321Z</time>
      </trkpt>
      <trkpt lat="43.7317" lon="3.55343">
        <ele>78</ele>
        <time>2019-03-26T09:25:44.291Z</time>
      </trkpt>
      <trkpt lat="43.73176" lon="3.55342">
        <ele>78</ele>
        <time>2019-03-26T09:25:49.295Z</time>
      </trkpt>
      <trkpt lat="43.73183" lon="3.55342">
        <ele>82</ele>
        <time>2019-03-26T09:25:54.288Z</time>
      </trkpt>
      <trkpt lat="43.73188" lon="3.55341">
        <ele>82</ele>
        <time>2019-03-26T09:25:59.286Z</time>
      </trkpt>
      <trkpt lat="43.73193" lon="3.55341">
        <ele>82</ele>
        <time>2019-03-26T09:26:04.285Z</time>
      </trkpt>
      <trkpt lat="43.73199" lon="3.55342">
        <ele>82</ele>
        <time>2019-03-26T09:26:09.298Z</time>
      </trkpt>
      <trkpt lat="43.73205" lon="3.55346">
        <ele>82</ele>
        <time>2019-03-26T09:26:14.277Z</time>
      </trkpt>
      <trkpt lat="43.73208" lon="3.55348">
        <ele>75</ele>
        <time>2019-03-26T09:26:18.311Z</time>
      </trkpt>
      <trkpt lat="43.73213" lon="3.5535">
        <ele>78</ele>
        <time>2019-03-26T09:26:23.287Z</time>
      </trkpt>
      <trkpt lat="43.73218" lon="3.55351">
        <ele>78</ele>
        <time>2019-03-26T09:26:27.316Z</time>
      </trkpt>
      <trkpt lat="43.73225" lon="3.55354">
        <ele>78</ele>
        <time>2019-03-26T09:26:32.289Z</time>
      </trkpt>
      <trkpt lat="43.73231" lon="3.55359">
        <ele>78</ele>
        <time>2019-03-26T09:26:37.294Z</time>
      </trkpt>
      <trkpt lat="43.73237" lon="3.55363">
        <ele>82</ele>
        <time>2019-03-26T09:26:42.309Z</time>
      </trkpt>
      <trkpt lat="43.73244" lon="3.55364">
        <ele>82</ele>
        <time>2019-03-26T09:26:47.286Z</time>
      </trkpt>
      <trkpt lat="43.73251" lon="3.55368">
        <ele>82</ele>
        <time>2019-03-26T09:26:52.282Z</time>
      </trkpt>
      <trkpt lat="43.73256" lon="3.55369">
        <ele>82</ele>
        <time>2019-03-26T09:26:57.283Z</time>
      </trkpt>
      <trkpt lat="43.73262" lon="3.55373">
        <ele>82</ele>
        <time>2019-03-26T09:27:02.285Z</time>
      </trkpt>
      <trkpt lat="43.73267" lon="3.55376">
        <ele>81</ele>
        <time>2019-03-26T09:27:07.286Z</time>
      </trkpt>
      <trkpt lat="43.73272" lon="3.55375">
        <ele>84</ele>
        <time>2019-03-26T09:27:11.296Z</time>
      </trkpt>
      <trkpt lat="43.73274" lon="3.55376">
        <ele>81</ele>
        <time>2019-03-26T09:27:16.285Z</time>
      </trkpt>
      <trkpt lat="43.73279" lon="3.55376">
        <ele>81</ele>
        <time>2019-03-26T09:27:21.316Z</time>
      </trkpt>
      <trkpt lat="43.73289" lon="3.55377">
        <ele>81</ele>
        <time>2019-03-26T09:27:26.268Z</time>
      </trkpt>
      <trkpt lat="43.73292" lon="3.55373">
        <ele>86</ele>
        <time>2019-03-26T09:27:30.271Z</time>
      </trkpt>
      <trkpt lat="43.73295" lon="3.55369">
        <ele>86</ele>
        <time>2019-03-26T09:27:35.268Z</time>
      </trkpt>
      <trkpt lat="43.73296" lon="3.55369">
        <ele>86</ele>
        <time>2019-03-26T09:27:44.310Z</time>
      </trkpt>
      <trkpt lat="43.73299" lon="3.55377">
        <ele>82</ele>
        <time>2019-03-26T09:27:49.265Z</time>
      </trkpt>
      <trkpt lat="43.73305" lon="3.55377">
        <ele>82</ele>
        <time>2019-03-26T09:27:54.264Z</time>
      </trkpt>
      <trkpt lat="43.73309" lon="3.55378">
        <ele>82</ele>
        <time>2019-03-26T09:27:59.262Z</time>
      </trkpt>
      <trkpt lat="43.73314" lon="3.55373">
        <ele>86</ele>
        <time>2019-03-26T09:28:04.263Z</time>
      </trkpt>
      <trkpt lat="43.73317" lon="3.5537">
        <ele>86</ele>
        <time>2019-03-26T09:28:08.303Z</time>
      </trkpt>
      <trkpt lat="43.73317" lon="3.55369">
        <ele>86</ele>
        <time>2019-03-26T09:28:13.264Z</time>
      </trkpt>
      <trkpt lat="43.7332" lon="3.55368">
        <ele>87</ele>
        <time>2019-03-26T09:28:27.266Z</time>
      </trkpt>
      <trkpt lat="43.73326" lon="3.55359">
        <ele>87</ele>
        <time>2019-03-26T09:28:31.280Z</time>
      </trkpt>
      <trkpt lat="43.73331" lon="3.55352">
        <ele>87</ele>
        <time>2019-03-26T09:28:35.283Z</time>
      </trkpt>
      <trkpt lat="43.73336" lon="3.55349">
        <ele>87</ele>
        <time>2019-03-26T09:28:39.307Z</time>
      </trkpt>
      <trkpt lat="43.73341" lon="3.55346">
        <ele>89</ele>
        <time>2019-03-26T09:28:44.313Z</time>
      </trkpt>
      <trkpt lat="43.73346" lon="3.5534">
        <ele>89</ele>
        <time>2019-03-26T09:28:49.281Z</time>
      </trkpt>
      <trkpt lat="43.73349" lon="3.55337">
        <ele>93</ele>
        <time>2019-03-26T09:28:54.283Z</time>
      </trkpt>
      <trkpt lat="43.73351" lon="3.55332">
        <ele>93</ele>
        <time>2019-03-26T09:28:59.288Z</time>
      </trkpt>
      <trkpt lat="43.73353" lon="3.55328">
        <ele>93</ele>
        <time>2019-03-26T09:29:03.288Z</time>
      </trkpt>
      <trkpt lat="43.73353" lon="3.55322">
        <ele>93</ele>
        <time>2019-03-26T09:29:08.319Z</time>
      </trkpt>
      <trkpt lat="43.73354" lon="3.55312">
        <ele>93</ele>
        <time>2019-03-26T09:29:13.283Z</time>
      </trkpt>
      <trkpt lat="43.73356" lon="3.55302">
        <ele>93</ele>
        <time>2019-03-26T09:29:18.287Z</time>
      </trkpt>
      <trkpt lat="43.73358" lon="3.55289">
        <ele>93</ele>
        <time>2019-03-26T09:29:23.316Z</time>
      </trkpt>
      <trkpt lat="43.73362" lon="3.55282">
        <ele>93</ele>
        <time>2019-03-26T09:29:28.279Z</time>
      </trkpt>
      <trkpt lat="43.73368" lon="3.55277">
        <ele>93</ele>
        <time>2019-03-26T09:29:32.285Z</time>
      </trkpt>
      <trkpt lat="43.73371" lon="3.55272">
        <ele>93</ele>
        <time>2019-03-26T09:29:36.300Z</time>
      </trkpt>
      <trkpt lat="43.73373" lon="3.55266">
        <ele>93</ele>
        <time>2019-03-26T09:29:41.287Z</time>
      </trkpt>
      <trkpt lat="43.73376" lon="3.55259">
        <ele>96</ele>
        <time>2019-03-26T09:29:46.290Z</time>
      </trkpt>
      <trkpt lat="43.73379" lon="3.55255">
        <ele>96</ele>
        <time>2019-03-26T09:29:51.284Z</time>
      </trkpt>
      <trkpt lat="43.73381" lon="3.55252">
        <ele>96</ele>
        <time>2019-03-26T09:29:55.319Z</time>
      </trkpt>
      <trkpt lat="43.73382" lon="3.55246">
        <ele>96</ele>
        <time>2019-03-26T09:30:00.282Z</time>
      </trkpt>
      <trkpt lat="43.73384" lon="3.55242">
        <ele>96</ele>
        <time>2019-03-26T09:30:04.312Z</time>
      </trkpt>
      <trkpt lat="43.73384" lon="3.55235">
        <ele>96</ele>
        <time>2019-03-26T09:30:09.290Z</time>
      </trkpt>
      <trkpt lat="43.73384" lon="3.55227">
        <ele>96</ele>
        <time>2019-03-26T09:30:14.295Z</time>
      </trkpt>
      <trkpt lat="43.73384" lon="3.55217">
        <ele>96</ele>
        <time>2019-03-26T09:30:19.281Z</time>
      </trkpt>
      <trkpt lat="43.73386" lon="3.55211">
        <ele>96</ele>
        <time>2019-03-26T09:30:24.283Z</time>
      </trkpt>
      <trkpt lat="43.73392" lon="3.55206">
        <ele>96</ele>
        <time>2019-03-26T09:30:29.300Z</time>
      </trkpt>
      <trkpt lat="43.73389" lon="3.55197">
        <ele>96</ele>
        <time>2019-03-26T09:30:34.288Z</time>
      </trkpt>
      <trkpt lat="43.73385" lon="3.55188">
        <ele>96</ele>
        <time>2019-03-26T09:30:39.284Z</time>
      </trkpt>
      <trkpt lat="43.7338" lon="3.55179">
        <ele>97</ele>
        <time>2019-03-26T09:30:44.289Z</time>
      </trkpt>
      <trkpt lat="43.73376" lon="3.55167">
        <ele>97</ele>
        <time>2019-03-26T09:30:49.308Z</time>
      </trkpt>
      <trkpt lat="43.73369" lon="3.55158">
        <ele>93</ele>
        <time>2019-03-26T09:30:54.287Z</time>
      </trkpt>
      <trkpt lat="43.73367" lon="3.55146">
        <ele>94</ele>
        <time>2019-03-26T09:30:59.286Z</time>
      </trkpt>
      <trkpt lat="43.73364" lon="3.5514">
        <ele>94</ele>
        <time>2019-03-26T09:31:04.310Z</time>
      </trkpt>
      <trkpt lat="43.73365" lon="3.55132">
        <ele>94</ele>
        <time>2019-03-26T09:31:09.277Z</time>
      </trkpt>
      <trkpt lat="43.73363" lon="3.55126">
        <ele>94</ele>
        <time>2019-03-26T09:31:13.281Z</time>
      </trkpt>
      <trkpt lat="43.73363" lon="3.55119">
        <ele>95</ele>
        <time>2019-03-26T09:31:17.318Z</time>
      </trkpt>
      <trkpt lat="43.73364" lon="3.55111">
        <ele>95</ele>
        <time>2019-03-26T09:31:22.287Z</time>
      </trkpt>
      <trkpt lat="43.73366" lon="3.55104">
        <ele>95</ele>
        <time>2019-03-26T09:31:26.310Z</time>
      </trkpt>
      <trkpt lat="43.73367" lon="3.55096">
        <ele>97</ele>
        <time>2019-03-26T09:31:31.299Z</time>
      </trkpt>
      <trkpt lat="43.73369" lon="3.5509">
        <ele>97</ele>
        <time>2019-03-26T09:31:36.278Z</time>
      </trkpt>
      <trkpt lat="43.73368" lon="3.55085">
        <ele>97</ele>
        <time>2019-03-26T09:31:40.284Z</time>
      </trkpt>
      <trkpt lat="43.73367" lon="3.55078">
        <ele>97</ele>
        <time>2019-03-26T09:31:45.280Z</time>
      </trkpt>
      <trkpt lat="43.73367" lon="3.55075">
        <ele>97</ele>
        <time>2019-03-26T09:31:50.264Z</time>
      </trkpt>
      <trkpt lat="43.73369" lon="3.55072">
        <ele>97</ele>
        <time>2019-03-26T09:31:59.261Z</time>
      </trkpt>
      <trkpt lat="43.73371" lon="3.55065">
        <ele>98</ele>
        <time>2019-03-26T09:32:04.282Z</time>
      </trkpt>
      <trkpt lat="43.7337" lon="3.55058">
        <ele>98</ele>
        <time>2019-03-26T09:32:09.291Z</time>
      </trkpt>
      <trkpt lat="43.7337" lon="3.55054">
        <ele>98</ele>
        <time>2019-03-26T09:32:13.317Z</time>
      </trkpt>
      <trkpt lat="43.73373" lon="3.55049">
        <ele>98</ele>
        <time>2019-03-26T09:32:18.294Z</time>
      </trkpt>
      <trkpt lat="43.73372" lon="3.55044">
        <ele>98</ele>
        <time>2019-03-26T09:32:23.261Z</time>
      </trkpt>
      <trkpt lat="43.73373" lon="3.5504">
        <ele>101</ele>
        <time>2019-03-26T09:32:27.277Z</time>
      </trkpt>
      <trkpt lat="43.73372" lon="3.55033">
        <ele>101</ele>
        <time>2019-03-26T09:32:31.306Z</time>
      </trkpt>
      <trkpt lat="43.73374" lon="3.55022">
        <ele>101</ele>
        <time>2019-03-26T09:32:36.280Z</time>
      </trkpt>
      <trkpt lat="43.73374" lon="3.55018">
        <ele>101</ele>
        <time>2019-03-26T09:32:41.290Z</time>
      </trkpt>
      <trkpt lat="43.73374" lon="3.55013">
        <ele>103</ele>
        <time>2019-03-26T09:32:46.294Z</time>
      </trkpt>
      <trkpt lat="43.73372" lon="3.55004">
        <ele>103</ele>
        <time>2019-03-26T09:32:50.307Z</time>
      </trkpt>
      <trkpt lat="43.73368" lon="3.54998">
        <ele>103</ele>
        <time>2019-03-26T09:32:55.264Z</time>
      </trkpt>
      <trkpt lat="43.73369" lon="3.54999">
        <ele>103</ele>
        <time>2019-03-26T09:32:59.286Z</time>
      </trkpt>
      <trkpt lat="43.7337" lon="3.55004">
        <ele>103</ele>
        <time>2019-03-26T09:33:03.299Z</time>
      </trkpt>
      <trkpt lat="43.73373" lon="3.55005">
        <ele>103</ele>
        <time>2019-03-26T09:33:08.285Z</time>
      </trkpt>
      <trkpt lat="43.73376" lon="3.55006">
        <ele>110</ele>
        <time>2019-03-26T09:33:13.262Z</time>
      </trkpt>
      <trkpt lat="43.73377" lon="3.55007">
        <ele>110</ele>
        <time>2019-03-26T09:33:26.266Z</time>
      </trkpt>
      <trkpt lat="43.73381" lon="3.55005">
        <ele>110</ele>
        <time>2019-03-26T09:33:30.284Z</time>
      </trkpt>
      <trkpt lat="43.73385" lon="3.55003">
        <ele>110</ele>
        <time>2019-03-26T09:33:35.278Z</time>
      </trkpt>
      <trkpt lat="43.73389" lon="3.54997">
        <ele>110</ele>
        <time>2019-03-26T09:33:40.301Z</time>
      </trkpt>
      <trkpt lat="43.73393" lon="3.54992">
        <ele>110</ele>
        <time>2019-03-26T09:33:45.305Z</time>
      </trkpt>
      <trkpt lat="43.73397" lon="3.5499">
        <ele>110</ele>
        <time>2019-03-26T09:33:49.320Z</time>
      </trkpt>
      <trkpt lat="43.73399" lon="3.54986">
        <ele>110</ele>
        <time>2019-03-26T09:33:54.281Z</time>
      </trkpt>
      <trkpt lat="43.73402" lon="3.54981">
        <ele>109</ele>
        <time>2019-03-26T09:33:59.292Z</time>
      </trkpt>
      <trkpt lat="43.73404" lon="3.54979">
        <ele>115</ele>
        <time>2019-03-26T09:34:04.287Z</time>
      </trkpt>
      <trkpt lat="43.73407" lon="3.54973">
        <ele>115</ele>
        <time>2019-03-26T09:34:09.289Z</time>
      </trkpt>
      <trkpt lat="43.73408" lon="3.54966">
        <ele>115</ele>
        <time>2019-03-26T09:34:14.297Z</time>
      </trkpt>
      <trkpt lat="43.73412" lon="3.5496">
        <ele>115</ele>
        <time>2019-03-26T09:34:19.289Z</time>
      </trkpt>
      <trkpt lat="43.73411" lon="3.54956">
        <ele>113</ele>
        <time>2019-03-26T09:34:24.281Z</time>
      </trkpt>
      <trkpt lat="43.73417" lon="3.54955">
        <ele>113</ele>
        <time>2019-03-26T09:34:28.298Z</time>
      </trkpt>
      <trkpt lat="43.73422" lon="3.54951">
        <ele>113</ele>
        <time>2019-03-26T09:34:33.281Z</time>
      </trkpt>
      <trkpt lat="43.73423" lon="3.5495">
        <ele>113</ele>
        <time>2019-03-26T09:34:37.284Z</time>
      </trkpt>
      <trkpt lat="43.73425" lon="3.54947">
        <ele>113</ele>
        <time>2019-03-26T09:35:05.289Z</time>
      </trkpt>
      <trkpt lat="43.73426" lon="3.54939">
        <ele>113</ele>
        <time>2019-03-26T09:35:10.286Z</time>
      </trkpt>
      <trkpt lat="43.73427" lon="3.54936">
        <ele>113</ele>
        <time>2019-03-26T09:35:15.288Z</time>
      </trkpt>
      <trkpt lat="43.73429" lon="3.54932">
        <ele>113</ele>
        <time>2019-03-26T09:35:29.277Z</time>
      </trkpt>
      <trkpt lat="43.73427" lon="3.54932">
        <ele>113</ele>
        <time>2019-03-26T09:35:34.285Z</time>
      </trkpt>
      <trkpt lat="43.73421" lon="3.54929">
        <ele>112</ele>
        <time>2019-03-26T09:35:38.320Z</time>
      </trkpt>
      <trkpt lat="43.73417" lon="3.54918">
        <ele>112</ele>
        <time>2019-03-26T09:35:43.287Z</time>
      </trkpt>
      <trkpt lat="43.73416" lon="3.54908">
        <ele>112</ele>
        <time>2019-03-26T09:35:48.284Z</time>
      </trkpt>
      <trkpt lat="43.73416" lon="3.54896">
        <ele>111</ele>
        <time>2019-03-26T09:35:53.278Z</time>
      </trkpt>
      <trkpt lat="43.73418" lon="3.5489">
        <ele>111</ele>
        <time>2019-03-26T09:35:57.292Z</time>
      </trkpt>
      <trkpt lat="43.73423" lon="3.54886">
        <ele>111</ele>
        <time>2019-03-26T09:36:02.288Z</time>
      </trkpt>
      <trkpt lat="43.73424" lon="3.54886">
        <ele>111</ele>
        <time>2019-03-26T09:36:06.308Z</time>
      </trkpt>
      <trkpt lat="43.73428" lon="3.54881">
        <ele>111</ele>
        <time>2019-03-26T09:36:15.285Z</time>
      </trkpt>
      <trkpt lat="43.73432" lon="3.54873">
        <ele>111</ele>
        <time>2019-03-26T09:36:20.280Z</time>
      </trkpt>
      <trkpt lat="43.73435" lon="3.54869">
        <ele>111</ele>
        <time>2019-03-26T09:36:24.285Z</time>
      </trkpt>
      <trkpt lat="43.73437" lon="3.54871">
        <ele>111</ele>
        <time>2019-03-26T09:36:34.263Z</time>
      </trkpt>
      <trkpt lat="43.73442" lon="3.54877">
        <ele>113</ele>
        <time>2019-03-26T09:36:39.264Z</time>
      </trkpt>
      <trkpt lat="43.7344" lon="3.54877">
        <ele>113</ele>
        <time>2019-03-26T09:37:26.287Z</time>
      </trkpt>
      <trkpt lat="43.7344" lon="3.54872">
        <ele>111</ele>
        <time>2019-03-26T09:37:31.280Z</time>
      </trkpt>
      <trkpt lat="43.73439" lon="3.54866">
        <ele>111</ele>
        <time>2019-03-26T09:37:35.278Z</time>
      </trkpt>
      <trkpt lat="43.73441" lon="3.54864">
        <ele>111</ele>
        <time>2019-03-26T09:37:40.313Z</time>
      </trkpt>
      <trkpt lat="43.73448" lon="3.54861">
        <ele>111</ele>
        <time>2019-03-26T09:37:45.262Z</time>
      </trkpt>
      <trkpt lat="43.73455" lon="3.54856">
        <ele>111</ele>
        <time>2019-03-26T09:37:49.281Z</time>
      </trkpt>
      <trkpt lat="43.73462" lon="3.54851">
        <ele>113</ele>
        <time>2019-03-26T09:37:54.286Z</time>
      </trkpt>
      <trkpt lat="43.73467" lon="3.54845">
        <ele>110</ele>
        <time>2019-03-26T09:37:58.317Z</time>
      </trkpt>
      <trkpt lat="43.73474" lon="3.54845">
        <ele>110</ele>
        <time>2019-03-26T09:38:03.310Z</time>
      </trkpt>
      <trkpt lat="43.73477" lon="3.54839">
        <ele>110</ele>
        <time>2019-03-26T09:38:08.283Z</time>
      </trkpt>
      <trkpt lat="43.73481" lon="3.54831">
        <ele>110</ele>
        <time>2019-03-26T09:38:13.290Z</time>
      </trkpt>
      <trkpt lat="43.73486" lon="3.54825">
        <ele>110</ele>
        <time>2019-03-26T09:38:18.288Z</time>
      </trkpt>
      <trkpt lat="43.73486" lon="3.54822">
        <ele>110</ele>
        <time>2019-03-26T09:38:23.284Z</time>
      </trkpt>
      <trkpt lat="43.73489" lon="3.54819">
        <ele>108</ele>
        <time>2019-03-26T09:38:28.291Z</time>
      </trkpt>
      <trkpt lat="43.73491" lon="3.54817">
        <ele>108</ele>
        <time>2019-03-26T09:38:32.310Z</time>
      </trkpt>
      <trkpt lat="43.73498" lon="3.54814">
        <ele>108</ele>
        <time>2019-03-26T09:38:37.282Z</time>
      </trkpt>
      <trkpt lat="43.73504" lon="3.54811">
        <ele>108</ele>
        <time>2019-03-26T09:38:41.292Z</time>
      </trkpt>
      <trkpt lat="43.73509" lon="3.54809">
        <ele>108</ele>
        <time>2019-03-26T09:38:46.278Z</time>
      </trkpt>
      <trkpt lat="43.73514" lon="3.54809">
        <ele>109</ele>
        <time>2019-03-26T09:38:51.288Z</time>
      </trkpt>
      <trkpt lat="43.73519" lon="3.54814">
        <ele>109</ele>
        <time>2019-03-26T09:38:56.283Z</time>
      </trkpt>
      <trkpt lat="43.73522" lon="3.54818">
        <ele>109</ele>
        <time>2019-03-26T09:39:01.311Z</time>
      </trkpt>
      <trkpt lat="43.73525" lon="3.54822">
        <ele>112</ele>
        <time>2019-03-26T09:39:06.288Z</time>
      </trkpt>
      <trkpt lat="43.73529" lon="3.54827">
        <ele>112</ele>
        <time>2019-03-26T09:39:11.285Z</time>
      </trkpt>
      <trkpt lat="43.73532" lon="3.5483">
        <ele>112</ele>
        <time>2019-03-26T09:39:15.318Z</time>
      </trkpt>
      <trkpt lat="43.73534" lon="3.54834">
        <ele>112</ele>
        <time>2019-03-26T09:39:20.280Z</time>
      </trkpt>
      <trkpt lat="43.73536" lon="3.54835">
        <ele>112</ele>
        <time>2019-03-26T09:39:24.282Z</time>
      </trkpt>
      <trkpt lat="43.73538" lon="3.54838">
        <ele>112</ele>
        <time>2019-03-26T09:39:29.312Z</time>
      </trkpt>
      <trkpt lat="43.73542" lon="3.54842">
        <ele>115</ele>
        <time>2019-03-26T09:39:34.275Z</time>
      </trkpt>
      <trkpt lat="43.73546" lon="3.54845">
        <ele>115</ele>
        <time>2019-03-26T09:39:39.286Z</time>
      </trkpt>
      <trkpt lat="43.7355" lon="3.54846">
        <ele>115</ele>
        <time>2019-03-26T09:39:44.288Z</time>
      </trkpt>
      <trkpt lat="43.73554" lon="3.54848">
        <ele>121</ele>
        <time>2019-03-26T09:39:49.285Z</time>
      </trkpt>
      <trkpt lat="43.73558" lon="3.54854">
        <ele>121</ele>
        <time>2019-03-26T09:39:54.287Z</time>
      </trkpt>
      <trkpt lat="43.73562" lon="3.54857">
        <ele>121</ele>
        <time>2019-03-26T09:39:59.288Z</time>
      </trkpt>
      <trkpt lat="43.73566" lon="3.5486">
        <ele>121</ele>
        <time>2019-03-26T09:40:03.287Z</time>
      </trkpt>
      <trkpt lat="43.73569" lon="3.54862">
        <ele>121</ele>
        <time>2019-03-26T09:40:08.288Z</time>
      </trkpt>
      <trkpt lat="43.73573" lon="3.54861">
        <ele>124</ele>
        <time>2019-03-26T09:40:13.289Z</time>
      </trkpt>
      <trkpt lat="43.73576" lon="3.5486">
        <ele>124</ele>
        <time>2019-03-26T09:40:17.297Z</time>
      </trkpt>
      <trkpt lat="43.73581" lon="3.54859">
        <ele>124</ele>
        <time>2019-03-26T09:40:22.286Z</time>
      </trkpt>
      <trkpt lat="43.73585" lon="3.54858">
        <ele>124</ele>
        <time>2019-03-26T09:40:27.309Z</time>
      </trkpt>
      <trkpt lat="43.73589" lon="3.54858">
        <ele>124</ele>
        <time>2019-03-26T09:40:32.290Z</time>
      </trkpt>
      <trkpt lat="43.73589" lon="3.54855">
        <ele>124</ele>
        <time>2019-03-26T09:40:50.309Z</time>
      </trkpt>
      <trkpt lat="43.73588" lon="3.54857">
        <ele>124</ele>
        <time>2019-03-26T09:40:55.286Z</time>
      </trkpt>
      <trkpt lat="43.73587" lon="3.54859">
        <ele>124</ele>
        <time>2019-03-26T09:41:00.289Z</time>
      </trkpt>
      <trkpt lat="43.73584" lon="3.54863">
        <ele>124</ele>
        <time>2019-03-26T09:41:05.288Z</time>
      </trkpt>
      <trkpt lat="43.73581" lon="3.54866">
        <ele>124</ele>
        <time>2019-03-26T09:41:10.325Z</time>
      </trkpt>
      <trkpt lat="43.73577" lon="3.54868">
        <ele>124</ele>
        <time>2019-03-26T09:41:15.308Z</time>
      </trkpt>
      <trkpt lat="43.73573" lon="3.54871">
        <ele>124</ele>
        <time>2019-03-26T09:41:20.290Z</time>
      </trkpt>
      <trkpt lat="43.7357" lon="3.54875">
        <ele>132</ele>
        <time>2019-03-26T09:41:25.303Z</time>
      </trkpt>
      <trkpt lat="43.73567" lon="3.54881">
        <ele>131</ele>
        <time>2019-03-26T09:41:30.280Z</time>
      </trkpt>
      <trkpt lat="43.73567" lon="3.54884">
        <ele>131</ele>
        <time>2019-03-26T09:41:34.316Z</time>
      </trkpt>
      <trkpt lat="43.73571" lon="3.54885">
        <ele>132</ele>
        <time>2019-03-26T09:41:39.289Z</time>
      </trkpt>
      <trkpt lat="43.73576" lon="3.54887">
        <ele>132</ele>
        <time>2019-03-26T09:41:44.281Z</time>
      </trkpt>
      <trkpt lat="43.7358" lon="3.54888">
        <ele>132</ele>
        <time>2019-03-26T09:41:49.278Z</time>
      </trkpt>
      <trkpt lat="43.73581" lon="3.54888">
        <ele>132</ele>
        <time>2019-03-26T09:41:53.310Z</time>
      </trkpt>
      <trkpt lat="43.73587" lon="3.54885">
        <ele>132</ele>
        <time>2019-03-26T09:42:08.316Z</time>
      </trkpt>
      <trkpt lat="43.73592" lon="3.54885">
        <ele>132</ele>
        <time>2019-03-26T09:42:13.284Z</time>
      </trkpt>
      <trkpt lat="43.73596" lon="3.54884">
        <ele>132</ele>
        <time>2019-03-26T09:42:18.289Z</time>
      </trkpt>
      <trkpt lat="43.73599" lon="3.54882">
        <ele>133</ele>
        <time>2019-03-26T09:42:31.262Z</time>
      </trkpt>
      <trkpt lat="43.73604" lon="3.54882">
        <ele>133</ele>
        <time>2019-03-26T09:42:36.312Z</time>
      </trkpt>
      <trkpt lat="43.73607" lon="3.54884">
        <ele>133</ele>
        <time>2019-03-26T09:42:41.277Z</time>
      </trkpt>
      <trkpt lat="43.73608" lon="3.54885">
        <ele>133</ele>
        <time>2019-03-26T09:42:45.323Z</time>
      </trkpt>
      <trkpt lat="43.73609" lon="3.54884">
        <ele>133</ele>
        <time>2019-03-26T09:42:55.279Z</time>
      </trkpt>
      <trkpt lat="43.73609" lon="3.54885">
        <ele>133</ele>
        <time>2019-03-26T09:43:08.314Z</time>
      </trkpt>
      <trkpt lat="43.73611" lon="3.54887">
        <ele>133</ele>
        <time>2019-03-26T09:43:13.282Z</time>
      </trkpt>
      <trkpt lat="43.73613" lon="3.54891">
        <ele>133</ele>
        <time>2019-03-26T09:43:18.283Z</time>
      </trkpt>
      <trkpt lat="43.73616" lon="3.54893">
        <ele>133</ele>
        <time>2019-03-26T09:43:23.316Z</time>
      </trkpt>
      <trkpt lat="43.73621" lon="3.54897">
        <ele>133</ele>
        <time>2019-03-26T09:43:28.283Z</time>
      </trkpt>
      <trkpt lat="43.73625" lon="3.549">
        <ele>140</ele>
        <time>2019-03-26T09:43:33.284Z</time>
      </trkpt>
      <trkpt lat="43.7363" lon="3.54904">
        <ele>154</ele>
        <time>2019-03-26T09:43:38.312Z</time>
      </trkpt>
      <trkpt lat="43.73635" lon="3.54907">
        <ele>154</ele>
        <time>2019-03-26T09:43:43.285Z</time>
      </trkpt>
      <trkpt lat="43.73636" lon="3.54908">
        <ele>154</ele>
        <time>2019-03-26T09:43:48.312Z</time>
      </trkpt>
      <trkpt lat="43.7364" lon="3.54912">
        <ele>154</ele>
        <time>2019-03-26T09:43:53.285Z</time>
      </trkpt>
      <trkpt lat="43.73646" lon="3.54915">
        <ele>154</ele>
        <time>2019-03-26T09:43:58.284Z</time>
      </trkpt>
      <trkpt lat="43.73654" lon="3.54917">
        <ele>167</ele>
        <time>2019-03-26T09:44:03.284Z</time>
      </trkpt>
      <trkpt lat="43.7366" lon="3.54917">
        <ele>167</ele>
        <time>2019-03-26T09:44:07.326Z</time>
      </trkpt>
      <trkpt lat="43.73667" lon="3.54914">
        <ele>167</ele>
        <time>2019-03-26T09:44:12.286Z</time>
      </trkpt>
      <trkpt lat="43.73671" lon="3.54912">
        <ele>167</ele>
        <time>2019-03-26T09:44:16.280Z</time>
      </trkpt>
      <trkpt lat="43.73675" lon="3.54913">
        <ele>167</ele>
        <time>2019-03-26T09:44:21.278Z</time>
      </trkpt>
      <trkpt lat="43.73679" lon="3.54914">
        <ele>167</ele>
        <time>2019-03-26T09:44:25.309Z</time>
      </trkpt>
      <trkpt lat="43.73683" lon="3.54914">
        <ele>174</ele>
        <time>2019-03-26T09:44:30.304Z</time>
      </trkpt>
      <trkpt lat="43.73684" lon="3.54914">
        <ele>174</ele>
        <time>2019-03-26T09:44:35.284Z</time>
      </trkpt>
      <trkpt lat="43.73688" lon="3.54916">
        <ele>174</ele>
        <time>2019-03-26T09:44:40.276Z</time>
      </trkpt>
      <trkpt lat="43.73692" lon="3.54915">
        <ele>174</ele>
        <time>2019-03-26T09:44:45.302Z</time>
      </trkpt>
      <trkpt lat="43.73697" lon="3.54914">
        <ele>174</ele>
        <time>2019-03-26T09:44:50.293Z</time>
      </trkpt>
      <trkpt lat="43.73703" lon="3.54914">
        <ele>174</ele>
        <time>2019-03-26T09:44:55.288Z</time>
      </trkpt>
      <trkpt lat="43.7371" lon="3.54913">
        <ele>183</ele>
        <time>2019-03-26T09:45:09.291Z</time>
      </trkpt>
      <trkpt lat="43.73716" lon="3.5491">
        <ele>183</ele>
        <time>2019-03-26T09:45:14.285Z</time>
      </trkpt>
      <trkpt lat="43.73718" lon="3.54909">
        <ele>183</ele>
        <time>2019-03-26T09:45:19.285Z</time>
      </trkpt>
      <trkpt lat="43.73719" lon="3.54905">
        <ele>183</ele>
        <time>2019-03-26T09:45:38.271Z</time>
      </trkpt>
      <trkpt lat="43.73725" lon="3.54883">
        <ele>170</ele>
        <time>2019-03-26T09:45:42.287Z</time>
      </trkpt>
      <trkpt lat="43.73732" lon="3.54869">
        <ele>159</ele>
        <time>2019-03-26T09:46:05.321Z</time>
      </trkpt>
      <trkpt lat="43.73733" lon="3.54868">
        <ele>159</ele>
        <time>2019-03-26T09:46:10.285Z</time>
      </trkpt>
      <trkpt lat="43.73735" lon="3.54864">
        <ele>159</ele>
        <time>2019-03-26T09:46:15.281Z</time>
      </trkpt>
      <trkpt lat="43.73736" lon="3.54862">
        <ele>178</ele>
        <time>2019-03-26T09:46:19.288Z</time>
      </trkpt>
      <trkpt lat="43.73738" lon="3.54858">
        <ele>178</ele>
        <time>2019-03-26T09:46:24.290Z</time>
      </trkpt>
      <trkpt lat="43.73739" lon="3.54858">
        <ele>178</ele>
        <time>2019-03-26T09:46:29.288Z</time>
      </trkpt>
      <trkpt lat="43.73743" lon="3.54856">
        <ele>178</ele>
        <time>2019-03-26T09:46:34.294Z</time>
      </trkpt>
      <trkpt lat="43.73749" lon="3.54852">
        <ele>178</ele>
        <time>2019-03-26T09:46:39.291Z</time>
      </trkpt>
      <trkpt lat="43.73753" lon="3.5485">
        <ele>178</ele>
        <time>2019-03-26T09:46:44.292Z</time>
      </trkpt>
      <trkpt lat="43.73758" lon="3.54848">
        <ele>178</ele>
        <time>2019-03-26T09:46:49.315Z</time>
      </trkpt>
      <trkpt lat="43.73761" lon="3.54843">
        <ele>170</ele>
        <time>2019-03-26T09:46:54.313Z</time>
      </trkpt>
      <trkpt lat="43.73762" lon="3.54842">
        <ele>170</ele>
        <time>2019-03-26T09:46:59.285Z</time>
      </trkpt>
      <trkpt lat="43.73766" lon="3.54838">
        <ele>188</ele>
        <time>2019-03-26T09:47:03.307Z</time>
      </trkpt>
      <trkpt lat="43.73769" lon="3.54833">
        <ele>188</ele>
        <time>2019-03-26T09:47:08.315Z</time>
      </trkpt>
      <trkpt lat="43.73773" lon="3.54827">
        <ele>188</ele>
        <time>2019-03-26T09:47:13.295Z</time>
      </trkpt>
      <trkpt lat="43.73775" lon="3.54821">
        <ele>188</ele>
        <time>2019-03-26T09:47:17.312Z</time>
      </trkpt>
      <trkpt lat="43.73777" lon="3.54812">
        <ele>183</ele>
        <time>2019-03-26T09:47:22.281Z</time>
      </trkpt>
      <trkpt lat="43.73779" lon="3.54804">
        <ele>183</ele>
        <time>2019-03-26T09:47:27.311Z</time>
      </trkpt>
      <trkpt lat="43.7378" lon="3.54795">
        <ele>183</ele>
        <time>2019-03-26T09:47:32.283Z</time>
      </trkpt>
      <trkpt lat="43.73782" lon="3.54789">
        <ele>178</ele>
        <time>2019-03-26T09:47:37.289Z</time>
      </trkpt>
      <trkpt lat="43.73782" lon="3.54781">
        <ele>178</ele>
        <time>2019-03-26T09:47:42.293Z</time>
      </trkpt>
      <trkpt lat="43.7378" lon="3.54774">
        <ele>178</ele>
        <time>2019-03-26T09:47:47.288Z</time>
      </trkpt>
      <trkpt lat="43.73778" lon="3.54768">
        <ele>178</ele>
        <time>2019-03-26T09:47:52.291Z</time>
      </trkpt>
      <trkpt lat="43.73776" lon="3.54763">
        <ele>174</ele>
        <time>2019-03-26T09:47:57.286Z</time>
      </trkpt>
      <trkpt lat="43.73777" lon="3.54759">
        <ele>174</ele>
        <time>2019-03-26T09:48:24.305Z</time>
      </trkpt>
      <trkpt lat="43.73777" lon="3.54759">
        <ele>174</ele>
        <time>2019-03-26T09:49:56.265Z</time>
      </trkpt>
      <trkpt lat="43.73779" lon="3.5476">
        <ele>174</ele>
        <time>2019-03-26T09:50:01.268Z</time>
      </trkpt>
      <trkpt lat="43.73781" lon="3.54763">
        <ele>174</ele>
        <time>2019-03-26T09:50:05.288Z</time>
      </trkpt>
      <trkpt lat="43.73782" lon="3.54766">
        <ele>178</ele>
        <time>2019-03-26T09:50:09.294Z</time>
      </trkpt>
      <trkpt lat="43.73784" lon="3.54771">
        <ele>178</ele>
        <time>2019-03-26T09:50:14.263Z</time>
      </trkpt>
      <trkpt lat="43.73784" lon="3.54774">
        <ele>178</ele>
        <time>2019-03-26T09:50:18.276Z</time>
      </trkpt>
      <trkpt lat="43.73785" lon="3.54777">
        <ele>178</ele>
        <time>2019-03-26T09:50:22.295Z</time>
      </trkpt>
      <trkpt lat="43.73786" lon="3.54782">
        <ele>178</ele>
        <time>2019-03-26T09:50:27.315Z</time>
      </trkpt>
      <trkpt lat="43.73787" lon="3.54786">
        <ele>178</ele>
        <time>2019-03-26T09:50:32.264Z</time>
      </trkpt>
      <trkpt lat="43.73789" lon="3.54789">
        <ele>178</ele>
        <time>2019-03-26T09:50:36.311Z</time>
      </trkpt>
      <trkpt lat="43.7379" lon="3.54791">
        <ele>178</ele>
        <time>2019-03-26T09:50:41.281Z</time>
      </trkpt>
      <trkpt lat="43.7379" lon="3.54797">
        <ele>183</ele>
        <time>2019-03-26T09:50:49.321Z</time>
      </trkpt>
      <trkpt lat="43.73792" lon="3.54803">
        <ele>199</ele>
        <time>2019-03-26T09:50:54.280Z</time>
      </trkpt>
      <trkpt lat="43.73794" lon="3.54808">
        <ele>199</ele>
        <time>2019-03-26T09:50:59.309Z</time>
      </trkpt>
      <trkpt lat="43.73793" lon="3.54815">
        <ele>199</ele>
        <time>2019-03-26T09:51:04.289Z</time>
      </trkpt>
      <trkpt lat="43.73791" lon="3.54825">
        <ele>188</ele>
        <time>2019-03-26T09:51:09.281Z</time>
      </trkpt>
      <trkpt lat="43.73789" lon="3.54833">
        <ele>188</ele>
        <time>2019-03-26T09:51:14.293Z</time>
      </trkpt>
      <trkpt lat="43.73788" lon="3.54841">
        <ele>188</ele>
        <time>2019-03-26T09:51:19.271Z</time>
      </trkpt>
      <trkpt lat="43.73787" lon="3.54847">
        <ele>188</ele>
        <time>2019-03-26T09:51:23.312Z</time>
      </trkpt>
      <trkpt lat="43.73786" lon="3.54851">
        <ele>193</ele>
        <time>2019-03-26T09:51:28.282Z</time>
      </trkpt>
      <trkpt lat="43.73785" lon="3.54855">
        <ele>193</ele>
        <time>2019-03-26T09:51:32.290Z</time>
      </trkpt>
      <trkpt lat="43.73782" lon="3.5486">
        <ele>193</ele>
        <time>2019-03-26T09:51:37.285Z</time>
      </trkpt>
      <trkpt lat="43.73778" lon="3.54866">
        <ele>193</ele>
        <time>2019-03-26T09:51:42.290Z</time>
      </trkpt>
      <trkpt lat="43.73776" lon="3.5487">
        <ele>193</ele>
        <time>2019-03-26T09:51:46.311Z</time>
      </trkpt>
      <trkpt lat="43.73774" lon="3.54875">
        <ele>197</ele>
        <time>2019-03-26T09:51:51.312Z</time>
      </trkpt>
      <trkpt lat="43.73773" lon="3.54881">
        <ele>197</ele>
        <time>2019-03-26T09:51:56.288Z</time>
      </trkpt>
      <trkpt lat="43.73772" lon="3.54887">
        <ele>197</ele>
        <time>2019-03-26T09:52:01.282Z</time>
      </trkpt>
      <trkpt lat="43.73772" lon="3.54893">
        <ele>197</ele>
        <time>2019-03-26T09:52:05.303Z</time>
      </trkpt>
      <trkpt lat="43.7377" lon="3.54897">
        <ele>197</ele>
        <time>2019-03-26T09:52:10.284Z</time>
      </trkpt>
      <trkpt lat="43.73769" lon="3.549">
        <ele>197</ele>
        <time>2019-03-26T09:52:14.288Z</time>
      </trkpt>
      <trkpt lat="43.73768" lon="3.54907">
        <ele>198</ele>
        <time>2019-03-26T09:52:19.292Z</time>
      </trkpt>
      <trkpt lat="43.73772" lon="3.54908">
        <ele>198</ele>
        <time>2019-03-26T09:52:24.297Z</time>
      </trkpt>
      <trkpt lat="43.73775" lon="3.54908">
        <ele>198</ele>
        <time>2019-03-26T09:52:29.314Z</time>
      </trkpt>
      <trkpt lat="43.73778" lon="3.54907">
        <ele>198</ele>
        <time>2019-03-26T09:52:34.289Z</time>
      </trkpt>
      <trkpt lat="43.73781" lon="3.54905">
        <ele>198</ele>
        <time>2019-03-26T09:52:39.295Z</time>
      </trkpt>
      <trkpt lat="43.73782" lon="3.54901">
        <ele>197</ele>
        <time>2019-03-26T09:52:44.292Z</time>
      </trkpt>
      <trkpt lat="43.73783" lon="3.54896">
        <ele>197</ele>
        <time>2019-03-26T09:52:48.298Z</time>
      </trkpt>
      <trkpt lat="43.73787" lon="3.5489">
        <ele>197</ele>
        <time>2019-03-26T09:52:53.295Z</time>
      </trkpt>
      <trkpt lat="43.73791" lon="3.54888">
        <ele>197</ele>
        <time>2019-03-26T09:53:07.316Z</time>
      </trkpt>
      <trkpt lat="43.73791" lon="3.5489">
        <ele>197</ele>
        <time>2019-03-26T09:53:12.285Z</time>
      </trkpt>
      <trkpt lat="43.73791" lon="3.54894">
        <ele>197</ele>
        <time>2019-03-26T09:53:17.289Z</time>
      </trkpt>
      <trkpt lat="43.73792" lon="3.54899">
        <ele>204</ele>
        <time>2019-03-26T09:53:22.318Z</time>
      </trkpt>
      <trkpt lat="43.73793" lon="3.54904">
        <ele>200</ele>
        <time>2019-03-26T09:53:27.316Z</time>
      </trkpt>
      <trkpt lat="43.73796" lon="3.54908">
        <ele>200</ele>
        <time>2019-03-26T09:53:32.291Z</time>
      </trkpt>
      <trkpt lat="43.73799" lon="3.54911">
        <ele>200</ele>
        <time>2019-03-26T09:53:36.289Z</time>
      </trkpt>
      <trkpt lat="43.73802" lon="3.54907">
        <ele>200</ele>
        <time>2019-03-26T09:53:41.289Z</time>
      </trkpt>
      <trkpt lat="43.73804" lon="3.54902">
        <ele>204</ele>
        <time>2019-03-26T09:53:45.292Z</time>
      </trkpt>
      <trkpt lat="43.73807" lon="3.549">
        <ele>204</ele>
        <time>2019-03-26T09:53:49.318Z</time>
      </trkpt>
      <trkpt lat="43.73809" lon="3.54897">
        <ele>204</ele>
        <time>2019-03-26T09:53:54.286Z</time>
      </trkpt>
      <trkpt lat="43.73812" lon="3.54894">
        <ele>204</ele>
        <time>2019-03-26T09:53:58.287Z</time>
      </trkpt>
      <trkpt lat="43.73814" lon="3.54891">
        <ele>204</ele>
        <time>2019-03-26T09:54:02.343Z</time>
      </trkpt>
      <trkpt lat="43.73817" lon="3.54887">
        <ele>204</ele>
        <time>2019-03-26T09:54:07.290Z</time>
      </trkpt>
      <trkpt lat="43.73819" lon="3.54885">
        <ele>204</ele>
        <time>2019-03-26T09:54:12.292Z</time>
      </trkpt>
      <trkpt lat="43.73822" lon="3.54882">
        <ele>204</ele>
        <time>2019-03-26T09:54:16.297Z</time>
      </trkpt>
      <trkpt lat="43.73826" lon="3.5488">
        <ele>204</ele>
        <time>2019-03-26T09:54:21.286Z</time>
      </trkpt>
      <trkpt lat="43.73829" lon="3.54875">
        <ele>204</ele>
        <time>2019-03-26T09:54:26.287Z</time>
      </trkpt>
      <trkpt lat="43.7383" lon="3.5487">
        <ele>209</ele>
        <time>2019-03-26T09:54:31.281Z</time>
      </trkpt>
      <trkpt lat="43.73832" lon="3.54865">
        <ele>209</ele>
        <time>2019-03-26T09:54:35.287Z</time>
      </trkpt>
      <trkpt lat="43.73834" lon="3.54861">
        <ele>209</ele>
        <time>2019-03-26T09:54:39.293Z</time>
      </trkpt>
      <trkpt lat="43.73837" lon="3.54855">
        <ele>209</ele>
        <time>2019-03-26T09:54:44.293Z</time>
      </trkpt>
      <trkpt lat="43.7384" lon="3.5485">
        <ele>209</ele>
        <time>2019-03-26T09:54:49.292Z</time>
      </trkpt>
      <trkpt lat="43.73842" lon="3.54845">
        <ele>209</ele>
        <time>2019-03-26T09:54:54.291Z</time>
      </trkpt>
      <trkpt lat="43.73843" lon="3.5484">
        <ele>209</ele>
        <time>2019-03-26T09:54:59.297Z</time>
      </trkpt>
      <trkpt lat="43.73845" lon="3.54838">
        <ele>209</ele>
        <time>2019-03-26T09:55:04.303Z</time>
      </trkpt>
      <trkpt lat="43.73849" lon="3.54835">
        <ele>212</ele>
        <time>2019-03-26T09:55:09.294Z</time>
      </trkpt>
      <trkpt lat="43.73852" lon="3.5483">
        <ele>212</ele>
        <time>2019-03-26T09:55:14.308Z</time>
      </trkpt>
      <trkpt lat="43.73856" lon="3.54826">
        <ele>212</ele>
        <time>2019-03-26T09:55:19.291Z</time>
      </trkpt>
      <trkpt lat="43.73859" lon="3.5482">
        <ele>212</ele>
        <time>2019-03-26T09:55:24.288Z</time>
      </trkpt>
      <trkpt lat="43.73861" lon="3.54816">
        <ele>216</ele>
        <time>2019-03-26T09:55:28.314Z</time>
      </trkpt>
      <trkpt lat="43.73863" lon="3.5481">
        <ele>216</ele>
        <time>2019-03-26T09:55:33.287Z</time>
      </trkpt>
      <trkpt lat="43.73866" lon="3.54805">
        <ele>216</ele>
        <time>2019-03-26T09:55:38.289Z</time>
      </trkpt>
      <trkpt lat="43.7387" lon="3.54801">
        <ele>216</ele>
        <time>2019-03-26T09:55:43.291Z</time>
      </trkpt>
      <trkpt lat="43.73873" lon="3.54797">
        <ele>216</ele>
        <time>2019-03-26T09:55:48.286Z</time>
      </trkpt>
      <trkpt lat="43.73877" lon="3.54792">
        <ele>215</ele>
        <time>2019-03-26T09:55:53.291Z</time>
      </trkpt>
      <trkpt lat="43.7388" lon="3.54788">
        <ele>223</ele>
        <time>2019-03-26T09:55:58.280Z</time>
      </trkpt>
      <trkpt lat="43.73883" lon="3.54786">
        <ele>223</ele>
        <time>2019-03-26T09:56:02.297Z</time>
      </trkpt>
      <trkpt lat="43.73885" lon="3.54782">
        <ele>223</ele>
        <time>2019-03-26T09:56:07.291Z</time>
      </trkpt>
      <trkpt lat="43.73888" lon="3.54777">
        <ele>223</ele>
        <time>2019-03-26T09:56:12.291Z</time>
      </trkpt>
      <trkpt lat="43.73892" lon="3.54774">
        <ele>223</ele>
        <time>2019-03-26T09:56:17.286Z</time>
      </trkpt>
      <trkpt lat="43.73896" lon="3.54769">
        <ele>223</ele>
        <time>2019-03-26T09:56:22.301Z</time>
      </trkpt>
      <trkpt lat="43.73899" lon="3.54766">
        <ele>223</ele>
        <time>2019-03-26T09:56:27.290Z</time>
      </trkpt>
      <trkpt lat="43.73903" lon="3.54763">
        <ele>223</ele>
        <time>2019-03-26T09:56:32.305Z</time>
      </trkpt>
      <trkpt lat="43.73905" lon="3.54759">
        <ele>223</ele>
        <time>2019-03-26T09:56:37.300Z</time>
      </trkpt>
      <trkpt lat="43.73906" lon="3.54752">
        <ele>223</ele>
        <time>2019-03-26T09:56:42.297Z</time>
      </trkpt>
      <trkpt lat="43.73907" lon="3.54746">
        <ele>223</ele>
        <time>2019-03-26T09:56:47.299Z</time>
      </trkpt>
      <trkpt lat="43.7391" lon="3.54738">
        <ele>223</ele>
        <time>2019-03-26T09:56:52.294Z</time>
      </trkpt>
      <trkpt lat="43.73912" lon="3.54734">
        <ele>227</ele>
        <time>2019-03-26T09:56:56.298Z</time>
      </trkpt>
      <trkpt lat="43.73912" lon="3.54733">
        <ele>227</ele>
        <time>2019-03-26T09:57:01.293Z</time>
      </trkpt>
      <trkpt lat="43.73914" lon="3.54731">
        <ele>227</ele>
        <time>2019-03-26T09:57:29.294Z</time>
      </trkpt>
      <trkpt lat="43.73918" lon="3.54726">
        <ele>227</ele>
        <time>2019-03-26T09:57:34.292Z</time>
      </trkpt>
      <trkpt lat="43.73922" lon="3.54722">
        <ele>227</ele>
        <time>2019-03-26T09:57:39.309Z</time>
      </trkpt>
      <trkpt lat="43.73926" lon="3.54716">
        <ele>227</ele>
        <time>2019-03-26T09:57:44.281Z</time>
      </trkpt>
      <trkpt lat="43.73929" lon="3.54712">
        <ele>227</ele>
        <time>2019-03-26T09:57:48.291Z</time>
      </trkpt>
      <trkpt lat="43.73933" lon="3.54707">
        <ele>228</ele>
        <time>2019-03-26T09:57:53.294Z</time>
      </trkpt>
      <trkpt lat="43.73937" lon="3.547">
        <ele>228</ele>
        <time>2019-03-26T09:57:58.297Z</time>
      </trkpt>
      <trkpt lat="43.7394" lon="3.54694">
        <ele>228</ele>
        <time>2019-03-26T09:58:03.288Z</time>
      </trkpt>
      <trkpt lat="43.73945" lon="3.5469">
        <ele>228</ele>
        <time>2019-03-26T09:58:08.315Z</time>
      </trkpt>
      <trkpt lat="43.73949" lon="3.54684">
        <ele>228</ele>
        <time>2019-03-26T09:58:13.283Z</time>
      </trkpt>
      <trkpt lat="43.73951" lon="3.5468">
        <ele>226</ele>
        <time>2019-03-26T09:58:17.308Z</time>
      </trkpt>
      <trkpt lat="43.73954" lon="3.54674">
        <ele>226</ele>
        <time>2019-03-26T09:58:22.280Z</time>
      </trkpt>
      <trkpt lat="43.73957" lon="3.54669">
        <ele>226</ele>
        <time>2019-03-26T09:58:26.305Z</time>
      </trkpt>
      <trkpt lat="43.73962" lon="3.54664">
        <ele>230</ele>
        <time>2019-03-26T09:58:31.318Z</time>
      </trkpt>
      <trkpt lat="43.73965" lon="3.54661">
        <ele>230</ele>
        <time>2019-03-26T09:58:36.312Z</time>
      </trkpt>
      <trkpt lat="43.7397" lon="3.54657">
        <ele>230</ele>
        <time>2019-03-26T09:58:41.281Z</time>
      </trkpt>
      <trkpt lat="43.73974" lon="3.54655">
        <ele>230</ele>
        <time>2019-03-26T09:58:45.288Z</time>
      </trkpt>
      <trkpt lat="43.73977" lon="3.54651">
        <ele>232</ele>
        <time>2019-03-26T09:58:49.289Z</time>
      </trkpt>
      <trkpt lat="43.7398" lon="3.54647">
        <ele>232</ele>
        <time>2019-03-26T09:58:54.294Z</time>
      </trkpt>
      <trkpt lat="43.73984" lon="3.54644">
        <ele>232</ele>
        <time>2019-03-26T09:58:58.294Z</time>
      </trkpt>
      <trkpt lat="43.73988" lon="3.54637">
        <ele>231</ele>
        <time>2019-03-26T09:59:03.296Z</time>
      </trkpt>
      <trkpt lat="43.73992" lon="3.54631">
        <ele>231</ele>
        <time>2019-03-26T09:59:08.313Z</time>
      </trkpt>
      <trkpt lat="43.73995" lon="3.54625">
        <ele>231</ele>
        <time>2019-03-26T09:59:13.281Z</time>
      </trkpt>
      <trkpt lat="43.73999" lon="3.5462">
        <ele>234</ele>
        <time>2019-03-26T09:59:18.263Z</time>
      </trkpt>
      <trkpt lat="43.74001" lon="3.54617">
        <ele>234</ele>
        <time>2019-03-26T09:59:22.314Z</time>
      </trkpt>
      <trkpt lat="43.74003" lon="3.54612">
        <ele>234</ele>
        <time>2019-03-26T09:59:27.275Z</time>
      </trkpt>
      <trkpt lat="43.74004" lon="3.54607">
        <ele>234</ele>
        <time>2019-03-26T10:00:01.284Z</time>
      </trkpt>
      <trkpt lat="43.74007" lon="3.54603">
        <ele>234</ele>
        <time>2019-03-26T10:00:06.318Z</time>
      </trkpt>
      <trkpt lat="43.74011" lon="3.546">
        <ele>234</ele>
        <time>2019-03-26T10:00:11.285Z</time>
      </trkpt>
      <trkpt lat="43.74013" lon="3.54597">
        <ele>236</ele>
        <time>2019-03-26T10:00:15.297Z</time>
      </trkpt>
      <trkpt lat="43.74017" lon="3.54592">
        <ele>231</ele>
        <time>2019-03-26T10:00:20.284Z</time>
      </trkpt>
      <trkpt lat="43.7402" lon="3.54587">
        <ele>231</ele>
        <time>2019-03-26T10:00:25.289Z</time>
      </trkpt>
      <trkpt lat="43.74023" lon="3.54583">
        <ele>231</ele>
        <time>2019-03-26T10:00:29.312Z</time>
      </trkpt>
      <trkpt lat="43.74023" lon="3.54575">
        <ele>231</ele>
        <time>2019-03-26T10:00:34.296Z</time>
      </trkpt>
      <trkpt lat="43.74024" lon="3.5457">
        <ele>231</ele>
        <time>2019-03-26T10:00:39.284Z</time>
      </trkpt>
      <trkpt lat="43.74026" lon="3.54565">
        <ele>235</ele>
        <time>2019-03-26T10:00:43.291Z</time>
      </trkpt>
      <trkpt lat="43.74027" lon="3.54558">
        <ele>235</ele>
        <time>2019-03-26T10:00:48.289Z</time>
      </trkpt>
      <trkpt lat="43.74026" lon="3.54553">
        <ele>235</ele>
        <time>2019-03-26T10:00:52.294Z</time>
      </trkpt>
      <trkpt lat="43.74026" lon="3.54547">
        <ele>235</ele>
        <time>2019-03-26T10:00:57.339Z</time>
      </trkpt>
      <trkpt lat="43.74026" lon="3.5454">
        <ele>242</ele>
        <time>2019-03-26T10:01:02.295Z</time>
      </trkpt>
      <trkpt lat="43.74028" lon="3.54529">
        <ele>242</ele>
        <time>2019-03-26T10:01:07.317Z</time>
      </trkpt>
      <trkpt lat="43.74029" lon="3.54522">
        <ele>242</ele>
        <time>2019-03-26T10:01:12.298Z</time>
      </trkpt>
      <trkpt lat="43.7403" lon="3.54515">
        <ele>242</ele>
        <time>2019-03-26T10:01:17.288Z</time>
      </trkpt>
      <trkpt lat="43.74029" lon="3.54507">
        <ele>248</ele>
        <time>2019-03-26T10:01:22.300Z</time>
      </trkpt>
      <trkpt lat="43.74031" lon="3.54499">
        <ele>248</ele>
        <time>2019-03-26T10:01:27.290Z</time>
      </trkpt>
      <trkpt lat="43.74032" lon="3.54491">
        <ele>248</ele>
        <time>2019-03-26T10:01:32.295Z</time>
      </trkpt>
      <trkpt lat="43.74034" lon="3.54484">
        <ele>249</ele>
        <time>2019-03-26T10:01:37.289Z</time>
      </trkpt>
      <trkpt lat="43.74035" lon="3.54479">
        <ele>249</ele>
        <time>2019-03-26T10:01:41.304Z</time>
      </trkpt>
      <trkpt lat="43.74038" lon="3.54473">
        <ele>249</ele>
        <time>2019-03-26T10:01:46.286Z</time>
      </trkpt>
      <trkpt lat="43.74042" lon="3.54468">
        <ele>250</ele>
        <time>2019-03-26T10:01:51.287Z</time>
      </trkpt>
      <trkpt lat="43.74046" lon="3.54465">
        <ele>250</ele>
        <time>2019-03-26T10:01:55.288Z</time>
      </trkpt>
      <trkpt lat="43.7405" lon="3.54463">
        <ele>250</ele>
        <time>2019-03-26T10:02:00.289Z</time>
      </trkpt>
      <trkpt lat="43.74054" lon="3.54462">
        <ele>250</ele>
        <time>2019-03-26T10:02:05.289Z</time>
      </trkpt>
      <trkpt lat="43.7406" lon="3.54463">
        <ele>250</ele>
        <time>2019-03-26T10:02:10.296Z</time>
      </trkpt>
      <trkpt lat="43.74064" lon="3.54464">
        <ele>250</ele>
        <time>2019-03-26T10:02:14.299Z</time>
      </trkpt>
      <trkpt lat="43.7407" lon="3.54462">
        <ele>253</ele>
        <time>2019-03-26T10:02:19.293Z</time>
      </trkpt>
      <trkpt lat="43.74077" lon="3.54459">
        <ele>253</ele>
        <time>2019-03-26T10:02:24.295Z</time>
      </trkpt>
      <trkpt lat="43.74081" lon="3.54454">
        <ele>256</ele>
        <time>2019-03-26T10:02:29.297Z</time>
      </trkpt>
      <trkpt lat="43.74082" lon="3.54447">
        <ele>256</ele>
        <time>2019-03-26T10:02:34.290Z</time>
      </trkpt>
      <trkpt lat="43.74084" lon="3.5444">
        <ele>256</ele>
        <time>2019-03-26T10:02:38.312Z</time>
      </trkpt>
      <trkpt lat="43.74086" lon="3.54432">
        <ele>256</ele>
        <time>2019-03-26T10:02:43.287Z</time>
      </trkpt>
      <trkpt lat="43.74088" lon="3.54425">
        <ele>258</ele>
        <time>2019-03-26T10:02:47.308Z</time>
      </trkpt>
      <trkpt lat="43.74089" lon="3.54417">
        <ele>258</ele>
        <time>2019-03-26T10:02:52.293Z</time>
      </trkpt>
      <trkpt lat="43.7409" lon="3.5441">
        <ele>258</ele>
        <time>2019-03-26T10:02:57.287Z</time>
      </trkpt>
      <trkpt lat="43.74091" lon="3.54403">
        <ele>258</ele>
        <time>2019-03-26T10:03:01.300Z</time>
      </trkpt>
      <trkpt lat="43.74092" lon="3.54398">
        <ele>262</ele>
        <time>2019-03-26T10:03:05.319Z</time>
      </trkpt>
      <trkpt lat="43.74093" lon="3.54396">
        <ele>262</ele>
        <time>2019-03-26T10:03:10.288Z</time>
      </trkpt>
      <trkpt lat="43.74094" lon="3.54393">
        <ele>262</ele>
        <time>2019-03-26T10:03:15.286Z</time>
      </trkpt>
      <trkpt lat="43.74096" lon="3.5439">
        <ele>262</ele>
        <time>2019-03-26T10:03:20.283Z</time>
      </trkpt>
      <trkpt lat="43.74099" lon="3.54387">
        <ele>260</ele>
        <time>2019-03-26T10:03:24.294Z</time>
      </trkpt>
      <trkpt lat="43.74103" lon="3.54383">
        <ele>260</ele>
        <time>2019-03-26T10:03:29.288Z</time>
      </trkpt>
      <trkpt lat="43.74106" lon="3.54378">
        <ele>260</ele>
        <time>2019-03-26T10:03:34.316Z</time>
      </trkpt>
      <trkpt lat="43.7411" lon="3.54373">
        <ele>263</ele>
        <time>2019-03-26T10:03:39.295Z</time>
      </trkpt>
      <trkpt lat="43.74115" lon="3.54368">
        <ele>263</ele>
        <time>2019-03-26T10:03:44.295Z</time>
      </trkpt>
      <trkpt lat="43.74117" lon="3.54362">
        <ele>263</ele>
        <time>2019-03-26T10:03:49.288Z</time>
      </trkpt>
      <trkpt lat="43.74118" lon="3.54357">
        <ele>263</ele>
        <time>2019-03-26T10:03:54.286Z</time>
      </trkpt>
      <trkpt lat="43.74119" lon="3.54353">
        <ele>263</ele>
        <time>2019-03-26T10:03:58.289Z</time>
      </trkpt>
      <trkpt lat="43.74119" lon="3.54347">
        <ele>265</ele>
        <time>2019-03-26T10:04:03.287Z</time>
      </trkpt>
      <trkpt lat="43.7412" lon="3.54341">
        <ele>265</ele>
        <time>2019-03-26T10:04:08.286Z</time>
      </trkpt>
      <trkpt lat="43.7412" lon="3.54335">
        <ele>265</ele>
        <time>2019-03-26T10:04:13.286Z</time>
      </trkpt>
      <trkpt lat="43.74123" lon="3.5433">
        <ele>265</ele>
        <time>2019-03-26T10:04:17.294Z</time>
      </trkpt>
      <trkpt lat="43.74127" lon="3.5433">
        <ele>269</ele>
        <time>2019-03-26T10:04:22.287Z</time>
      </trkpt>
      <trkpt lat="43.74129" lon="3.54332">
        <ele>269</ele>
        <time>2019-03-26T10:04:27.287Z</time>
      </trkpt>
      <trkpt lat="43.74132" lon="3.54334">
        <ele>269</ele>
        <time>2019-03-26T10:04:54.286Z</time>
      </trkpt>
      <trkpt lat="43.74136" lon="3.54333">
        <ele>269</ele>
        <time>2019-03-26T10:04:59.310Z</time>
      </trkpt>
      <trkpt lat="43.74138" lon="3.5433">
        <ele>269</ele>
        <time>2019-03-26T10:05:04.288Z</time>
      </trkpt>
      <trkpt lat="43.7414" lon="3.54326">
        <ele>269</ele>
        <time>2019-03-26T10:05:09.287Z</time>
      </trkpt>
      <trkpt lat="43.74143" lon="3.54328">
        <ele>269</ele>
        <time>2019-03-26T10:05:14.288Z</time>
      </trkpt>
      <trkpt lat="43.74145" lon="3.54331">
        <ele>269</ele>
        <time>2019-03-26T10:05:19.287Z</time>
      </trkpt>
      <trkpt lat="43.74146" lon="3.54334">
        <ele>269</ele>
        <time>2019-03-26T10:05:24.287Z</time>
      </trkpt>
      <trkpt lat="43.74147" lon="3.54339">
        <ele>269</ele>
        <time>2019-03-26T10:05:29.312Z</time>
      </trkpt>
      <trkpt lat="43.74148" lon="3.54343">
        <ele>269</ele>
        <time>2019-03-26T10:05:34.290Z</time>
      </trkpt>
      <trkpt lat="43.74149" lon="3.54346">
        <ele>269</ele>
        <time>2019-03-26T10:05:39.298Z</time>
      </trkpt>
      <trkpt lat="43.74153" lon="3.54342">
        <ele>277</ele>
        <time>2019-03-26T10:05:44.297Z</time>
      </trkpt>
      <trkpt lat="43.74156" lon="3.54338">
        <ele>277</ele>
        <time>2019-03-26T10:05:49.335Z</time>
      </trkpt>
      <trkpt lat="43.7416" lon="3.54334">
        <ele>277</ele>
        <time>2019-03-26T10:05:54.290Z</time>
      </trkpt>
      <trkpt lat="43.74163" lon="3.54331">
        <ele>277</ele>
        <time>2019-03-26T10:05:59.288Z</time>
      </trkpt>
      <trkpt lat="43.74166" lon="3.54329">
        <ele>277</ele>
        <time>2019-03-26T10:06:04.301Z</time>
      </trkpt>
      <trkpt lat="43.74168" lon="3.54325">
        <ele>277</ele>
        <time>2019-03-26T10:06:09.321Z</time>
      </trkpt>
      <trkpt lat="43.74172" lon="3.5432">
        <ele>277</ele>
        <time>2019-03-26T10:06:14.308Z</time>
      </trkpt>
      <trkpt lat="43.74175" lon="3.54315">
        <ele>277</ele>
        <time>2019-03-26T10:06:19.291Z</time>
      </trkpt>
      <trkpt lat="43.74177" lon="3.54312">
        <ele>277</ele>
        <time>2019-03-26T10:06:24.291Z</time>
      </trkpt>
      <trkpt lat="43.7418" lon="3.5431">
        <ele>277</ele>
        <time>2019-03-26T10:06:29.289Z</time>
      </trkpt>
      <trkpt lat="43.74182" lon="3.54311">
        <ele>283</ele>
        <time>2019-03-26T10:06:34.290Z</time>
      </trkpt>
      <trkpt lat="43.74184" lon="3.54314">
        <ele>283</ele>
        <time>2019-03-26T10:06:38.322Z</time>
      </trkpt>
      <trkpt lat="43.74184" lon="3.54318">
        <ele>283</ele>
        <time>2019-03-26T10:06:43.292Z</time>
      </trkpt>
      <trkpt lat="43.74183" lon="3.54323">
        <ele>284</ele>
        <time>2019-03-26T10:06:48.300Z</time>
      </trkpt>
      <trkpt lat="43.74185" lon="3.54327">
        <ele>284</ele>
        <time>2019-03-26T10:06:53.288Z</time>
      </trkpt>
      <trkpt lat="43.74187" lon="3.54331">
        <ele>284</ele>
        <time>2019-03-26T10:06:58.290Z</time>
      </trkpt>
      <trkpt lat="43.74188" lon="3.54337">
        <ele>284</ele>
        <time>2019-03-26T10:07:03.291Z</time>
      </trkpt>
      <trkpt lat="43.74188" lon="3.54344">
        <ele>284</ele>
        <time>2019-03-26T10:07:08.289Z</time>
      </trkpt>
      <trkpt lat="43.74188" lon="3.54352">
        <ele>285</ele>
        <time>2019-03-26T10:07:13.337Z</time>
      </trkpt>
      <trkpt lat="43.7419" lon="3.54359">
        <ele>285</ele>
        <time>2019-03-26T10:07:18.287Z</time>
      </trkpt>
      <trkpt lat="43.74191" lon="3.54365">
        <ele>285</ele>
        <time>2019-03-26T10:07:23.287Z</time>
      </trkpt>
      <trkpt lat="43.74193" lon="3.54372">
        <ele>285</ele>
        <time>2019-03-26T10:07:28.287Z</time>
      </trkpt>
      <trkpt lat="43.74194" lon="3.54379">
        <ele>284</ele>
        <time>2019-03-26T10:07:33.294Z</time>
      </trkpt>
      <trkpt lat="43.74195" lon="3.54386">
        <ele>284</ele>
        <time>2019-03-26T10:07:38.290Z</time>
      </trkpt>
      <trkpt lat="43.74196" lon="3.54393">
        <ele>284</ele>
        <time>2019-03-26T10:07:43.287Z</time>
      </trkpt>
      <trkpt lat="43.74198" lon="3.54399">
        <ele>284</ele>
        <time>2019-03-26T10:07:48.301Z</time>
      </trkpt>
      <trkpt lat="43.74199" lon="3.54406">
        <ele>285</ele>
        <time>2019-03-26T10:07:53.286Z</time>
      </trkpt>
      <trkpt lat="43.74197" lon="3.54412">
        <ele>285</ele>
        <time>2019-03-26T10:07:58.293Z</time>
      </trkpt>
      <trkpt lat="43.74193" lon="3.54417">
        <ele>285</ele>
        <time>2019-03-26T10:08:03.304Z</time>
      </trkpt>
      <trkpt lat="43.74192" lon="3.54423">
        <ele>285</ele>
        <time>2019-03-26T10:08:07.308Z</time>
      </trkpt>
      <trkpt lat="43.74192" lon="3.54429">
        <ele>285</ele>
        <time>2019-03-26T10:08:12.290Z</time>
      </trkpt>
      <trkpt lat="43.74193" lon="3.54435">
        <ele>287</ele>
        <time>2019-03-26T10:08:17.288Z</time>
      </trkpt>
      <trkpt lat="43.74197" lon="3.54438">
        <ele>287</ele>
        <time>2019-03-26T10:08:22.288Z</time>
      </trkpt>
      <trkpt lat="43.74197" lon="3.54436">
        <ele>287</ele>
        <time>2019-03-26T10:08:26.287Z</time>
      </trkpt>
      <trkpt lat="43.74198" lon="3.54429">
        <ele>285</ele>
        <time>2019-03-26T10:08:31.293Z</time>
      </trkpt>
      <trkpt lat="43.742" lon="3.54424">
        <ele>285</ele>
        <time>2019-03-26T10:08:35.289Z</time>
      </trkpt>
      <trkpt lat="43.74203" lon="3.54421">
        <ele>285</ele>
        <time>2019-03-26T10:08:40.289Z</time>
      </trkpt>
      <trkpt lat="43.74206" lon="3.54419">
        <ele>285</ele>
        <time>2019-03-26T10:08:44.293Z</time>
      </trkpt>
      <trkpt lat="43.74209" lon="3.54415">
        <ele>292</ele>
        <time>2019-03-26T10:08:49.294Z</time>
      </trkpt>
      <trkpt lat="43.74212" lon="3.54411">
        <ele>292</ele>
        <time>2019-03-26T10:08:54.294Z</time>
      </trkpt>
      <trkpt lat="43.74215" lon="3.54408">
        <ele>292</ele>
        <time>2019-03-26T10:08:58.299Z</time>
      </trkpt>
      <trkpt lat="43.74219" lon="3.54403">
        <ele>292</ele>
        <time>2019-03-26T10:09:03.313Z</time>
      </trkpt>
      <trkpt lat="43.74223" lon="3.54397">
        <ele>291</ele>
        <time>2019-03-26T10:09:08.291Z</time>
      </trkpt>
      <trkpt lat="43.74226" lon="3.54392">
        <ele>291</ele>
        <time>2019-03-26T10:09:13.288Z</time>
      </trkpt>
      <trkpt lat="43.74229" lon="3.54388">
        <ele>291</ele>
        <time>2019-03-26T10:09:18.302Z</time>
      </trkpt>
      <trkpt lat="43.74232" lon="3.54385">
        <ele>291</ele>
        <time>2019-03-26T10:09:23.337Z</time>
      </trkpt>
      <trkpt lat="43.74234" lon="3.54379">
        <ele>291</ele>
        <time>2019-03-26T10:09:28.282Z</time>
      </trkpt>
      <trkpt lat="43.74236" lon="3.54372">
        <ele>299</ele>
        <time>2019-03-26T10:09:33.288Z</time>
      </trkpt>
      <trkpt lat="43.74237" lon="3.54365">
        <ele>299</ele>
        <time>2019-03-26T10:09:38.292Z</time>
      </trkpt>
      <trkpt lat="43.74239" lon="3.54359">
        <ele>299</ele>
        <time>2019-03-26T10:09:43.328Z</time>
      </trkpt>
      <trkpt lat="43.74241" lon="3.54354">
        <ele>299</ele>
        <time>2019-03-26T10:09:48.296Z</time>
      </trkpt>
      <trkpt lat="43.74244" lon="3.54349">
        <ele>299</ele>
        <time>2019-03-26T10:09:53.287Z</time>
      </trkpt>
      <trkpt lat="43.74245" lon="3.54344">
        <ele>298</ele>
        <time>2019-03-26T10:09:57.301Z</time>
      </trkpt>
      <trkpt lat="43.74248" lon="3.54337">
        <ele>298</ele>
        <time>2019-03-26T10:10:02.315Z</time>
      </trkpt>
      <trkpt lat="43.7425" lon="3.54332">
        <ele>298</ele>
        <time>2019-03-26T10:10:07.293Z</time>
      </trkpt>
      <trkpt lat="43.74252" lon="3.54329">
        <ele>298</ele>
        <time>2019-03-26T10:10:11.298Z</time>
      </trkpt>
      <trkpt lat="43.74254" lon="3.54324">
        <ele>298</ele>
        <time>2019-03-26T10:10:16.310Z</time>
      </trkpt>
      <trkpt lat="43.74255" lon="3.54318">
        <ele>296</ele>
        <time>2019-03-26T10:10:21.295Z</time>
      </trkpt>
      <trkpt lat="43.74258" lon="3.54312">
        <ele>296</ele>
        <time>2019-03-26T10:10:26.284Z</time>
      </trkpt>
      <trkpt lat="43.7426" lon="3.54307">
        <ele>296</ele>
        <time>2019-03-26T10:10:30.316Z</time>
      </trkpt>
      <trkpt lat="43.74263" lon="3.54301">
        <ele>296</ele>
        <time>2019-03-26T10:10:35.321Z</time>
      </trkpt>
      <trkpt lat="43.74265" lon="3.54297">
        <ele>307</ele>
        <time>2019-03-26T10:10:40.294Z</time>
      </trkpt>
      <trkpt lat="43.74267" lon="3.54293">
        <ele>307</ele>
        <time>2019-03-26T10:10:44.289Z</time>
      </trkpt>
      <trkpt lat="43.7427" lon="3.54289">
        <ele>306</ele>
        <time>2019-03-26T10:10:49.312Z</time>
      </trkpt>
      <trkpt lat="43.74274" lon="3.54284">
        <ele>306</ele>
        <time>2019-03-26T10:10:54.286Z</time>
      </trkpt>
      <trkpt lat="43.74277" lon="3.54278">
        <ele>306</ele>
        <time>2019-03-26T10:10:59.286Z</time>
      </trkpt>
      <trkpt lat="43.74279" lon="3.54273">
        <ele>306</ele>
        <time>2019-03-26T10:11:04.279Z</time>
      </trkpt>
      <trkpt lat="43.74282" lon="3.54269">
        <ele>306</ele>
        <time>2019-03-26T10:11:08.288Z</time>
      </trkpt>
      <trkpt lat="43.74285" lon="3.54265">
        <ele>306</ele>
        <time>2019-03-26T10:11:13.286Z</time>
      </trkpt>
      <trkpt lat="43.74288" lon="3.54263">
        <ele>304</ele>
        <time>2019-03-26T10:11:18.318Z</time>
      </trkpt>
      <trkpt lat="43.7429" lon="3.54258">
        <ele>304</ele>
        <time>2019-03-26T10:11:23.294Z</time>
      </trkpt>
      <trkpt lat="43.74294" lon="3.54254">
        <ele>313</ele>
        <time>2019-03-26T10:11:28.293Z</time>
      </trkpt>
      <trkpt lat="43.74298" lon="3.54251">
        <ele>313</ele>
        <time>2019-03-26T10:11:33.285Z</time>
      </trkpt>
      <trkpt lat="43.74301" lon="3.54249">
        <ele>313</ele>
        <time>2019-03-26T10:11:38.285Z</time>
      </trkpt>
      <trkpt lat="43.74302" lon="3.54247">
        <ele>313</ele>
        <time>2019-03-26T10:11:42.327Z</time>
      </trkpt>
      <trkpt lat="43.74305" lon="3.54245">
        <ele>313</ele>
        <time>2019-03-26T10:11:47.289Z</time>
      </trkpt>
      <trkpt lat="43.74312" lon="3.54241">
        <ele>313</ele>
        <time>2019-03-26T10:11:52.288Z</time>
      </trkpt>
      <trkpt lat="43.74315" lon="3.54239">
        <ele>313</ele>
        <time>2019-03-26T10:11:56.290Z</time>
      </trkpt>
      <trkpt lat="43.74319" lon="3.54237">
        <ele>313</ele>
        <time>2019-03-26T10:12:01.287Z</time>
      </trkpt>
      <trkpt lat="43.74323" lon="3.54235">
        <ele>315</ele>
        <time>2019-03-26T10:12:06.296Z</time>
      </trkpt>
      <trkpt lat="43.74324" lon="3.54232">
        <ele>315</ele>
        <time>2019-03-26T10:12:11.285Z</time>
      </trkpt>
      <trkpt lat="43.74325" lon="3.54231">
        <ele>315</ele>
        <time>2019-03-26T10:12:29.295Z</time>
      </trkpt>
      <trkpt lat="43.7433" lon="3.54223">
        <ele>315</ele>
        <time>2019-03-26T10:12:34.281Z</time>
      </trkpt>
      <trkpt lat="43.74332" lon="3.54217">
        <ele>315</ele>
        <time>2019-03-26T10:12:39.283Z</time>
      </trkpt>
      <trkpt lat="43.74336" lon="3.54212">
        <ele>315</ele>
        <time>2019-03-26T10:12:44.294Z</time>
      </trkpt>
      <trkpt lat="43.74339" lon="3.54209">
        <ele>315</ele>
        <time>2019-03-26T10:12:48.323Z</time>
      </trkpt>
      <trkpt lat="43.74344" lon="3.54207">
        <ele>313</ele>
        <time>2019-03-26T10:12:53.290Z</time>
      </trkpt>
      <trkpt lat="43.74348" lon="3.54203">
        <ele>318</ele>
        <time>2019-03-26T10:12:58.285Z</time>
      </trkpt>
      <trkpt lat="43.74353" lon="3.54199">
        <ele>318</ele>
        <time>2019-03-26T10:13:03.274Z</time>
      </trkpt>
      <trkpt lat="43.74354" lon="3.54198">
        <ele>318</ele>
        <time>2019-03-26T10:13:07.290Z</time>
      </trkpt>
      <trkpt lat="43.7436" lon="3.54198">
        <ele>318</ele>
        <time>2019-03-26T10:13:12.289Z</time>
      </trkpt>
      <trkpt lat="43.74364" lon="3.54198">
        <ele>318</ele>
        <time>2019-03-26T10:13:16.308Z</time>
      </trkpt>
      <trkpt lat="43.74369" lon="3.54198">
        <ele>318</ele>
        <time>2019-03-26T10:13:21.289Z</time>
      </trkpt>
      <trkpt lat="43.74372" lon="3.54199">
        <ele>318</ele>
        <time>2019-03-26T10:13:26.285Z</time>
      </trkpt>
      <trkpt lat="43.74376" lon="3.54201">
        <ele>321</ele>
        <time>2019-03-26T10:13:30.293Z</time>
      </trkpt>
      <trkpt lat="43.7438" lon="3.54201">
        <ele>321</ele>
        <time>2019-03-26T10:13:35.290Z</time>
      </trkpt>
      <trkpt lat="43.74384" lon="3.542">
        <ele>321</ele>
        <time>2019-03-26T10:13:39.310Z</time>
      </trkpt>
      <trkpt lat="43.74388" lon="3.54199">
        <ele>321</ele>
        <time>2019-03-26T10:13:44.290Z</time>
      </trkpt>
      <trkpt lat="43.74393" lon="3.54196">
        <ele>321</ele>
        <time>2019-03-26T10:13:49.307Z</time>
      </trkpt>
      <trkpt lat="43.74397" lon="3.54194">
        <ele>321</ele>
        <time>2019-03-26T10:13:54.280Z</time>
      </trkpt>
      <trkpt lat="43.74401" lon="3.54191">
        <ele>321</ele>
        <time>2019-03-26T10:13:59.311Z</time>
      </trkpt>
      <trkpt lat="43.74405" lon="3.54189">
        <ele>321</ele>
        <time>2019-03-26T10:14:04.300Z</time>
      </trkpt>
      <trkpt lat="43.74411" lon="3.54185">
        <ele>321</ele>
        <time>2019-03-26T10:14:27.303Z</time>
      </trkpt>
      <trkpt lat="43.74419" lon="3.54183">
        <ele>321</ele>
        <time>2019-03-26T10:14:32.306Z</time>
      </trkpt>
      <trkpt lat="43.74425" lon="3.5418">
        <ele>325</ele>
        <time>2019-03-26T10:14:37.285Z</time>
      </trkpt>
      <trkpt lat="43.7443" lon="3.54178">
        <ele>325</ele>
        <time>2019-03-26T10:14:41.316Z</time>
      </trkpt>
      <trkpt lat="43.74434" lon="3.54177">
        <ele>323</ele>
        <time>2019-03-26T10:14:46.290Z</time>
      </trkpt>
      <trkpt lat="43.74436" lon="3.54179">
        <ele>323</ele>
        <time>2019-03-26T10:14:50.326Z</time>
      </trkpt>
      <trkpt lat="43.74441" lon="3.54182">
        <ele>316</ele>
        <time>2019-03-26T10:14:55.294Z</time>
      </trkpt>
      <trkpt lat="43.74447" lon="3.54183">
        <ele>316</ele>
        <time>2019-03-26T10:15:00.298Z</time>
      </trkpt>
      <trkpt lat="43.74451" lon="3.5418">
        <ele>323</ele>
        <time>2019-03-26T10:15:05.289Z</time>
      </trkpt>
      <trkpt lat="43.74453" lon="3.54178">
        <ele>323</ele>
        <time>2019-03-26T10:15:10.289Z</time>
      </trkpt>
      <trkpt lat="43.74456" lon="3.54174">
        <ele>323</ele>
        <time>2019-03-26T10:15:14.291Z</time>
      </trkpt>
      <trkpt lat="43.74461" lon="3.54169">
        <ele>319</ele>
        <time>2019-03-26T10:15:19.287Z</time>
      </trkpt>
      <trkpt lat="43.74465" lon="3.54168">
        <ele>319</ele>
        <time>2019-03-26T10:15:24.278Z</time>
      </trkpt>
      <trkpt lat="43.74469" lon="3.54165">
        <ele>319</ele>
        <time>2019-03-26T10:15:28.285Z</time>
      </trkpt>
      <trkpt lat="43.74473" lon="3.54162">
        <ele>319</ele>
        <time>2019-03-26T10:15:32.315Z</time>
      </trkpt>
      <trkpt lat="43.74479" lon="3.54162">
        <ele>319</ele>
        <time>2019-03-26T10:15:37.306Z</time>
      </trkpt>
      <trkpt lat="43.74485" lon="3.54161">
        <ele>319</ele>
        <time>2019-03-26T10:15:42.287Z</time>
      </trkpt>
      <trkpt lat="43.7449" lon="3.5416">
        <ele>317</ele>
        <time>2019-03-26T10:15:47.288Z</time>
      </trkpt>
      <trkpt lat="43.74496" lon="3.54162">
        <ele>317</ele>
        <time>2019-03-26T10:15:51.299Z</time>
      </trkpt>
      <trkpt lat="43.74504" lon="3.54163">
        <ele>317</ele>
        <time>2019-03-26T10:15:56.300Z</time>
      </trkpt>
      <trkpt lat="43.74509" lon="3.54162">
        <ele>317</ele>
        <time>2019-03-26T10:16:01.290Z</time>
      </trkpt>
      <trkpt lat="43.74515" lon="3.54162">
        <ele>316</ele>
        <time>2019-03-26T10:16:06.277Z</time>
      </trkpt>
      <trkpt lat="43.74519" lon="3.54161">
        <ele>316</ele>
        <time>2019-03-26T10:16:10.309Z</time>
      </trkpt>
      <trkpt lat="43.74525" lon="3.54158">
        <ele>316</ele>
        <time>2019-03-26T10:16:15.311Z</time>
      </trkpt>
      <trkpt lat="43.74531" lon="3.54156">
        <ele>316</ele>
        <time>2019-03-26T10:16:20.288Z</time>
      </trkpt>
      <trkpt lat="43.74536" lon="3.54152">
        <ele>322</ele>
        <time>2019-03-26T10:16:25.282Z</time>
      </trkpt>
      <trkpt lat="43.74541" lon="3.54152">
        <ele>322</ele>
        <time>2019-03-26T10:16:29.284Z</time>
      </trkpt>
      <trkpt lat="43.74546" lon="3.5415">
        <ele>322</ele>
        <time>2019-03-26T10:16:34.294Z</time>
      </trkpt>
      <trkpt lat="43.7455" lon="3.54146">
        <ele>322</ele>
        <time>2019-03-26T10:16:39.288Z</time>
      </trkpt>
      <trkpt lat="43.74555" lon="3.54147">
        <ele>322</ele>
        <time>2019-03-26T10:16:44.288Z</time>
      </trkpt>
      <trkpt lat="43.7456" lon="3.54151">
        <ele>322</ele>
        <time>2019-03-26T10:16:49.291Z</time>
      </trkpt>
      <trkpt lat="43.74563" lon="3.54153">
        <ele>316</ele>
        <time>2019-03-26T10:16:53.314Z</time>
      </trkpt>
      <trkpt lat="43.74567" lon="3.54153">
        <ele>322</ele>
        <time>2019-03-26T10:16:58.314Z</time>
      </trkpt>
      <trkpt lat="43.74571" lon="3.54151">
        <ele>323</ele>
        <time>2019-03-26T10:17:03.286Z</time>
      </trkpt>
      <trkpt lat="43.74574" lon="3.5415">
        <ele>323</ele>
        <time>2019-03-26T10:17:07.308Z</time>
      </trkpt>
      <trkpt lat="43.74579" lon="3.54148">
        <ele>323</ele>
        <time>2019-03-26T10:17:12.303Z</time>
      </trkpt>
      <trkpt lat="43.74584" lon="3.54145">
        <ele>323</ele>
        <time>2019-03-26T10:17:17.300Z</time>
      </trkpt>
      <trkpt lat="43.74589" lon="3.54142">
        <ele>323</ele>
        <time>2019-03-26T10:17:21.311Z</time>
      </trkpt>
      <trkpt lat="43.74595" lon="3.54141">
        <ele>323</ele>
        <time>2019-03-26T10:17:26.307Z</time>
      </trkpt>
      <trkpt lat="43.746" lon="3.5414">
        <ele>327</ele>
        <time>2019-03-26T10:17:31.284Z</time>
      </trkpt>
      <trkpt lat="43.74606" lon="3.54138">
        <ele>327</ele>
        <time>2019-03-26T10:17:36.312Z</time>
      </trkpt>
      <trkpt lat="43.74609" lon="3.54137">
        <ele>327</ele>
        <time>2019-03-26T10:17:40.316Z</time>
      </trkpt>
      <trkpt lat="43.74615" lon="3.54135">
        <ele>327</ele>
        <time>2019-03-26T10:17:45.342Z</time>
      </trkpt>
      <trkpt lat="43.74619" lon="3.5413">
        <ele>327</ele>
        <time>2019-03-26T10:17:50.284Z</time>
      </trkpt>
      <trkpt lat="43.74624" lon="3.54128">
        <ele>327</ele>
        <time>2019-03-26T10:17:55.283Z</time>
      </trkpt>
      <trkpt lat="43.74629" lon="3.54126">
        <ele>322</ele>
        <time>2019-03-26T10:17:59.302Z</time>
      </trkpt>
      <trkpt lat="43.7463" lon="3.54123">
        <ele>326</ele>
        <time>2019-03-26T10:18:04.266Z</time>
      </trkpt>
      <trkpt lat="43.74633" lon="3.54123">
        <ele>326</ele>
        <time>2019-03-26T10:18:08.286Z</time>
      </trkpt>
      <trkpt lat="43.7464" lon="3.54124">
        <ele>326</ele>
        <time>2019-03-26T10:18:13.292Z</time>
      </trkpt>
      <trkpt lat="43.74645" lon="3.54128">
        <ele>322</ele>
        <time>2019-03-26T10:18:18.309Z</time>
      </trkpt>
      <trkpt lat="43.74651" lon="3.54129">
        <ele>322</ele>
        <time>2019-03-26T10:18:23.315Z</time>
      </trkpt>
      <trkpt lat="43.74657" lon="3.5413">
        <ele>322</ele>
        <time>2019-03-26T10:18:28.284Z</time>
      </trkpt>
      <trkpt lat="43.74663" lon="3.54128">
        <ele>322</ele>
        <time>2019-03-26T10:18:33.279Z</time>
      </trkpt>
      <trkpt lat="43.74669" lon="3.54129">
        <ele>322</ele>
        <time>2019-03-26T10:18:38.266Z</time>
      </trkpt>
      <trkpt lat="43.74673" lon="3.54129">
        <ele>322</ele>
        <time>2019-03-26T10:18:42.284Z</time>
      </trkpt>
      <trkpt lat="43.74677" lon="3.54128">
        <ele>322</ele>
        <time>2019-03-26T10:18:46.305Z</time>
      </trkpt>
      <trkpt lat="43.74683" lon="3.54128">
        <ele>322</ele>
        <time>2019-03-26T10:18:51.280Z</time>
      </trkpt>
      <trkpt lat="43.74688" lon="3.54131">
        <ele>322</ele>
        <time>2019-03-26T10:18:56.278Z</time>
      </trkpt>
      <trkpt lat="43.74693" lon="3.54132">
        <ele>322</ele>
        <time>2019-03-26T10:19:00.309Z</time>
      </trkpt>
      <trkpt lat="43.74697" lon="3.54133">
        <ele>322</ele>
        <time>2019-03-26T10:19:05.286Z</time>
      </trkpt>
      <trkpt lat="43.74702" lon="3.54133">
        <ele>322</ele>
        <time>2019-03-26T10:19:10.286Z</time>
      </trkpt>
      <trkpt lat="43.74706" lon="3.54134">
        <ele>322</ele>
        <time>2019-03-26T10:19:15.290Z</time>
      </trkpt>
      <trkpt lat="43.74712" lon="3.54134">
        <ele>320</ele>
        <time>2019-03-26T10:19:20.324Z</time>
      </trkpt>
      <trkpt lat="43.74717" lon="3.54136">
        <ele>320</ele>
        <time>2019-03-26T10:19:25.287Z</time>
      </trkpt>
      <trkpt lat="43.74723" lon="3.54136">
        <ele>320</ele>
        <time>2019-03-26T10:19:30.302Z</time>
      </trkpt>
      <trkpt lat="43.74729" lon="3.54138">
        <ele>320</ele>
        <time>2019-03-26T10:19:35.287Z</time>
      </trkpt>
      <trkpt lat="43.74735" lon="3.54143">
        <ele>320</ele>
        <time>2019-03-26T10:19:40.325Z</time>
      </trkpt>
      <trkpt lat="43.74741" lon="3.54144">
        <ele>321</ele>
        <time>2019-03-26T10:19:45.284Z</time>
      </trkpt>
      <trkpt lat="43.74747" lon="3.54145">
        <ele>321</ele>
        <time>2019-03-26T10:19:50.290Z</time>
      </trkpt>
      <trkpt lat="43.74753" lon="3.54147">
        <ele>321</ele>
        <time>2019-03-26T10:19:55.285Z</time>
      </trkpt>
      <trkpt lat="43.74756" lon="3.54151">
        <ele>321</ele>
        <time>2019-03-26T10:19:59.320Z</time>
      </trkpt>
      <trkpt lat="43.74762" lon="3.54155">
        <ele>319</ele>
        <time>2019-03-26T10:20:04.307Z</time>
      </trkpt>
      <trkpt lat="43.74762" lon="3.54161">
        <ele>319</ele>
        <time>2019-03-26T10:20:09.285Z</time>
      </trkpt>
      <trkpt lat="43.74759" lon="3.54167">
        <ele>319</ele>
        <time>2019-03-26T10:20:14.318Z</time>
      </trkpt>
      <trkpt lat="43.74756" lon="3.54173">
        <ele>319</ele>
        <time>2019-03-26T10:20:19.288Z</time>
      </trkpt>
      <trkpt lat="43.74753" lon="3.54179">
        <ele>319</ele>
        <time>2019-03-26T10:20:24.287Z</time>
      </trkpt>
      <trkpt lat="43.74753" lon="3.54187">
        <ele>320</ele>
        <time>2019-03-26T10:20:29.283Z</time>
      </trkpt>
      <trkpt lat="43.74754" lon="3.54197">
        <ele>320</ele>
        <time>2019-03-26T10:20:34.315Z</time>
      </trkpt>
      <trkpt lat="43.74753" lon="3.54205">
        <ele>320</ele>
        <time>2019-03-26T10:20:39.289Z</time>
      </trkpt>
      <trkpt lat="43.74753" lon="3.54212">
        <ele>319</ele>
        <time>2019-03-26T10:20:43.317Z</time>
      </trkpt>
      <trkpt lat="43.74755" lon="3.54219">
        <ele>319</ele>
        <time>2019-03-26T10:20:48.295Z</time>
      </trkpt>
      <trkpt lat="43.74756" lon="3.54227">
        <ele>319</ele>
        <time>2019-03-26T10:20:53.292Z</time>
      </trkpt>
      <trkpt lat="43.74757" lon="3.54235">
        <ele>319</ele>
        <time>2019-03-26T10:20:58.322Z</time>
      </trkpt>
      <trkpt lat="43.74758" lon="3.54242">
        <ele>318</ele>
        <time>2019-03-26T10:21:03.284Z</time>
      </trkpt>
      <trkpt lat="43.74761" lon="3.54248">
        <ele>318</ele>
        <time>2019-03-26T10:21:07.312Z</time>
      </trkpt>
      <trkpt lat="43.74764" lon="3.54256">
        <ele>318</ele>
        <time>2019-03-26T10:21:12.314Z</time>
      </trkpt>
      <trkpt lat="43.74763" lon="3.54263">
        <ele>318</ele>
        <time>2019-03-26T10:21:17.307Z</time>
      </trkpt>
      <trkpt lat="43.74762" lon="3.54269">
        <ele>318</ele>
        <time>2019-03-26T10:21:22.290Z</time>
      </trkpt>
      <trkpt lat="43.74759" lon="3.54276">
        <ele>318</ele>
        <time>2019-03-26T10:21:27.287Z</time>
      </trkpt>
      <trkpt lat="43.74759" lon="3.54282">
        <ele>318</ele>
        <time>2019-03-26T10:21:31.301Z</time>
      </trkpt>
      <trkpt lat="43.74758" lon="3.54288">
        <ele>318</ele>
        <time>2019-03-26T10:21:36.315Z</time>
      </trkpt>
      <trkpt lat="43.74757" lon="3.54292">
        <ele>321</ele>
        <time>2019-03-26T10:21:40.324Z</time>
      </trkpt>
      <trkpt lat="43.74758" lon="3.54299">
        <ele>321</ele>
        <time>2019-03-26T10:21:45.283Z</time>
      </trkpt>
      <trkpt lat="43.74757" lon="3.54306">
        <ele>321</ele>
        <time>2019-03-26T10:21:50.284Z</time>
      </trkpt>
      <trkpt lat="43.74758" lon="3.54313">
        <ele>321</ele>
        <time>2019-03-26T10:21:54.293Z</time>
      </trkpt>
      <trkpt lat="43.74758" lon="3.54322">
        <ele>323</ele>
        <time>2019-03-26T10:21:59.301Z</time>
      </trkpt>
      <trkpt lat="43.74758" lon="3.5433">
        <ele>323</ele>
        <time>2019-03-26T10:22:04.281Z</time>
      </trkpt>
      <trkpt lat="43.74757" lon="3.54338">
        <ele>323</ele>
        <time>2019-03-26T10:22:09.275Z</time>
      </trkpt>
      <trkpt lat="43.74758" lon="3.54344">
        <ele>323</ele>
        <time>2019-03-26T10:22:13.297Z</time>
      </trkpt>
      <trkpt lat="43.74757" lon="3.54351">
        <ele>325</ele>
        <time>2019-03-26T10:22:18.294Z</time>
      </trkpt>
      <trkpt lat="43.74756" lon="3.54357">
        <ele>325</ele>
        <time>2019-03-26T10:22:22.331Z</time>
      </trkpt>
      <trkpt lat="43.74756" lon="3.54364">
        <ele>325</ele>
        <time>2019-03-26T10:22:27.318Z</time>
      </trkpt>
      <trkpt lat="43.74757" lon="3.54371">
        <ele>325</ele>
        <time>2019-03-26T10:22:32.326Z</time>
      </trkpt>
      <trkpt lat="43.74758" lon="3.54379">
        <ele>327</ele>
        <time>2019-03-26T10:22:37.323Z</time>
      </trkpt>
      <trkpt lat="43.74757" lon="3.54387">
        <ele>327</ele>
        <time>2019-03-26T10:22:42.288Z</time>
      </trkpt>
      <trkpt lat="43.74757" lon="3.54393">
        <ele>327</ele>
        <time>2019-03-26T10:22:46.299Z</time>
      </trkpt>
      <trkpt lat="43.74754" lon="3.54401">
        <ele>327</ele>
        <time>2019-03-26T10:22:51.289Z</time>
      </trkpt>
      <trkpt lat="43.74753" lon="3.54408">
        <ele>329</ele>
        <time>2019-03-26T10:22:55.302Z</time>
      </trkpt>
      <trkpt lat="43.74753" lon="3.54418">
        <ele>329</ele>
        <time>2019-03-26T10:23:00.289Z</time>
      </trkpt>
      <trkpt lat="43.74752" lon="3.54428">
        <ele>329</ele>
        <time>2019-03-26T10:23:05.313Z</time>
      </trkpt>
      <trkpt lat="43.7475" lon="3.54436">
        <ele>333</ele>
        <time>2019-03-26T10:23:10.294Z</time>
      </trkpt>
      <trkpt lat="43.74748" lon="3.54445">
        <ele>333</ele>
        <time>2019-03-26T10:23:15.289Z</time>
      </trkpt>
      <trkpt lat="43.74744" lon="3.54453">
        <ele>333</ele>
        <time>2019-03-26T10:23:20.314Z</time>
      </trkpt>
      <trkpt lat="43.74739" lon="3.5446">
        <ele>334</ele>
        <time>2019-03-26T10:23:25.289Z</time>
      </trkpt>
      <trkpt lat="43.74735" lon="3.54466">
        <ele>324</ele>
        <time>2019-03-26T10:23:30.289Z</time>
      </trkpt>
      <trkpt lat="43.74731" lon="3.54472">
        <ele>324</ele>
        <time>2019-03-26T10:23:35.291Z</time>
      </trkpt>
      <trkpt lat="43.74727" lon="3.54477">
        <ele>324</ele>
        <time>2019-03-26T10:23:40.311Z</time>
      </trkpt>
      <trkpt lat="43.74723" lon="3.54483">
        <ele>324</ele>
        <time>2019-03-26T10:23:45.291Z</time>
      </trkpt>
      <trkpt lat="43.7472" lon="3.5449">
        <ele>327</ele>
        <time>2019-03-26T10:23:50.287Z</time>
      </trkpt>
      <trkpt lat="43.74718" lon="3.54498">
        <ele>327</ele>
        <time>2019-03-26T10:23:55.288Z</time>
      </trkpt>
      <trkpt lat="43.74716" lon="3.54504">
        <ele>327</ele>
        <time>2019-03-26T10:24:00.279Z</time>
      </trkpt>
      <trkpt lat="43.74714" lon="3.54509">
        <ele>327</ele>
        <time>2019-03-26T10:24:04.311Z</time>
      </trkpt>
      <trkpt lat="43.74712" lon="3.54514">
        <ele>332</ele>
        <time>2019-03-26T10:24:09.285Z</time>
      </trkpt>
      <trkpt lat="43.7471" lon="3.5452">
        <ele>332</ele>
        <time>2019-03-26T10:24:14.289Z</time>
      </trkpt>
      <trkpt lat="43.74708" lon="3.54526">
        <ele>324</ele>
        <time>2019-03-26T10:24:19.284Z</time>
      </trkpt>
      <trkpt lat="43.74708" lon="3.54532">
        <ele>324</ele>
        <time>2019-03-26T10:24:24.310Z</time>
      </trkpt>
      <trkpt lat="43.74708" lon="3.54539">
        <ele>324</ele>
        <time>2019-03-26T10:24:29.286Z</time>
      </trkpt>
      <trkpt lat="43.74707" lon="3.54543">
        <ele>327</ele>
        <time>2019-03-26T10:24:33.298Z</time>
      </trkpt>
      <trkpt lat="43.74709" lon="3.54551">
        <ele>334</ele>
        <time>2019-03-26T10:24:38.288Z</time>
      </trkpt>
      <trkpt lat="43.74711" lon="3.54557">
        <ele>334</ele>
        <time>2019-03-26T10:24:43.293Z</time>
      </trkpt>
      <trkpt lat="43.74714" lon="3.54564">
        <ele>334</ele>
        <time>2019-03-26T10:24:48.320Z</time>
      </trkpt>
      <trkpt lat="43.74717" lon="3.5457">
        <ele>334</ele>
        <time>2019-03-26T10:24:53.279Z</time>
      </trkpt>
      <trkpt lat="43.74721" lon="3.54574">
        <ele>334</ele>
        <time>2019-03-26T10:24:58.283Z</time>
      </trkpt>
      <trkpt lat="43.74724" lon="3.54577">
        <ele>334</ele>
        <time>2019-03-26T10:25:02.317Z</time>
      </trkpt>
      <trkpt lat="43.74727" lon="3.54581">
        <ele>334</ele>
        <time>2019-03-26T10:25:07.284Z</time>
      </trkpt>
      <trkpt lat="43.7473" lon="3.54585">
        <ele>334</ele>
        <time>2019-03-26T10:25:12.284Z</time>
      </trkpt>
      <trkpt lat="43.74735" lon="3.54586">
        <ele>334</ele>
        <time>2019-03-26T10:25:17.268Z</time>
      </trkpt>
      <trkpt lat="43.74738" lon="3.54585">
        <ele>339</ele>
        <time>2019-03-26T10:25:22.293Z</time>
      </trkpt>
      <trkpt lat="43.74741" lon="3.54585">
        <ele>339</ele>
        <time>2019-03-26T10:25:26.346Z</time>
      </trkpt>
      <trkpt lat="43.74745" lon="3.54586">
        <ele>339</ele>
        <time>2019-03-26T10:25:31.286Z</time>
      </trkpt>
      <trkpt lat="43.74747" lon="3.54584">
        <ele>339</ele>
        <time>2019-03-26T10:25:36.281Z</time>
      </trkpt>
      <trkpt lat="43.74753" lon="3.54584">
        <ele>339</ele>
        <time>2019-03-26T10:25:41.285Z</time>
      </trkpt>
      <trkpt lat="43.74758" lon="3.54582">
        <ele>339</ele>
        <time>2019-03-26T10:25:46.284Z</time>
      </trkpt>
      <trkpt lat="43.7476" lon="3.54582">
        <ele>339</ele>
        <time>2019-03-26T10:25:51.292Z</time>
      </trkpt>
      <trkpt lat="43.74765" lon="3.54581">
        <ele>343</ele>
        <time>2019-03-26T10:25:56.286Z</time>
      </trkpt>
      <trkpt lat="43.74769" lon="3.54579">
        <ele>343</ele>
        <time>2019-03-26T10:26:01.286Z</time>
      </trkpt>
      <trkpt lat="43.74775" lon="3.54577">
        <ele>343</ele>
        <time>2019-03-26T10:26:06.285Z</time>
      </trkpt>
      <trkpt lat="43.74779" lon="3.54576">
        <ele>343</ele>
        <time>2019-03-26T10:26:11.284Z</time>
      </trkpt>
      <trkpt lat="43.74782" lon="3.54575">
        <ele>343</ele>
        <time>2019-03-26T10:26:15.316Z</time>
      </trkpt>
      <trkpt lat="43.7479" lon="3.54572">
        <ele>343</ele>
        <time>2019-03-26T10:26:20.291Z</time>
      </trkpt>
      <trkpt lat="43.74796" lon="3.54568">
        <ele>351</ele>
        <time>2019-03-26T10:26:25.284Z</time>
      </trkpt>
      <trkpt lat="43.748" lon="3.54567">
        <ele>351</ele>
        <time>2019-03-26T10:26:29.290Z</time>
      </trkpt>
      <trkpt lat="43.74807" lon="3.54567">
        <ele>351</ele>
        <time>2019-03-26T10:26:34.287Z</time>
      </trkpt>
      <trkpt lat="43.74812" lon="3.54567">
        <ele>351</ele>
        <time>2019-03-26T10:26:38.303Z</time>
      </trkpt>
      <trkpt lat="43.74819" lon="3.54568">
        <ele>351</ele>
        <time>2019-03-26T10:26:43.284Z</time>
      </trkpt>
      <trkpt lat="43.74825" lon="3.54566">
        <ele>353</ele>
        <time>2019-03-26T10:26:48.336Z</time>
      </trkpt>
      <trkpt lat="43.74831" lon="3.54564">
        <ele>353</ele>
        <time>2019-03-26T10:26:53.279Z</time>
      </trkpt>
      <trkpt lat="43.74836" lon="3.54562">
        <ele>353</ele>
        <time>2019-03-26T10:26:57.296Z</time>
      </trkpt>
      <trkpt lat="43.7484" lon="3.5456">
        <ele>353</ele>
        <time>2019-03-26T10:27:02.295Z</time>
      </trkpt>
      <trkpt lat="43.74846" lon="3.54558">
        <ele>353</ele>
        <time>2019-03-26T10:27:07.311Z</time>
      </trkpt>
      <trkpt lat="43.74849" lon="3.54557">
        <ele>356</ele>
        <time>2019-03-26T10:27:12.287Z</time>
      </trkpt>
      <trkpt lat="43.74858" lon="3.54558">
        <ele>356</ele>
        <time>2019-03-26T10:27:17.298Z</time>
      </trkpt>
      <trkpt lat="43.74866" lon="3.54561">
        <ele>356</ele>
        <time>2019-03-26T10:27:22.305Z</time>
      </trkpt>
      <trkpt lat="43.74871" lon="3.54563">
        <ele>356</ele>
        <time>2019-03-26T10:27:27.302Z</time>
      </trkpt>
      <trkpt lat="43.74873" lon="3.54567">
        <ele>356</ele>
        <time>2019-03-26T10:27:32.317Z</time>
      </trkpt>
      <trkpt lat="43.74876" lon="3.54569">
        <ele>360</ele>
        <time>2019-03-26T10:27:37.312Z</time>
      </trkpt>
      <trkpt lat="43.74879" lon="3.54573">
        <ele>356</ele>
        <time>2019-03-26T10:27:41.319Z</time>
      </trkpt>
      <trkpt lat="43.74881" lon="3.54576">
        <ele>356</ele>
        <time>2019-03-26T10:27:46.296Z</time>
      </trkpt>
      <trkpt lat="43.74884" lon="3.5458">
        <ele>356</ele>
        <time>2019-03-26T10:27:50.314Z</time>
      </trkpt>
      <trkpt lat="43.74889" lon="3.54587">
        <ele>356</ele>
        <time>2019-03-26T10:27:55.301Z</time>
      </trkpt>
      <trkpt lat="43.74892" lon="3.54592">
        <ele>356</ele>
        <time>2019-03-26T10:28:00.321Z</time>
      </trkpt>
      <trkpt lat="43.74895" lon="3.54597">
        <ele>356</ele>
        <time>2019-03-26T10:28:05.285Z</time>
      </trkpt>
      <trkpt lat="43.749" lon="3.54601">
        <ele>351</ele>
        <time>2019-03-26T10:28:09.323Z</time>
      </trkpt>
      <trkpt lat="43.74905" lon="3.54607">
        <ele>360</ele>
        <time>2019-03-26T10:28:14.308Z</time>
      </trkpt>
      <trkpt lat="43.74909" lon="3.54612">
        <ele>360</ele>
        <time>2019-03-26T10:28:19.321Z</time>
      </trkpt>
      <trkpt lat="43.74914" lon="3.54617">
        <ele>360</ele>
        <time>2019-03-26T10:28:24.311Z</time>
      </trkpt>
      <trkpt lat="43.74918" lon="3.54624">
        <ele>360</ele>
        <time>2019-03-26T10:28:29.292Z</time>
      </trkpt>
      <trkpt lat="43.74923" lon="3.54629">
        <ele>356</ele>
        <time>2019-03-26T10:28:34.280Z</time>
      </trkpt>
      <trkpt lat="43.74928" lon="3.54634">
        <ele>356</ele>
        <time>2019-03-26T10:28:39.291Z</time>
      </trkpt>
      <trkpt lat="43.74932" lon="3.54638">
        <ele>364</ele>
        <time>2019-03-26T10:28:44.284Z</time>
      </trkpt>
      <trkpt lat="43.74937" lon="3.54642">
        <ele>364</ele>
        <time>2019-03-26T10:28:49.290Z</time>
      </trkpt>
      <trkpt lat="43.74941" lon="3.54645">
        <ele>364</ele>
        <time>2019-03-26T10:28:54.298Z</time>
      </trkpt>
      <trkpt lat="43.74945" lon="3.5465">
        <ele>364</ele>
        <time>2019-03-26T10:28:59.292Z</time>
      </trkpt>
      <trkpt lat="43.74949" lon="3.54654">
        <ele>359</ele>
        <time>2019-03-26T10:29:04.287Z</time>
      </trkpt>
      <trkpt lat="43.74953" lon="3.54658">
        <ele>359</ele>
        <time>2019-03-26T10:29:08.302Z</time>
      </trkpt>
      <trkpt lat="43.74956" lon="3.54663">
        <ele>359</ele>
        <time>2019-03-26T10:29:13.295Z</time>
      </trkpt>
      <trkpt lat="43.74958" lon="3.54666">
        <ele>359</ele>
        <time>2019-03-26T10:29:18.302Z</time>
      </trkpt>
      <trkpt lat="43.74962" lon="3.54669">
        <ele>362</ele>
        <time>2019-03-26T10:29:23.286Z</time>
      </trkpt>
      <trkpt lat="43.74963" lon="3.54673">
        <ele>362</ele>
        <time>2019-03-26T10:29:28.281Z</time>
      </trkpt>
      <trkpt lat="43.74965" lon="3.54667">
        <ele>362</ele>
        <time>2019-03-26T10:29:32.290Z</time>
      </trkpt>
      <trkpt lat="43.74967" lon="3.54664">
        <ele>362</ele>
        <time>2019-03-26T10:29:36.298Z</time>
      </trkpt>
      <trkpt lat="43.74969" lon="3.54659">
        <ele>362</ele>
        <time>2019-03-26T10:29:41.293Z</time>
      </trkpt>
      <trkpt lat="43.74973" lon="3.54654">
        <ele>362</ele>
        <time>2019-03-26T10:29:46.299Z</time>
      </trkpt>
      <trkpt lat="43.74976" lon="3.54648">
        <ele>370</ele>
        <time>2019-03-26T10:29:51.323Z</time>
      </trkpt>
      <trkpt lat="43.74979" lon="3.54643">
        <ele>370</ele>
        <time>2019-03-26T10:29:56.349Z</time>
      </trkpt>
      <trkpt lat="43.74982" lon="3.54637">
        <ele>370</ele>
        <time>2019-03-26T10:30:01.302Z</time>
      </trkpt>
      <trkpt lat="43.74987" lon="3.5463">
        <ele>362</ele>
        <time>2019-03-26T10:30:06.282Z</time>
      </trkpt>
      <trkpt lat="43.74991" lon="3.54624">
        <ele>371</ele>
        <time>2019-03-26T10:30:11.295Z</time>
      </trkpt>
      <trkpt lat="43.74993" lon="3.5462">
        <ele>371</ele>
        <time>2019-03-26T10:30:15.320Z</time>
      </trkpt>
      <trkpt lat="43.74997" lon="3.54614">
        <ele>371</ele>
        <time>2019-03-26T10:30:20.311Z</time>
      </trkpt>
      <trkpt lat="43.75002" lon="3.54608">
        <ele>371</ele>
        <time>2019-03-26T10:30:25.300Z</time>
      </trkpt>
      <trkpt lat="43.75005" lon="3.54602">
        <ele>371</ele>
        <time>2019-03-26T10:30:30.296Z</time>
      </trkpt>
      <trkpt lat="43.75007" lon="3.54593">
        <ele>374</ele>
        <time>2019-03-26T10:30:35.292Z</time>
      </trkpt>
      <trkpt lat="43.75009" lon="3.54588">
        <ele>374</ele>
        <time>2019-03-26T10:30:39.294Z</time>
      </trkpt>
      <trkpt lat="43.75012" lon="3.54581">
        <ele>374</ele>
        <time>2019-03-26T10:30:44.301Z</time>
      </trkpt>
      <trkpt lat="43.75015" lon="3.54575">
        <ele>358</ele>
        <time>2019-03-26T10:30:49.279Z</time>
      </trkpt>
      <trkpt lat="43.75018" lon="3.5457">
        <ele>358</ele>
        <time>2019-03-26T10:30:53.289Z</time>
      </trkpt>
      <trkpt lat="43.7502" lon="3.54564">
        <ele>366</ele>
        <time>2019-03-26T10:30:57.298Z</time>
      </trkpt>
      <trkpt lat="43.75025" lon="3.54557">
        <ele>366</ele>
        <time>2019-03-26T10:31:02.287Z</time>
      </trkpt>
      <trkpt lat="43.75026" lon="3.54552">
        <ele>366</ele>
        <time>2019-03-26T10:31:06.349Z</time>
      </trkpt>
      <trkpt lat="43.75028" lon="3.54543">
        <ele>366</ele>
        <time>2019-03-26T10:31:11.262Z</time>
      </trkpt>
      <trkpt lat="43.75028" lon="3.54536">
        <ele>373</ele>
        <time>2019-03-26T10:31:15.277Z</time>
      </trkpt>
      <trkpt lat="43.75029" lon="3.54528">
        <ele>373</ele>
        <time>2019-03-26T10:31:20.295Z</time>
      </trkpt>
      <trkpt lat="43.75031" lon="3.5452">
        <ele>373</ele>
        <time>2019-03-26T10:31:24.298Z</time>
      </trkpt>
      <trkpt lat="43.75031" lon="3.54511">
        <ele>377</ele>
        <time>2019-03-26T10:31:29.292Z</time>
      </trkpt>
      <trkpt lat="43.75034" lon="3.54504">
        <ele>377</ele>
        <time>2019-03-26T10:31:34.289Z</time>
      </trkpt>
      <trkpt lat="43.7504" lon="3.54499">
        <ele>377</ele>
        <time>2019-03-26T10:31:39.301Z</time>
      </trkpt>
      <trkpt lat="43.75044" lon="3.54492">
        <ele>367</ele>
        <time>2019-03-26T10:31:44.279Z</time>
      </trkpt>
      <trkpt lat="43.75048" lon="3.54486">
        <ele>373</ele>
        <time>2019-03-26T10:31:49.308Z</time>
      </trkpt>
      <trkpt lat="43.75053" lon="3.54482">
        <ele>373</ele>
        <time>2019-03-26T10:31:54.279Z</time>
      </trkpt>
      <trkpt lat="43.75056" lon="3.54476">
        <ele>373</ele>
        <time>2019-03-26T10:31:58.311Z</time>
      </trkpt>
      <trkpt lat="43.7506" lon="3.54469">
        <ele>373</ele>
        <time>2019-03-26T10:32:03.277Z</time>
      </trkpt>
      <trkpt lat="43.75063" lon="3.54464">
        <ele>373</ele>
        <time>2019-03-26T10:32:08.305Z</time>
      </trkpt>
      <trkpt lat="43.75066" lon="3.54457">
        <ele>382</ele>
        <time>2019-03-26T10:32:13.295Z</time>
      </trkpt>
      <trkpt lat="43.7507" lon="3.54452">
        <ele>379</ele>
        <time>2019-03-26T10:32:18.280Z</time>
      </trkpt>
      <trkpt lat="43.75072" lon="3.54449">
        <ele>379</ele>
        <time>2019-03-26T10:32:22.306Z</time>
      </trkpt>
      <trkpt lat="43.75076" lon="3.54447">
        <ele>379</ele>
        <time>2019-03-26T10:32:27.295Z</time>
      </trkpt>
      <trkpt lat="43.75079" lon="3.54442">
        <ele>379</ele>
        <time>2019-03-26T10:32:32.292Z</time>
      </trkpt>
      <trkpt lat="43.75083" lon="3.54438">
        <ele>379</ele>
        <time>2019-03-26T10:32:37.279Z</time>
      </trkpt>
      <trkpt lat="43.75086" lon="3.54438">
        <ele>379</ele>
        <time>2019-03-26T10:32:41.293Z</time>
      </trkpt>
      <trkpt lat="43.75088" lon="3.54438">
        <ele>379</ele>
        <time>2019-03-26T10:32:46.320Z</time>
      </trkpt>
      <trkpt lat="43.75089" lon="3.54438">
        <ele>379</ele>
        <time>2019-03-26T10:32:51.310Z</time>
      </trkpt>
      <trkpt lat="43.75092" lon="3.54441">
        <ele>379</ele>
        <time>2019-03-26T10:32:56.286Z</time>
      </trkpt>
      <trkpt lat="43.75098" lon="3.54443">
        <ele>380</ele>
        <time>2019-03-26T10:33:01.298Z</time>
      </trkpt>
      <trkpt lat="43.75105" lon="3.54441">
        <ele>380</ele>
        <time>2019-03-26T10:33:06.279Z</time>
      </trkpt>
      <trkpt lat="43.75111" lon="3.54438">
        <ele>380</ele>
        <time>2019-03-26T10:33:10.290Z</time>
      </trkpt>
      <trkpt lat="43.75116" lon="3.54438">
        <ele>380</ele>
        <time>2019-03-26T10:33:14.324Z</time>
      </trkpt>
      <trkpt lat="43.75121" lon="3.54441">
        <ele>380</ele>
        <time>2019-03-26T10:33:19.341Z</time>
      </trkpt>
      <trkpt lat="43.75126" lon="3.54444">
        <ele>382</ele>
        <time>2019-03-26T10:33:24.283Z</time>
      </trkpt>
      <trkpt lat="43.7513" lon="3.54445">
        <ele>382</ele>
        <time>2019-03-26T10:33:29.290Z</time>
      </trkpt>
      <trkpt lat="43.75134" lon="3.54447">
        <ele>382</ele>
        <time>2019-03-26T10:33:34.281Z</time>
      </trkpt>
      <trkpt lat="43.75137" lon="3.5445">
        <ele>382</ele>
        <time>2019-03-26T10:33:38.288Z</time>
      </trkpt>
      <trkpt lat="43.75141" lon="3.54452">
        <ele>382</ele>
        <time>2019-03-26T10:33:43.292Z</time>
      </trkpt>
      <trkpt lat="43.75146" lon="3.54455">
        <ele>382</ele>
        <time>2019-03-26T10:33:48.318Z</time>
      </trkpt>
      <trkpt lat="43.75152" lon="3.54457">
        <ele>382</ele>
        <time>2019-03-26T10:33:53.284Z</time>
      </trkpt>
      <trkpt lat="43.75158" lon="3.54461">
        <ele>380</ele>
        <time>2019-03-26T10:33:58.284Z</time>
      </trkpt>
      <trkpt lat="43.75163" lon="3.54464">
        <ele>380</ele>
        <time>2019-03-26T10:34:03.298Z</time>
      </trkpt>
      <trkpt lat="43.75168" lon="3.54467">
        <ele>380</ele>
        <time>2019-03-26T10:34:08.285Z</time>
      </trkpt>
      <trkpt lat="43.75171" lon="3.5447">
        <ele>380</ele>
        <time>2019-03-26T10:34:13.284Z</time>
      </trkpt>
      <trkpt lat="43.75174" lon="3.54474">
        <ele>380</ele>
        <time>2019-03-26T10:34:18.291Z</time>
      </trkpt>
      <trkpt lat="43.75179" lon="3.54476">
        <ele>380</ele>
        <time>2019-03-26T10:34:23.289Z</time>
      </trkpt>
      <trkpt lat="43.75184" lon="3.54477">
        <ele>386</ele>
        <time>2019-03-26T10:34:28.302Z</time>
      </trkpt>
      <trkpt lat="43.75188" lon="3.54477">
        <ele>386</ele>
        <time>2019-03-26T10:34:32.347Z</time>
      </trkpt>
      <trkpt lat="43.75195" lon="3.54476">
        <ele>386</ele>
        <time>2019-03-26T10:34:37.305Z</time>
      </trkpt>
      <trkpt lat="43.75201" lon="3.54474">
        <ele>386</ele>
        <time>2019-03-26T10:34:42.290Z</time>
      </trkpt>
      <trkpt lat="43.75205" lon="3.54471">
        <ele>386</ele>
        <time>2019-03-26T10:34:47.287Z</time>
      </trkpt>
      <trkpt lat="43.75211" lon="3.54467">
        <ele>384</ele>
        <time>2019-03-26T10:34:52.286Z</time>
      </trkpt>
      <trkpt lat="43.75215" lon="3.54463">
        <ele>384</ele>
        <time>2019-03-26T10:34:56.322Z</time>
      </trkpt>
      <trkpt lat="43.75222" lon="3.54458">
        <ele>393</ele>
        <time>2019-03-26T10:35:01.284Z</time>
      </trkpt>
      <trkpt lat="43.75229" lon="3.54452">
        <ele>393</ele>
        <time>2019-03-26T10:35:06.339Z</time>
      </trkpt>
      <trkpt lat="43.75234" lon="3.54449">
        <ele>393</ele>
        <time>2019-03-26T10:35:11.302Z</time>
      </trkpt>
      <trkpt lat="43.75239" lon="3.54445">
        <ele>385</ele>
        <time>2019-03-26T10:35:16.299Z</time>
      </trkpt>
      <trkpt lat="43.75244" lon="3.54439">
        <ele>385</ele>
        <time>2019-03-26T10:35:21.279Z</time>
      </trkpt>
      <trkpt lat="43.75249" lon="3.54432">
        <ele>385</ele>
        <time>2019-03-26T10:35:26.290Z</time>
      </trkpt>
      <trkpt lat="43.75253" lon="3.54428">
        <ele>396</ele>
        <time>2019-03-26T10:35:31.290Z</time>
      </trkpt>
      <trkpt lat="43.75257" lon="3.54422">
        <ele>396</ele>
        <time>2019-03-26T10:35:36.321Z</time>
      </trkpt>
      <trkpt lat="43.75261" lon="3.5442">
        <ele>396</ele>
        <time>2019-03-26T10:35:41.294Z</time>
      </trkpt>
      <trkpt lat="43.75266" lon="3.54417">
        <ele>385</ele>
        <time>2019-03-26T10:35:46.284Z</time>
      </trkpt>
      <trkpt lat="43.75272" lon="3.54412">
        <ele>385</ele>
        <time>2019-03-26T10:35:51.290Z</time>
      </trkpt>
      <trkpt lat="43.75274" lon="3.54407">
        <ele>385</ele>
        <time>2019-03-26T10:35:55.294Z</time>
      </trkpt>
      <trkpt lat="43.7528" lon="3.54406">
        <ele>385</ele>
        <time>2019-03-26T10:36:00.288Z</time>
      </trkpt>
      <trkpt lat="43.75288" lon="3.54403">
        <ele>385</ele>
        <time>2019-03-26T10:36:05.290Z</time>
      </trkpt>
      <trkpt lat="43.75295" lon="3.54402">
        <ele>381</ele>
        <time>2019-03-26T10:36:10.295Z</time>
      </trkpt>
      <trkpt lat="43.75299" lon="3.544">
        <ele>381</ele>
        <time>2019-03-26T10:36:15.300Z</time>
      </trkpt>
      <trkpt lat="43.75304" lon="3.54397">
        <ele>381</ele>
        <time>2019-03-26T10:36:20.313Z</time>
      </trkpt>
      <trkpt lat="43.7531" lon="3.54394">
        <ele>381</ele>
        <time>2019-03-26T10:36:25.290Z</time>
      </trkpt>
      <trkpt lat="43.75317" lon="3.54388">
        <ele>381</ele>
        <time>2019-03-26T10:36:30.284Z</time>
      </trkpt>
      <trkpt lat="43.75322" lon="3.54382">
        <ele>375</ele>
        <time>2019-03-26T10:36:35.291Z</time>
      </trkpt>
      <trkpt lat="43.75326" lon="3.54375">
        <ele>375</ele>
        <time>2019-03-26T10:36:40.304Z</time>
      </trkpt>
      <trkpt lat="43.7533" lon="3.54369">
        <ele>385</ele>
        <time>2019-03-26T10:36:45.300Z</time>
      </trkpt>
      <trkpt lat="43.75334" lon="3.54363">
        <ele>385</ele>
        <time>2019-03-26T10:36:50.284Z</time>
      </trkpt>
      <trkpt lat="43.7534" lon="3.54357">
        <ele>385</ele>
        <time>2019-03-26T10:36:55.300Z</time>
      </trkpt>
      <trkpt lat="43.75344" lon="3.54353">
        <ele>385</ele>
        <time>2019-03-26T10:37:00.277Z</time>
      </trkpt>
      <trkpt lat="43.75348" lon="3.5435">
        <ele>380</ele>
        <time>2019-03-26T10:37:04.316Z</time>
      </trkpt>
      <trkpt lat="43.75353" lon="3.54348">
        <ele>380</ele>
        <time>2019-03-26T10:37:09.298Z</time>
      </trkpt>
      <trkpt lat="43.75356" lon="3.54347">
        <ele>388</ele>
        <time>2019-03-26T10:37:13.310Z</time>
      </trkpt>
      <trkpt lat="43.75359" lon="3.54344">
        <ele>388</ele>
        <time>2019-03-26T10:37:18.284Z</time>
      </trkpt>
      <trkpt lat="43.75363" lon="3.54341">
        <ele>388</ele>
        <time>2019-03-26T10:37:22.303Z</time>
      </trkpt>
      <trkpt lat="43.75368" lon="3.54338">
        <ele>388</ele>
        <time>2019-03-26T10:37:27.287Z</time>
      </trkpt>
      <trkpt lat="43.75373" lon="3.54337">
        <ele>388</ele>
        <time>2019-03-26T10:37:31.292Z</time>
      </trkpt>
      <trkpt lat="43.75376" lon="3.54336">
        <ele>383</ele>
        <time>2019-03-26T10:37:36.290Z</time>
      </trkpt>
      <trkpt lat="43.75381" lon="3.54338">
        <ele>383</ele>
        <time>2019-03-26T10:37:41.285Z</time>
      </trkpt>
      <trkpt lat="43.75384" lon="3.5434">
        <ele>383</ele>
        <time>2019-03-26T10:37:45.311Z</time>
      </trkpt>
      <trkpt lat="43.75388" lon="3.54341">
        <ele>383</ele>
        <time>2019-03-26T10:37:50.286Z</time>
      </trkpt>
      <trkpt lat="43.75393" lon="3.54342">
        <ele>383</ele>
        <time>2019-03-26T10:37:54.310Z</time>
      </trkpt>
      <trkpt lat="43.75396" lon="3.54342">
        <ele>383</ele>
        <time>2019-03-26T10:37:59.283Z</time>
      </trkpt>
      <trkpt lat="43.75398" lon="3.54341">
        <ele>383</ele>
        <time>2019-03-26T10:38:03.303Z</time>
      </trkpt>
      <trkpt lat="43.75405" lon="3.54337">
        <ele>381</ele>
        <time>2019-03-26T10:38:08.289Z</time>
      </trkpt>
      <trkpt lat="43.75412" lon="3.54334">
        <ele>381</ele>
        <time>2019-03-26T10:38:13.289Z</time>
      </trkpt>
      <trkpt lat="43.75414" lon="3.54331">
        <ele>381</ele>
        <time>2019-03-26T10:38:18.292Z</time>
      </trkpt>
      <trkpt lat="43.75416" lon="3.54325">
        <ele>381</ele>
        <time>2019-03-26T10:38:23.306Z</time>
      </trkpt>
      <trkpt lat="43.75412" lon="3.54319">
        <ele>390</ele>
        <time>2019-03-26T10:38:33.309Z</time>
      </trkpt>
      <trkpt lat="43.75406" lon="3.54309">
        <ele>390</ele>
        <time>2019-03-26T10:38:38.287Z</time>
      </trkpt>
      <trkpt lat="43.75405" lon="3.54307">
        <ele>390</ele>
        <time>2019-03-26T10:38:43.303Z</time>
      </trkpt>
      <trkpt lat="43.75402" lon="3.54306">
        <ele>392</ele>
        <time>2019-03-26T10:38:52.320Z</time>
      </trkpt>
      <trkpt lat="43.75398" lon="3.54303">
        <ele>392</ele>
        <time>2019-03-26T10:38:57.285Z</time>
      </trkpt>
      <trkpt lat="43.75395" lon="3.54301">
        <ele>392</ele>
        <time>2019-03-26T10:39:01.289Z</time>
      </trkpt>
      <trkpt lat="43.75393" lon="3.54298">
        <ele>392</ele>
        <time>2019-03-26T10:39:06.321Z</time>
      </trkpt>
      <trkpt lat="43.75392" lon="3.54293">
        <ele>392</ele>
        <time>2019-03-26T10:39:11.281Z</time>
      </trkpt>
      <trkpt lat="43.75391" lon="3.5429">
        <ele>400</ele>
        <time>2019-03-26T10:39:35.281Z</time>
      </trkpt>
      <trkpt lat="43.75391" lon="3.5429">
        <ele>400</ele>
        <time>2019-03-26T10:39:40.285Z</time>
      </trkpt>
      <trkpt lat="43.75392" lon="3.54297">
        <ele>392</ele>
        <time>2019-03-26T10:39:44.309Z</time>
      </trkpt>
      <trkpt lat="43.75395" lon="3.54304">
        <ele>392</ele>
        <time>2019-03-26T10:39:49.299Z</time>
      </trkpt>
      <trkpt lat="43.75398" lon="3.54308">
        <ele>392</ele>
        <time>2019-03-26T10:39:54.319Z</time>
      </trkpt>
      <trkpt lat="43.75403" lon="3.54312">
        <ele>392</ele>
        <time>2019-03-26T10:39:59.293Z</time>
      </trkpt>
      <trkpt lat="43.75404" lon="3.54313">
        <ele>390</ele>
        <time>2019-03-26T10:40:04.287Z</time>
      </trkpt>
      <trkpt lat="43.75406" lon="3.54314">
        <ele>390</ele>
        <time>2019-03-26T10:40:13.291Z</time>
      </trkpt>
      <trkpt lat="43.75411" lon="3.5432">
        <ele>381</ele>
        <time>2019-03-26T10:40:18.295Z</time>
      </trkpt>
      <trkpt lat="43.75416" lon="3.54319">
        <ele>390</ele>
        <time>2019-03-26T10:40:23.282Z</time>
      </trkpt>
      <trkpt lat="43.75419" lon="3.5432">
        <ele>381</ele>
        <time>2019-03-26T10:40:27.289Z</time>
      </trkpt>
      <trkpt lat="43.75421" lon="3.5432">
        <ele>381</ele>
        <time>2019-03-26T10:40:31.301Z</time>
      </trkpt>
      <trkpt lat="43.75423" lon="3.5432">
        <ele>381</ele>
        <time>2019-03-26T10:40:36.327Z</time>
      </trkpt>
      <trkpt lat="43.75431" lon="3.54319">
        <ele>392</ele>
        <time>2019-03-26T10:40:41.282Z</time>
      </trkpt>
      <trkpt lat="43.75437" lon="3.5432">
        <ele>386</ele>
        <time>2019-03-26T10:40:45.296Z</time>
      </trkpt>
      <trkpt lat="43.75444" lon="3.5432">
        <ele>386</ele>
        <time>2019-03-26T10:40:50.290Z</time>
      </trkpt>
      <trkpt lat="43.75449" lon="3.54321">
        <ele>386</ele>
        <time>2019-03-26T10:40:55.269Z</time>
      </trkpt>
      <trkpt lat="43.75449" lon="3.54321">
        <ele>386</ele>
        <time>2019-03-26T10:41:05.271Z</time>
      </trkpt>
      <trkpt lat="43.75456" lon="3.54325">
        <ele>386</ele>
        <time>2019-03-26T10:41:10.265Z</time>
      </trkpt>
      <trkpt lat="43.75461" lon="3.54327">
        <ele>391</ele>
        <time>2019-03-26T10:41:15.268Z</time>
      </trkpt>
      <trkpt lat="43.75463" lon="3.54327">
        <ele>391</ele>
        <time>2019-03-26T10:41:20.264Z</time>
      </trkpt>
      <trkpt lat="43.75467" lon="3.54324">
        <ele>391</ele>
        <time>2019-03-26T10:41:24.288Z</time>
      </trkpt>
      <trkpt lat="43.75474" lon="3.54325">
        <ele>391</ele>
        <time>2019-03-26T10:41:29.290Z</time>
      </trkpt>
      <trkpt lat="43.7548" lon="3.54327">
        <ele>391</ele>
        <time>2019-03-26T10:41:34.311Z</time>
      </trkpt>
      <trkpt lat="43.75483" lon="3.54326">
        <ele>391</ele>
        <time>2019-03-26T10:41:39.296Z</time>
      </trkpt>
      <trkpt lat="43.75487" lon="3.54325">
        <ele>396</ele>
        <time>2019-03-26T10:41:44.302Z</time>
      </trkpt>
      <trkpt lat="43.75494" lon="3.54323">
        <ele>396</ele>
        <time>2019-03-26T10:41:49.276Z</time>
      </trkpt>
      <trkpt lat="43.75498" lon="3.54323">
        <ele>396</ele>
        <time>2019-03-26T10:41:53.288Z</time>
      </trkpt>
      <trkpt lat="43.75502" lon="3.54321">
        <ele>396</ele>
        <time>2019-03-26T10:41:58.288Z</time>
      </trkpt>
      <trkpt lat="43.7551" lon="3.54321">
        <ele>396</ele>
        <time>2019-03-26T10:42:03.283Z</time>
      </trkpt>
      <trkpt lat="43.75515" lon="3.5432">
        <ele>400</ele>
        <time>2019-03-26T10:42:08.285Z</time>
      </trkpt>
      <trkpt lat="43.75519" lon="3.54322">
        <ele>400</ele>
        <time>2019-03-26T10:42:12.313Z</time>
      </trkpt>
      <trkpt lat="43.75522" lon="3.54324">
        <ele>400</ele>
        <time>2019-03-26T10:42:17.294Z</time>
      </trkpt>
      <trkpt lat="43.75525" lon="3.54327">
        <ele>400</ele>
        <time>2019-03-26T10:42:21.329Z</time>
      </trkpt>
      <trkpt lat="43.75528" lon="3.54328">
        <ele>400</ele>
        <time>2019-03-26T10:42:26.286Z</time>
      </trkpt>
      <trkpt lat="43.75533" lon="3.54329">
        <ele>400</ele>
        <time>2019-03-26T10:42:30.309Z</time>
      </trkpt>
      <trkpt lat="43.75536" lon="3.54329">
        <ele>400</ele>
        <time>2019-03-26T10:42:35.315Z</time>
      </trkpt>
      <trkpt lat="43.75541" lon="3.54327">
        <ele>400</ele>
        <time>2019-03-26T10:42:40.320Z</time>
      </trkpt>
      <trkpt lat="43.75543" lon="3.54326">
        <ele>401</ele>
        <time>2019-03-26T10:42:45.325Z</time>
      </trkpt>
      <trkpt lat="43.75546" lon="3.54322">
        <ele>401</ele>
        <time>2019-03-26T10:42:50.327Z</time>
      </trkpt>
      <trkpt lat="43.7555" lon="3.54318">
        <ele>399</ele>
        <time>2019-03-26T10:42:55.291Z</time>
      </trkpt>
      <trkpt lat="43.75553" lon="3.54311">
        <ele>399</ele>
        <time>2019-03-26T10:43:00.288Z</time>
      </trkpt>
      <trkpt lat="43.75556" lon="3.54303">
        <ele>399</ele>
        <time>2019-03-26T10:43:04.289Z</time>
      </trkpt>
      <trkpt lat="43.75559" lon="3.54295">
        <ele>399</ele>
        <time>2019-03-26T10:43:08.311Z</time>
      </trkpt>
      <trkpt lat="43.75563" lon="3.54288">
        <ele>401</ele>
        <time>2019-03-26T10:43:13.287Z</time>
      </trkpt>
      <trkpt lat="43.75567" lon="3.54281">
        <ele>401</ele>
        <time>2019-03-26T10:43:18.291Z</time>
      </trkpt>
      <trkpt lat="43.75571" lon="3.54275">
        <ele>413</ele>
        <time>2019-03-26T10:43:23.293Z</time>
      </trkpt>
      <trkpt lat="43.75572" lon="3.54269">
        <ele>413</ele>
        <time>2019-03-26T10:43:28.319Z</time>
      </trkpt>
      <trkpt lat="43.75574" lon="3.54264">
        <ele>413</ele>
        <time>2019-03-26T10:43:33.288Z</time>
      </trkpt>
      <trkpt lat="43.75575" lon="3.54256">
        <ele>413</ele>
        <time>2019-03-26T10:43:38.284Z</time>
      </trkpt>
      <trkpt lat="43.75576" lon="3.54249">
        <ele>413</ele>
        <time>2019-03-26T10:43:43.302Z</time>
      </trkpt>
      <trkpt lat="43.75578" lon="3.54244">
        <ele>413</ele>
        <time>2019-03-26T10:43:47.320Z</time>
      </trkpt>
      <trkpt lat="43.7558" lon="3.54238">
        <ele>413</ele>
        <time>2019-03-26T10:43:52.321Z</time>
      </trkpt>
      <trkpt lat="43.75578" lon="3.54232">
        <ele>411</ele>
        <time>2019-03-26T10:43:57.320Z</time>
      </trkpt>
      <trkpt lat="43.75578" lon="3.54226">
        <ele>411</ele>
        <time>2019-03-26T10:44:02.291Z</time>
      </trkpt>
      <trkpt lat="43.75577" lon="3.5422">
        <ele>411</ele>
        <time>2019-03-26T10:44:07.295Z</time>
      </trkpt>
      <trkpt lat="43.75579" lon="3.54212">
        <ele>411</ele>
        <time>2019-03-26T10:44:12.291Z</time>
      </trkpt>
      <trkpt lat="43.7558" lon="3.54205">
        <ele>412</ele>
        <time>2019-03-26T10:44:17.297Z</time>
      </trkpt>
      <trkpt lat="43.75583" lon="3.54199">
        <ele>412</ele>
        <time>2019-03-26T10:44:22.286Z</time>
      </trkpt>
      <trkpt lat="43.75585" lon="3.54195">
        <ele>412</ele>
        <time>2019-03-26T10:44:26.306Z</time>
      </trkpt>
      <trkpt lat="43.75587" lon="3.54189">
        <ele>412</ele>
        <time>2019-03-26T10:44:31.297Z</time>
      </trkpt>
      <trkpt lat="43.75588" lon="3.54181">
        <ele>412</ele>
        <time>2019-03-26T10:44:36.284Z</time>
      </trkpt>
      <trkpt lat="43.75588" lon="3.54173">
        <ele>412</ele>
        <time>2019-03-26T10:44:41.290Z</time>
      </trkpt>
      <trkpt lat="43.75587" lon="3.54167">
        <ele>412</ele>
        <time>2019-03-26T10:44:45.306Z</time>
      </trkpt>
      <trkpt lat="43.75588" lon="3.54162">
        <ele>412</ele>
        <time>2019-03-26T10:44:50.282Z</time>
      </trkpt>
      <trkpt lat="43.75588" lon="3.54157">
        <ele>412</ele>
        <time>2019-03-26T10:44:54.304Z</time>
      </trkpt>
      <trkpt lat="43.75589" lon="3.54151">
        <ele>413</ele>
        <time>2019-03-26T10:44:59.294Z</time>
      </trkpt>
      <trkpt lat="43.75593" lon="3.54144">
        <ele>413</ele>
        <time>2019-03-26T10:45:04.306Z</time>
      </trkpt>
      <trkpt lat="43.75596" lon="3.54141">
        <ele>413</ele>
        <time>2019-03-26T10:45:09.280Z</time>
      </trkpt>
      <trkpt lat="43.75598" lon="3.54138">
        <ele>424</ele>
        <time>2019-03-26T10:45:13.309Z</time>
      </trkpt>
      <trkpt lat="43.75602" lon="3.54132">
        <ele>424</ele>
        <time>2019-03-26T10:45:18.288Z</time>
      </trkpt>
      <trkpt lat="43.75605" lon="3.54127">
        <ele>424</ele>
        <time>2019-03-26T10:45:22.313Z</time>
      </trkpt>
      <trkpt lat="43.75607" lon="3.54122">
        <ele>423</ele>
        <time>2019-03-26T10:45:26.314Z</time>
      </trkpt>
      <trkpt lat="43.7561" lon="3.54118">
        <ele>423</ele>
        <time>2019-03-26T10:45:31.316Z</time>
      </trkpt>
      <trkpt lat="43.75613" lon="3.54112">
        <ele>423</ele>
        <time>2019-03-26T10:45:36.313Z</time>
      </trkpt>
      <trkpt lat="43.75614" lon="3.54105">
        <ele>423</ele>
        <time>2019-03-26T10:45:41.286Z</time>
      </trkpt>
      <trkpt lat="43.75618" lon="3.54098">
        <ele>423</ele>
        <time>2019-03-26T10:45:46.281Z</time>
      </trkpt>
      <trkpt lat="43.7562" lon="3.54093">
        <ele>425</ele>
        <time>2019-03-26T10:45:50.287Z</time>
      </trkpt>
      <trkpt lat="43.7562" lon="3.54086">
        <ele>425</ele>
        <time>2019-03-26T10:45:55.293Z</time>
      </trkpt>
      <trkpt lat="43.75621" lon="3.54079">
        <ele>425</ele>
        <time>2019-03-26T10:46:00.281Z</time>
      </trkpt>
      <trkpt lat="43.75622" lon="3.54073">
        <ele>425</ele>
        <time>2019-03-26T10:46:05.283Z</time>
      </trkpt>
      <trkpt lat="43.75624" lon="3.54068">
        <ele>426</ele>
        <time>2019-03-26T10:46:10.281Z</time>
      </trkpt>
      <trkpt lat="43.75625" lon="3.54062">
        <ele>436</ele>
        <time>2019-03-26T10:46:15.285Z</time>
      </trkpt>
      <trkpt lat="43.75627" lon="3.54056">
        <ele>436</ele>
        <time>2019-03-26T10:46:20.280Z</time>
      </trkpt>
      <trkpt lat="43.75625" lon="3.5405">
        <ele>426</ele>
        <time>2019-03-26T10:46:24.296Z</time>
      </trkpt>
      <trkpt lat="43.75619" lon="3.54045">
        <ele>426</ele>
        <time>2019-03-26T10:46:29.296Z</time>
      </trkpt>
      <trkpt lat="43.75612" lon="3.54041">
        <ele>434</ele>
        <time>2019-03-26T10:46:34.291Z</time>
      </trkpt>
      <trkpt lat="43.75609" lon="3.5404">
        <ele>434</ele>
        <time>2019-03-26T10:46:39.296Z</time>
      </trkpt>
      <trkpt lat="43.75603" lon="3.5404">
        <ele>434</ele>
        <time>2019-03-26T10:46:44.291Z</time>
      </trkpt>
      <trkpt lat="43.75598" lon="3.5404">
        <ele>434</ele>
        <time>2019-03-26T10:46:49.292Z</time>
      </trkpt>
      <trkpt lat="43.75591" lon="3.54043">
        <ele>427</ele>
        <time>2019-03-26T10:46:54.290Z</time>
      </trkpt>
      <trkpt lat="43.75588" lon="3.54045">
        <ele>427</ele>
        <time>2019-03-26T10:46:58.301Z</time>
      </trkpt>
      <trkpt lat="43.75586" lon="3.54046">
        <ele>427</ele>
        <time>2019-03-26T10:47:26.284Z</time>
      </trkpt>
      <trkpt lat="43.75579" lon="3.5405">
        <ele>427</ele>
        <time>2019-03-26T10:47:31.287Z</time>
      </trkpt>
      <trkpt lat="43.75576" lon="3.54052">
        <ele>427</ele>
        <time>2019-03-26T10:47:36.289Z</time>
      </trkpt>
      <trkpt lat="43.75571" lon="3.54053">
        <ele>427</ele>
        <time>2019-03-26T10:47:41.321Z</time>
      </trkpt>
      <trkpt lat="43.75566" lon="3.54056">
        <ele>433</ele>
        <time>2019-03-26T10:47:46.288Z</time>
      </trkpt>
      <trkpt lat="43.75559" lon="3.54059">
        <ele>433</ele>
        <time>2019-03-26T10:47:51.284Z</time>
      </trkpt>
      <trkpt lat="43.75552" lon="3.54064">
        <ele>433</ele>
        <time>2019-03-26T10:47:56.288Z</time>
      </trkpt>
      <trkpt lat="43.75545" lon="3.54069">
        <ele>433</ele>
        <time>2019-03-26T10:48:01.295Z</time>
      </trkpt>
      <trkpt lat="43.75541" lon="3.54073">
        <ele>431</ele>
        <time>2019-03-26T10:48:06.297Z</time>
      </trkpt>
      <trkpt lat="43.75536" lon="3.54078">
        <ele>431</ele>
        <time>2019-03-26T10:48:11.312Z</time>
      </trkpt>
      <trkpt lat="43.75531" lon="3.54081">
        <ele>431</ele>
        <time>2019-03-26T10:48:16.297Z</time>
      </trkpt>
      <trkpt lat="43.75527" lon="3.54083">
        <ele>431</ele>
        <time>2019-03-26T10:48:21.290Z</time>
      </trkpt>
      <trkpt lat="43.75524" lon="3.54084">
        <ele>431</ele>
        <time>2019-03-26T10:48:26.326Z</time>
      </trkpt>
      <trkpt lat="43.75522" lon="3.54084">
        <ele>431</ele>
        <time>2019-03-26T10:48:31.316Z</time>
      </trkpt>
      <trkpt lat="43.75517" lon="3.54086">
        <ele>431</ele>
        <time>2019-03-26T10:48:36.317Z</time>
      </trkpt>
      <trkpt lat="43.75513" lon="3.54089">
        <ele>442</ele>
        <time>2019-03-26T10:48:41.290Z</time>
      </trkpt>
      <trkpt lat="43.75509" lon="3.54092">
        <ele>442</ele>
        <time>2019-03-26T10:48:46.287Z</time>
      </trkpt>
      <trkpt lat="43.75503" lon="3.54097">
        <ele>437</ele>
        <time>2019-03-26T10:48:51.297Z</time>
      </trkpt>
      <trkpt lat="43.755" lon="3.541">
        <ele>437</ele>
        <time>2019-03-26T10:48:56.285Z</time>
      </trkpt>
      <trkpt lat="43.75495" lon="3.54104">
        <ele>437</ele>
        <time>2019-03-26T10:49:01.284Z</time>
      </trkpt>
      <trkpt lat="43.75491" lon="3.54109">
        <ele>437</ele>
        <time>2019-03-26T10:49:06.286Z</time>
      </trkpt>
      <trkpt lat="43.75488" lon="3.54116">
        <ele>437</ele>
        <time>2019-03-26T10:49:11.266Z</time>
      </trkpt>
      <trkpt lat="43.75485" lon="3.54122">
        <ele>449</ele>
        <time>2019-03-26T10:49:15.317Z</time>
      </trkpt>
      <trkpt lat="43.75484" lon="3.54131">
        <ele>444</ele>
        <time>2019-03-26T10:49:20.286Z</time>
      </trkpt>
      <trkpt lat="43.75484" lon="3.5414">
        <ele>444</ele>
        <time>2019-03-26T10:49:25.288Z</time>
      </trkpt>
      <trkpt lat="43.75483" lon="3.54148">
        <ele>444</ele>
        <time>2019-03-26T10:49:30.274Z</time>
      </trkpt>
      <trkpt lat="43.75482" lon="3.54158">
        <ele>437</ele>
        <time>2019-03-26T10:49:58.268Z</time>
      </trkpt>
      <trkpt lat="43.75478" lon="3.54155">
        <ele>437</ele>
        <time>2019-03-26T10:50:02.282Z</time>
      </trkpt>
      <trkpt lat="43.75476" lon="3.5415">
        <ele>444</ele>
        <time>2019-03-26T10:50:06.312Z</time>
      </trkpt>
      <trkpt lat="43.75476" lon="3.54145">
        <ele>444</ele>
        <time>2019-03-26T10:50:11.279Z</time>
      </trkpt>
      <trkpt lat="43.75475" lon="3.5414">
        <ele>444</ele>
        <time>2019-03-26T10:50:16.284Z</time>
      </trkpt>
      <trkpt lat="43.75477" lon="3.54135">
        <ele>444</ele>
        <time>2019-03-26T10:50:21.281Z</time>
      </trkpt>
      <trkpt lat="43.75478" lon="3.54131">
        <ele>444</ele>
        <time>2019-03-26T10:50:26.310Z</time>
      </trkpt>
      <trkpt lat="43.75478" lon="3.54125">
        <ele>449</ele>
        <time>2019-03-26T10:50:31.312Z</time>
      </trkpt>
      <trkpt lat="43.75481" lon="3.54119">
        <ele>449</ele>
        <time>2019-03-26T10:50:36.290Z</time>
      </trkpt>
      <trkpt lat="43.75483" lon="3.54114">
        <ele>449</ele>
        <time>2019-03-26T10:50:41.285Z</time>
      </trkpt>
      <trkpt lat="43.75487" lon="3.54109">
        <ele>437</ele>
        <time>2019-03-26T10:50:46.282Z</time>
      </trkpt>
      <trkpt lat="43.75491" lon="3.54102">
        <ele>437</ele>
        <time>2019-03-26T10:50:51.288Z</time>
      </trkpt>
      <trkpt lat="43.75492" lon="3.54097">
        <ele>442</ele>
        <time>2019-03-26T10:50:55.326Z</time>
      </trkpt>
      <trkpt lat="43.75494" lon="3.54091">
        <ele>442</ele>
        <time>2019-03-26T10:51:00.290Z</time>
      </trkpt>
      <trkpt lat="43.75497" lon="3.54084">
        <ele>442</ele>
        <time>2019-03-26T10:51:05.295Z</time>
      </trkpt>
      <trkpt lat="43.75498" lon="3.54078">
        <ele>442</ele>
        <time>2019-03-26T10:51:10.286Z</time>
      </trkpt>
      <trkpt lat="43.75501" lon="3.54072">
        <ele>442</ele>
        <time>2019-03-26T10:51:14.288Z</time>
      </trkpt>
      <trkpt lat="43.75503" lon="3.54061">
        <ele>447</ele>
        <time>2019-03-26T10:51:19.288Z</time>
      </trkpt>
      <trkpt lat="43.75509" lon="3.54055">
        <ele>447</ele>
        <time>2019-03-26T10:51:24.288Z</time>
      </trkpt>
      <trkpt lat="43.75513" lon="3.54053">
        <ele>447</ele>
        <time>2019-03-26T10:51:29.298Z</time>
      </trkpt>
      <trkpt lat="43.75514" lon="3.54055">
        <ele>440</ele>
        <time>2019-03-26T10:51:34.324Z</time>
      </trkpt>
      <trkpt lat="43.75514" lon="3.54055">
        <ele>440</ele>
        <time>2019-03-26T10:51:39.283Z</time>
      </trkpt>
      <trkpt lat="43.75519" lon="3.54055">
        <ele>440</ele>
        <time>2019-03-26T10:51:43.313Z</time>
      </trkpt>
      <trkpt lat="43.75523" lon="3.54052">
        <ele>440</ele>
        <time>2019-03-26T10:51:48.292Z</time>
      </trkpt>
      <trkpt lat="43.7553" lon="3.54046">
        <ele>440</ele>
        <time>2019-03-26T10:51:53.283Z</time>
      </trkpt>
      <trkpt lat="43.75533" lon="3.54044">
        <ele>440</ele>
        <time>2019-03-26T10:51:57.315Z</time>
      </trkpt>
      <trkpt lat="43.75537" lon="3.54039">
        <ele>449</ele>
        <time>2019-03-26T10:52:02.290Z</time>
      </trkpt>
      <trkpt lat="43.7554" lon="3.54035">
        <ele>449</ele>
        <time>2019-03-26T10:52:06.316Z</time>
      </trkpt>
      <trkpt lat="43.75545" lon="3.54031">
        <ele>441</ele>
        <time>2019-03-26T10:52:11.304Z</time>
      </trkpt>
      <trkpt lat="43.75547" lon="3.54025">
        <ele>441</ele>
        <time>2019-03-26T10:52:30.270Z</time>
      </trkpt>
      <trkpt lat="43.75547" lon="3.54024">
        <ele>441</ele>
        <time>2019-03-26T10:52:35.266Z</time>
      </trkpt>
      <trkpt lat="43.75547" lon="3.5402">
        <ele>441</ele>
        <time>2019-03-26T10:52:40.278Z</time>
      </trkpt>
      <trkpt lat="43.75549" lon="3.54013">
        <ele>453</ele>
        <time>2019-03-26T10:52:45.298Z</time>
      </trkpt>
      <trkpt lat="43.75551" lon="3.54008">
        <ele>453</ele>
        <time>2019-03-26T10:52:50.291Z</time>
      </trkpt>
      <trkpt lat="43.75554" lon="3.54004">
        <ele>453</ele>
        <time>2019-03-26T10:52:54.295Z</time>
      </trkpt>
      <trkpt lat="43.75559" lon="3.54001">
        <ele>453</ele>
        <time>2019-03-26T10:52:59.292Z</time>
      </trkpt>
      <trkpt lat="43.75562" lon="3.53998">
        <ele>453</ele>
        <time>2019-03-26T10:53:04.305Z</time>
      </trkpt>
      <trkpt lat="43.75564" lon="3.53995">
        <ele>453</ele>
        <time>2019-03-26T10:53:09.301Z</time>
      </trkpt>
      <trkpt lat="43.75566" lon="3.5399">
        <ele>453</ele>
        <time>2019-03-26T10:53:14.291Z</time>
      </trkpt>
      <trkpt lat="43.75568" lon="3.53987">
        <ele>453</ele>
        <time>2019-03-26T10:53:18.292Z</time>
      </trkpt>
      <trkpt lat="43.75569" lon="3.53983">
        <ele>466</ele>
        <time>2019-03-26T10:53:23.297Z</time>
      </trkpt>
      <trkpt lat="43.7557" lon="3.53978">
        <ele>461</ele>
        <time>2019-03-26T10:53:28.308Z</time>
      </trkpt>
      <trkpt lat="43.75571" lon="3.53975">
        <ele>461</ele>
        <time>2019-03-26T10:53:33.298Z</time>
      </trkpt>
      <trkpt lat="43.75575" lon="3.53972">
        <ele>461</ele>
        <time>2019-03-26T10:53:38.286Z</time>
      </trkpt>
      <trkpt lat="43.75578" lon="3.5397">
        <ele>461</ele>
        <time>2019-03-26T10:53:42.292Z</time>
      </trkpt>
      <trkpt lat="43.75579" lon="3.53968">
        <ele>461</ele>
        <time>2019-03-26T10:53:46.311Z</time>
      </trkpt>
      <trkpt lat="43.7559" lon="3.5395">
        <ele>472</ele>
        <time>2019-03-26T10:55:30.300Z</time>
      </trkpt>
      <trkpt lat="43.75591" lon="3.5395">
        <ele>472</ele>
        <time>2019-03-26T10:55:35.268Z</time>
      </trkpt>
      <trkpt lat="43.75591" lon="3.53949">
        <ele>472</ele>
        <time>2019-03-26T10:55:44.275Z</time>
      </trkpt>
      <trkpt lat="43.75591" lon="3.53945">
        <ele>472</ele>
        <time>2019-03-26T10:55:49.288Z</time>
      </trkpt>
      <trkpt lat="43.75598" lon="3.53935">
        <ele>467</ele>
        <time>2019-03-26T10:55:54.293Z</time>
      </trkpt>
      <trkpt lat="43.756" lon="3.53929">
        <ele>479</ele>
        <time>2019-03-26T10:55:59.311Z</time>
      </trkpt>
      <trkpt lat="43.75602" lon="3.53925">
        <ele>479</ele>
        <time>2019-03-26T10:56:04.280Z</time>
      </trkpt>
      <trkpt lat="43.75603" lon="3.53923">
        <ele>479</ele>
        <time>2019-03-26T10:56:08.295Z</time>
      </trkpt>
      <trkpt lat="43.75607" lon="3.53922">
        <ele>479</ele>
        <time>2019-03-26T10:56:13.302Z</time>
      </trkpt>
      <trkpt lat="43.75611" lon="3.53921">
        <ele>479</ele>
        <time>2019-03-26T10:56:18.309Z</time>
      </trkpt>
      <trkpt lat="43.75615" lon="3.53918">
        <ele>479</ele>
        <time>2019-03-26T10:56:23.294Z</time>
      </trkpt>
      <trkpt lat="43.75619" lon="3.53915">
        <ele>479</ele>
        <time>2019-03-26T10:56:28.293Z</time>
      </trkpt>
      <trkpt lat="43.75624" lon="3.53913">
        <ele>479</ele>
        <time>2019-03-26T10:56:33.314Z</time>
      </trkpt>
      <trkpt lat="43.75627" lon="3.53909">
        <ele>468</ele>
        <time>2019-03-26T10:56:38.315Z</time>
      </trkpt>
      <trkpt lat="43.75632" lon="3.53907">
        <ele>468</ele>
        <time>2019-03-26T10:56:43.291Z</time>
      </trkpt>
      <trkpt lat="43.75638" lon="3.53907">
        <ele>468</ele>
        <time>2019-03-26T10:56:48.282Z</time>
      </trkpt>
      <trkpt lat="43.75643" lon="3.53907">
        <ele>468</ele>
        <time>2019-03-26T10:56:52.294Z</time>
      </trkpt>
      <trkpt lat="43.75645" lon="3.53906">
        <ele>468</ele>
        <time>2019-03-26T10:56:56.316Z</time>
      </trkpt>
      <trkpt lat="43.75648" lon="3.53902">
        <ele>474</ele>
        <time>2019-03-26T10:57:01.285Z</time>
      </trkpt>
      <trkpt lat="43.75652" lon="3.53894">
        <ele>474</ele>
        <time>2019-03-26T10:57:05.299Z</time>
      </trkpt>
      <trkpt lat="43.75655" lon="3.53885">
        <ele>472</ele>
        <time>2019-03-26T10:57:10.313Z</time>
      </trkpt>
      <trkpt lat="43.75658" lon="3.53877">
        <ele>472</ele>
        <time>2019-03-26T10:57:15.298Z</time>
      </trkpt>
      <trkpt lat="43.7566" lon="3.53868">
        <ele>477</ele>
        <time>2019-03-26T10:57:19.303Z</time>
      </trkpt>
      <trkpt lat="43.75663" lon="3.53865">
        <ele>477</ele>
        <time>2019-03-26T10:57:24.300Z</time>
      </trkpt>
      <trkpt lat="43.75666" lon="3.53865">
        <ele>477</ele>
        <time>2019-03-26T10:57:29.296Z</time>
      </trkpt>
      <trkpt lat="43.7567" lon="3.53864">
        <ele>477</ele>
        <time>2019-03-26T10:57:34.284Z</time>
      </trkpt>
      <trkpt lat="43.75674" lon="3.53863">
        <ele>477</ele>
        <time>2019-03-26T10:57:38.289Z</time>
      </trkpt>
      <trkpt lat="43.75679" lon="3.53861">
        <ele>477</ele>
        <time>2019-03-26T10:57:43.290Z</time>
      </trkpt>
      <trkpt lat="43.75686" lon="3.53857">
        <ele>481</ele>
        <time>2019-03-26T10:57:53.285Z</time>
      </trkpt>
      <trkpt lat="43.75696" lon="3.53854">
        <ele>481</ele>
        <time>2019-03-26T10:57:58.285Z</time>
      </trkpt>
      <trkpt lat="43.75701" lon="3.53851">
        <ele>481</ele>
        <time>2019-03-26T10:58:03.321Z</time>
      </trkpt>
      <trkpt lat="43.75703" lon="3.53853">
        <ele>481</ele>
        <time>2019-03-26T10:58:08.315Z</time>
      </trkpt>
      <trkpt lat="43.75706" lon="3.53851">
        <ele>481</ele>
        <time>2019-03-26T10:58:13.289Z</time>
      </trkpt>
      <trkpt lat="43.75707" lon="3.53846">
        <ele>488</ele>
        <time>2019-03-26T10:58:17.303Z</time>
      </trkpt>
      <trkpt lat="43.75707" lon="3.53841">
        <ele>488</ele>
        <time>2019-03-26T10:58:22.298Z</time>
      </trkpt>
      <trkpt lat="43.75708" lon="3.53839">
        <ele>488</ele>
        <time>2019-03-26T10:58:27.303Z</time>
      </trkpt>
      <trkpt lat="43.75713" lon="3.53832">
        <ele>497</ele>
        <time>2019-03-26T10:58:32.308Z</time>
      </trkpt>
      <trkpt lat="43.75716" lon="3.53831">
        <ele>497</ele>
        <time>2019-03-26T10:58:37.289Z</time>
      </trkpt>
      <trkpt lat="43.75717" lon="3.53833">
        <ele>497</ele>
        <time>2019-03-26T10:58:42.277Z</time>
      </trkpt>
      <trkpt lat="43.7572" lon="3.53825">
        <ele>497</ele>
        <time>2019-03-26T10:59:15.285Z</time>
      </trkpt>
      <trkpt lat="43.75721" lon="3.5382">
        <ele>497</ele>
        <time>2019-03-26T10:59:20.297Z</time>
      </trkpt>
      <trkpt lat="43.7572" lon="3.53818">
        <ele>505</ele>
        <time>2019-03-26T10:59:25.280Z</time>
      </trkpt>
      <trkpt lat="43.7572" lon="3.53817">
        <ele>505</ele>
        <time>2019-03-26T10:59:44.305Z</time>
      </trkpt>
      <trkpt lat="43.75718" lon="3.53811">
        <ele>505</ele>
        <time>2019-03-26T10:59:54.315Z</time>
      </trkpt>
      <trkpt lat="43.75717" lon="3.5381">
        <ele>505</ele>
        <time>2019-03-26T10:59:59.294Z</time>
      </trkpt>
      <trkpt lat="43.7572" lon="3.53806">
        <ele>505</ele>
        <time>2019-03-26T11:00:04.283Z</time>
      </trkpt>
      <trkpt lat="43.75721" lon="3.53802">
        <ele>505</ele>
        <time>2019-03-26T11:00:09.289Z</time>
      </trkpt>
      <trkpt lat="43.75718" lon="3.53799">
        <ele>505</ele>
        <time>2019-03-26T11:00:14.291Z</time>
      </trkpt>
      <trkpt lat="43.75717" lon="3.53797">
        <ele>505</ele>
        <time>2019-03-26T11:00:19.287Z</time>
      </trkpt>
      <trkpt lat="43.75715" lon="3.53784">
        <ele>513</ele>
        <time>2019-03-26T11:00:42.289Z</time>
      </trkpt>
      <trkpt lat="43.75716" lon="3.53783">
        <ele>513</ele>
        <time>2019-03-26T11:00:46.320Z</time>
      </trkpt>
      <trkpt lat="43.75716" lon="3.5378">
        <ele>513</ele>
        <time>2019-03-26T11:00:51.286Z</time>
      </trkpt>
      <trkpt lat="43.75716" lon="3.53775">
        <ele>513</ele>
        <time>2019-03-26T11:00:56.289Z</time>
      </trkpt>
      <trkpt lat="43.75716" lon="3.53774">
        <ele>513</ele>
        <time>2019-03-26T11:01:01.291Z</time>
      </trkpt>
      <trkpt lat="43.75719" lon="3.5377">
        <ele>513</ele>
        <time>2019-03-26T11:01:10.290Z</time>
      </trkpt>
      <trkpt lat="43.7572" lon="3.53771">
        <ele>513</ele>
        <time>2019-03-26T11:01:15.289Z</time>
      </trkpt>
      <trkpt lat="43.75722" lon="3.53768">
        <ele>513</ele>
        <time>2019-03-26T11:01:24.291Z</time>
      </trkpt>
      <trkpt lat="43.75723" lon="3.53762">
        <ele>524</ele>
        <time>2019-03-26T11:01:29.291Z</time>
      </trkpt>
      <trkpt lat="43.75722" lon="3.53757">
        <ele>524</ele>
        <time>2019-03-26T11:01:33.321Z</time>
      </trkpt>
      <trkpt lat="43.75722" lon="3.53745">
        <ele>524</ele>
        <time>2019-03-26T11:02:10.291Z</time>
      </trkpt>
      <trkpt lat="43.75726" lon="3.53748">
        <ele>524</ele>
        <time>2019-03-26T11:02:15.289Z</time>
      </trkpt>
      <trkpt lat="43.75727" lon="3.5375">
        <ele>524</ele>
        <time>2019-03-26T11:02:20.271Z</time>
      </trkpt>
      <trkpt lat="43.75729" lon="3.53755">
        <ele>524</ele>
        <time>2019-03-26T11:02:25.283Z</time>
      </trkpt>
      <trkpt lat="43.75731" lon="3.53754">
        <ele>524</ele>
        <time>2019-03-26T11:02:29.329Z</time>
      </trkpt>
      <trkpt lat="43.75736" lon="3.5376">
        <ele>526</ele>
        <time>2019-03-26T11:02:34.283Z</time>
      </trkpt>
      <trkpt lat="43.75741" lon="3.53763">
        <ele>526</ele>
        <time>2019-03-26T11:02:38.296Z</time>
      </trkpt>
      <trkpt lat="43.75745" lon="3.53768">
        <ele>523</ele>
        <time>2019-03-26T11:02:43.285Z</time>
      </trkpt>
      <trkpt lat="43.75747" lon="3.53773">
        <ele>523</ele>
        <time>2019-03-26T11:02:48.298Z</time>
      </trkpt>
      <trkpt lat="43.75752" lon="3.53777">
        <ele>523</ele>
        <time>2019-03-26T11:02:58.300Z</time>
      </trkpt>
      <trkpt lat="43.75752" lon="3.53776">
        <ele>523</ele>
        <time>2019-03-26T11:03:03.295Z</time>
      </trkpt>
      <trkpt lat="43.75753" lon="3.53773">
        <ele>523</ele>
        <time>2019-03-26T11:03:08.292Z</time>
      </trkpt>
      <trkpt lat="43.75754" lon="3.53768">
        <ele>523</ele>
        <time>2019-03-26T11:03:13.314Z</time>
      </trkpt>
      <trkpt lat="43.75754" lon="3.53764">
        <ele>523</ele>
        <time>2019-03-26T11:03:17.333Z</time>
      </trkpt>
      <trkpt lat="43.75757" lon="3.53754">
        <ele>526</ele>
        <time>2019-03-26T11:03:31.319Z</time>
      </trkpt>
      <trkpt lat="43.7576" lon="3.53757">
        <ele>526</ele>
        <time>2019-03-26T11:03:36.290Z</time>
      </trkpt>
      <trkpt lat="43.75761" lon="3.5376">
        <ele>526</ele>
        <time>2019-03-26T11:03:41.283Z</time>
      </trkpt>
      <trkpt lat="43.75762" lon="3.53763">
        <ele>526</ele>
        <time>2019-03-26T11:03:45.291Z</time>
      </trkpt>
      <trkpt lat="43.75763" lon="3.53766">
        <ele>523</ele>
        <time>2019-03-26T11:03:49.299Z</time>
      </trkpt>
      <trkpt lat="43.75764" lon="3.53767">
        <ele>523</ele>
        <time>2019-03-26T11:03:54.288Z</time>
      </trkpt>
      <trkpt lat="43.75767" lon="3.53764">
        <ele>531</ele>
        <time>2019-03-26T11:03:58.294Z</time>
      </trkpt>
      <trkpt lat="43.75771" lon="3.53761">
        <ele>529</ele>
        <time>2019-03-26T11:04:03.283Z</time>
      </trkpt>
      <trkpt lat="43.75773" lon="3.5376">
        <ele>529</ele>
        <time>2019-03-26T11:04:07.293Z</time>
      </trkpt>
      <trkpt lat="43.75772" lon="3.5376">
        <ele>529</ele>
        <time>2019-03-26T11:05:16.291Z</time>
      </trkpt>
      <trkpt lat="43.75772" lon="3.5376">
        <ele>529</ele>
        <time>2019-03-26T11:05:21.295Z</time>
      </trkpt>
      <trkpt lat="43.75774" lon="3.53765">
        <ele>531</ele>
        <time>2019-03-26T11:05:26.315Z</time>
      </trkpt>
      <trkpt lat="43.75775" lon="3.53766">
        <ele>531</ele>
        <time>2019-03-26T11:05:36.286Z</time>
      </trkpt>
      <trkpt lat="43.75778" lon="3.53772">
        <ele>531</ele>
        <time>2019-03-26T11:05:40.291Z</time>
      </trkpt>
      <trkpt lat="43.7578" lon="3.53776">
        <ele>531</ele>
        <time>2019-03-26T11:05:45.320Z</time>
      </trkpt>
      <trkpt lat="43.75782" lon="3.53778">
        <ele>531</ele>
        <time>2019-03-26T11:06:00.285Z</time>
      </trkpt>
      <trkpt lat="43.75783" lon="3.5378">
        <ele>531</ele>
        <time>2019-03-26T11:06:04.305Z</time>
      </trkpt>
      <trkpt lat="43.75787" lon="3.53788">
        <ele>531</ele>
        <time>2019-03-26T11:06:09.291Z</time>
      </trkpt>
      <trkpt lat="43.7579" lon="3.53794">
        <ele>533</ele>
        <time>2019-03-26T11:06:18.283Z</time>
      </trkpt>
      <trkpt lat="43.75791" lon="3.53796">
        <ele>533</ele>
        <time>2019-03-26T11:07:54.268Z</time>
      </trkpt>
      <trkpt lat="43.75793" lon="3.53799">
        <ele>537</ele>
        <time>2019-03-26T11:07:58.272Z</time>
      </trkpt>
      <trkpt lat="43.75794" lon="3.538">
        <ele>537</ele>
        <time>2019-03-26T11:08:08.296Z</time>
      </trkpt>
      <trkpt lat="43.75798" lon="3.53807">
        <ele>537</ele>
        <time>2019-03-26T11:08:13.288Z</time>
      </trkpt>
      <trkpt lat="43.758" lon="3.53809">
        <ele>537</ele>
        <time>2019-03-26T11:08:18.288Z</time>
      </trkpt>
      <trkpt lat="43.75802" lon="3.53816">
        <ele>537</ele>
        <time>2019-03-26T11:09:02.269Z</time>
      </trkpt>
      <trkpt lat="43.75802" lon="3.53818">
        <ele>537</ele>
        <time>2019-03-26T11:09:06.298Z</time>
      </trkpt>
      <trkpt lat="43.75805" lon="3.53823">
        <ele>540</ele>
        <time>2019-03-26T11:09:11.266Z</time>
      </trkpt>
      <trkpt lat="43.75809" lon="3.53826">
        <ele>540</ele>
        <time>2019-03-26T11:26:37.296Z</time>
      </trkpt>
      <trkpt lat="43.75809" lon="3.53824">
        <ele>540</ele>
        <time>2019-03-26T11:26:41.305Z</time>
      </trkpt>
      <trkpt lat="43.7581" lon="3.53823">
        <ele>540</ele>
        <time>2019-03-26T11:26:46.317Z</time>
      </trkpt>
      <trkpt lat="43.7581" lon="3.53819">
        <ele>537</ele>
        <time>2019-03-26T11:27:05.283Z</time>
      </trkpt>
      <trkpt lat="43.75809" lon="3.53814">
        <ele>537</ele>
        <time>2019-03-26T11:27:09.295Z</time>
      </trkpt>
      <trkpt lat="43.75805" lon="3.53801">
        <ele>537</ele>
        <time>2019-03-26T11:28:06.287Z</time>
      </trkpt>
      <trkpt lat="43.75803" lon="3.53799">
        <ele>537</ele>
        <time>2019-03-26T11:28:10.293Z</time>
      </trkpt>
      <trkpt lat="43.75799" lon="3.53796">
        <ele>537</ele>
        <time>2019-03-26T11:28:19.286Z</time>
      </trkpt>
      <trkpt lat="43.75796" lon="3.53792">
        <ele>537</ele>
        <time>2019-03-26T11:28:24.292Z</time>
      </trkpt>
      <trkpt lat="43.75794" lon="3.53788">
        <ele>531</ele>
        <time>2019-03-26T11:28:28.324Z</time>
      </trkpt>
      <trkpt lat="43.75793" lon="3.53785">
        <ele>531</ele>
        <time>2019-03-26T11:28:33.311Z</time>
      </trkpt>
      <trkpt lat="43.75792" lon="3.53784">
        <ele>531</ele>
        <time>2019-03-26T11:28:38.291Z</time>
      </trkpt>
      <trkpt lat="43.75788" lon="3.53777">
        <ele>531</ele>
        <time>2019-03-26T11:28:51.319Z</time>
      </trkpt>
      <trkpt lat="43.75788" lon="3.53775">
        <ele>531</ele>
        <time>2019-03-26T11:28:56.311Z</time>
      </trkpt>
      <trkpt lat="43.75787" lon="3.53774">
        <ele>531</ele>
        <time>2019-03-26T11:29:01.286Z</time>
      </trkpt>
      <trkpt lat="43.75783" lon="3.53768">
        <ele>531</ele>
        <time>2019-03-26T11:29:06.284Z</time>
      </trkpt>
      <trkpt lat="43.75783" lon="3.53768">
        <ele>531</ele>
        <time>2019-03-26T11:29:11.289Z</time>
      </trkpt>
      <trkpt lat="43.75774" lon="3.53763">
        <ele>529</ele>
        <time>2019-03-26T11:29:29.284Z</time>
      </trkpt>
      <trkpt lat="43.75768" lon="3.5376">
        <ele>529</ele>
        <time>2019-03-26T11:29:34.262Z</time>
      </trkpt>
      <trkpt lat="43.75765" lon="3.53753">
        <ele>529</ele>
        <time>2019-03-26T11:29:38.277Z</time>
      </trkpt>
      <trkpt lat="43.75764" lon="3.5375">
        <ele>529</ele>
        <time>2019-03-26T11:29:42.294Z</time>
      </trkpt>
      <trkpt lat="43.75762" lon="3.53746">
        <ele>526</ele>
        <time>2019-03-26T11:29:47.285Z</time>
      </trkpt>
      <trkpt lat="43.75759" lon="3.53743">
        <ele>526</ele>
        <time>2019-03-26T11:29:52.284Z</time>
      </trkpt>
      <trkpt lat="43.75758" lon="3.53747">
        <ele>526</ele>
        <time>2019-03-26T11:29:57.281Z</time>
      </trkpt>
      <trkpt lat="43.75758" lon="3.53749">
        <ele>526</ele>
        <time>2019-03-26T11:30:02.291Z</time>
      </trkpt>
      <trkpt lat="43.75756" lon="3.53754">
        <ele>526</ele>
        <time>2019-03-26T11:30:07.279Z</time>
      </trkpt>
      <trkpt lat="43.75756" lon="3.53758">
        <ele>526</ele>
        <time>2019-03-26T11:30:11.287Z</time>
      </trkpt>
      <trkpt lat="43.75753" lon="3.53762">
        <ele>526</ele>
        <time>2019-03-26T11:30:45.284Z</time>
      </trkpt>
      <trkpt lat="43.75751" lon="3.53758">
        <ele>526</ele>
        <time>2019-03-26T11:30:50.294Z</time>
      </trkpt>
      <trkpt lat="43.75748" lon="3.53753">
        <ele>526</ele>
        <time>2019-03-26T11:30:55.291Z</time>
      </trkpt>
      <trkpt lat="43.75746" lon="3.53749">
        <ele>526</ele>
        <time>2019-03-26T11:30:59.292Z</time>
      </trkpt>
      <trkpt lat="43.75744" lon="3.53744">
        <ele>526</ele>
        <time>2019-03-26T11:31:04.289Z</time>
      </trkpt>
      <trkpt lat="43.75743" lon="3.53739">
        <ele>526</ele>
        <time>2019-03-26T11:31:09.287Z</time>
      </trkpt>
      <trkpt lat="43.75741" lon="3.53738">
        <ele>526</ele>
        <time>2019-03-26T11:31:13.309Z</time>
      </trkpt>
      <trkpt lat="43.75737" lon="3.53735">
        <ele>530</ele>
        <time>2019-03-26T11:31:18.281Z</time>
      </trkpt>
      <trkpt lat="43.75735" lon="3.53734">
        <ele>533</ele>
        <time>2019-03-26T11:31:23.312Z</time>
      </trkpt>
      <trkpt lat="43.75729" lon="3.53731">
        <ele>533</ele>
        <time>2019-03-26T11:31:33.277Z</time>
      </trkpt>
      <trkpt lat="43.75728" lon="3.53731">
        <ele>533</ele>
        <time>2019-03-26T11:31:38.313Z</time>
      </trkpt>
      <trkpt lat="43.75727" lon="3.53731">
        <ele>533</ele>
        <time>2019-03-26T11:31:43.284Z</time>
      </trkpt>
      <trkpt lat="43.75725" lon="3.53736">
        <ele>533</ele>
        <time>2019-03-26T11:31:47.318Z</time>
      </trkpt>
      <trkpt lat="43.75725" lon="3.53739">
        <ele>524</ele>
        <time>2019-03-26T11:31:52.289Z</time>
      </trkpt>
      <trkpt lat="43.75726" lon="3.53744">
        <ele>524</ele>
        <time>2019-03-26T11:31:57.284Z</time>
      </trkpt>
      <trkpt lat="43.75721" lon="3.53757">
        <ele>524</ele>
        <time>2019-03-26T11:32:40.289Z</time>
      </trkpt>
      <trkpt lat="43.75723" lon="3.53762">
        <ele>524</ele>
        <time>2019-03-26T11:32:44.325Z</time>
      </trkpt>
      <trkpt lat="43.75722" lon="3.53767">
        <ele>513</ele>
        <time>2019-03-26T11:32:49.289Z</time>
      </trkpt>
      <trkpt lat="43.75718" lon="3.53764">
        <ele>524</ele>
        <time>2019-03-26T11:32:59.282Z</time>
      </trkpt>
      <trkpt lat="43.75717" lon="3.53767">
        <ele>513</ele>
        <time>2019-03-26T11:33:03.312Z</time>
      </trkpt>
      <trkpt lat="43.75718" lon="3.53796">
        <ele>505</ele>
        <time>2019-03-26T11:34:03.310Z</time>
      </trkpt>
      <trkpt lat="43.75717" lon="3.53797">
        <ele>505</ele>
        <time>2019-03-26T11:34:08.286Z</time>
      </trkpt>
      <trkpt lat="43.75719" lon="3.53801">
        <ele>505</ele>
        <time>2019-03-26T11:34:13.305Z</time>
      </trkpt>
      <trkpt lat="43.7572" lon="3.53805">
        <ele>505</ele>
        <time>2019-03-26T11:34:18.301Z</time>
      </trkpt>
      <trkpt lat="43.75723" lon="3.5381">
        <ele>505</ele>
        <time>2019-03-26T11:34:23.293Z</time>
      </trkpt>
      <trkpt lat="43.75717" lon="3.53826">
        <ele>497</ele>
        <time>2019-03-26T11:35:10.304Z</time>
      </trkpt>
      <trkpt lat="43.75715" lon="3.53826">
        <ele>497</ele>
        <time>2019-03-26T11:35:15.287Z</time>
      </trkpt>
      <trkpt lat="43.7571" lon="3.53829">
        <ele>497</ele>
        <time>2019-03-26T11:35:20.311Z</time>
      </trkpt>
      <trkpt lat="43.75712" lon="3.53832">
        <ele>497</ele>
        <time>2019-03-26T11:35:25.281Z</time>
      </trkpt>
      <trkpt lat="43.75713" lon="3.53833">
        <ele>497</ele>
        <time>2019-03-26T11:35:29.295Z</time>
      </trkpt>
      <trkpt lat="43.75714" lon="3.5384">
        <ele>497</ele>
        <time>2019-03-26T11:35:34.289Z</time>
      </trkpt>
      <trkpt lat="43.75712" lon="3.53841">
        <ele>497</ele>
        <time>2019-03-26T11:35:39.306Z</time>
      </trkpt>
      <trkpt lat="43.7571" lon="3.53839">
        <ele>497</ele>
        <time>2019-03-26T11:35:43.310Z</time>
      </trkpt>
      <trkpt lat="43.75706" lon="3.53838">
        <ele>488</ele>
        <time>2019-03-26T11:35:48.286Z</time>
      </trkpt>
      <trkpt lat="43.75701" lon="3.53839">
        <ele>488</ele>
        <time>2019-03-26T11:35:53.281Z</time>
      </trkpt>
      <trkpt lat="43.757" lon="3.5384">
        <ele>488</ele>
        <time>2019-03-26T11:35:57.295Z</time>
      </trkpt>
      <trkpt lat="43.75697" lon="3.5384">
        <ele>488</ele>
        <time>2019-03-26T11:36:02.284Z</time>
      </trkpt>
      <trkpt lat="43.75695" lon="3.5384">
        <ele>488</ele>
        <time>2019-03-26T11:36:07.321Z</time>
      </trkpt>
      <trkpt lat="43.75689" lon="3.53842">
        <ele>488</ele>
        <time>2019-03-26T11:36:12.293Z</time>
      </trkpt>
      <trkpt lat="43.75684" lon="3.53843">
        <ele>488</ele>
        <time>2019-03-26T11:36:17.285Z</time>
      </trkpt>
      <trkpt lat="43.75679" lon="3.53844">
        <ele>485</ele>
        <time>2019-03-26T11:36:22.286Z</time>
      </trkpt>
      <trkpt lat="43.75674" lon="3.53843">
        <ele>485</ele>
        <time>2019-03-26T11:36:26.299Z</time>
      </trkpt>
      <trkpt lat="43.7567" lon="3.53843">
        <ele>485</ele>
        <time>2019-03-26T11:36:31.288Z</time>
      </trkpt>
      <trkpt lat="43.75669" lon="3.53844">
        <ele>485</ele>
        <time>2019-03-26T11:36:36.289Z</time>
      </trkpt>
      <trkpt lat="43.75666" lon="3.53847">
        <ele>485</ele>
        <time>2019-03-26T11:36:41.288Z</time>
      </trkpt>
      <trkpt lat="43.75658" lon="3.5385">
        <ele>477</ele>
        <time>2019-03-26T11:36:46.286Z</time>
      </trkpt>
      <trkpt lat="43.75654" lon="3.53856">
        <ele>477</ele>
        <time>2019-03-26T11:36:51.287Z</time>
      </trkpt>
      <trkpt lat="43.75652" lon="3.53862">
        <ele>479</ele>
        <time>2019-03-26T11:36:56.297Z</time>
      </trkpt>
      <trkpt lat="43.75651" lon="3.53864">
        <ele>479</ele>
        <time>2019-03-26T11:37:01.294Z</time>
      </trkpt>
      <trkpt lat="43.75646" lon="3.53868">
        <ele>479</ele>
        <time>2019-03-26T11:37:06.288Z</time>
      </trkpt>
      <trkpt lat="43.75641" lon="3.53873">
        <ele>479</ele>
        <time>2019-03-26T11:37:11.289Z</time>
      </trkpt>
      <trkpt lat="43.75635" lon="3.5388">
        <ele>474</ele>
        <time>2019-03-26T11:37:16.311Z</time>
      </trkpt>
      <trkpt lat="43.75629" lon="3.53887">
        <ele>474</ele>
        <time>2019-03-26T11:37:21.289Z</time>
      </trkpt>
      <trkpt lat="43.75626" lon="3.53889">
        <ele>474</ele>
        <time>2019-03-26T11:37:26.309Z</time>
      </trkpt>
      <trkpt lat="43.75624" lon="3.5389">
        <ele>484</ele>
        <time>2019-03-26T11:37:31.286Z</time>
      </trkpt>
      <trkpt lat="43.75619" lon="3.53893">
        <ele>484</ele>
        <time>2019-03-26T11:37:36.281Z</time>
      </trkpt>
      <trkpt lat="43.75615" lon="3.53896">
        <ele>484</ele>
        <time>2019-03-26T11:37:41.286Z</time>
      </trkpt>
      <trkpt lat="43.7561" lon="3.53899">
        <ele>484</ele>
        <time>2019-03-26T11:37:46.289Z</time>
      </trkpt>
      <trkpt lat="43.75606" lon="3.53902">
        <ele>484</ele>
        <time>2019-03-26T11:37:51.310Z</time>
      </trkpt>
      <trkpt lat="43.75604" lon="3.53909">
        <ele>479</ele>
        <time>2019-03-26T11:37:56.283Z</time>
      </trkpt>
      <trkpt lat="43.75601" lon="3.53916">
        <ele>479</ele>
        <time>2019-03-26T11:38:01.287Z</time>
      </trkpt>
      <trkpt lat="43.75599" lon="3.53923">
        <ele>479</ele>
        <time>2019-03-26T11:38:06.281Z</time>
      </trkpt>
      <trkpt lat="43.75595" lon="3.53927">
        <ele>481</ele>
        <time>2019-03-26T11:38:10.290Z</time>
      </trkpt>
      <trkpt lat="43.7559" lon="3.5393">
        <ele>481</ele>
        <time>2019-03-26T11:38:15.298Z</time>
      </trkpt>
      <trkpt lat="43.75588" lon="3.5393">
        <ele>481</ele>
        <time>2019-03-26T11:38:19.316Z</time>
      </trkpt>
      <trkpt lat="43.75584" lon="3.53931">
        <ele>472</ele>
        <time>2019-03-26T11:38:24.291Z</time>
      </trkpt>
      <trkpt lat="43.75582" lon="3.53931">
        <ele>472</ele>
        <time>2019-03-26T11:38:29.282Z</time>
      </trkpt>
      <trkpt lat="43.7558" lon="3.53931">
        <ele>472</ele>
        <time>2019-03-26T11:38:33.316Z</time>
      </trkpt>
      <trkpt lat="43.75579" lon="3.53939">
        <ele>472</ele>
        <time>2019-03-26T11:38:58.286Z</time>
      </trkpt>
      <trkpt lat="43.75576" lon="3.5394">
        <ele>472</ele>
        <time>2019-03-26T11:39:02.311Z</time>
      </trkpt>
      <trkpt lat="43.75574" lon="3.53945">
        <ele>472</ele>
        <time>2019-03-26T11:39:07.290Z</time>
      </trkpt>
      <trkpt lat="43.75572" lon="3.53949">
        <ele>472</ele>
        <time>2019-03-26T11:39:12.322Z</time>
      </trkpt>
      <trkpt lat="43.75573" lon="3.53956">
        <ele>472</ele>
        <time>2019-03-26T11:39:17.286Z</time>
      </trkpt>
      <trkpt lat="43.7557" lon="3.53963">
        <ele>461</ele>
        <time>2019-03-26T11:39:22.289Z</time>
      </trkpt>
      <trkpt lat="43.75567" lon="3.53969">
        <ele>466</ele>
        <time>2019-03-26T11:39:27.285Z</time>
      </trkpt>
      <trkpt lat="43.75565" lon="3.53974">
        <ele>466</ele>
        <time>2019-03-26T11:39:32.281Z</time>
      </trkpt>
      <trkpt lat="43.75564" lon="3.53975">
        <ele>466</ele>
        <time>2019-03-26T11:39:36.290Z</time>
      </trkpt>
      <trkpt lat="43.75562" lon="3.53978">
        <ele>466</ele>
        <time>2019-03-26T11:39:41.309Z</time>
      </trkpt>
      <trkpt lat="43.75558" lon="3.53983">
        <ele>466</ele>
        <time>2019-03-26T11:39:46.282Z</time>
      </trkpt>
      <trkpt lat="43.75556" lon="3.53989">
        <ele>453</ele>
        <time>2019-03-26T11:39:50.286Z</time>
      </trkpt>
      <trkpt lat="43.75555" lon="3.53993">
        <ele>453</ele>
        <time>2019-03-26T11:39:54.314Z</time>
      </trkpt>
      <trkpt lat="43.75552" lon="3.54001">
        <ele>453</ele>
        <time>2019-03-26T11:39:59.290Z</time>
      </trkpt>
      <trkpt lat="43.75547" lon="3.54007">
        <ele>453</ele>
        <time>2019-03-26T11:40:04.286Z</time>
      </trkpt>
      <trkpt lat="43.75543" lon="3.54011">
        <ele>453</ele>
        <time>2019-03-26T11:40:08.319Z</time>
      </trkpt>
      <trkpt lat="43.75542" lon="3.54019">
        <ele>449</ele>
        <time>2019-03-26T11:40:13.282Z</time>
      </trkpt>
      <trkpt lat="43.75539" lon="3.54023">
        <ele>449</ele>
        <time>2019-03-26T11:40:18.279Z</time>
      </trkpt>
      <trkpt lat="43.75536" lon="3.54028">
        <ele>449</ele>
        <time>2019-03-26T11:40:22.296Z</time>
      </trkpt>
      <trkpt lat="43.75533" lon="3.54033">
        <ele>449</ele>
        <time>2019-03-26T11:40:27.288Z</time>
      </trkpt>
      <trkpt lat="43.75529" lon="3.54038">
        <ele>449</ele>
        <time>2019-03-26T11:40:32.303Z</time>
      </trkpt>
      <trkpt lat="43.75525" lon="3.54038">
        <ele>449</ele>
        <time>2019-03-26T11:40:37.284Z</time>
      </trkpt>
      <trkpt lat="43.75522" lon="3.54035">
        <ele>449</ele>
        <time>2019-03-26T11:40:42.298Z</time>
      </trkpt>
      <trkpt lat="43.75519" lon="3.54034">
        <ele>449</ele>
        <time>2019-03-26T11:40:47.265Z</time>
      </trkpt>
      <trkpt lat="43.75516" lon="3.54035">
        <ele>449</ele>
        <time>2019-03-26T11:40:51.287Z</time>
      </trkpt>
      <trkpt lat="43.75512" lon="3.54038">
        <ele>458</ele>
        <time>2019-03-26T11:40:56.284Z</time>
      </trkpt>
      <trkpt lat="43.75508" lon="3.54042">
        <ele>447</ele>
        <time>2019-03-26T11:41:01.284Z</time>
      </trkpt>
      <trkpt lat="43.75503" lon="3.54047">
        <ele>447</ele>
        <time>2019-03-26T11:41:06.307Z</time>
      </trkpt>
      <trkpt lat="43.75501" lon="3.54052">
        <ele>447</ele>
        <time>2019-03-26T11:41:11.286Z</time>
      </trkpt>
      <trkpt lat="43.75498" lon="3.5406">
        <ele>447</ele>
        <time>2019-03-26T11:41:16.286Z</time>
      </trkpt>
      <trkpt lat="43.75496" lon="3.54065">
        <ele>447</ele>
        <time>2019-03-26T11:41:21.287Z</time>
      </trkpt>
      <trkpt lat="43.75493" lon="3.54074">
        <ele>442</ele>
        <time>2019-03-26T11:41:26.288Z</time>
      </trkpt>
      <trkpt lat="43.75489" lon="3.54082">
        <ele>442</ele>
        <time>2019-03-26T11:41:31.326Z</time>
      </trkpt>
      <trkpt lat="43.75489" lon="3.54089">
        <ele>442</ele>
        <time>2019-03-26T11:41:36.290Z</time>
      </trkpt>
      <trkpt lat="43.75488" lon="3.54097">
        <ele>442</ele>
        <time>2019-03-26T11:41:40.306Z</time>
      </trkpt>
      <trkpt lat="43.75488" lon="3.54105">
        <ele>437</ele>
        <time>2019-03-26T11:41:45.292Z</time>
      </trkpt>
      <trkpt lat="43.75485" lon="3.54113">
        <ele>449</ele>
        <time>2019-03-26T11:41:50.290Z</time>
      </trkpt>
      <trkpt lat="43.75484" lon="3.54118">
        <ele>449</ele>
        <time>2019-03-26T11:41:55.288Z</time>
      </trkpt>
      <trkpt lat="43.75484" lon="3.54123">
        <ele>449</ele>
        <time>2019-03-26T11:41:59.313Z</time>
      </trkpt>
      <trkpt lat="43.75483" lon="3.54132">
        <ele>444</ele>
        <time>2019-03-26T11:42:04.289Z</time>
      </trkpt>
      <trkpt lat="43.75485" lon="3.54139">
        <ele>444</ele>
        <time>2019-03-26T11:42:09.288Z</time>
      </trkpt>
      <trkpt lat="43.75486" lon="3.54146">
        <ele>433</ele>
        <time>2019-03-26T11:42:14.287Z</time>
      </trkpt>
      <trkpt lat="43.7549" lon="3.54143">
        <ele>433</ele>
        <time>2019-03-26T11:42:19.287Z</time>
      </trkpt>
      <trkpt lat="43.75488" lon="3.54138">
        <ele>433</ele>
        <time>2019-03-26T11:42:24.290Z</time>
      </trkpt>
      <trkpt lat="43.75489" lon="3.54133">
        <ele>433</ele>
        <time>2019-03-26T11:42:29.287Z</time>
      </trkpt>
      <trkpt lat="43.75491" lon="3.54128">
        <ele>433</ele>
        <time>2019-03-26T11:42:34.288Z</time>
      </trkpt>
      <trkpt lat="43.75493" lon="3.54124">
        <ele>437</ele>
        <time>2019-03-26T11:42:39.286Z</time>
      </trkpt>
      <trkpt lat="43.75494" lon="3.54122">
        <ele>437</ele>
        <time>2019-03-26T11:42:43.312Z</time>
      </trkpt>
      <trkpt lat="43.75499" lon="3.54117">
        <ele>437</ele>
        <time>2019-03-26T11:42:48.286Z</time>
      </trkpt>
      <trkpt lat="43.75502" lon="3.54111">
        <ele>437</ele>
        <time>2019-03-26T11:42:53.286Z</time>
      </trkpt>
      <trkpt lat="43.75505" lon="3.54105">
        <ele>437</ele>
        <time>2019-03-26T11:42:58.288Z</time>
      </trkpt>
      <trkpt lat="43.75506" lon="3.54104">
        <ele>437</ele>
        <time>2019-03-26T11:43:03.306Z</time>
      </trkpt>
      <trkpt lat="43.75517" lon="3.541">
        <ele>426</ele>
        <time>2019-03-26T11:43:18.280Z</time>
      </trkpt>
      <trkpt lat="43.75522" lon="3.54096">
        <ele>431</ele>
        <time>2019-03-26T11:43:23.300Z</time>
      </trkpt>
      <trkpt lat="43.75532" lon="3.5409">
        <ele>431</ele>
        <time>2019-03-26T11:43:28.295Z</time>
      </trkpt>
      <trkpt lat="43.75538" lon="3.54085">
        <ele>431</ele>
        <time>2019-03-26T11:43:32.307Z</time>
      </trkpt>
      <trkpt lat="43.75545" lon="3.5408">
        <ele>425</ele>
        <time>2019-03-26T11:43:37.291Z</time>
      </trkpt>
      <trkpt lat="43.7555" lon="3.54076">
        <ele>425</ele>
        <time>2019-03-26T11:43:42.287Z</time>
      </trkpt>
      <trkpt lat="43.75554" lon="3.54072">
        <ele>425</ele>
        <time>2019-03-26T11:43:47.314Z</time>
      </trkpt>
      <trkpt lat="43.75558" lon="3.54068">
        <ele>433</ele>
        <time>2019-03-26T11:43:52.286Z</time>
      </trkpt>
      <trkpt lat="43.75562" lon="3.54063">
        <ele>433</ele>
        <time>2019-03-26T11:43:57.290Z</time>
      </trkpt>
      <trkpt lat="43.75568" lon="3.54059">
        <ele>433</ele>
        <time>2019-03-26T11:44:02.296Z</time>
      </trkpt>
      <trkpt lat="43.75574" lon="3.54055">
        <ele>427</ele>
        <time>2019-03-26T11:44:07.282Z</time>
      </trkpt>
      <trkpt lat="43.75579" lon="3.54053">
        <ele>427</ele>
        <time>2019-03-26T11:44:12.309Z</time>
      </trkpt>
      <trkpt lat="43.75583" lon="3.54051">
        <ele>427</ele>
        <time>2019-03-26T11:44:17.310Z</time>
      </trkpt>
      <trkpt lat="43.75587" lon="3.5405">
        <ele>427</ele>
        <time>2019-03-26T11:44:22.284Z</time>
      </trkpt>
      <trkpt lat="43.75594" lon="3.54049">
        <ele>427</ele>
        <time>2019-03-26T11:44:27.286Z</time>
      </trkpt>
      <trkpt lat="43.75601" lon="3.54047">
        <ele>426</ele>
        <time>2019-03-26T11:44:32.290Z</time>
      </trkpt>
      <trkpt lat="43.75605" lon="3.54046">
        <ele>426</ele>
        <time>2019-03-26T11:44:37.314Z</time>
      </trkpt>
      <trkpt lat="43.7561" lon="3.54045">
        <ele>426</ele>
        <time>2019-03-26T11:44:42.281Z</time>
      </trkpt>
      <trkpt lat="43.75614" lon="3.54043">
        <ele>426</ele>
        <time>2019-03-26T11:44:47.285Z</time>
      </trkpt>
      <trkpt lat="43.75619" lon="3.54045">
        <ele>426</ele>
        <time>2019-03-26T11:44:52.289Z</time>
      </trkpt>
      <trkpt lat="43.75622" lon="3.54045">
        <ele>426</ele>
        <time>2019-03-26T11:44:56.289Z</time>
      </trkpt>
      <trkpt lat="43.75622" lon="3.5405">
        <ele>426</ele>
        <time>2019-03-26T11:45:01.298Z</time>
      </trkpt>
      <trkpt lat="43.75622" lon="3.54053">
        <ele>426</ele>
        <time>2019-03-26T11:45:06.289Z</time>
      </trkpt>
      <trkpt lat="43.7562" lon="3.5406">
        <ele>426</ele>
        <time>2019-03-26T11:45:11.315Z</time>
      </trkpt>
      <trkpt lat="43.75619" lon="3.54065">
        <ele>426</ele>
        <time>2019-03-26T11:45:16.294Z</time>
      </trkpt>
      <trkpt lat="43.7562" lon="3.54071">
        <ele>425</ele>
        <time>2019-03-26T11:45:21.280Z</time>
      </trkpt>
      <trkpt lat="43.75618" lon="3.54078">
        <ele>425</ele>
        <time>2019-03-26T11:45:26.295Z</time>
      </trkpt>
      <trkpt lat="43.75615" lon="3.54084">
        <ele>425</ele>
        <time>2019-03-26T11:45:31.286Z</time>
      </trkpt>
      <trkpt lat="43.75613" lon="3.54089">
        <ele>425</ele>
        <time>2019-03-26T11:45:35.316Z</time>
      </trkpt>
      <trkpt lat="43.75613" lon="3.54096">
        <ele>425</ele>
        <time>2019-03-26T11:45:40.288Z</time>
      </trkpt>
      <trkpt lat="43.75611" lon="3.541">
        <ele>423</ele>
        <time>2019-03-26T11:45:45.291Z</time>
      </trkpt>
      <trkpt lat="43.7561" lon="3.54109">
        <ele>423</ele>
        <time>2019-03-26T11:45:50.288Z</time>
      </trkpt>
      <trkpt lat="43.75609" lon="3.54117">
        <ele>423</ele>
        <time>2019-03-26T11:45:55.266Z</time>
      </trkpt>
      <trkpt lat="43.75606" lon="3.54123">
        <ele>423</ele>
        <time>2019-03-26T11:45:59.286Z</time>
      </trkpt>
      <trkpt lat="43.75603" lon="3.54126">
        <ele>424</ele>
        <time>2019-03-26T11:46:03.310Z</time>
      </trkpt>
      <trkpt lat="43.756" lon="3.54132">
        <ele>424</ele>
        <time>2019-03-26T11:46:08.291Z</time>
      </trkpt>
      <trkpt lat="43.75597" lon="3.5414">
        <ele>413</ele>
        <time>2019-03-26T11:46:12.294Z</time>
      </trkpt>
      <trkpt lat="43.75594" lon="3.54147">
        <ele>413</ele>
        <time>2019-03-26T11:46:17.289Z</time>
      </trkpt>
      <trkpt lat="43.75592" lon="3.54152">
        <ele>413</ele>
        <time>2019-03-26T11:46:21.315Z</time>
      </trkpt>
      <trkpt lat="43.75589" lon="3.5416">
        <ele>412</ele>
        <time>2019-03-26T11:46:26.289Z</time>
      </trkpt>
      <trkpt lat="43.75588" lon="3.54166">
        <ele>412</ele>
        <time>2019-03-26T11:46:30.312Z</time>
      </trkpt>
      <trkpt lat="43.75586" lon="3.54174">
        <ele>412</ele>
        <time>2019-03-26T11:46:35.287Z</time>
      </trkpt>
      <trkpt lat="43.75583" lon="3.5418">
        <ele>412</ele>
        <time>2019-03-26T11:46:40.295Z</time>
      </trkpt>
      <trkpt lat="43.75581" lon="3.54186">
        <ele>412</ele>
        <time>2019-03-26T11:46:45.279Z</time>
      </trkpt>
      <trkpt lat="43.75578" lon="3.54194">
        <ele>412</ele>
        <time>2019-03-26T11:46:50.289Z</time>
      </trkpt>
      <trkpt lat="43.75576" lon="3.54201">
        <ele>412</ele>
        <time>2019-03-26T11:46:55.311Z</time>
      </trkpt>
      <trkpt lat="43.75576" lon="3.54209">
        <ele>411</ele>
        <time>2019-03-26T11:47:00.291Z</time>
      </trkpt>
      <trkpt lat="43.75576" lon="3.54217">
        <ele>411</ele>
        <time>2019-03-26T11:47:05.288Z</time>
      </trkpt>
      <trkpt lat="43.75576" lon="3.54224">
        <ele>411</ele>
        <time>2019-03-26T11:47:09.317Z</time>
      </trkpt>
      <trkpt lat="43.75575" lon="3.54233">
        <ele>411</ele>
        <time>2019-03-26T11:47:14.280Z</time>
      </trkpt>
      <trkpt lat="43.75572" lon="3.5424">
        <ele>413</ele>
        <time>2019-03-26T11:47:19.284Z</time>
      </trkpt>
      <trkpt lat="43.75571" lon="3.54246">
        <ele>413</ele>
        <time>2019-03-26T11:47:23.289Z</time>
      </trkpt>
      <trkpt lat="43.75569" lon="3.54253">
        <ele>404</ele>
        <time>2019-03-26T11:47:27.313Z</time>
      </trkpt>
      <trkpt lat="43.75567" lon="3.5426">
        <ele>404</ele>
        <time>2019-03-26T11:47:32.286Z</time>
      </trkpt>
      <trkpt lat="43.75565" lon="3.54268">
        <ele>401</ele>
        <time>2019-03-26T11:47:37.286Z</time>
      </trkpt>
      <trkpt lat="43.75563" lon="3.54273">
        <ele>401</ele>
        <time>2019-03-26T11:47:41.318Z</time>
      </trkpt>
      <trkpt lat="43.7556" lon="3.54279">
        <ele>401</ele>
        <time>2019-03-26T11:47:46.316Z</time>
      </trkpt>
      <trkpt lat="43.75557" lon="3.54288">
        <ele>401</ele>
        <time>2019-03-26T11:47:51.290Z</time>
      </trkpt>
      <trkpt lat="43.75555" lon="3.54296">
        <ele>399</ele>
        <time>2019-03-26T11:47:56.280Z</time>
      </trkpt>
      <trkpt lat="43.75556" lon="3.54302">
        <ele>399</ele>
        <time>2019-03-26T11:48:00.289Z</time>
      </trkpt>
      <trkpt lat="43.75555" lon="3.54308">
        <ele>399</ele>
        <time>2019-03-26T11:48:05.287Z</time>
      </trkpt>
      <trkpt lat="43.75552" lon="3.54312">
        <ele>399</ele>
        <time>2019-03-26T11:48:09.296Z</time>
      </trkpt>
      <trkpt lat="43.75549" lon="3.54315">
        <ele>399</ele>
        <time>2019-03-26T11:48:14.296Z</time>
      </trkpt>
      <trkpt lat="43.75545" lon="3.54318">
        <ele>399</ele>
        <time>2019-03-26T11:48:19.280Z</time>
      </trkpt>
      <trkpt lat="43.75543" lon="3.54319">
        <ele>399</ele>
        <time>2019-03-26T11:48:23.291Z</time>
      </trkpt>
      <trkpt lat="43.7554" lon="3.54321">
        <ele>400</ele>
        <time>2019-03-26T11:48:28.293Z</time>
      </trkpt>
      <trkpt lat="43.75539" lon="3.5432">
        <ele>400</ele>
        <time>2019-03-26T11:48:33.287Z</time>
      </trkpt>
      <trkpt lat="43.75537" lon="3.54316">
        <ele>400</ele>
        <time>2019-03-26T11:48:38.284Z</time>
      </trkpt>
      <trkpt lat="43.75536" lon="3.54312">
        <ele>400</ele>
        <time>2019-03-26T11:48:43.286Z</time>
      </trkpt>
      <trkpt lat="43.7553" lon="3.54311">
        <ele>400</ele>
        <time>2019-03-26T11:48:48.287Z</time>
      </trkpt>
      <trkpt lat="43.75522" lon="3.54309">
        <ele>400</ele>
        <time>2019-03-26T11:48:53.294Z</time>
      </trkpt>
      <trkpt lat="43.75516" lon="3.54308">
        <ele>400</ele>
        <time>2019-03-26T11:48:57.318Z</time>
      </trkpt>
      <trkpt lat="43.7551" lon="3.54307">
        <ele>399</ele>
        <time>2019-03-26T11:49:02.287Z</time>
      </trkpt>
      <trkpt lat="43.75504" lon="3.54306">
        <ele>399</ele>
        <time>2019-03-26T11:49:07.289Z</time>
      </trkpt>
      <trkpt lat="43.755" lon="3.54305">
        <ele>399</ele>
        <time>2019-03-26T11:49:12.321Z</time>
      </trkpt>
      <trkpt lat="43.75494" lon="3.54307">
        <ele>399</ele>
        <time>2019-03-26T11:49:17.296Z</time>
      </trkpt>
      <trkpt lat="43.7549" lon="3.54307">
        <ele>399</ele>
        <time>2019-03-26T11:49:22.296Z</time>
      </trkpt>
      <trkpt lat="43.75484" lon="3.54306">
        <ele>396</ele>
        <time>2019-03-26T11:49:27.284Z</time>
      </trkpt>
      <trkpt lat="43.7548" lon="3.54307">
        <ele>396</ele>
        <time>2019-03-26T11:49:31.288Z</time>
      </trkpt>
      <trkpt lat="43.75472" lon="3.5431">
        <ele>396</ele>
        <time>2019-03-26T11:49:36.307Z</time>
      </trkpt>
      <trkpt lat="43.75467" lon="3.5431">
        <ele>396</ele>
        <time>2019-03-26T11:49:41.294Z</time>
      </trkpt>
      <trkpt lat="43.75462" lon="3.54307">
        <ele>396</ele>
        <time>2019-03-26T11:49:46.318Z</time>
      </trkpt>
      <trkpt lat="43.75458" lon="3.54304">
        <ele>392</ele>
        <time>2019-03-26T11:49:51.283Z</time>
      </trkpt>
      <trkpt lat="43.75453" lon="3.54301">
        <ele>392</ele>
        <time>2019-03-26T11:49:56.278Z</time>
      </trkpt>
      <trkpt lat="43.75449" lon="3.543">
        <ele>392</ele>
        <time>2019-03-26T11:50:00.287Z</time>
      </trkpt>
      <trkpt lat="43.75444" lon="3.54299">
        <ele>392</ele>
        <time>2019-03-26T11:50:04.296Z</time>
      </trkpt>
      <trkpt lat="43.7544" lon="3.54299">
        <ele>392</ele>
        <time>2019-03-26T11:50:08.316Z</time>
      </trkpt>
      <trkpt lat="43.75435" lon="3.54299">
        <ele>392</ele>
        <time>2019-03-26T11:50:13.289Z</time>
      </trkpt>
      <trkpt lat="43.7543" lon="3.54299">
        <ele>390</ele>
        <time>2019-03-26T11:50:18.286Z</time>
      </trkpt>
      <trkpt lat="43.75427" lon="3.54302">
        <ele>390</ele>
        <time>2019-03-26T11:50:22.294Z</time>
      </trkpt>
      <trkpt lat="43.75427" lon="3.54302">
        <ele>390</ele>
        <time>2019-03-26T11:50:27.282Z</time>
      </trkpt>
      <trkpt lat="43.75424" lon="3.54304">
        <ele>390</ele>
        <time>2019-03-26T11:50:35.304Z</time>
      </trkpt>
      <trkpt lat="43.75419" lon="3.54305">
        <ele>390</ele>
        <time>2019-03-26T11:50:40.288Z</time>
      </trkpt>
      <trkpt lat="43.75413" lon="3.54306">
        <ele>390</ele>
        <time>2019-03-26T11:50:45.287Z</time>
      </trkpt>
      <trkpt lat="43.75409" lon="3.54308">
        <ele>390</ele>
        <time>2019-03-26T11:50:49.298Z</time>
      </trkpt>
      <trkpt lat="43.75402" lon="3.54307">
        <ele>392</ele>
        <time>2019-03-26T11:50:54.288Z</time>
      </trkpt>
      <trkpt lat="43.75399" lon="3.54308">
        <ele>392</ele>
        <time>2019-03-26T11:50:59.292Z</time>
      </trkpt>
      <trkpt lat="43.75396" lon="3.54305">
        <ele>392</ele>
        <time>2019-03-26T11:51:03.316Z</time>
      </trkpt>
      <trkpt lat="43.75388" lon="3.54304">
        <ele>392</ele>
        <time>2019-03-26T11:51:08.280Z</time>
      </trkpt>
      <trkpt lat="43.75382" lon="3.54304">
        <ele>392</ele>
        <time>2019-03-26T11:51:13.311Z</time>
      </trkpt>
      <trkpt lat="43.75375" lon="3.54306">
        <ele>392</ele>
        <time>2019-03-26T11:51:18.314Z</time>
      </trkpt>
      <trkpt lat="43.75368" lon="3.5431">
        <ele>397</ele>
        <time>2019-03-26T11:51:23.287Z</time>
      </trkpt>
      <trkpt lat="43.75364" lon="3.54311">
        <ele>397</ele>
        <time>2019-03-26T11:51:28.311Z</time>
      </trkpt>
      <trkpt lat="43.75361" lon="3.54313">
        <ele>397</ele>
        <time>2019-03-26T11:51:33.297Z</time>
      </trkpt>
      <trkpt lat="43.75359" lon="3.54315">
        <ele>397</ele>
        <time>2019-03-26T11:51:37.315Z</time>
      </trkpt>
      <trkpt lat="43.75356" lon="3.54317">
        <ele>397</ele>
        <time>2019-03-26T11:51:42.290Z</time>
      </trkpt>
      <trkpt lat="43.7535" lon="3.54324">
        <ele>388</ele>
        <time>2019-03-26T11:51:47.263Z</time>
      </trkpt>
      <trkpt lat="43.75346" lon="3.54327">
        <ele>397</ele>
        <time>2019-03-26T11:51:51.294Z</time>
      </trkpt>
      <trkpt lat="43.75343" lon="3.54331">
        <ele>397</ele>
        <time>2019-03-26T11:51:55.299Z</time>
      </trkpt>
      <trkpt lat="43.75338" lon="3.54336">
        <ele>397</ele>
        <time>2019-03-26T11:52:00.326Z</time>
      </trkpt>
      <trkpt lat="43.75333" lon="3.54341">
        <ele>397</ele>
        <time>2019-03-26T11:52:05.287Z</time>
      </trkpt>
      <trkpt lat="43.75328" lon="3.54349">
        <ele>385</ele>
        <time>2019-03-26T11:52:10.291Z</time>
      </trkpt>
      <trkpt lat="43.7532" lon="3.54357">
        <ele>385</ele>
        <time>2019-03-26T11:52:15.279Z</time>
      </trkpt>
      <trkpt lat="43.75315" lon="3.5436">
        <ele>386</ele>
        <time>2019-03-26T11:52:19.291Z</time>
      </trkpt>
      <trkpt lat="43.75313" lon="3.54362">
        <ele>386</ele>
        <time>2019-03-26T11:52:24.285Z</time>
      </trkpt>
      <trkpt lat="43.75307" lon="3.54366">
        <ele>386</ele>
        <time>2019-03-26T11:52:29.322Z</time>
      </trkpt>
      <trkpt lat="43.75301" lon="3.5437">
        <ele>386</ele>
        <time>2019-03-26T11:52:34.291Z</time>
      </trkpt>
      <trkpt lat="43.75293" lon="3.54375">
        <ele>381</ele>
        <time>2019-03-26T11:52:39.280Z</time>
      </trkpt>
      <trkpt lat="43.75288" lon="3.54378">
        <ele>392</ele>
        <time>2019-03-26T11:52:43.315Z</time>
      </trkpt>
      <trkpt lat="43.75281" lon="3.54383">
        <ele>392</ele>
        <time>2019-03-26T11:52:48.284Z</time>
      </trkpt>
      <trkpt lat="43.75275" lon="3.54389">
        <ele>392</ele>
        <time>2019-03-26T11:52:53.313Z</time>
      </trkpt>
      <trkpt lat="43.7527" lon="3.54391">
        <ele>392</ele>
        <time>2019-03-26T11:52:58.280Z</time>
      </trkpt>
      <trkpt lat="43.75267" lon="3.54393">
        <ele>392</ele>
        <time>2019-03-26T11:53:03.310Z</time>
      </trkpt>
      <trkpt lat="43.75263" lon="3.54393">
        <ele>407</ele>
        <time>2019-03-26T11:53:08.315Z</time>
      </trkpt>
      <trkpt lat="43.75259" lon="3.54397">
        <ele>407</ele>
        <time>2019-03-26T11:53:13.325Z</time>
      </trkpt>
      <trkpt lat="43.75254" lon="3.54402">
        <ele>407</ele>
        <time>2019-03-26T11:53:18.280Z</time>
      </trkpt>
      <trkpt lat="43.75249" lon="3.54406">
        <ele>396</ele>
        <time>2019-03-26T11:53:22.319Z</time>
      </trkpt>
      <trkpt lat="43.75244" lon="3.5441">
        <ele>396</ele>
        <time>2019-03-26T11:53:27.280Z</time>
      </trkpt>
      <trkpt lat="43.75238" lon="3.54416">
        <ele>396</ele>
        <time>2019-03-26T11:53:32.280Z</time>
      </trkpt>
      <trkpt lat="43.75233" lon="3.54421">
        <ele>404</ele>
        <time>2019-03-26T11:53:36.286Z</time>
      </trkpt>
      <trkpt lat="43.75228" lon="3.54427">
        <ele>404</ele>
        <time>2019-03-26T11:53:41.282Z</time>
      </trkpt>
      <trkpt lat="43.75225" lon="3.5443">
        <ele>404</ele>
        <time>2019-03-26T11:53:45.286Z</time>
      </trkpt>
      <trkpt lat="43.75221" lon="3.54434">
        <ele>393</ele>
        <time>2019-03-26T11:53:50.279Z</time>
      </trkpt>
      <trkpt lat="43.75216" lon="3.54438">
        <ele>393</ele>
        <time>2019-03-26T11:53:55.314Z</time>
      </trkpt>
      <trkpt lat="43.75209" lon="3.54442">
        <ele>393</ele>
        <time>2019-03-26T11:54:00.294Z</time>
      </trkpt>
      <trkpt lat="43.75203" lon="3.54446">
        <ele>395</ele>
        <time>2019-03-26T11:54:04.321Z</time>
      </trkpt>
      <trkpt lat="43.75195" lon="3.54451">
        <ele>395</ele>
        <time>2019-03-26T11:54:09.289Z</time>
      </trkpt>
      <trkpt lat="43.7519" lon="3.54452">
        <ele>395</ele>
        <time>2019-03-26T11:54:14.292Z</time>
      </trkpt>
      <trkpt lat="43.75184" lon="3.54456">
        <ele>395</ele>
        <time>2019-03-26T11:54:19.292Z</time>
      </trkpt>
      <trkpt lat="43.75183" lon="3.54456">
        <ele>395</ele>
        <time>2019-03-26T11:54:23.308Z</time>
      </trkpt>
      <trkpt lat="43.7518" lon="3.54453">
        <ele>387</ele>
        <time>2019-03-26T11:54:28.289Z</time>
      </trkpt>
      <trkpt lat="43.75177" lon="3.54451">
        <ele>387</ele>
        <time>2019-03-26T11:54:33.282Z</time>
      </trkpt>
      <trkpt lat="43.75172" lon="3.5445">
        <ele>387</ele>
        <time>2019-03-26T11:54:38.312Z</time>
      </trkpt>
      <trkpt lat="43.75168" lon="3.54448">
        <ele>387</ele>
        <time>2019-03-26T11:54:43.299Z</time>
      </trkpt>
      <trkpt lat="43.75163" lon="3.54446">
        <ele>387</ele>
        <time>2019-03-26T11:54:47.319Z</time>
      </trkpt>
      <trkpt lat="43.75159" lon="3.54441">
        <ele>387</ele>
        <time>2019-03-26T11:54:52.290Z</time>
      </trkpt>
      <trkpt lat="43.75154" lon="3.54439">
        <ele>387</ele>
        <time>2019-03-26T11:54:57.310Z</time>
      </trkpt>
      <trkpt lat="43.75149" lon="3.54437">
        <ele>382</ele>
        <time>2019-03-26T11:55:02.293Z</time>
      </trkpt>
      <trkpt lat="43.75145" lon="3.54433">
        <ele>382</ele>
        <time>2019-03-26T11:55:06.317Z</time>
      </trkpt>
      <trkpt lat="43.7514" lon="3.54429">
        <ele>392</ele>
        <time>2019-03-26T11:55:11.300Z</time>
      </trkpt>
      <trkpt lat="43.75136" lon="3.54423">
        <ele>392</ele>
        <time>2019-03-26T11:55:16.281Z</time>
      </trkpt>
      <trkpt lat="43.75131" lon="3.54417">
        <ele>392</ele>
        <time>2019-03-26T11:55:21.302Z</time>
      </trkpt>
      <trkpt lat="43.75126" lon="3.54412">
        <ele>392</ele>
        <time>2019-03-26T11:55:26.284Z</time>
      </trkpt>
      <trkpt lat="43.75121" lon="3.54412">
        <ele>391</ele>
        <time>2019-03-26T11:55:30.289Z</time>
      </trkpt>
      <trkpt lat="43.75115" lon="3.54412">
        <ele>391</ele>
        <time>2019-03-26T11:55:35.314Z</time>
      </trkpt>
      <trkpt lat="43.75109" lon="3.54414">
        <ele>391</ele>
        <time>2019-03-26T11:55:40.284Z</time>
      </trkpt>
      <trkpt lat="43.75105" lon="3.54413">
        <ele>391</ele>
        <time>2019-03-26T11:55:44.293Z</time>
      </trkpt>
      <trkpt lat="43.75101" lon="3.54413">
        <ele>391</ele>
        <time>2019-03-26T11:55:49.290Z</time>
      </trkpt>
      <trkpt lat="43.75098" lon="3.54412">
        <ele>391</ele>
        <time>2019-03-26T11:55:54.285Z</time>
      </trkpt>
      <trkpt lat="43.75094" lon="3.54413">
        <ele>391</ele>
        <time>2019-03-26T11:55:59.290Z</time>
      </trkpt>
      <trkpt lat="43.7509" lon="3.54415">
        <ele>391</ele>
        <time>2019-03-26T11:56:04.285Z</time>
      </trkpt>
      <trkpt lat="43.75086" lon="3.54417">
        <ele>391</ele>
        <time>2019-03-26T11:56:09.287Z</time>
      </trkpt>
      <trkpt lat="43.75084" lon="3.54421">
        <ele>391</ele>
        <time>2019-03-26T11:56:18.290Z</time>
      </trkpt>
      <trkpt lat="43.75077" lon="3.54427">
        <ele>391</ele>
        <time>2019-03-26T11:56:23.269Z</time>
      </trkpt>
      <trkpt lat="43.75074" lon="3.54431">
        <ele>379</ele>
        <time>2019-03-26T11:56:27.300Z</time>
      </trkpt>
      <trkpt lat="43.75071" lon="3.54436">
        <ele>379</ele>
        <time>2019-03-26T11:56:32.290Z</time>
      </trkpt>
      <trkpt lat="43.75064" lon="3.54442">
        <ele>382</ele>
        <time>2019-03-26T11:56:37.318Z</time>
      </trkpt>
      <trkpt lat="43.7506" lon="3.54445">
        <ele>382</ele>
        <time>2019-03-26T11:56:42.288Z</time>
      </trkpt>
      <trkpt lat="43.75058" lon="3.54449">
        <ele>382</ele>
        <time>2019-03-26T11:56:47.299Z</time>
      </trkpt>
      <trkpt lat="43.75054" lon="3.54454">
        <ele>382</ele>
        <time>2019-03-26T11:56:52.288Z</time>
      </trkpt>
      <trkpt lat="43.75053" lon="3.54456">
        <ele>382</ele>
        <time>2019-03-26T11:56:56.314Z</time>
      </trkpt>
      <trkpt lat="43.75047" lon="3.54466">
        <ele>373</ele>
        <time>2019-03-26T11:57:01.293Z</time>
      </trkpt>
      <trkpt lat="43.75042" lon="3.54476">
        <ele>373</ele>
        <time>2019-03-26T11:57:05.319Z</time>
      </trkpt>
      <trkpt lat="43.75038" lon="3.54489">
        <ele>377</ele>
        <time>2019-03-26T11:57:10.282Z</time>
      </trkpt>
      <trkpt lat="43.75035" lon="3.54499">
        <ele>377</ele>
        <time>2019-03-26T11:57:14.309Z</time>
      </trkpt>
      <trkpt lat="43.75032" lon="3.54509">
        <ele>377</ele>
        <time>2019-03-26T11:57:19.294Z</time>
      </trkpt>
      <trkpt lat="43.7503" lon="3.54516">
        <ele>373</ele>
        <time>2019-03-26T11:57:24.293Z</time>
      </trkpt>
      <trkpt lat="43.75029" lon="3.5452">
        <ele>373</ele>
        <time>2019-03-26T11:57:28.293Z</time>
      </trkpt>
      <trkpt lat="43.75027" lon="3.54527">
        <ele>373</ele>
        <time>2019-03-26T11:57:33.289Z</time>
      </trkpt>
      <trkpt lat="43.75026" lon="3.54532">
        <ele>373</ele>
        <time>2019-03-26T11:57:37.296Z</time>
      </trkpt>
      <trkpt lat="43.75023" lon="3.54538">
        <ele>373</ele>
        <time>2019-03-26T11:57:42.319Z</time>
      </trkpt>
      <trkpt lat="43.75022" lon="3.54543">
        <ele>366</ele>
        <time>2019-03-26T11:57:47.295Z</time>
      </trkpt>
      <trkpt lat="43.7502" lon="3.54548">
        <ele>366</ele>
        <time>2019-03-26T11:57:52.299Z</time>
      </trkpt>
      <trkpt lat="43.75018" lon="3.54556">
        <ele>366</ele>
        <time>2019-03-26T11:57:57.267Z</time>
      </trkpt>
      <trkpt lat="43.75016" lon="3.54561">
        <ele>366</ele>
        <time>2019-03-26T11:58:01.282Z</time>
      </trkpt>
      <trkpt lat="43.75013" lon="3.54566">
        <ele>380</ele>
        <time>2019-03-26T11:58:05.289Z</time>
      </trkpt>
      <trkpt lat="43.7501" lon="3.54572">
        <ele>374</ele>
        <time>2019-03-26T11:58:10.283Z</time>
      </trkpt>
      <trkpt lat="43.75007" lon="3.5458">
        <ele>374</ele>
        <time>2019-03-26T11:58:15.289Z</time>
      </trkpt>
      <trkpt lat="43.75002" lon="3.54586">
        <ele>374</ele>
        <time>2019-03-26T11:58:20.295Z</time>
      </trkpt>
      <trkpt lat="43.74998" lon="3.54593">
        <ele>374</ele>
        <time>2019-03-26T11:58:25.285Z</time>
      </trkpt>
      <trkpt lat="43.74994" lon="3.54601">
        <ele>371</ele>
        <time>2019-03-26T11:58:30.286Z</time>
      </trkpt>
      <trkpt lat="43.74991" lon="3.54607">
        <ele>371</ele>
        <time>2019-03-26T11:58:35.289Z</time>
      </trkpt>
      <trkpt lat="43.74989" lon="3.54614">
        <ele>371</ele>
        <time>2019-03-26T11:58:39.327Z</time>
      </trkpt>
      <trkpt lat="43.74985" lon="3.54622">
        <ele>376</ele>
        <time>2019-03-26T11:58:44.288Z</time>
      </trkpt>
      <trkpt lat="43.74981" lon="3.54627">
        <ele>370</ele>
        <time>2019-03-26T11:58:48.291Z</time>
      </trkpt>
      <trkpt lat="43.74979" lon="3.54634">
        <ele>370</ele>
        <time>2019-03-26T11:58:53.289Z</time>
      </trkpt>
      <trkpt lat="43.74976" lon="3.54642">
        <ele>370</ele>
        <time>2019-03-26T11:58:58.296Z</time>
      </trkpt>
      <trkpt lat="43.74972" lon="3.54647">
        <ele>370</ele>
        <time>2019-03-26T11:59:03.289Z</time>
      </trkpt>
      <trkpt lat="43.74968" lon="3.54653">
        <ele>362</ele>
        <time>2019-03-26T11:59:08.289Z</time>
      </trkpt>
      <trkpt lat="43.74964" lon="3.54656">
        <ele>362</ele>
        <time>2019-03-26T11:59:12.294Z</time>
      </trkpt>
      <trkpt lat="43.74958" lon="3.54658">
        <ele>359</ele>
        <time>2019-03-26T11:59:17.289Z</time>
      </trkpt>
      <trkpt lat="43.74953" lon="3.54656">
        <ele>359</ele>
        <time>2019-03-26T11:59:22.284Z</time>
      </trkpt>
      <trkpt lat="43.7495" lon="3.5465">
        <ele>364</ele>
        <time>2019-03-26T11:59:27.312Z</time>
      </trkpt>
      <trkpt lat="43.74948" lon="3.54646">
        <ele>364</ele>
        <time>2019-03-26T11:59:32.283Z</time>
      </trkpt>
      <trkpt lat="43.74947" lon="3.54642">
        <ele>364</ele>
        <time>2019-03-26T11:59:36.291Z</time>
      </trkpt>
      <trkpt lat="43.74944" lon="3.54637">
        <ele>364</ele>
        <time>2019-03-26T11:59:41.307Z</time>
      </trkpt>
      <trkpt lat="43.74941" lon="3.54632">
        <ele>364</ele>
        <time>2019-03-26T11:59:46.293Z</time>
      </trkpt>
      <trkpt lat="43.74936" lon="3.54627">
        <ele>364</ele>
        <time>2019-03-26T11:59:51.297Z</time>
      </trkpt>
      <trkpt lat="43.74933" lon="3.54621">
        <ele>370</ele>
        <time>2019-03-26T11:59:56.301Z</time>
      </trkpt>
      <trkpt lat="43.74928" lon="3.54617">
        <ele>360</ele>
        <time>2019-03-26T12:00:01.314Z</time>
      </trkpt>
      <trkpt lat="43.74926" lon="3.54611">
        <ele>360</ele>
        <time>2019-03-26T12:00:06.293Z</time>
      </trkpt>
      <trkpt lat="43.74922" lon="3.54606">
        <ele>360</ele>
        <time>2019-03-26T12:00:11.282Z</time>
      </trkpt>
      <trkpt lat="43.7492" lon="3.54601">
        <ele>360</ele>
        <time>2019-03-26T12:00:15.292Z</time>
      </trkpt>
      <trkpt lat="43.74918" lon="3.54599">
        <ele>360</ele>
        <time>2019-03-26T12:00:19.329Z</time>
      </trkpt>
      <trkpt lat="43.74914" lon="3.54594">
        <ele>363</ele>
        <time>2019-03-26T12:00:24.291Z</time>
      </trkpt>
      <trkpt lat="43.7491" lon="3.5459">
        <ele>363</ele>
        <time>2019-03-26T12:00:29.286Z</time>
      </trkpt>
      <trkpt lat="43.74905" lon="3.54584">
        <ele>363</ele>
        <time>2019-03-26T12:00:34.317Z</time>
      </trkpt>
      <trkpt lat="43.74901" lon="3.54578">
        <ele>356</ele>
        <time>2019-03-26T12:00:39.289Z</time>
      </trkpt>
      <trkpt lat="43.74899" lon="3.54571">
        <ele>356</ele>
        <time>2019-03-26T12:00:43.317Z</time>
      </trkpt>
      <trkpt lat="43.74897" lon="3.54564">
        <ele>360</ele>
        <time>2019-03-26T12:00:48.296Z</time>
      </trkpt>
      <trkpt lat="43.74894" lon="3.54558">
        <ele>360</ele>
        <time>2019-03-26T12:00:53.296Z</time>
      </trkpt>
      <trkpt lat="43.74891" lon="3.54552">
        <ele>360</ele>
        <time>2019-03-26T12:00:58.288Z</time>
      </trkpt>
      <trkpt lat="43.74889" lon="3.54546">
        <ele>360</ele>
        <time>2019-03-26T12:01:03.295Z</time>
      </trkpt>
      <trkpt lat="43.74885" lon="3.54542">
        <ele>360</ele>
        <time>2019-03-26T12:01:07.291Z</time>
      </trkpt>
      <trkpt lat="43.74879" lon="3.54539">
        <ele>363</ele>
        <time>2019-03-26T12:01:12.289Z</time>
      </trkpt>
      <trkpt lat="43.74872" lon="3.54537">
        <ele>361</ele>
        <time>2019-03-26T12:01:16.315Z</time>
      </trkpt>
      <trkpt lat="43.74863" lon="3.54537">
        <ele>361</ele>
        <time>2019-03-26T12:01:21.303Z</time>
      </trkpt>
      <trkpt lat="43.74856" lon="3.54536">
        <ele>361</ele>
        <time>2019-03-26T12:01:26.294Z</time>
      </trkpt>
      <trkpt lat="43.7485" lon="3.54536">
        <ele>361</ele>
        <time>2019-03-26T12:01:31.283Z</time>
      </trkpt>
      <trkpt lat="43.74844" lon="3.54537">
        <ele>359</ele>
        <time>2019-03-26T12:01:35.287Z</time>
      </trkpt>
      <trkpt lat="43.74839" lon="3.54538">
        <ele>359</ele>
        <time>2019-03-26T12:01:39.318Z</time>
      </trkpt>
      <trkpt lat="43.74832" lon="3.5454">
        <ele>359</ele>
        <time>2019-03-26T12:01:44.293Z</time>
      </trkpt>
      <trkpt lat="43.74827" lon="3.54542">
        <ele>353</ele>
        <time>2019-03-26T12:01:48.318Z</time>
      </trkpt>
      <trkpt lat="43.74822" lon="3.54546">
        <ele>353</ele>
        <time>2019-03-26T12:01:53.289Z</time>
      </trkpt>
      <trkpt lat="43.74817" lon="3.54546">
        <ele>351</ele>
        <time>2019-03-26T12:01:57.291Z</time>
      </trkpt>
      <trkpt lat="43.74812" lon="3.54546">
        <ele>351</ele>
        <time>2019-03-26T12:02:02.268Z</time>
      </trkpt>
      <trkpt lat="43.74808" lon="3.54547">
        <ele>351</ele>
        <time>2019-03-26T12:02:06.289Z</time>
      </trkpt>
      <trkpt lat="43.74801" lon="3.54549">
        <ele>351</ele>
        <time>2019-03-26T12:02:11.287Z</time>
      </trkpt>
      <trkpt lat="43.74796" lon="3.54552">
        <ele>351</ele>
        <time>2019-03-26T12:02:15.319Z</time>
      </trkpt>
      <trkpt lat="43.7479" lon="3.54554">
        <ele>347</ele>
        <time>2019-03-26T12:02:20.292Z</time>
      </trkpt>
      <trkpt lat="43.74784" lon="3.54557">
        <ele>347</ele>
        <time>2019-03-26T12:02:25.300Z</time>
      </trkpt>
      <trkpt lat="43.74779" lon="3.54559">
        <ele>347</ele>
        <time>2019-03-26T12:02:30.309Z</time>
      </trkpt>
      <trkpt lat="43.74774" lon="3.54561">
        <ele>347</ele>
        <time>2019-03-26T12:02:35.286Z</time>
      </trkpt>
      <trkpt lat="43.74769" lon="3.54561">
        <ele>347</ele>
        <time>2019-03-26T12:02:40.284Z</time>
      </trkpt>
      <trkpt lat="43.74764" lon="3.54562">
        <ele>347</ele>
        <time>2019-03-26T12:02:45.289Z</time>
      </trkpt>
      <trkpt lat="43.74759" lon="3.54563">
        <ele>341</ele>
        <time>2019-03-26T12:02:50.288Z</time>
      </trkpt>
      <trkpt lat="43.74754" lon="3.54564">
        <ele>341</ele>
        <time>2019-03-26T12:02:55.287Z</time>
      </trkpt>
      <trkpt lat="43.7475" lon="3.54567">
        <ele>341</ele>
        <time>2019-03-26T12:02:59.305Z</time>
      </trkpt>
      <trkpt lat="43.74744" lon="3.54571">
        <ele>339</ele>
        <time>2019-03-26T12:03:04.320Z</time>
      </trkpt>
      <trkpt lat="43.74737" lon="3.54575">
        <ele>339</ele>
        <time>2019-03-26T12:03:09.290Z</time>
      </trkpt>
      <trkpt lat="43.74732" lon="3.54576">
        <ele>334</ele>
        <time>2019-03-26T12:03:14.289Z</time>
      </trkpt>
      <trkpt lat="43.7473" lon="3.5457">
        <ele>334</ele>
        <time>2019-03-26T12:03:19.290Z</time>
      </trkpt>
      <trkpt lat="43.74728" lon="3.54566">
        <ele>334</ele>
        <time>2019-03-26T12:03:23.292Z</time>
      </trkpt>
      <trkpt lat="43.74723" lon="3.54563">
        <ele>334</ele>
        <time>2019-03-26T12:03:28.302Z</time>
      </trkpt>
      <trkpt lat="43.74718" lon="3.5456">
        <ele>334</ele>
        <time>2019-03-26T12:03:33.286Z</time>
      </trkpt>
      <trkpt lat="43.74712" lon="3.54555">
        <ele>334</ele>
        <time>2019-03-26T12:03:38.288Z</time>
      </trkpt>
      <trkpt lat="43.7471" lon="3.54547">
        <ele>334</ele>
        <time>2019-03-26T12:03:43.289Z</time>
      </trkpt>
      <trkpt lat="43.7471" lon="3.54539">
        <ele>332</ele>
        <time>2019-03-26T12:03:48.293Z</time>
      </trkpt>
      <trkpt lat="43.74711" lon="3.54532">
        <ele>332</ele>
        <time>2019-03-26T12:03:53.282Z</time>
      </trkpt>
      <trkpt lat="43.74712" lon="3.54529">
        <ele>332</ele>
        <time>2019-03-26T12:03:57.290Z</time>
      </trkpt>
      <trkpt lat="43.74715" lon="3.54523">
        <ele>332</ele>
        <time>2019-03-26T12:04:02.314Z</time>
      </trkpt>
      <trkpt lat="43.74716" lon="3.54517">
        <ele>332</ele>
        <time>2019-03-26T12:04:07.281Z</time>
      </trkpt>
      <trkpt lat="43.74718" lon="3.54511">
        <ele>327</ele>
        <time>2019-03-26T12:04:11.298Z</time>
      </trkpt>
      <trkpt lat="43.74721" lon="3.54505">
        <ele>327</ele>
        <time>2019-03-26T12:04:16.306Z</time>
      </trkpt>
      <trkpt lat="43.74724" lon="3.54501">
        <ele>327</ele>
        <time>2019-03-26T12:04:21.293Z</time>
      </trkpt>
      <trkpt lat="43.74726" lon="3.54494">
        <ele>327</ele>
        <time>2019-03-26T12:04:26.284Z</time>
      </trkpt>
      <trkpt lat="43.74728" lon="3.54489">
        <ele>327</ele>
        <time>2019-03-26T12:04:30.304Z</time>
      </trkpt>
      <trkpt lat="43.74731" lon="3.54483">
        <ele>324</ele>
        <time>2019-03-26T12:04:35.283Z</time>
      </trkpt>
      <trkpt lat="43.74733" lon="3.54479">
        <ele>324</ele>
        <time>2019-03-26T12:04:39.293Z</time>
      </trkpt>
      <trkpt lat="43.74737" lon="3.54472">
        <ele>334</ele>
        <time>2019-03-26T12:04:44.310Z</time>
      </trkpt>
      <trkpt lat="43.7474" lon="3.54465">
        <ele>334</ele>
        <time>2019-03-26T12:04:49.316Z</time>
      </trkpt>
      <trkpt lat="43.74745" lon="3.54458">
        <ele>333</ele>
        <time>2019-03-26T12:04:54.286Z</time>
      </trkpt>
      <trkpt lat="43.74749" lon="3.5445">
        <ele>333</ele>
        <time>2019-03-26T12:04:59.293Z</time>
      </trkpt>
      <trkpt lat="43.74752" lon="3.54442">
        <ele>333</ele>
        <time>2019-03-26T12:05:04.287Z</time>
      </trkpt>
      <trkpt lat="43.74755" lon="3.54433">
        <ele>333</ele>
        <time>2019-03-26T12:05:09.287Z</time>
      </trkpt>
      <trkpt lat="43.74756" lon="3.54424">
        <ele>329</ele>
        <time>2019-03-26T12:05:14.286Z</time>
      </trkpt>
      <trkpt lat="43.74756" lon="3.54416">
        <ele>329</ele>
        <time>2019-03-26T12:05:19.294Z</time>
      </trkpt>
      <trkpt lat="43.74757" lon="3.54409">
        <ele>329</ele>
        <time>2019-03-26T12:05:24.292Z</time>
      </trkpt>
      <trkpt lat="43.74758" lon="3.54401">
        <ele>327</ele>
        <time>2019-03-26T12:05:29.288Z</time>
      </trkpt>
      <trkpt lat="43.7476" lon="3.54393">
        <ele>327</ele>
        <time>2019-03-26T12:05:34.288Z</time>
      </trkpt>
      <trkpt lat="43.74759" lon="3.54383">
        <ele>327</ele>
        <time>2019-03-26T12:05:39.290Z</time>
      </trkpt>
      <trkpt lat="43.74759" lon="3.54374">
        <ele>325</ele>
        <time>2019-03-26T12:05:44.316Z</time>
      </trkpt>
      <trkpt lat="43.7476" lon="3.54366">
        <ele>325</ele>
        <time>2019-03-26T12:05:49.285Z</time>
      </trkpt>
      <trkpt lat="43.74761" lon="3.54358">
        <ele>325</ele>
        <time>2019-03-26T12:05:54.285Z</time>
      </trkpt>
      <trkpt lat="43.74761" lon="3.54352">
        <ele>325</ele>
        <time>2019-03-26T12:05:59.281Z</time>
      </trkpt>
      <trkpt lat="43.74761" lon="3.54347">
        <ele>325</ele>
        <time>2019-03-26T12:06:03.315Z</time>
      </trkpt>
      <trkpt lat="43.74761" lon="3.54341">
        <ele>323</ele>
        <time>2019-03-26T12:06:08.289Z</time>
      </trkpt>
      <trkpt lat="43.7476" lon="3.54334">
        <ele>323</ele>
        <time>2019-03-26T12:06:13.281Z</time>
      </trkpt>
      <trkpt lat="43.74761" lon="3.54328">
        <ele>323</ele>
        <time>2019-03-26T12:06:18.281Z</time>
      </trkpt>
      <trkpt lat="43.74761" lon="3.5432">
        <ele>323</ele>
        <time>2019-03-26T12:06:23.298Z</time>
      </trkpt>
      <trkpt lat="43.74761" lon="3.54312">
        <ele>321</ele>
        <time>2019-03-26T12:06:28.283Z</time>
      </trkpt>
      <trkpt lat="43.74761" lon="3.54305">
        <ele>321</ele>
        <time>2019-03-26T12:06:33.275Z</time>
      </trkpt>
      <trkpt lat="43.74761" lon="3.54303">
        <ele>321</ele>
        <time>2019-03-26T12:06:38.267Z</time>
      </trkpt>
      <trkpt lat="43.74763" lon="3.54299">
        <ele>321</ele>
        <time>2019-03-26T12:06:42.283Z</time>
      </trkpt>
      <trkpt lat="43.74766" lon="3.54289">
        <ele>330</ele>
        <time>2019-03-26T12:06:47.312Z</time>
      </trkpt>
      <trkpt lat="43.74767" lon="3.54281">
        <ele>330</ele>
        <time>2019-03-26T12:06:52.316Z</time>
      </trkpt>
      <trkpt lat="43.74767" lon="3.54274">
        <ele>330</ele>
        <time>2019-03-26T12:06:57.280Z</time>
      </trkpt>
      <trkpt lat="43.74769" lon="3.54266">
        <ele>330</ele>
        <time>2019-03-26T12:07:02.319Z</time>
      </trkpt>
      <trkpt lat="43.74772" lon="3.5426">
        <ele>329</ele>
        <time>2019-03-26T12:07:07.314Z</time>
      </trkpt>
      <trkpt lat="43.74773" lon="3.54252">
        <ele>329</ele>
        <time>2019-03-26T12:07:12.312Z</time>
      </trkpt>
      <trkpt lat="43.74773" lon="3.54245">
        <ele>329</ele>
        <time>2019-03-26T12:07:17.313Z</time>
      </trkpt>
      <trkpt lat="43.74771" lon="3.5424">
        <ele>329</ele>
        <time>2019-03-26T12:07:22.286Z</time>
      </trkpt>
      <trkpt lat="43.74768" lon="3.54236">
        <ele>328</ele>
        <time>2019-03-26T12:07:27.281Z</time>
      </trkpt>
      <trkpt lat="43.74766" lon="3.54231">
        <ele>328</ele>
        <time>2019-03-26T12:07:32.316Z</time>
      </trkpt>
      <trkpt lat="43.74764" lon="3.54223">
        <ele>328</ele>
        <time>2019-03-26T12:07:37.279Z</time>
      </trkpt>
      <trkpt lat="43.74762" lon="3.54216">
        <ele>319</ele>
        <time>2019-03-26T12:07:42.284Z</time>
      </trkpt>
      <trkpt lat="43.74761" lon="3.54208">
        <ele>320</ele>
        <time>2019-03-26T12:07:47.282Z</time>
      </trkpt>
      <trkpt lat="43.74761" lon="3.54202">
        <ele>320</ele>
        <time>2019-03-26T12:07:52.282Z</time>
      </trkpt>
      <trkpt lat="43.74762" lon="3.54194">
        <ele>320</ele>
        <time>2019-03-26T12:07:57.285Z</time>
      </trkpt>
      <trkpt lat="43.74763" lon="3.54186">
        <ele>320</ele>
        <time>2019-03-26T12:08:02.292Z</time>
      </trkpt>
      <trkpt lat="43.74765" lon="3.54178">
        <ele>325</ele>
        <time>2019-03-26T12:08:07.291Z</time>
      </trkpt>
      <trkpt lat="43.74767" lon="3.54169">
        <ele>325</ele>
        <time>2019-03-26T12:08:12.283Z</time>
      </trkpt>
      <trkpt lat="43.74771" lon="3.54163">
        <ele>325</ele>
        <time>2019-03-26T12:08:17.280Z</time>
      </trkpt>
      <trkpt lat="43.74773" lon="3.54154">
        <ele>325</ele>
        <time>2019-03-26T12:08:22.316Z</time>
      </trkpt>
      <trkpt lat="43.74778" lon="3.54147">
        <ele>324</ele>
        <time>2019-03-26T12:08:27.282Z</time>
      </trkpt>
      <trkpt lat="43.74778" lon="3.54139">
        <ele>324</ele>
        <time>2019-03-26T12:08:32.286Z</time>
      </trkpt>
      <trkpt lat="43.74776" lon="3.54132">
        <ele>324</ele>
        <time>2019-03-26T12:08:37.282Z</time>
      </trkpt>
      <trkpt lat="43.74771" lon="3.54131">
        <ele>324</ele>
        <time>2019-03-26T12:08:41.292Z</time>
      </trkpt>
      <trkpt lat="43.74766" lon="3.54129">
        <ele>324</ele>
        <time>2019-03-26T12:08:46.291Z</time>
      </trkpt>
      <trkpt lat="43.74759" lon="3.54127">
        <ele>321</ele>
        <time>2019-03-26T12:08:50.308Z</time>
      </trkpt>
      <trkpt lat="43.74753" lon="3.54126">
        <ele>321</ele>
        <time>2019-03-26T12:08:55.296Z</time>
      </trkpt>
      <trkpt lat="43.74748" lon="3.54122">
        <ele>325</ele>
        <time>2019-03-26T12:09:00.276Z</time>
      </trkpt>
      <trkpt lat="43.74744" lon="3.54117">
        <ele>325</ele>
        <time>2019-03-26T12:09:05.291Z</time>
      </trkpt>
      <trkpt lat="43.7474" lon="3.54116">
        <ele>325</ele>
        <time>2019-03-26T12:09:10.291Z</time>
      </trkpt>
      <trkpt lat="43.74735" lon="3.54116">
        <ele>326</ele>
        <time>2019-03-26T12:09:15.322Z</time>
      </trkpt>
      <trkpt lat="43.74728" lon="3.54114">
        <ele>326</ele>
        <time>2019-03-26T12:09:20.286Z</time>
      </trkpt>
      <trkpt lat="43.74724" lon="3.54113">
        <ele>326</ele>
        <time>2019-03-26T12:09:24.298Z</time>
      </trkpt>
      <trkpt lat="43.7472" lon="3.54113">
        <ele>326</ele>
        <time>2019-03-26T12:09:29.287Z</time>
      </trkpt>
      <trkpt lat="43.74716" lon="3.54113">
        <ele>326</ele>
        <time>2019-03-26T12:09:33.307Z</time>
      </trkpt>
      <trkpt lat="43.74711" lon="3.54113">
        <ele>326</ele>
        <time>2019-03-26T12:09:38.296Z</time>
      </trkpt>
      <trkpt lat="43.74704" lon="3.54111">
        <ele>327</ele>
        <time>2019-03-26T12:09:43.272Z</time>
      </trkpt>
      <trkpt lat="43.74699" lon="3.5411">
        <ele>327</ele>
        <time>2019-03-26T12:09:49.315Z</time>
      </trkpt>
      <trkpt lat="43.74691" lon="3.5411">
        <ele>327</ele>
        <time>2019-03-26T12:09:54.284Z</time>
      </trkpt>
      <trkpt lat="43.74685" lon="3.54112">
        <ele>327</ele>
        <time>2019-03-26T12:09:58.296Z</time>
      </trkpt>
      <trkpt lat="43.74681" lon="3.54111">
        <ele>327</ele>
        <time>2019-03-26T12:10:03.293Z</time>
      </trkpt>
      <trkpt lat="43.74675" lon="3.54111">
        <ele>326</ele>
        <time>2019-03-26T12:10:08.281Z</time>
      </trkpt>
      <trkpt lat="43.74669" lon="3.54112">
        <ele>326</ele>
        <time>2019-03-26T12:10:13.290Z</time>
      </trkpt>
      <trkpt lat="43.74664" lon="3.54111">
        <ele>326</ele>
        <time>2019-03-26T12:10:18.296Z</time>
      </trkpt>
      <trkpt lat="43.74658" lon="3.54108">
        <ele>326</ele>
        <time>2019-03-26T12:10:23.287Z</time>
      </trkpt>
      <trkpt lat="43.74654" lon="3.54106">
        <ele>326</ele>
        <time>2019-03-26T12:10:27.328Z</time>
      </trkpt>
      <trkpt lat="43.74649" lon="3.54105">
        <ele>326</ele>
        <time>2019-03-26T12:10:32.297Z</time>
      </trkpt>
      <trkpt lat="43.74643" lon="3.54104">
        <ele>326</ele>
        <time>2019-03-26T12:10:37.296Z</time>
      </trkpt>
      <trkpt lat="43.74636" lon="3.54107">
        <ele>326</ele>
        <time>2019-03-26T12:10:42.318Z</time>
      </trkpt>
      <trkpt lat="43.74632" lon="3.54109">
        <ele>326</ele>
        <time>2019-03-26T12:10:46.320Z</time>
      </trkpt>
      <trkpt lat="43.74625" lon="3.54112">
        <ele>326</ele>
        <time>2019-03-26T12:10:51.309Z</time>
      </trkpt>
      <trkpt lat="43.7462" lon="3.54115">
        <ele>328</ele>
        <time>2019-03-26T12:10:56.283Z</time>
      </trkpt>
      <trkpt lat="43.74614" lon="3.54119">
        <ele>328</ele>
        <time>2019-03-26T12:11:01.283Z</time>
      </trkpt>
      <trkpt lat="43.74608" lon="3.54123">
        <ele>328</ele>
        <time>2019-03-26T12:11:06.289Z</time>
      </trkpt>
      <trkpt lat="43.74602" lon="3.54125">
        <ele>328</ele>
        <time>2019-03-26T12:11:11.285Z</time>
      </trkpt>
      <trkpt lat="43.74597" lon="3.54129">
        <ele>323</ele>
        <time>2019-03-26T12:11:16.297Z</time>
      </trkpt>
      <trkpt lat="43.74592" lon="3.5413">
        <ele>323</ele>
        <time>2019-03-26T12:11:21.298Z</time>
      </trkpt>
      <trkpt lat="43.74586" lon="3.54131">
        <ele>323</ele>
        <time>2019-03-26T12:11:26.286Z</time>
      </trkpt>
      <trkpt lat="43.74583" lon="3.54132">
        <ele>323</ele>
        <time>2019-03-26T12:11:30.296Z</time>
      </trkpt>
      <trkpt lat="43.74578" lon="3.54136">
        <ele>323</ele>
        <time>2019-03-26T12:11:35.306Z</time>
      </trkpt>
      <trkpt lat="43.74572" lon="3.54139">
        <ele>323</ele>
        <time>2019-03-26T12:11:40.287Z</time>
      </trkpt>
      <trkpt lat="43.74567" lon="3.54141">
        <ele>322</ele>
        <time>2019-03-26T12:11:45.288Z</time>
      </trkpt>
      <trkpt lat="43.74563" lon="3.54138">
        <ele>322</ele>
        <time>2019-03-26T12:11:49.322Z</time>
      </trkpt>
      <trkpt lat="43.74558" lon="3.54134">
        <ele>322</ele>
        <time>2019-03-26T12:11:54.287Z</time>
      </trkpt>
      <trkpt lat="43.74553" lon="3.54136">
        <ele>322</ele>
        <time>2019-03-26T12:11:58.295Z</time>
      </trkpt>
      <trkpt lat="43.74547" lon="3.54138">
        <ele>322</ele>
        <time>2019-03-26T12:12:03.289Z</time>
      </trkpt>
      <trkpt lat="43.74544" lon="3.54137">
        <ele>322</ele>
        <time>2019-03-26T12:12:07.291Z</time>
      </trkpt>
      <trkpt lat="43.74539" lon="3.54138">
        <ele>322</ele>
        <time>2019-03-26T12:12:11.322Z</time>
      </trkpt>
      <trkpt lat="43.74533" lon="3.5414">
        <ele>322</ele>
        <time>2019-03-26T12:12:16.288Z</time>
      </trkpt>
      <trkpt lat="43.74527" lon="3.54142">
        <ele>322</ele>
        <time>2019-03-26T12:12:20.295Z</time>
      </trkpt>
      <trkpt lat="43.7452" lon="3.54144">
        <ele>322</ele>
        <time>2019-03-26T12:12:25.296Z</time>
      </trkpt>
      <trkpt lat="43.74514" lon="3.54145">
        <ele>323</ele>
        <time>2019-03-26T12:12:30.290Z</time>
      </trkpt>
      <trkpt lat="43.74508" lon="3.54146">
        <ele>323</ele>
        <time>2019-03-26T12:12:35.290Z</time>
      </trkpt>
      <trkpt lat="43.74503" lon="3.54145">
        <ele>323</ele>
        <time>2019-03-26T12:12:39.300Z</time>
      </trkpt>
      <trkpt lat="43.74498" lon="3.54145">
        <ele>323</ele>
        <time>2019-03-26T12:12:44.288Z</time>
      </trkpt>
      <trkpt lat="43.74492" lon="3.54146">
        <ele>323</ele>
        <time>2019-03-26T12:12:49.296Z</time>
      </trkpt>
      <trkpt lat="43.74485" lon="3.54148">
        <ele>327</ele>
        <time>2019-03-26T12:12:54.292Z</time>
      </trkpt>
      <trkpt lat="43.74481" lon="3.54148">
        <ele>327</ele>
        <time>2019-03-26T12:12:59.287Z</time>
      </trkpt>
      <trkpt lat="43.74478" lon="3.5415">
        <ele>327</ele>
        <time>2019-03-26T12:13:03.306Z</time>
      </trkpt>
      <trkpt lat="43.74472" lon="3.54151">
        <ele>327</ele>
        <time>2019-03-26T12:13:08.297Z</time>
      </trkpt>
      <trkpt lat="43.74465" lon="3.54153">
        <ele>319</ele>
        <time>2019-03-26T12:13:13.293Z</time>
      </trkpt>
      <trkpt lat="43.74459" lon="3.54159">
        <ele>319</ele>
        <time>2019-03-26T12:13:18.294Z</time>
      </trkpt>
      <trkpt lat="43.74454" lon="3.54164">
        <ele>323</ele>
        <time>2019-03-26T12:13:23.295Z</time>
      </trkpt>
      <trkpt lat="43.74448" lon="3.54166">
        <ele>323</ele>
        <time>2019-03-26T12:13:28.288Z</time>
      </trkpt>
      <trkpt lat="43.74442" lon="3.54165">
        <ele>323</ele>
        <time>2019-03-26T12:13:33.285Z</time>
      </trkpt>
      <trkpt lat="43.74437" lon="3.54166">
        <ele>323</ele>
        <time>2019-03-26T12:13:38.290Z</time>
      </trkpt>
      <trkpt lat="43.74431" lon="3.54169">
        <ele>323</ele>
        <time>2019-03-26T12:13:42.320Z</time>
      </trkpt>
      <trkpt lat="43.74424" lon="3.54171">
        <ele>325</ele>
        <time>2019-03-26T12:13:47.287Z</time>
      </trkpt>
      <trkpt lat="43.74419" lon="3.54171">
        <ele>325</ele>
        <time>2019-03-26T12:13:51.289Z</time>
      </trkpt>
      <trkpt lat="43.74413" lon="3.54173">
        <ele>325</ele>
        <time>2019-03-26T12:13:56.316Z</time>
      </trkpt>
      <trkpt lat="43.74408" lon="3.54174">
        <ele>325</ele>
        <time>2019-03-26T12:14:01.290Z</time>
      </trkpt>
      <trkpt lat="43.74403" lon="3.54177">
        <ele>325</ele>
        <time>2019-03-26T12:14:06.267Z</time>
      </trkpt>
      <trkpt lat="43.74399" lon="3.54179">
        <ele>323</ele>
        <time>2019-03-26T12:14:10.292Z</time>
      </trkpt>
      <trkpt lat="43.74395" lon="3.54184">
        <ele>321</ele>
        <time>2019-03-26T12:14:15.288Z</time>
      </trkpt>
      <trkpt lat="43.74389" lon="3.54188">
        <ele>321</ele>
        <time>2019-03-26T12:14:20.322Z</time>
      </trkpt>
      <trkpt lat="43.74383" lon="3.54189">
        <ele>321</ele>
        <time>2019-03-26T12:14:25.291Z</time>
      </trkpt>
      <trkpt lat="43.74379" lon="3.54189">
        <ele>321</ele>
        <time>2019-03-26T12:14:29.313Z</time>
      </trkpt>
      <trkpt lat="43.74375" lon="3.54187">
        <ele>318</ele>
        <time>2019-03-26T12:14:34.280Z</time>
      </trkpt>
      <trkpt lat="43.74371" lon="3.54185">
        <ele>318</ele>
        <time>2019-03-26T12:14:38.296Z</time>
      </trkpt>
      <trkpt lat="43.74366" lon="3.54186">
        <ele>318</ele>
        <time>2019-03-26T12:14:43.279Z</time>
      </trkpt>
      <trkpt lat="43.74361" lon="3.54186">
        <ele>318</ele>
        <time>2019-03-26T12:14:47.291Z</time>
      </trkpt>
      <trkpt lat="43.74357" lon="3.54186">
        <ele>318</ele>
        <time>2019-03-26T12:14:52.290Z</time>
      </trkpt>
      <trkpt lat="43.74351" lon="3.54188">
        <ele>318</ele>
        <time>2019-03-26T12:14:57.307Z</time>
      </trkpt>
      <trkpt lat="43.74345" lon="3.5419">
        <ele>313</ele>
        <time>2019-03-26T12:15:02.297Z</time>
      </trkpt>
      <trkpt lat="43.74341" lon="3.54194">
        <ele>313</ele>
        <time>2019-03-26T12:15:06.296Z</time>
      </trkpt>
      <trkpt lat="43.74335" lon="3.54199">
        <ele>313</ele>
        <time>2019-03-26T12:15:11.301Z</time>
      </trkpt>
      <trkpt lat="43.74333" lon="3.54203">
        <ele>313</ele>
        <time>2019-03-26T12:15:15.321Z</time>
      </trkpt>
      <trkpt lat="43.7433" lon="3.5421">
        <ele>315</ele>
        <time>2019-03-26T12:15:20.285Z</time>
      </trkpt>
      <trkpt lat="43.74326" lon="3.54216">
        <ele>315</ele>
        <time>2019-03-26T12:15:25.282Z</time>
      </trkpt>
      <trkpt lat="43.7432" lon="3.5422">
        <ele>315</ele>
        <time>2019-03-26T12:15:30.283Z</time>
      </trkpt>
      <trkpt lat="43.74315" lon="3.54224">
        <ele>310</ele>
        <time>2019-03-26T12:15:34.297Z</time>
      </trkpt>
      <trkpt lat="43.74308" lon="3.54229">
        <ele>310</ele>
        <time>2019-03-26T12:15:39.287Z</time>
      </trkpt>
      <trkpt lat="43.74303" lon="3.54231">
        <ele>310</ele>
        <time>2019-03-26T12:15:43.319Z</time>
      </trkpt>
      <trkpt lat="43.74299" lon="3.54235">
        <ele>310</ele>
        <time>2019-03-26T12:15:48.289Z</time>
      </trkpt>
      <trkpt lat="43.74295" lon="3.54239">
        <ele>313</ele>
        <time>2019-03-26T12:15:52.306Z</time>
      </trkpt>
      <trkpt lat="43.74291" lon="3.54244">
        <ele>304</ele>
        <time>2019-03-26T12:15:57.296Z</time>
      </trkpt>
      <trkpt lat="43.74288" lon="3.54247">
        <ele>304</ele>
        <time>2019-03-26T12:16:01.327Z</time>
      </trkpt>
      <trkpt lat="43.74283" lon="3.54253">
        <ele>304</ele>
        <time>2019-03-26T12:16:06.290Z</time>
      </trkpt>
      <trkpt lat="43.7428" lon="3.54257">
        <ele>304</ele>
        <time>2019-03-26T12:16:10.297Z</time>
      </trkpt>
      <trkpt lat="43.74277" lon="3.54265">
        <ele>306</ele>
        <time>2019-03-26T12:16:15.287Z</time>
      </trkpt>
      <trkpt lat="43.74273" lon="3.54272">
        <ele>306</ele>
        <time>2019-03-26T12:16:20.313Z</time>
      </trkpt>
      <trkpt lat="43.7427" lon="3.54278">
        <ele>306</ele>
        <time>2019-03-26T12:16:25.294Z</time>
      </trkpt>
      <trkpt lat="43.74266" lon="3.54285">
        <ele>306</ele>
        <time>2019-03-26T12:16:30.289Z</time>
      </trkpt>
      <trkpt lat="43.74263" lon="3.54292">
        <ele>296</ele>
        <time>2019-03-26T12:16:35.290Z</time>
      </trkpt>
      <trkpt lat="43.74261" lon="3.54297">
        <ele>296</ele>
        <time>2019-03-26T12:16:39.314Z</time>
      </trkpt>
      <trkpt lat="43.74257" lon="3.54304">
        <ele>296</ele>
        <time>2019-03-26T12:16:44.284Z</time>
      </trkpt>
      <trkpt lat="43.74255" lon="3.54313">
        <ele>296</ele>
        <time>2019-03-26T12:16:49.296Z</time>
      </trkpt>
      <trkpt lat="43.74252" lon="3.54319">
        <ele>296</ele>
        <time>2019-03-26T12:16:54.287Z</time>
      </trkpt>
      <trkpt lat="43.74249" lon="3.54329">
        <ele>298</ele>
        <time>2019-03-26T12:16:59.288Z</time>
      </trkpt>
      <trkpt lat="43.74247" lon="3.54334">
        <ele>298</ele>
        <time>2019-03-26T12:17:03.311Z</time>
      </trkpt>
      <trkpt lat="43.74244" lon="3.54341">
        <ele>298</ele>
        <time>2019-03-26T12:17:08.295Z</time>
      </trkpt>
      <trkpt lat="43.74241" lon="3.54348">
        <ele>299</ele>
        <time>2019-03-26T12:17:13.297Z</time>
      </trkpt>
      <trkpt lat="43.7424" lon="3.54356">
        <ele>299</ele>
        <time>2019-03-26T12:17:18.294Z</time>
      </trkpt>
      <trkpt lat="43.74238" lon="3.54364">
        <ele>299</ele>
        <time>2019-03-26T12:17:23.289Z</time>
      </trkpt>
      <trkpt lat="43.74237" lon="3.5437">
        <ele>299</ele>
        <time>2019-03-26T12:17:27.303Z</time>
      </trkpt>
      <trkpt lat="43.74235" lon="3.54378">
        <ele>291</ele>
        <time>2019-03-26T12:17:32.285Z</time>
      </trkpt>
      <trkpt lat="43.74232" lon="3.54383">
        <ele>291</ele>
        <time>2019-03-26T12:17:36.318Z</time>
      </trkpt>
      <trkpt lat="43.74226" lon="3.54388">
        <ele>291</ele>
        <time>2019-03-26T12:17:41.292Z</time>
      </trkpt>
      <trkpt lat="43.74224" lon="3.54393">
        <ele>291</ele>
        <time>2019-03-26T12:17:46.285Z</time>
      </trkpt>
      <trkpt lat="43.7422" lon="3.54398">
        <ele>291</ele>
        <time>2019-03-26T12:17:51.284Z</time>
      </trkpt>
      <trkpt lat="43.74217" lon="3.54403">
        <ele>292</ele>
        <time>2019-03-26T12:17:56.293Z</time>
      </trkpt>
      <trkpt lat="43.74213" lon="3.54409">
        <ele>292</ele>
        <time>2019-03-26T12:18:01.315Z</time>
      </trkpt>
      <trkpt lat="43.74209" lon="3.54416">
        <ele>292</ele>
        <time>2019-03-26T12:18:06.319Z</time>
      </trkpt>
      <trkpt lat="43.74206" lon="3.54423">
        <ele>285</ele>
        <time>2019-03-26T12:18:11.298Z</time>
      </trkpt>
      <trkpt lat="43.74204" lon="3.54431">
        <ele>287</ele>
        <time>2019-03-26T12:18:16.286Z</time>
      </trkpt>
      <trkpt lat="43.74203" lon="3.54437">
        <ele>287</ele>
        <time>2019-03-26T12:18:20.321Z</time>
      </trkpt>
      <trkpt lat="43.74197" lon="3.54437">
        <ele>287</ele>
        <time>2019-03-26T12:18:25.298Z</time>
      </trkpt>
      <trkpt lat="43.74196" lon="3.54429">
        <ele>285</ele>
        <time>2019-03-26T12:18:30.289Z</time>
      </trkpt>
      <trkpt lat="43.74197" lon="3.54424">
        <ele>285</ele>
        <time>2019-03-26T12:18:34.313Z</time>
      </trkpt>
      <trkpt lat="43.74198" lon="3.54417">
        <ele>285</ele>
        <time>2019-03-26T12:18:39.312Z</time>
      </trkpt>
      <trkpt lat="43.74201" lon="3.54411">
        <ele>285</ele>
        <time>2019-03-26T12:18:44.286Z</time>
      </trkpt>
      <trkpt lat="43.74202" lon="3.54405">
        <ele>285</ele>
        <time>2019-03-26T12:18:48.287Z</time>
      </trkpt>
      <trkpt lat="43.74201" lon="3.54398">
        <ele>284</ele>
        <time>2019-03-26T12:18:53.288Z</time>
      </trkpt>
      <trkpt lat="43.74199" lon="3.54393">
        <ele>284</ele>
        <time>2019-03-26T12:18:57.308Z</time>
      </trkpt>
      <trkpt lat="43.74197" lon="3.54384">
        <ele>284</ele>
        <time>2019-03-26T12:19:02.292Z</time>
      </trkpt>
      <trkpt lat="43.74195" lon="3.54376">
        <ele>284</ele>
        <time>2019-03-26T12:19:07.296Z</time>
      </trkpt>
      <trkpt lat="43.74194" lon="3.54368">
        <ele>285</ele>
        <time>2019-03-26T12:19:12.294Z</time>
      </trkpt>
      <trkpt lat="43.74193" lon="3.54361">
        <ele>285</ele>
        <time>2019-03-26T12:19:17.314Z</time>
      </trkpt>
      <trkpt lat="43.74192" lon="3.54354">
        <ele>285</ele>
        <time>2019-03-26T12:19:22.289Z</time>
      </trkpt>
      <trkpt lat="43.74193" lon="3.54347">
        <ele>285</ele>
        <time>2019-03-26T12:19:26.290Z</time>
      </trkpt>
      <trkpt lat="43.74194" lon="3.5434">
        <ele>284</ele>
        <time>2019-03-26T12:19:31.295Z</time>
      </trkpt>
      <trkpt lat="43.74193" lon="3.54332">
        <ele>284</ele>
        <time>2019-03-26T12:19:36.297Z</time>
      </trkpt>
      <trkpt lat="43.74191" lon="3.54326">
        <ele>284</ele>
        <time>2019-03-26T12:19:40.335Z</time>
      </trkpt>
      <trkpt lat="43.74191" lon="3.54317">
        <ele>283</ele>
        <time>2019-03-26T12:19:45.286Z</time>
      </trkpt>
      <trkpt lat="43.74191" lon="3.54309">
        <ele>283</ele>
        <time>2019-03-26T12:19:50.313Z</time>
      </trkpt>
      <trkpt lat="43.74188" lon="3.54303">
        <ele>283</ele>
        <time>2019-03-26T12:19:55.290Z</time>
      </trkpt>
      <trkpt lat="43.74183" lon="3.54303">
        <ele>283</ele>
        <time>2019-03-26T12:20:00.292Z</time>
      </trkpt>
      <trkpt lat="43.74179" lon="3.54308">
        <ele>277</ele>
        <time>2019-03-26T12:20:05.291Z</time>
      </trkpt>
      <trkpt lat="43.74175" lon="3.54312">
        <ele>277</ele>
        <time>2019-03-26T12:20:10.290Z</time>
      </trkpt>
      <trkpt lat="43.74172" lon="3.54316">
        <ele>277</ele>
        <time>2019-03-26T12:21:58.297Z</time>
      </trkpt>
      <trkpt lat="43.7417" lon="3.54317">
        <ele>277</ele>
        <time>2019-03-26T12:22:32.277Z</time>
      </trkpt>
      <trkpt lat="43.7417" lon="3.54318">
        <ele>277</ele>
        <time>2019-03-26T12:22:36.313Z</time>
      </trkpt>
      <trkpt lat="43.74169" lon="3.54322">
        <ele>277</ele>
        <time>2019-03-26T12:23:04.287Z</time>
      </trkpt>
      <trkpt lat="43.74165" lon="3.54327">
        <ele>277</ele>
        <time>2019-03-26T12:23:09.315Z</time>
      </trkpt>
      <trkpt lat="43.74161" lon="3.54334">
        <ele>277</ele>
        <time>2019-03-26T12:23:14.285Z</time>
      </trkpt>
      <trkpt lat="43.74156" lon="3.54338">
        <ele>277</ele>
        <time>2019-03-26T12:23:18.296Z</time>
      </trkpt>
      <trkpt lat="43.74154" lon="3.54345">
        <ele>277</ele>
        <time>2019-03-26T12:23:23.287Z</time>
      </trkpt>
      <trkpt lat="43.74151" lon="3.54345">
        <ele>269</ele>
        <time>2019-03-26T12:23:27.296Z</time>
      </trkpt>
      <trkpt lat="43.74151" lon="3.54338">
        <ele>269</ele>
        <time>2019-03-26T12:23:31.299Z</time>
      </trkpt>
      <trkpt lat="43.7415" lon="3.5433">
        <ele>269</ele>
        <time>2019-03-26T12:23:36.290Z</time>
      </trkpt>
      <trkpt lat="43.74149" lon="3.54326">
        <ele>269</ele>
        <time>2019-03-26T12:23:40.312Z</time>
      </trkpt>
      <trkpt lat="43.74147" lon="3.54319">
        <ele>271</ele>
        <time>2019-03-26T12:23:45.286Z</time>
      </trkpt>
      <trkpt lat="43.74146" lon="3.54314">
        <ele>271</ele>
        <time>2019-03-26T12:23:49.300Z</time>
      </trkpt>
      <trkpt lat="43.74142" lon="3.54317">
        <ele>271</ele>
        <time>2019-03-26T12:23:54.294Z</time>
      </trkpt>
      <trkpt lat="43.74137" lon="3.54322">
        <ele>269</ele>
        <time>2019-03-26T12:23:59.288Z</time>
      </trkpt>
      <trkpt lat="43.74134" lon="3.54325">
        <ele>269</ele>
        <time>2019-03-26T12:24:03.288Z</time>
      </trkpt>
      <trkpt lat="43.74131" lon="3.54328">
        <ele>269</ele>
        <time>2019-03-26T12:24:07.313Z</time>
      </trkpt>
      <trkpt lat="43.74129" lon="3.54326">
        <ele>269</ele>
        <time>2019-03-26T12:24:12.288Z</time>
      </trkpt>
      <trkpt lat="43.74128" lon="3.54322">
        <ele>269</ele>
        <time>2019-03-26T12:24:16.291Z</time>
      </trkpt>
      <trkpt lat="43.74128" lon="3.54317">
        <ele>271</ele>
        <time>2019-03-26T12:24:21.290Z</time>
      </trkpt>
      <trkpt lat="43.74126" lon="3.54313">
        <ele>271</ele>
        <time>2019-03-26T12:24:26.320Z</time>
      </trkpt>
      <trkpt lat="43.74123" lon="3.54313">
        <ele>270</ele>
        <time>2019-03-26T12:24:31.289Z</time>
      </trkpt>
      <trkpt lat="43.74121" lon="3.54318">
        <ele>270</ele>
        <time>2019-03-26T12:24:35.318Z</time>
      </trkpt>
      <trkpt lat="43.74117" lon="3.54324">
        <ele>265</ele>
        <time>2019-03-26T12:24:40.296Z</time>
      </trkpt>
      <trkpt lat="43.74115" lon="3.54329">
        <ele>265</ele>
        <time>2019-03-26T12:24:44.313Z</time>
      </trkpt>
      <trkpt lat="43.74113" lon="3.54336">
        <ele>265</ele>
        <time>2019-03-26T12:24:49.294Z</time>
      </trkpt>
      <trkpt lat="43.7411" lon="3.54342">
        <ele>265</ele>
        <time>2019-03-26T12:24:53.312Z</time>
      </trkpt>
      <trkpt lat="43.74106" lon="3.54349">
        <ele>263</ele>
        <time>2019-03-26T12:24:58.291Z</time>
      </trkpt>
      <trkpt lat="43.74101" lon="3.54356">
        <ele>263</ele>
        <time>2019-03-26T12:25:02.297Z</time>
      </trkpt>
      <trkpt lat="43.74097" lon="3.54361">
        <ele>265</ele>
        <time>2019-03-26T12:25:07.283Z</time>
      </trkpt>
      <trkpt lat="43.74093" lon="3.54364">
        <ele>265</ele>
        <time>2019-03-26T12:25:11.312Z</time>
      </trkpt>
      <trkpt lat="43.74091" lon="3.54368">
        <ele>265</ele>
        <time>2019-03-26T12:25:16.294Z</time>
      </trkpt>
      <trkpt lat="43.74089" lon="3.54373">
        <ele>265</ele>
        <time>2019-03-26T12:25:20.301Z</time>
      </trkpt>
      <trkpt lat="43.74088" lon="3.54379">
        <ele>262</ele>
        <time>2019-03-26T12:25:25.285Z</time>
      </trkpt>
      <trkpt lat="43.74086" lon="3.54388">
        <ele>262</ele>
        <time>2019-03-26T12:25:30.299Z</time>
      </trkpt>
      <trkpt lat="43.74085" lon="3.54395">
        <ele>262</ele>
        <time>2019-03-26T12:25:35.290Z</time>
      </trkpt>
      <trkpt lat="43.74081" lon="3.54404">
        <ele>258</ele>
        <time>2019-03-26T12:25:40.323Z</time>
      </trkpt>
      <trkpt lat="43.74078" lon="3.54411">
        <ele>258</ele>
        <time>2019-03-26T12:25:45.315Z</time>
      </trkpt>
      <trkpt lat="43.74081" lon="3.54421">
        <ele>258</ele>
        <time>2019-03-26T12:25:50.295Z</time>
      </trkpt>
      <trkpt lat="43.74081" lon="3.54429">
        <ele>258</ele>
        <time>2019-03-26T12:25:54.295Z</time>
      </trkpt>
      <trkpt lat="43.74076" lon="3.54435">
        <ele>256</ele>
        <time>2019-03-26T12:25:59.315Z</time>
      </trkpt>
      <trkpt lat="43.74068" lon="3.54436">
        <ele>255</ele>
        <time>2019-03-26T12:26:04.296Z</time>
      </trkpt>
      <trkpt lat="43.74061" lon="3.54436">
        <ele>255</ele>
        <time>2019-03-26T12:26:09.289Z</time>
      </trkpt>
      <trkpt lat="43.74054" lon="3.54437">
        <ele>255</ele>
        <time>2019-03-26T12:26:14.288Z</time>
      </trkpt>
      <trkpt lat="43.74048" lon="3.54439">
        <ele>255</ele>
        <time>2019-03-26T12:26:19.298Z</time>
      </trkpt>
      <trkpt lat="43.74043" lon="3.54444">
        <ele>255</ele>
        <time>2019-03-26T12:26:24.293Z</time>
      </trkpt>
      <trkpt lat="43.74039" lon="3.5445">
        <ele>253</ele>
        <time>2019-03-26T12:26:29.295Z</time>
      </trkpt>
      <trkpt lat="43.74036" lon="3.54457">
        <ele>253</ele>
        <time>2019-03-26T12:26:34.305Z</time>
      </trkpt>
      <trkpt lat="43.74032" lon="3.54463">
        <ele>249</ele>
        <time>2019-03-26T12:26:39.294Z</time>
      </trkpt>
      <trkpt lat="43.74031" lon="3.54469">
        <ele>249</ele>
        <time>2019-03-26T12:26:43.316Z</time>
      </trkpt>
      <trkpt lat="43.74029" lon="3.54477">
        <ele>249</ele>
        <time>2019-03-26T12:26:48.286Z</time>
      </trkpt>
      <trkpt lat="43.74028" lon="3.54486">
        <ele>249</ele>
        <time>2019-03-26T12:26:53.298Z</time>
      </trkpt>
      <trkpt lat="43.74029" lon="3.54493">
        <ele>248</ele>
        <time>2019-03-26T12:26:58.294Z</time>
      </trkpt>
      <trkpt lat="43.7403" lon="3.54499">
        <ele>248</ele>
        <time>2019-03-26T12:27:02.323Z</time>
      </trkpt>
      <trkpt lat="43.74028" lon="3.5451">
        <ele>248</ele>
        <time>2019-03-26T12:27:07.297Z</time>
      </trkpt>
      <trkpt lat="43.74027" lon="3.5452">
        <ele>242</ele>
        <time>2019-03-26T12:27:12.293Z</time>
      </trkpt>
      <trkpt lat="43.74026" lon="3.54529">
        <ele>242</ele>
        <time>2019-03-26T12:27:16.293Z</time>
      </trkpt>
      <trkpt lat="43.74026" lon="3.54536">
        <ele>242</ele>
        <time>2019-03-26T12:27:21.284Z</time>
      </trkpt>
      <trkpt lat="43.74026" lon="3.54544">
        <ele>235</ele>
        <time>2019-03-26T12:27:26.290Z</time>
      </trkpt>
      <trkpt lat="43.74025" lon="3.54552">
        <ele>235</ele>
        <time>2019-03-26T12:27:30.293Z</time>
      </trkpt>
      <trkpt lat="43.74022" lon="3.54561">
        <ele>235</ele>
        <time>2019-03-26T12:27:35.293Z</time>
      </trkpt>
      <trkpt lat="43.74022" lon="3.54569">
        <ele>235</ele>
        <time>2019-03-26T12:27:40.291Z</time>
      </trkpt>
      <trkpt lat="43.7402" lon="3.54578">
        <ele>231</ele>
        <time>2019-03-26T12:27:45.302Z</time>
      </trkpt>
      <trkpt lat="43.74015" lon="3.54584">
        <ele>231</ele>
        <time>2019-03-26T12:27:50.281Z</time>
      </trkpt>
      <trkpt lat="43.7401" lon="3.54586">
        <ele>236</ele>
        <time>2019-03-26T12:27:54.293Z</time>
      </trkpt>
      <trkpt lat="43.74006" lon="3.5459">
        <ele>236</ele>
        <time>2019-03-26T12:27:59.292Z</time>
      </trkpt>
      <trkpt lat="43.74002" lon="3.54597">
        <ele>236</ele>
        <time>2019-03-26T12:28:04.295Z</time>
      </trkpt>
      <trkpt lat="43.73999" lon="3.54604">
        <ele>234</ele>
        <time>2019-03-26T12:28:09.290Z</time>
      </trkpt>
      <trkpt lat="43.73995" lon="3.54608">
        <ele>234</ele>
        <time>2019-03-26T12:28:13.325Z</time>
      </trkpt>
      <trkpt lat="43.7399" lon="3.54614">
        <ele>234</ele>
        <time>2019-03-26T12:28:18.288Z</time>
      </trkpt>
      <trkpt lat="43.73986" lon="3.5462">
        <ele>232</ele>
        <time>2019-03-26T12:28:23.306Z</time>
      </trkpt>
      <trkpt lat="43.73981" lon="3.54627">
        <ele>232</ele>
        <time>2019-03-26T12:28:28.284Z</time>
      </trkpt>
      <trkpt lat="43.73977" lon="3.54633">
        <ele>232</ele>
        <time>2019-03-26T12:28:33.295Z</time>
      </trkpt>
      <trkpt lat="43.73974" lon="3.54638">
        <ele>232</ele>
        <time>2019-03-26T12:28:37.321Z</time>
      </trkpt>
      <trkpt lat="43.73968" lon="3.54642">
        <ele>232</ele>
        <time>2019-03-26T12:28:42.297Z</time>
      </trkpt>
      <trkpt lat="43.73964" lon="3.54648">
        <ele>232</ele>
        <time>2019-03-26T12:28:47.289Z</time>
      </trkpt>
      <trkpt lat="43.7396" lon="3.54654">
        <ele>230</ele>
        <time>2019-03-26T12:28:52.294Z</time>
      </trkpt>
      <trkpt lat="43.73955" lon="3.54661">
        <ele>226</ele>
        <time>2019-03-26T12:28:57.314Z</time>
      </trkpt>
      <trkpt lat="43.7395" lon="3.54668">
        <ele>226</ele>
        <time>2019-03-26T12:29:02.296Z</time>
      </trkpt>
      <trkpt lat="43.73948" lon="3.54671">
        <ele>226</ele>
        <time>2019-03-26T12:29:06.303Z</time>
      </trkpt>
      <trkpt lat="43.73944" lon="3.54676">
        <ele>226</ele>
        <time>2019-03-26T12:29:11.314Z</time>
      </trkpt>
      <trkpt lat="43.73939" lon="3.54683">
        <ele>228</ele>
        <time>2019-03-26T12:29:16.282Z</time>
      </trkpt>
      <trkpt lat="43.73936" lon="3.54688">
        <ele>228</ele>
        <time>2019-03-26T12:29:20.295Z</time>
      </trkpt>
      <trkpt lat="43.73932" lon="3.54693">
        <ele>228</ele>
        <time>2019-03-26T12:29:25.304Z</time>
      </trkpt>
      <trkpt lat="43.73927" lon="3.54697">
        <ele>225</ele>
        <time>2019-03-26T12:29:30.294Z</time>
      </trkpt>
      <trkpt lat="43.73922" lon="3.547">
        <ele>225</ele>
        <time>2019-03-26T12:29:35.298Z</time>
      </trkpt>
      <trkpt lat="43.73917" lon="3.54703">
        <ele>225</ele>
        <time>2019-03-26T12:29:39.315Z</time>
      </trkpt>
      <trkpt lat="43.73912" lon="3.54708">
        <ele>225</ele>
        <time>2019-03-26T12:29:44.289Z</time>
      </trkpt>
      <trkpt lat="43.73908" lon="3.54712">
        <ele>227</ele>
        <time>2019-03-26T12:29:48.295Z</time>
      </trkpt>
      <trkpt lat="43.73905" lon="3.5472">
        <ele>227</ele>
        <time>2019-03-26T12:29:52.315Z</time>
      </trkpt>
      <trkpt lat="43.73906" lon="3.54731">
        <ele>227</ele>
        <time>2019-03-26T12:29:57.286Z</time>
      </trkpt>
      <trkpt lat="43.73906" lon="3.54739">
        <ele>223</ele>
        <time>2019-03-26T12:30:01.321Z</time>
      </trkpt>
      <trkpt lat="43.73903" lon="3.54747">
        <ele>223</ele>
        <time>2019-03-26T12:30:06.287Z</time>
      </trkpt>
      <trkpt lat="43.73899" lon="3.54754">
        <ele>224</ele>
        <time>2019-03-26T12:30:11.316Z</time>
      </trkpt>
      <trkpt lat="43.73894" lon="3.54758">
        <ele>224</ele>
        <time>2019-03-26T12:30:16.311Z</time>
      </trkpt>
      <trkpt lat="43.7389" lon="3.54761">
        <ele>224</ele>
        <time>2019-03-26T12:30:21.308Z</time>
      </trkpt>
      <trkpt lat="43.73885" lon="3.54767">
        <ele>223</ele>
        <time>2019-03-26T12:30:26.295Z</time>
      </trkpt>
      <trkpt lat="43.73882" lon="3.5477">
        <ele>223</ele>
        <time>2019-03-26T12:30:30.319Z</time>
      </trkpt>
      <trkpt lat="43.73877" lon="3.54774">
        <ele>223</ele>
        <time>2019-03-26T12:30:35.287Z</time>
      </trkpt>
      <trkpt lat="43.73873" lon="3.54779">
        <ele>220</ele>
        <time>2019-03-26T12:30:39.291Z</time>
      </trkpt>
      <trkpt lat="43.7387" lon="3.54786">
        <ele>220</ele>
        <time>2019-03-26T12:30:44.288Z</time>
      </trkpt>
      <trkpt lat="43.73867" lon="3.54791">
        <ele>220</ele>
        <time>2019-03-26T12:30:49.271Z</time>
      </trkpt>
      <trkpt lat="43.73863" lon="3.54796">
        <ele>216</ele>
        <time>2019-03-26T12:30:53.295Z</time>
      </trkpt>
      <trkpt lat="43.7386" lon="3.54801">
        <ele>216</ele>
        <time>2019-03-26T12:30:57.295Z</time>
      </trkpt>
      <trkpt lat="43.73856" lon="3.54807">
        <ele>216</ele>
        <time>2019-03-26T12:31:01.320Z</time>
      </trkpt>
      <trkpt lat="43.73854" lon="3.54813">
        <ele>216</ele>
        <time>2019-03-26T12:31:06.325Z</time>
      </trkpt>
      <trkpt lat="43.73852" lon="3.54818">
        <ele>216</ele>
        <time>2019-03-26T12:31:11.295Z</time>
      </trkpt>
      <trkpt lat="43.73848" lon="3.54822">
        <ele>212</ele>
        <time>2019-03-26T12:31:15.313Z</time>
      </trkpt>
      <trkpt lat="43.73844" lon="3.54828">
        <ele>209</ele>
        <time>2019-03-26T12:31:20.298Z</time>
      </trkpt>
      <trkpt lat="43.7384" lon="3.54835">
        <ele>209</ele>
        <time>2019-03-26T12:31:25.298Z</time>
      </trkpt>
      <trkpt lat="43.73838" lon="3.54843">
        <ele>209</ele>
        <time>2019-03-26T12:31:30.284Z</time>
      </trkpt>
      <trkpt lat="43.73836" lon="3.54848">
        <ele>209</ele>
        <time>2019-03-26T12:31:34.290Z</time>
      </trkpt>
      <trkpt lat="43.73833" lon="3.54853">
        <ele>209</ele>
        <time>2019-03-26T12:31:38.313Z</time>
      </trkpt>
      <trkpt lat="43.73831" lon="3.54858">
        <ele>209</ele>
        <time>2019-03-26T12:31:42.328Z</time>
      </trkpt>
      <trkpt lat="43.73829" lon="3.54866">
        <ele>209</ele>
        <time>2019-03-26T12:31:47.295Z</time>
      </trkpt>
      <trkpt lat="43.73824" lon="3.5487">
        <ele>209</ele>
        <time>2019-03-26T12:31:52.285Z</time>
      </trkpt>
      <trkpt lat="43.7382" lon="3.54874">
        <ele>209</ele>
        <time>2019-03-26T12:31:57.292Z</time>
      </trkpt>
      <trkpt lat="43.73816" lon="3.54879">
        <ele>204</ele>
        <time>2019-03-26T12:32:02.291Z</time>
      </trkpt>
      <trkpt lat="43.73814" lon="3.54884">
        <ele>204</ele>
        <time>2019-03-26T12:32:06.297Z</time>
      </trkpt>
      <trkpt lat="43.7381" lon="3.54887">
        <ele>204</ele>
        <time>2019-03-26T12:32:10.325Z</time>
      </trkpt>
      <trkpt lat="43.73807" lon="3.54893">
        <ele>204</ele>
        <time>2019-03-26T12:32:15.296Z</time>
      </trkpt>
      <trkpt lat="43.73804" lon="3.54899">
        <ele>204</ele>
        <time>2019-03-26T12:32:20.315Z</time>
      </trkpt>
      <trkpt lat="43.73801" lon="3.54902">
        <ele>204</ele>
        <time>2019-03-26T12:32:25.291Z</time>
      </trkpt>
      <trkpt lat="43.73797" lon="3.54899">
        <ele>204</ele>
        <time>2019-03-26T12:32:30.292Z</time>
      </trkpt>
      <trkpt lat="43.73792" lon="3.54895">
        <ele>204</ele>
        <time>2019-03-26T12:32:35.297Z</time>
      </trkpt>
      <trkpt lat="43.73791" lon="3.54888">
        <ele>197</ele>
        <time>2019-03-26T12:32:40.288Z</time>
      </trkpt>
      <trkpt lat="43.73789" lon="3.54881">
        <ele>197</ele>
        <time>2019-03-26T12:32:45.287Z</time>
      </trkpt>
      <trkpt lat="43.73791" lon="3.54877">
        <ele>197</ele>
        <time>2019-03-26T12:32:50.297Z</time>
      </trkpt>
      <trkpt lat="43.73787" lon="3.54876">
        <ele>197</ele>
        <time>2019-03-26T12:32:55.286Z</time>
      </trkpt>
      <trkpt lat="43.73783" lon="3.54881">
        <ele>197</ele>
        <time>2019-03-26T12:33:00.324Z</time>
      </trkpt>
      <trkpt lat="43.7378" lon="3.54887">
        <ele>197</ele>
        <time>2019-03-26T12:33:05.294Z</time>
      </trkpt>
      <trkpt lat="43.73776" lon="3.5489">
        <ele>197</ele>
        <time>2019-03-26T12:33:09.296Z</time>
      </trkpt>
      <trkpt lat="43.73772" lon="3.54896">
        <ele>197</ele>
        <time>2019-03-26T12:33:14.294Z</time>
      </trkpt>
      <trkpt lat="43.73767" lon="3.54902">
        <ele>197</ele>
        <time>2019-03-26T12:33:19.293Z</time>
      </trkpt>
      <trkpt lat="43.73763" lon="3.54904">
        <ele>194</ele>
        <time>2019-03-26T12:33:23.313Z</time>
      </trkpt>
      <trkpt lat="43.73764" lon="3.54897">
        <ele>197</ele>
        <time>2019-03-26T12:33:28.286Z</time>
      </trkpt>
      <trkpt lat="43.73763" lon="3.54888">
        <ele>187</ele>
        <time>2019-03-26T12:33:32.324Z</time>
      </trkpt>
      <trkpt lat="43.73763" lon="3.54876">
        <ele>187</ele>
        <time>2019-03-26T12:33:37.290Z</time>
      </trkpt>
      <trkpt lat="43.73765" lon="3.54869">
        <ele>193</ele>
        <time>2019-03-26T12:33:42.293Z</time>
      </trkpt>
      <trkpt lat="43.73769" lon="3.54865">
        <ele>193</ele>
        <time>2019-03-26T12:33:46.312Z</time>
      </trkpt>
      <trkpt lat="43.73773" lon="3.54859">
        <ele>193</ele>
        <time>2019-03-26T12:33:51.311Z</time>
      </trkpt>
      <trkpt lat="43.73777" lon="3.54853">
        <ele>193</ele>
        <time>2019-03-26T12:33:56.295Z</time>
      </trkpt>
      <trkpt lat="43.7378" lon="3.54849">
        <ele>193</ele>
        <time>2019-03-26T12:34:00.302Z</time>
      </trkpt>
      <trkpt lat="43.73784" lon="3.54842">
        <ele>188</ele>
        <time>2019-03-26T12:34:05.284Z</time>
      </trkpt>
      <trkpt lat="43.73786" lon="3.54834">
        <ele>188</ele>
        <time>2019-03-26T12:34:10.284Z</time>
      </trkpt>
      <trkpt lat="43.73787" lon="3.54828">
        <ele>188</ele>
        <time>2019-03-26T12:34:14.309Z</time>
      </trkpt>
      <trkpt lat="43.73789" lon="3.54821">
        <ele>188</ele>
        <time>2019-03-26T12:34:19.315Z</time>
      </trkpt>
      <trkpt lat="43.7379" lon="3.54812">
        <ele>183</ele>
        <time>2019-03-26T12:34:24.292Z</time>
      </trkpt>
      <trkpt lat="43.7379" lon="3.54806">
        <ele>183</ele>
        <time>2019-03-26T12:34:28.312Z</time>
      </trkpt>
      <trkpt lat="43.73791" lon="3.54799">
        <ele>183</ele>
        <time>2019-03-26T12:34:33.287Z</time>
      </trkpt>
      <trkpt lat="43.73791" lon="3.54792">
        <ele>183</ele>
        <time>2019-03-26T12:34:37.295Z</time>
      </trkpt>
      <trkpt lat="43.73791" lon="3.54785">
        <ele>178</ele>
        <time>2019-03-26T12:34:42.290Z</time>
      </trkpt>
      <trkpt lat="43.73789" lon="3.54778">
        <ele>178</ele>
        <time>2019-03-26T12:34:47.287Z</time>
      </trkpt>
      <trkpt lat="43.73787" lon="3.54769">
        <ele>178</ele>
        <time>2019-03-26T12:34:52.286Z</time>
      </trkpt>
      <trkpt lat="43.73785" lon="3.54762">
        <ele>174</ele>
        <time>2019-03-26T12:34:57.287Z</time>
      </trkpt>
      <trkpt lat="43.73783" lon="3.54754">
        <ele>174</ele>
        <time>2019-03-26T12:35:02.292Z</time>
      </trkpt>
      <trkpt lat="43.73779" lon="3.54748">
        <ele>174</ele>
        <time>2019-03-26T12:35:07.299Z</time>
      </trkpt>
      <trkpt lat="43.73776" lon="3.54744">
        <ele>174</ele>
        <time>2019-03-26T12:35:12.293Z</time>
      </trkpt>
      <trkpt lat="43.73774" lon="3.54752">
        <ele>174</ele>
        <time>2019-03-26T12:35:17.322Z</time>
      </trkpt>
      <trkpt lat="43.73777" lon="3.54757">
        <ele>174</ele>
        <time>2019-03-26T12:35:22.292Z</time>
      </trkpt>
      <trkpt lat="43.73779" lon="3.54763">
        <ele>174</ele>
        <time>2019-03-26T12:35:27.298Z</time>
      </trkpt>
      <trkpt lat="43.73779" lon="3.54768">
        <ele>178</ele>
        <time>2019-03-26T12:35:31.318Z</time>
      </trkpt>
      <trkpt lat="43.73779" lon="3.54775">
        <ele>178</ele>
        <time>2019-03-26T12:35:36.316Z</time>
      </trkpt>
      <trkpt lat="43.73778" lon="3.5478">
        <ele>178</ele>
        <time>2019-03-26T12:35:40.323Z</time>
      </trkpt>
      <trkpt lat="43.73778" lon="3.54787">
        <ele>178</ele>
        <time>2019-03-26T12:35:45.292Z</time>
      </trkpt>
      <trkpt lat="43.73775" lon="3.54794">
        <ele>183</ele>
        <time>2019-03-26T12:35:50.291Z</time>
      </trkpt>
      <trkpt lat="43.73773" lon="3.548">
        <ele>183</ele>
        <time>2019-03-26T12:35:55.288Z</time>
      </trkpt>
      <trkpt lat="43.7377" lon="3.54805">
        <ele>183</ele>
        <time>2019-03-26T12:35:59.293Z</time>
      </trkpt>
      <trkpt lat="43.73764" lon="3.54808">
        <ele>183</ele>
        <time>2019-03-26T12:36:03.303Z</time>
      </trkpt>
      <trkpt lat="43.73759" lon="3.54814">
        <ele>163</ele>
        <time>2019-03-26T12:36:08.312Z</time>
      </trkpt>
      <trkpt lat="43.73752" lon="3.54819">
        <ele>163</ele>
        <time>2019-03-26T12:36:13.290Z</time>
      </trkpt>
      <trkpt lat="43.73743" lon="3.54822">
        <ele>170</ele>
        <time>2019-03-26T12:36:18.284Z</time>
      </trkpt>
      <trkpt lat="43.73738" lon="3.54823">
        <ele>170</ele>
        <time>2019-03-26T12:36:22.300Z</time>
      </trkpt>
      <trkpt lat="43.73734" lon="3.54827">
        <ele>151</ele>
        <time>2019-03-26T12:36:27.286Z</time>
      </trkpt>
      <trkpt lat="43.73731" lon="3.54833">
        <ele>151</ele>
        <time>2019-03-26T12:36:32.285Z</time>
      </trkpt>
      <trkpt lat="43.73728" lon="3.54839">
        <ele>151</ele>
        <time>2019-03-26T12:36:37.295Z</time>
      </trkpt>
      <trkpt lat="43.73726" lon="3.54846">
        <ele>151</ele>
        <time>2019-03-26T12:36:42.284Z</time>
      </trkpt>
      <trkpt lat="43.73725" lon="3.54837">
        <ele>151</ele>
        <time>2019-03-26T12:36:52.298Z</time>
      </trkpt>
      <trkpt lat="43.73725" lon="3.54835">
        <ele>151</ele>
        <time>2019-03-26T12:36:56.316Z</time>
      </trkpt>
      <trkpt lat="43.73719" lon="3.54838">
        <ele>151</ele>
        <time>2019-03-26T12:37:01.283Z</time>
      </trkpt>
      <trkpt lat="43.73717" lon="3.54841">
        <ele>151</ele>
        <time>2019-03-26T12:37:05.304Z</time>
      </trkpt>
      <trkpt lat="43.73715" lon="3.54847">
        <ele>151</ele>
        <time>2019-03-26T12:37:10.294Z</time>
      </trkpt>
      <trkpt lat="43.73712" lon="3.54853">
        <ele>159</ele>
        <time>2019-03-26T12:37:15.285Z</time>
      </trkpt>
      <trkpt lat="43.7371" lon="3.54858">
        <ele>159</ele>
        <time>2019-03-26T12:37:19.305Z</time>
      </trkpt>
      <trkpt lat="43.73705" lon="3.54862">
        <ele>146</ele>
        <time>2019-03-26T12:37:24.286Z</time>
      </trkpt>
      <trkpt lat="43.73699" lon="3.54866">
        <ele>146</ele>
        <time>2019-03-26T12:37:29.288Z</time>
      </trkpt>
      <trkpt lat="43.73692" lon="3.54869">
        <ele>146</ele>
        <time>2019-03-26T12:37:34.295Z</time>
      </trkpt>
      <trkpt lat="43.73687" lon="3.54875">
        <ele>146</ele>
        <time>2019-03-26T12:37:39.285Z</time>
      </trkpt>
      <trkpt lat="43.73682" lon="3.54876">
        <ele>159</ele>
        <time>2019-03-26T12:37:43.315Z</time>
      </trkpt>
      <trkpt lat="43.73678" lon="3.54879">
        <ele>149</ele>
        <time>2019-03-26T12:37:48.319Z</time>
      </trkpt>
      <trkpt lat="43.73672" lon="3.54881">
        <ele>149</ele>
        <time>2019-03-26T12:37:53.325Z</time>
      </trkpt>
      <trkpt lat="43.73667" lon="3.54884">
        <ele>149</ele>
        <time>2019-03-26T12:37:58.287Z</time>
      </trkpt>
      <trkpt lat="43.73661" lon="3.54886">
        <ele>149</ele>
        <time>2019-03-26T12:38:03.296Z</time>
      </trkpt>
      <trkpt lat="43.73656" lon="3.54889">
        <ele>149</ele>
        <time>2019-03-26T12:38:08.289Z</time>
      </trkpt>
      <trkpt lat="43.73652" lon="3.54889">
        <ele>140</ele>
        <time>2019-03-26T12:38:12.316Z</time>
      </trkpt>
      <trkpt lat="43.73647" lon="3.54891">
        <ele>140</ele>
        <time>2019-03-26T12:38:17.343Z</time>
      </trkpt>
      <trkpt lat="43.73642" lon="3.54894">
        <ele>140</ele>
        <time>2019-03-26T12:38:22.296Z</time>
      </trkpt>
      <trkpt lat="43.73637" lon="3.54894">
        <ele>140</ele>
        <time>2019-03-26T12:38:26.314Z</time>
      </trkpt>
      <trkpt lat="43.7363" lon="3.54893">
        <ele>140</ele>
        <time>2019-03-26T12:38:31.311Z</time>
      </trkpt>
      <trkpt lat="43.73624" lon="3.54891">
        <ele>133</ele>
        <time>2019-03-26T12:38:36.293Z</time>
      </trkpt>
      <trkpt lat="43.73619" lon="3.54889">
        <ele>133</ele>
        <time>2019-03-26T12:38:41.283Z</time>
      </trkpt>
      <trkpt lat="43.73615" lon="3.54887">
        <ele>133</ele>
        <time>2019-03-26T12:38:45.295Z</time>
      </trkpt>
      <trkpt lat="43.73612" lon="3.54883">
        <ele>133</ele>
        <time>2019-03-26T12:38:50.283Z</time>
      </trkpt>
      <trkpt lat="43.73609" lon="3.54879">
        <ele>133</ele>
        <time>2019-03-26T12:38:54.297Z</time>
      </trkpt>
      <trkpt lat="43.73609" lon="3.54875">
        <ele>133</ele>
        <time>2019-03-26T12:38:59.315Z</time>
      </trkpt>
      <trkpt lat="43.73605" lon="3.54869">
        <ele>125</ele>
        <time>2019-03-26T12:39:04.292Z</time>
      </trkpt>
      <trkpt lat="43.73599" lon="3.54866">
        <ele>125</ele>
        <time>2019-03-26T12:39:09.283Z</time>
      </trkpt>
      <trkpt lat="43.73593" lon="3.54866">
        <ele>124</ele>
        <time>2019-03-26T12:39:13.289Z</time>
      </trkpt>
      <trkpt lat="43.73588" lon="3.5487">
        <ele>124</ele>
        <time>2019-03-26T12:39:18.281Z</time>
      </trkpt>
      <trkpt lat="43.73582" lon="3.54872">
        <ele>124</ele>
        <time>2019-03-26T12:39:23.295Z</time>
      </trkpt>
      <trkpt lat="43.73572" lon="3.5487">
        <ele>124</ele>
        <time>2019-03-26T12:39:53.320Z</time>
      </trkpt>
      <trkpt lat="43.73577" lon="3.54863">
        <ele>124</ele>
        <time>2019-03-26T12:39:58.288Z</time>
      </trkpt>
      <trkpt lat="43.73581" lon="3.54856">
        <ele>124</ele>
        <time>2019-03-26T12:40:03.285Z</time>
      </trkpt>
      <trkpt lat="43.73585" lon="3.54849">
        <ele>124</ele>
        <time>2019-03-26T12:40:08.288Z</time>
      </trkpt>
      <trkpt lat="43.73589" lon="3.54843">
        <ele>117</ele>
        <time>2019-03-26T12:40:13.294Z</time>
      </trkpt>
      <trkpt lat="43.73591" lon="3.54837">
        <ele>117</ele>
        <time>2019-03-26T12:40:17.321Z</time>
      </trkpt>
      <trkpt lat="43.73589" lon="3.54832">
        <ele>117</ele>
        <time>2019-03-26T12:40:22.284Z</time>
      </trkpt>
      <trkpt lat="43.73585" lon="3.54834">
        <ele>117</ele>
        <time>2019-03-26T12:40:26.291Z</time>
      </trkpt>
      <trkpt lat="43.73581" lon="3.54835">
        <ele>117</ele>
        <time>2019-03-26T12:40:31.267Z</time>
      </trkpt>
      <trkpt lat="43.73577" lon="3.54839">
        <ele>117</ele>
        <time>2019-03-26T12:40:35.286Z</time>
      </trkpt>
      <trkpt lat="43.7357" lon="3.54842">
        <ele>117</ele>
        <time>2019-03-26T12:40:40.284Z</time>
      </trkpt>
      <trkpt lat="43.73563" lon="3.54844">
        <ele>115</ele>
        <time>2019-03-26T12:40:45.288Z</time>
      </trkpt>
      <trkpt lat="43.73558" lon="3.54841">
        <ele>115</ele>
        <time>2019-03-26T12:40:50.289Z</time>
      </trkpt>
      <trkpt lat="43.73554" lon="3.5484">
        <ele>115</ele>
        <time>2019-03-26T12:40:55.289Z</time>
      </trkpt>
      <trkpt lat="43.7355" lon="3.54839">
        <ele>115</ele>
        <time>2019-03-26T12:40:59.296Z</time>
      </trkpt>
      <trkpt lat="43.73546" lon="3.54837">
        <ele>115</ele>
        <time>2019-03-26T12:41:04.322Z</time>
      </trkpt>
      <trkpt lat="43.73541" lon="3.54833">
        <ele>112</ele>
        <time>2019-03-26T12:41:09.281Z</time>
      </trkpt>
      <trkpt lat="43.73536" lon="3.54828">
        <ele>112</ele>
        <time>2019-03-26T12:41:14.281Z</time>
      </trkpt>
      <trkpt lat="43.73532" lon="3.54824">
        <ele>112</ele>
        <time>2019-03-26T12:41:18.293Z</time>
      </trkpt>
      <trkpt lat="43.73531" lon="3.54823">
        <ele>112</ele>
        <time>2019-03-26T12:41:22.313Z</time>
      </trkpt>
      <trkpt lat="43.73529" lon="3.54819">
        <ele>109</ele>
        <time>2019-03-26T12:41:27.307Z</time>
      </trkpt>
      <trkpt lat="43.73525" lon="3.54812">
        <ele>109</ele>
        <time>2019-03-26T12:41:32.295Z</time>
      </trkpt>
      <trkpt lat="43.73523" lon="3.54807">
        <ele>109</ele>
        <time>2019-03-26T12:41:37.296Z</time>
      </trkpt>
      <trkpt lat="43.73519" lon="3.548">
        <ele>109</ele>
        <time>2019-03-26T12:41:42.294Z</time>
      </trkpt>
      <trkpt lat="43.73513" lon="3.54797">
        <ele>108</ele>
        <time>2019-03-26T12:41:47.282Z</time>
      </trkpt>
      <trkpt lat="43.73506" lon="3.54797">
        <ele>108</ele>
        <time>2019-03-26T12:41:52.316Z</time>
      </trkpt>
      <trkpt lat="43.73501" lon="3.54797">
        <ele>108</ele>
        <time>2019-03-26T12:41:57.271Z</time>
      </trkpt>
      <trkpt lat="43.735" lon="3.54798">
        <ele>108</ele>
        <time>2019-03-26T12:42:01.286Z</time>
      </trkpt>
      <trkpt lat="43.73499" lon="3.54798">
        <ele>108</ele>
        <time>2019-03-26T12:42:06.264Z</time>
      </trkpt>
      <trkpt lat="43.73494" lon="3.54798">
        <ele>108</ele>
        <time>2019-03-26T12:42:10.271Z</time>
      </trkpt>
      <trkpt lat="43.73493" lon="3.54798">
        <ele>108</ele>
        <time>2019-03-26T12:42:14.282Z</time>
      </trkpt>
      <trkpt lat="43.73492" lon="3.54798">
        <ele>108</ele>
        <time>2019-03-26T12:42:29.286Z</time>
      </trkpt>
      <trkpt lat="43.73488" lon="3.548">
        <ele>108</ele>
        <time>2019-03-26T12:42:33.297Z</time>
      </trkpt>
      <trkpt lat="43.73483" lon="3.54801">
        <ele>108</ele>
        <time>2019-03-26T12:42:38.297Z</time>
      </trkpt>
      <trkpt lat="43.73478" lon="3.54804">
        <ele>108</ele>
        <time>2019-03-26T12:42:43.292Z</time>
      </trkpt>
      <trkpt lat="43.7347" lon="3.54806">
        <ele>108</ele>
        <time>2019-03-26T12:42:48.283Z</time>
      </trkpt>
      <trkpt lat="43.73461" lon="3.54805">
        <ele>108</ele>
        <time>2019-03-26T12:42:52.289Z</time>
      </trkpt>
      <trkpt lat="43.73456" lon="3.54809">
        <ele>108</ele>
        <time>2019-03-26T12:42:57.291Z</time>
      </trkpt>
      <trkpt lat="43.73452" lon="3.54817">
        <ele>108</ele>
        <time>2019-03-26T12:43:02.293Z</time>
      </trkpt>
      <trkpt lat="43.73448" lon="3.54821">
        <ele>109</ele>
        <time>2019-03-26T12:43:07.291Z</time>
      </trkpt>
      <trkpt lat="43.73445" lon="3.54826">
        <ele>109</ele>
        <time>2019-03-26T12:43:12.292Z</time>
      </trkpt>
      <trkpt lat="43.73442" lon="3.5483">
        <ele>109</ele>
        <time>2019-03-26T12:43:16.326Z</time>
      </trkpt>
      <trkpt lat="43.73437" lon="3.54834">
        <ele>109</ele>
        <time>2019-03-26T12:43:21.310Z</time>
      </trkpt>
      <trkpt lat="43.73429" lon="3.54839">
        <ele>108</ele>
        <time>2019-03-26T12:43:26.283Z</time>
      </trkpt>
      <trkpt lat="43.73421" lon="3.54838">
        <ele>108</ele>
        <time>2019-03-26T12:43:31.311Z</time>
      </trkpt>
      <trkpt lat="43.73418" lon="3.54843">
        <ele>108</ele>
        <time>2019-03-26T12:43:36.289Z</time>
      </trkpt>
      <trkpt lat="43.73415" lon="3.54848">
        <ele>110</ele>
        <time>2019-03-26T12:43:41.291Z</time>
      </trkpt>
      <trkpt lat="43.73411" lon="3.54851">
        <ele>110</ele>
        <time>2019-03-26T12:43:45.315Z</time>
      </trkpt>
      <trkpt lat="43.73409" lon="3.54861">
        <ele>110</ele>
        <time>2019-03-26T12:43:50.290Z</time>
      </trkpt>
      <trkpt lat="43.73406" lon="3.54867">
        <ele>110</ele>
        <time>2019-03-26T12:43:54.293Z</time>
      </trkpt>
      <trkpt lat="43.73401" lon="3.54871">
        <ele>107</ele>
        <time>2019-03-26T12:43:59.309Z</time>
      </trkpt>
      <trkpt lat="43.73395" lon="3.54876">
        <ele>109</ele>
        <time>2019-03-26T12:44:04.307Z</time>
      </trkpt>
      <trkpt lat="43.73391" lon="3.54877">
        <ele>109</ele>
        <time>2019-03-26T12:44:09.287Z</time>
      </trkpt>
      <trkpt lat="43.7339" lon="3.54876">
        <ele>109</ele>
        <time>2019-03-26T12:44:14.281Z</time>
      </trkpt>
      <trkpt lat="43.73383" lon="3.54899">
        <ele>109</ele>
        <time>2019-03-26T12:44:33.286Z</time>
      </trkpt>
      <trkpt lat="43.73384" lon="3.54914">
        <ele>108</ele>
        <time>2019-03-26T12:44:37.313Z</time>
      </trkpt>
      <trkpt lat="43.73392" lon="3.54918">
        <ele>108</ele>
        <time>2019-03-26T12:44:42.294Z</time>
      </trkpt>
      <trkpt lat="43.73391" lon="3.54926">
        <ele>108</ele>
        <time>2019-03-26T12:44:47.284Z</time>
      </trkpt>
      <trkpt lat="43.73394" lon="3.54935">
        <ele>108</ele>
        <time>2019-03-26T12:44:51.312Z</time>
      </trkpt>
      <trkpt lat="43.73397" lon="3.54944">
        <ele>108</ele>
        <time>2019-03-26T12:44:56.289Z</time>
      </trkpt>
      <trkpt lat="43.73399" lon="3.54949">
        <ele>108</ele>
        <time>2019-03-26T12:45:00.314Z</time>
      </trkpt>
      <trkpt lat="43.73399" lon="3.54954">
        <ele>108</ele>
        <time>2019-03-26T12:45:05.283Z</time>
      </trkpt>
      <trkpt lat="43.73399" lon="3.54955">
        <ele>108</ele>
        <time>2019-03-26T12:45:09.326Z</time>
      </trkpt>
      <trkpt lat="43.73392" lon="3.54957">
        <ele>108</ele>
        <time>2019-03-26T12:45:14.313Z</time>
      </trkpt>
      <trkpt lat="43.73386" lon="3.54961">
        <ele>109</ele>
        <time>2019-03-26T12:45:19.285Z</time>
      </trkpt>
      <trkpt lat="43.73383" lon="3.54969">
        <ele>109</ele>
        <time>2019-03-26T12:45:24.286Z</time>
      </trkpt>
      <trkpt lat="43.73381" lon="3.54979">
        <ele>109</ele>
        <time>2019-03-26T12:45:28.319Z</time>
      </trkpt>
      <trkpt lat="43.73379" lon="3.54985">
        <ele>109</ele>
        <time>2019-03-26T12:45:33.288Z</time>
      </trkpt>
      <trkpt lat="43.73377" lon="3.54989">
        <ele>110</ele>
        <time>2019-03-26T12:45:37.288Z</time>
      </trkpt>
      <trkpt lat="43.73381" lon="3.55002">
        <ele>110</ele>
        <time>2019-03-26T12:45:42.324Z</time>
      </trkpt>
      <trkpt lat="43.73377" lon="3.55014">
        <ele>110</ele>
        <time>2019-03-26T12:45:47.291Z</time>
      </trkpt>
      <trkpt lat="43.73379" lon="3.55025">
        <ele>108</ele>
        <time>2019-03-26T12:45:52.290Z</time>
      </trkpt>
      <trkpt lat="43.73385" lon="3.55032">
        <ele>108</ele>
        <time>2019-03-26T12:45:57.289Z</time>
      </trkpt>
      <trkpt lat="43.73395" lon="3.55038">
        <ele>108</ele>
        <time>2019-03-26T12:46:02.283Z</time>
      </trkpt>
      <trkpt lat="43.73401" lon="3.55043">
        <ele>106</ele>
        <time>2019-03-26T12:46:06.295Z</time>
      </trkpt>
      <trkpt lat="43.73399" lon="3.5505">
        <ele>106</ele>
        <time>2019-03-26T12:46:11.296Z</time>
      </trkpt>
      <trkpt lat="43.73398" lon="3.55055">
        <ele>106</ele>
        <time>2019-03-26T12:46:16.290Z</time>
      </trkpt>
      <trkpt lat="43.73398" lon="3.55059">
        <ele>106</ele>
        <time>2019-03-26T12:46:20.303Z</time>
      </trkpt>
      <trkpt lat="43.73397" lon="3.55065">
        <ele>106</ele>
        <time>2019-03-26T12:46:25.283Z</time>
      </trkpt>
      <trkpt lat="43.73396" lon="3.55074">
        <ele>104</ele>
        <time>2019-03-26T12:46:30.291Z</time>
      </trkpt>
      <trkpt lat="43.7339" lon="3.55083">
        <ele>104</ele>
        <time>2019-03-26T12:46:35.281Z</time>
      </trkpt>
      <trkpt lat="43.73377" lon="3.5509">
        <ele>104</ele>
        <time>2019-03-26T12:46:40.313Z</time>
      </trkpt>
      <trkpt lat="43.7337" lon="3.551">
        <ele>95</ele>
        <time>2019-03-26T12:46:45.282Z</time>
      </trkpt>
      <trkpt lat="43.73372" lon="3.55105">
        <ele>95</ele>
        <time>2019-03-26T12:46:49.288Z</time>
      </trkpt>
      <trkpt lat="43.73381" lon="3.55111">
        <ele>102</ele>
        <time>2019-03-26T12:46:54.284Z</time>
      </trkpt>
      <trkpt lat="43.73387" lon="3.55117">
        <ele>102</ele>
        <time>2019-03-26T12:46:59.322Z</time>
      </trkpt>
      <trkpt lat="43.73385" lon="3.55127">
        <ele>98</ele>
        <time>2019-03-26T12:47:04.285Z</time>
      </trkpt>
      <trkpt lat="43.73381" lon="3.55136">
        <ele>98</ele>
        <time>2019-03-26T12:47:09.285Z</time>
      </trkpt>
      <trkpt lat="43.73381" lon="3.55143">
        <ele>98</ele>
        <time>2019-03-26T12:47:14.289Z</time>
      </trkpt>
      <trkpt lat="43.73384" lon="3.55149">
        <ele>98</ele>
        <time>2019-03-26T12:47:19.293Z</time>
      </trkpt>
      <trkpt lat="43.73387" lon="3.55157">
        <ele>97</ele>
        <time>2019-03-26T12:47:24.293Z</time>
      </trkpt>
      <trkpt lat="43.73389" lon="3.55162">
        <ele>97</ele>
        <time>2019-03-26T12:47:29.292Z</time>
      </trkpt>
      <trkpt lat="43.73391" lon="3.55167">
        <ele>97</ele>
        <time>2019-03-26T12:47:33.289Z</time>
      </trkpt>
      <trkpt lat="43.73396" lon="3.55178">
        <ele>97</ele>
        <time>2019-03-26T12:47:38.285Z</time>
      </trkpt>
      <trkpt lat="43.73389" lon="3.55187">
        <ele>96</ele>
        <time>2019-03-26T12:47:43.290Z</time>
      </trkpt>
      <trkpt lat="43.73386" lon="3.55196">
        <ele>96</ele>
        <time>2019-03-26T12:47:48.310Z</time>
      </trkpt>
      <trkpt lat="43.73381" lon="3.55205">
        <ele>96</ele>
        <time>2019-03-26T12:47:53.289Z</time>
      </trkpt>
      <trkpt lat="43.73379" lon="3.55207">
        <ele>96</ele>
        <time>2019-03-26T12:47:57.290Z</time>
      </trkpt>
      <trkpt lat="43.73376" lon="3.55217">
        <ele>96</ele>
        <time>2019-03-26T12:48:02.284Z</time>
      </trkpt>
      <trkpt lat="43.73374" lon="3.55223">
        <ele>90</ele>
        <time>2019-03-26T12:48:06.287Z</time>
      </trkpt>
      <trkpt lat="43.73372" lon="3.55229">
        <ele>90</ele>
        <time>2019-03-26T12:48:10.295Z</time>
      </trkpt>
      <trkpt lat="43.73369" lon="3.55237">
        <ele>92</ele>
        <time>2019-03-26T12:48:15.314Z</time>
      </trkpt>
      <trkpt lat="43.73366" lon="3.55246">
        <ele>92</ele>
        <time>2019-03-26T12:48:20.284Z</time>
      </trkpt>
      <trkpt lat="43.73363" lon="3.55252">
        <ele>92</ele>
        <time>2019-03-26T12:48:25.287Z</time>
      </trkpt>
      <trkpt lat="43.73361" lon="3.55259">
        <ele>92</ele>
        <time>2019-03-26T12:48:30.318Z</time>
      </trkpt>
      <trkpt lat="43.73357" lon="3.55265">
        <ele>93</ele>
        <time>2019-03-26T12:48:35.317Z</time>
      </trkpt>
      <trkpt lat="43.73354" lon="3.55269">
        <ele>93</ele>
        <time>2019-03-26T12:48:40.287Z</time>
      </trkpt>
      <trkpt lat="43.73349" lon="3.55277">
        <ele>93</ele>
        <time>2019-03-26T12:48:45.297Z</time>
      </trkpt>
      <trkpt lat="43.73343" lon="3.55287">
        <ele>93</ele>
        <time>2019-03-26T12:48:50.291Z</time>
      </trkpt>
      <trkpt lat="43.73338" lon="3.55295">
        <ele>91</ele>
        <time>2019-03-26T12:48:55.290Z</time>
      </trkpt>
      <trkpt lat="43.73335" lon="3.55306">
        <ele>91</ele>
        <time>2019-03-26T12:49:00.281Z</time>
      </trkpt>
      <trkpt lat="43.73331" lon="3.5531">
        <ele>91</ele>
        <time>2019-03-26T12:49:04.319Z</time>
      </trkpt>
      <trkpt lat="43.73329" lon="3.55315">
        <ele>91</ele>
        <time>2019-03-26T12:49:09.324Z</time>
      </trkpt>
      <trkpt lat="43.73327" lon="3.5532">
        <ele>89</ele>
        <time>2019-03-26T12:49:14.319Z</time>
      </trkpt>
      <trkpt lat="43.73323" lon="3.55324">
        <ele>89</ele>
        <time>2019-03-26T12:49:19.293Z</time>
      </trkpt>
      <trkpt lat="43.73319" lon="3.55328">
        <ele>89</ele>
        <time>2019-03-26T12:49:24.313Z</time>
      </trkpt>
      <trkpt lat="43.73317" lon="3.55335">
        <ele>89</ele>
        <time>2019-03-26T12:49:29.289Z</time>
      </trkpt>
      <trkpt lat="43.73318" lon="3.55344">
        <ele>89</ele>
        <time>2019-03-26T12:49:34.290Z</time>
      </trkpt>
      <trkpt lat="43.73319" lon="3.55352">
        <ele>86</ele>
        <time>2019-03-26T12:49:39.287Z</time>
      </trkpt>
      <trkpt lat="43.73322" lon="3.55361">
        <ele>87</ele>
        <time>2019-03-26T12:49:43.291Z</time>
      </trkpt>
      <trkpt lat="43.73316" lon="3.55371">
        <ele>86</ele>
        <time>2019-03-26T12:49:48.296Z</time>
      </trkpt>
      <trkpt lat="43.73308" lon="3.55369">
        <ele>86</ele>
        <time>2019-03-26T12:49:53.292Z</time>
      </trkpt>
      <trkpt lat="43.73304" lon="3.55369">
        <ele>86</ele>
        <time>2019-03-26T12:49:57.318Z</time>
      </trkpt>
      <trkpt lat="43.73298" lon="3.5537">
        <ele>86</ele>
        <time>2019-03-26T12:50:02.316Z</time>
      </trkpt>
      <trkpt lat="43.73288" lon="3.55372">
        <ele>84</ele>
        <time>2019-03-26T12:50:07.334Z</time>
      </trkpt>
      <trkpt lat="43.73281" lon="3.55371">
        <ele>84</ele>
        <time>2019-03-26T12:50:12.315Z</time>
      </trkpt>
      <trkpt lat="43.73277" lon="3.55371">
        <ele>84</ele>
        <time>2019-03-26T12:50:17.286Z</time>
      </trkpt>
      <trkpt lat="43.73272" lon="3.5537">
        <ele>84</ele>
        <time>2019-03-26T12:50:21.292Z</time>
      </trkpt>
      <trkpt lat="43.73266" lon="3.55368">
        <ele>84</ele>
        <time>2019-03-26T12:50:26.282Z</time>
      </trkpt>
      <trkpt lat="43.73262" lon="3.55365">
        <ele>82</ele>
        <time>2019-03-26T12:50:31.286Z</time>
      </trkpt>
      <trkpt lat="43.73258" lon="3.55362">
        <ele>82</ele>
        <time>2019-03-26T12:50:36.286Z</time>
      </trkpt>
      <trkpt lat="43.73255" lon="3.5536">
        <ele>82</ele>
        <time>2019-03-26T12:50:40.298Z</time>
      </trkpt>
      <trkpt lat="43.73254" lon="3.55358">
        <ele>82</ele>
        <time>2019-03-26T12:50:59.280Z</time>
      </trkpt>
      <trkpt lat="43.7325" lon="3.55358">
        <ele>82</ele>
        <time>2019-03-26T12:51:03.302Z</time>
      </trkpt>
      <trkpt lat="43.73245" lon="3.55355">
        <ele>82</ele>
        <time>2019-03-26T12:51:08.290Z</time>
      </trkpt>
      <trkpt lat="43.7324" lon="3.55353">
        <ele>82</ele>
        <time>2019-03-26T12:51:13.266Z</time>
      </trkpt>
      <trkpt lat="43.73235" lon="3.55351">
        <ele>78</ele>
        <time>2019-03-26T12:51:17.283Z</time>
      </trkpt>
      <trkpt lat="43.7323" lon="3.55349">
        <ele>78</ele>
        <time>2019-03-26T12:51:22.280Z</time>
      </trkpt>
      <trkpt lat="43.73228" lon="3.55347">
        <ele>84</ele>
        <time>2019-03-26T12:51:26.291Z</time>
      </trkpt>
      <trkpt lat="43.73225" lon="3.55344">
        <ele>84</ele>
        <time>2019-03-26T12:51:31.301Z</time>
      </trkpt>
      <trkpt lat="43.7322" lon="3.55339">
        <ele>84</ele>
        <time>2019-03-26T12:51:36.310Z</time>
      </trkpt>
      <trkpt lat="43.73214" lon="3.55334">
        <ele>84</ele>
        <time>2019-03-26T12:51:41.287Z</time>
      </trkpt>
      <trkpt lat="43.73207" lon="3.5533">
        <ele>82</ele>
        <time>2019-03-26T12:51:46.288Z</time>
      </trkpt>
      <trkpt lat="43.73199" lon="3.55327">
        <ele>82</ele>
        <time>2019-03-26T12:51:51.288Z</time>
      </trkpt>
      <trkpt lat="43.73192" lon="3.55324">
        <ele>82</ele>
        <time>2019-03-26T12:51:56.286Z</time>
      </trkpt>
      <trkpt lat="43.73186" lon="3.55321">
        <ele>82</ele>
        <time>2019-03-26T12:52:01.289Z</time>
      </trkpt>
      <trkpt lat="43.7318" lon="3.55318">
        <ele>86</ele>
        <time>2019-03-26T12:52:06.297Z</time>
      </trkpt>
      <trkpt lat="43.73174" lon="3.55315">
        <ele>86</ele>
        <time>2019-03-26T12:52:11.289Z</time>
      </trkpt>
      <trkpt lat="43.73168" lon="3.55313">
        <ele>86</ele>
        <time>2019-03-26T12:52:16.286Z</time>
      </trkpt>
      <trkpt lat="43.73162" lon="3.5531">
        <ele>86</ele>
        <time>2019-03-26T12:52:21.285Z</time>
      </trkpt>
      <trkpt lat="43.73157" lon="3.55307">
        <ele>86</ele>
        <time>2019-03-26T12:52:26.279Z</time>
      </trkpt>
      <trkpt lat="43.73152" lon="3.55305">
        <ele>81</ele>
        <time>2019-03-26T12:52:30.280Z</time>
      </trkpt>
      <trkpt lat="43.73146" lon="3.55304">
        <ele>81</ele>
        <time>2019-03-26T12:52:35.281Z</time>
      </trkpt>
      <trkpt lat="43.73141" lon="3.55304">
        <ele>81</ele>
        <time>2019-03-26T12:52:39.288Z</time>
      </trkpt>
      <trkpt lat="43.73136" lon="3.55302">
        <ele>81</ele>
        <time>2019-03-26T12:52:44.283Z</time>
      </trkpt>
      <trkpt lat="43.73132" lon="3.55299">
        <ele>81</ele>
        <time>2019-03-26T12:52:49.288Z</time>
      </trkpt>
      <trkpt lat="43.73129" lon="3.55296">
        <ele>81</ele>
        <time>2019-03-26T12:52:53.300Z</time>
      </trkpt>
      <trkpt lat="43.73122" lon="3.55294">
        <ele>79</ele>
        <time>2019-03-26T12:52:58.290Z</time>
      </trkpt>
      <trkpt lat="43.73115" lon="3.55296">
        <ele>79</ele>
        <time>2019-03-26T12:53:03.286Z</time>
      </trkpt>
      <trkpt lat="43.73108" lon="3.55295">
        <ele>79</ele>
        <time>2019-03-26T12:53:08.284Z</time>
      </trkpt>
      <trkpt lat="43.73102" lon="3.55295">
        <ele>79</ele>
        <time>2019-03-26T12:53:13.293Z</time>
      </trkpt>
      <trkpt lat="43.73097" lon="3.55294">
        <ele>75</ele>
        <time>2019-03-26T12:53:18.294Z</time>
      </trkpt>
      <trkpt lat="43.73091" lon="3.55291">
        <ele>82</ele>
        <time>2019-03-26T12:53:23.284Z</time>
      </trkpt>
      <trkpt lat="43.73086" lon="3.55288">
        <ele>82</ele>
        <time>2019-03-26T12:53:28.290Z</time>
      </trkpt>
      <trkpt lat="43.7308" lon="3.55285">
        <ele>82</ele>
        <time>2019-03-26T12:53:33.293Z</time>
      </trkpt>
      <trkpt lat="43.73076" lon="3.55282">
        <ele>82</ele>
        <time>2019-03-26T12:53:37.311Z</time>
      </trkpt>
      <trkpt lat="43.73071" lon="3.5528">
        <ele>82</ele>
        <time>2019-03-26T12:53:42.296Z</time>
      </trkpt>
      <trkpt lat="43.73063" lon="3.55277">
        <ele>77</ele>
        <time>2019-03-26T12:53:47.280Z</time>
      </trkpt>
      <trkpt lat="43.73057" lon="3.55275">
        <ele>77</ele>
        <time>2019-03-26T12:53:51.283Z</time>
      </trkpt>
      <trkpt lat="43.73052" lon="3.55274">
        <ele>77</ele>
        <time>2019-03-26T12:53:55.291Z</time>
      </trkpt>
      <trkpt lat="43.73045" lon="3.5527">
        <ele>77</ele>
        <time>2019-03-26T12:54:00.311Z</time>
      </trkpt>
      <trkpt lat="43.73037" lon="3.55268">
        <ele>74</ele>
        <time>2019-03-26T12:54:05.289Z</time>
      </trkpt>
      <trkpt lat="43.7303" lon="3.55264">
        <ele>74</ele>
        <time>2019-03-26T12:54:10.313Z</time>
      </trkpt>
      <trkpt lat="43.73023" lon="3.55261">
        <ele>81</ele>
        <time>2019-03-26T12:54:15.317Z</time>
      </trkpt>
      <trkpt lat="43.73018" lon="3.5526">
        <ele>81</ele>
        <time>2019-03-26T12:54:20.321Z</time>
      </trkpt>
      <trkpt lat="43.73015" lon="3.5526">
        <ele>81</ele>
        <time>2019-03-26T12:54:25.312Z</time>
      </trkpt>
      <trkpt lat="43.73009" lon="3.5526">
        <ele>77</ele>
        <time>2019-03-26T12:54:30.290Z</time>
      </trkpt>
      <trkpt lat="43.73003" lon="3.55256">
        <ele>77</ele>
        <time>2019-03-26T12:54:35.282Z</time>
      </trkpt>
      <trkpt lat="43.72997" lon="3.55254">
        <ele>77</ele>
        <time>2019-03-26T12:54:40.288Z</time>
      </trkpt>
      <trkpt lat="43.72991" lon="3.55252">
        <ele>77</ele>
        <time>2019-03-26T12:54:45.286Z</time>
      </trkpt>
      <trkpt lat="43.72989" lon="3.5525">
        <ele>77</ele>
        <time>2019-03-26T12:54:49.318Z</time>
      </trkpt>
      <trkpt lat="43.72989" lon="3.5525">
        <ele>77</ele>
        <time>2019-03-26T12:54:54.286Z</time>
      </trkpt>
      <trkpt lat="43.72987" lon="3.55248">
        <ele>77</ele>
        <time>2019-03-26T12:54:58.290Z</time>
      </trkpt>
      <trkpt lat="43.72981" lon="3.55245">
        <ele>74</ele>
        <time>2019-03-26T12:55:08.290Z</time>
      </trkpt>
      <trkpt lat="43.72978" lon="3.55242">
        <ele>74</ele>
        <time>2019-03-26T12:55:12.296Z</time>
      </trkpt>
      <trkpt lat="43.72971" lon="3.55239">
        <ele>74</ele>
        <time>2019-03-26T12:55:17.279Z</time>
      </trkpt>
      <trkpt lat="43.72966" lon="3.55236">
        <ele>79</ele>
        <time>2019-03-26T12:55:21.309Z</time>
      </trkpt>
      <trkpt lat="43.7296" lon="3.55232">
        <ele>79</ele>
        <time>2019-03-26T12:55:26.311Z</time>
      </trkpt>
      <trkpt lat="43.72953" lon="3.55228">
        <ele>73</ele>
        <time>2019-03-26T12:55:31.291Z</time>
      </trkpt>
      <trkpt lat="43.72949" lon="3.55224">
        <ele>73</ele>
        <time>2019-03-26T12:55:35.321Z</time>
      </trkpt>
      <trkpt lat="43.72946" lon="3.5522">
        <ele>73</ele>
        <time>2019-03-26T12:55:40.297Z</time>
      </trkpt>
      <trkpt lat="43.72942" lon="3.55215">
        <ele>73</ele>
        <time>2019-03-26T12:55:45.281Z</time>
      </trkpt>
      <trkpt lat="43.72939" lon="3.55211">
        <ele>73</ele>
        <time>2019-03-26T12:55:49.291Z</time>
      </trkpt>
      <trkpt lat="43.72935" lon="3.55207">
        <ele>79</ele>
        <time>2019-03-26T12:55:53.291Z</time>
      </trkpt>
      <trkpt lat="43.72929" lon="3.55202">
        <ele>75</ele>
        <time>2019-03-26T12:55:58.262Z</time>
      </trkpt>
      <trkpt lat="43.72923" lon="3.55198">
        <ele>75</ele>
        <time>2019-03-26T12:56:02.296Z</time>
      </trkpt>
      <trkpt lat="43.72918" lon="3.55192">
        <ele>75</ele>
        <time>2019-03-26T12:56:07.284Z</time>
      </trkpt>
      <trkpt lat="43.7291" lon="3.55188">
        <ele>75</ele>
        <time>2019-03-26T12:56:12.297Z</time>
      </trkpt>
      <trkpt lat="43.72904" lon="3.55185">
        <ele>75</ele>
        <time>2019-03-26T12:56:17.289Z</time>
      </trkpt>
      <trkpt lat="43.72897" lon="3.5518">
        <ele>77</ele>
        <time>2019-03-26T12:56:22.289Z</time>
      </trkpt>
      <trkpt lat="43.72893" lon="3.55176">
        <ele>77</ele>
        <time>2019-03-26T12:56:26.284Z</time>
      </trkpt>
      <trkpt lat="43.72888" lon="3.55171">
        <ele>77</ele>
        <time>2019-03-26T12:56:31.281Z</time>
      </trkpt>
      <trkpt lat="43.72883" lon="3.55166">
        <ele>77</ele>
        <time>2019-03-26T12:56:36.294Z</time>
      </trkpt>
      <trkpt lat="43.72879" lon="3.55161">
        <ele>77</ele>
        <time>2019-03-26T12:56:40.312Z</time>
      </trkpt>
      <trkpt lat="43.72875" lon="3.55154">
        <ele>69</ele>
        <time>2019-03-26T12:56:45.289Z</time>
      </trkpt>
      <trkpt lat="43.72874" lon="3.55148">
        <ele>77</ele>
        <time>2019-03-26T12:56:50.296Z</time>
      </trkpt>
      <trkpt lat="43.7287" lon="3.55144">
        <ele>77</ele>
        <time>2019-03-26T12:56:55.288Z</time>
      </trkpt>
      <trkpt lat="43.72866" lon="3.55139">
        <ele>77</ele>
        <time>2019-03-26T12:56:59.330Z</time>
      </trkpt>
      <trkpt lat="43.7286" lon="3.55134">
        <ele>77</ele>
        <time>2019-03-26T12:57:04.296Z</time>
      </trkpt>
      <trkpt lat="43.72856" lon="3.55128">
        <ele>77</ele>
        <time>2019-03-26T12:57:09.286Z</time>
      </trkpt>
      <trkpt lat="43.72852" lon="3.55125">
        <ele>87</ele>
        <time>2019-03-26T12:57:13.310Z</time>
      </trkpt>
      <trkpt lat="43.72849" lon="3.5512">
        <ele>87</ele>
        <time>2019-03-26T12:57:18.281Z</time>
      </trkpt>
      <trkpt lat="43.72847" lon="3.55116">
        <ele>87</ele>
        <time>2019-03-26T12:57:22.293Z</time>
      </trkpt>
      <trkpt lat="43.72845" lon="3.55113">
        <ele>79</ele>
        <time>2019-03-26T12:57:26.317Z</time>
      </trkpt>
      <trkpt lat="43.72839" lon="3.5511">
        <ele>79</ele>
        <time>2019-03-26T12:57:31.291Z</time>
      </trkpt>
      <trkpt lat="43.72833" lon="3.55106">
        <ele>79</ele>
        <time>2019-03-26T12:57:36.291Z</time>
      </trkpt>
      <trkpt lat="43.72826" lon="3.551">
        <ele>79</ele>
        <time>2019-03-26T12:57:41.281Z</time>
      </trkpt>
      <trkpt lat="43.72822" lon="3.55097">
        <ele>87</ele>
        <time>2019-03-26T12:57:45.296Z</time>
      </trkpt>
      <trkpt lat="43.72816" lon="3.55095">
        <ele>77</ele>
        <time>2019-03-26T12:57:50.283Z</time>
      </trkpt>
      <trkpt lat="43.7281" lon="3.55094">
        <ele>77</ele>
        <time>2019-03-26T12:57:55.286Z</time>
      </trkpt>
      <trkpt lat="43.72806" lon="3.55091">
        <ele>77</ele>
        <time>2019-03-26T12:57:59.306Z</time>
      </trkpt>
      <trkpt lat="43.728" lon="3.55088">
        <ele>77</ele>
        <time>2019-03-26T12:58:04.283Z</time>
      </trkpt>
      <trkpt lat="43.72795" lon="3.55081">
        <ele>77</ele>
        <time>2019-03-26T12:58:09.317Z</time>
      </trkpt>
      <trkpt lat="43.7279" lon="3.55077">
        <ele>69</ele>
        <time>2019-03-26T12:58:14.322Z</time>
      </trkpt>
      <trkpt lat="43.72784" lon="3.55073">
        <ele>69</ele>
        <time>2019-03-26T12:58:19.286Z</time>
      </trkpt>
      <trkpt lat="43.7278" lon="3.55068">
        <ele>77</ele>
        <time>2019-03-26T12:58:23.287Z</time>
      </trkpt>
      <trkpt lat="43.72774" lon="3.55065">
        <ele>77</ele>
        <time>2019-03-26T12:58:28.312Z</time>
      </trkpt>
      <trkpt lat="43.72768" lon="3.5506">
        <ele>77</ele>
        <time>2019-03-26T12:58:33.284Z</time>
      </trkpt>
      <trkpt lat="43.72764" lon="3.55056">
        <ele>77</ele>
        <time>2019-03-26T12:58:37.296Z</time>
      </trkpt>
      <trkpt lat="43.7276" lon="3.55051">
        <ele>72</ele>
        <time>2019-03-26T12:58:42.286Z</time>
      </trkpt>
      <trkpt lat="43.72757" lon="3.55048">
        <ele>72</ele>
        <time>2019-03-26T12:58:47.288Z</time>
      </trkpt>
      <trkpt lat="43.72752" lon="3.55046">
        <ele>72</ele>
        <time>2019-03-26T12:58:52.285Z</time>
      </trkpt>
      <trkpt lat="43.72747" lon="3.55043">
        <ele>72</ele>
        <time>2019-03-26T12:58:56.290Z</time>
      </trkpt>
      <trkpt lat="43.72742" lon="3.55038">
        <ele>83</ele>
        <time>2019-03-26T12:59:01.290Z</time>
      </trkpt>
      <trkpt lat="43.72736" lon="3.55036">
        <ele>85</ele>
        <time>2019-03-26T12:59:06.278Z</time>
      </trkpt>
      <trkpt lat="43.72731" lon="3.55033">
        <ele>85</ele>
        <time>2019-03-26T12:59:10.291Z</time>
      </trkpt>
      <trkpt lat="43.72725" lon="3.55031">
        <ele>85</ele>
        <time>2019-03-26T12:59:15.291Z</time>
      </trkpt>
      <trkpt lat="43.7272" lon="3.55029">
        <ele>85</ele>
        <time>2019-03-26T12:59:20.291Z</time>
      </trkpt>
      <trkpt lat="43.72714" lon="3.55027">
        <ele>85</ele>
        <time>2019-03-26T12:59:25.284Z</time>
      </trkpt>
      <trkpt lat="43.72711" lon="3.55025">
        <ele>85</ele>
        <time>2019-03-26T12:59:29.294Z</time>
      </trkpt>
      <trkpt lat="43.72703" lon="3.55022">
        <ele>75</ele>
        <time>2019-03-26T12:59:34.290Z</time>
      </trkpt>
      <trkpt lat="43.72698" lon="3.55022">
        <ele>75</ele>
        <time>2019-03-26T12:59:38.314Z</time>
      </trkpt>
      <trkpt lat="43.72693" lon="3.55019">
        <ele>75</ele>
        <time>2019-03-26T12:59:43.290Z</time>
      </trkpt>
      <trkpt lat="43.72689" lon="3.5502">
        <ele>75</ele>
        <time>2019-03-26T12:59:48.281Z</time>
      </trkpt>
      <trkpt lat="43.72683" lon="3.5502">
        <ele>75</ele>
        <time>2019-03-26T12:59:52.291Z</time>
      </trkpt>
      <trkpt lat="43.72678" lon="3.55018">
        <ele>66</ele>
        <time>2019-03-26T12:59:57.290Z</time>
      </trkpt>
      <trkpt lat="43.72677" lon="3.55018">
        <ele>66</ele>
        <time>2019-03-26T13:00:02.288Z</time>
      </trkpt>
      <trkpt lat="43.72677" lon="3.55017">
        <ele>66</ele>
        <time>2019-03-26T13:00:07.283Z</time>
      </trkpt>
      <trkpt lat="43.72672" lon="3.55015">
        <ele>66</ele>
        <time>2019-03-26T13:00:11.289Z</time>
      </trkpt>
      <trkpt lat="43.72666" lon="3.55013">
        <ele>77</ele>
        <time>2019-03-26T13:00:16.313Z</time>
      </trkpt>
      <trkpt lat="43.72659" lon="3.55012">
        <ele>77</ele>
        <time>2019-03-26T13:00:21.290Z</time>
      </trkpt>
      <trkpt lat="43.72652" lon="3.55008">
        <ele>69</ele>
        <time>2019-03-26T13:00:26.284Z</time>
      </trkpt>
      <trkpt lat="43.72646" lon="3.55006">
        <ele>69</ele>
        <time>2019-03-26T13:00:30.322Z</time>
      </trkpt>
      <trkpt lat="43.72641" lon="3.55006">
        <ele>69</ele>
        <time>2019-03-26T13:00:35.285Z</time>
      </trkpt>
      <trkpt lat="43.72637" lon="3.55005">
        <ele>69</ele>
        <time>2019-03-26T13:00:39.286Z</time>
      </trkpt>
      <trkpt lat="43.72633" lon="3.55005">
        <ele>69</ele>
        <time>2019-03-26T13:00:44.285Z</time>
      </trkpt>
      <trkpt lat="43.72627" lon="3.55007">
        <ele>69</ele>
        <time>2019-03-26T13:00:48.321Z</time>
      </trkpt>
      <trkpt lat="43.7262" lon="3.55009">
        <ele>67</ele>
        <time>2019-03-26T13:00:53.285Z</time>
      </trkpt>
      <trkpt lat="43.72614" lon="3.5501">
        <ele>67</ele>
        <time>2019-03-26T13:00:58.292Z</time>
      </trkpt>
      <trkpt lat="43.72608" lon="3.55009">
        <ele>67</ele>
        <time>2019-03-26T13:01:03.299Z</time>
      </trkpt>
      <trkpt lat="43.72603" lon="3.55011">
        <ele>67</ele>
        <time>2019-03-26T13:01:08.288Z</time>
      </trkpt>
      <trkpt lat="43.72596" lon="3.55011">
        <ele>69</ele>
        <time>2019-03-26T13:01:13.284Z</time>
      </trkpt>
      <trkpt lat="43.72593" lon="3.5501">
        <ele>69</ele>
        <time>2019-03-26T13:01:17.309Z</time>
      </trkpt>
      <trkpt lat="43.72589" lon="3.5501">
        <ele>69</ele>
        <time>2019-03-26T13:01:22.282Z</time>
      </trkpt>
      <trkpt lat="43.72583" lon="3.55012">
        <ele>69</ele>
        <time>2019-03-26T13:01:27.284Z</time>
      </trkpt>
      <trkpt lat="43.72577" lon="3.55014">
        <ele>62</ele>
        <time>2019-03-26T13:01:32.287Z</time>
      </trkpt>
      <trkpt lat="43.7257" lon="3.55018">
        <ele>62</ele>
        <time>2019-03-26T13:01:37.281Z</time>
      </trkpt>
      <trkpt lat="43.72564" lon="3.55019">
        <ele>64</ele>
        <time>2019-03-26T13:01:42.291Z</time>
      </trkpt>
      <trkpt lat="43.72558" lon="3.5502">
        <ele>64</ele>
        <time>2019-03-26T13:01:47.316Z</time>
      </trkpt>
      <trkpt lat="43.72552" lon="3.55021">
        <ele>64</ele>
        <time>2019-03-26T13:01:52.284Z</time>
      </trkpt>
      <trkpt lat="43.72547" lon="3.55023">
        <ele>64</ele>
        <time>2019-03-26T13:01:57.283Z</time>
      </trkpt>
      <trkpt lat="43.72541" lon="3.55026">
        <ele>67</ele>
        <time>2019-03-26T13:02:02.285Z</time>
      </trkpt>
      <trkpt lat="43.72534" lon="3.55026">
        <ele>67</ele>
        <time>2019-03-26T13:02:07.309Z</time>
      </trkpt>
      <trkpt lat="43.72529" lon="3.55025">
        <ele>67</ele>
        <time>2019-03-26T13:02:12.288Z</time>
      </trkpt>
      <trkpt lat="43.72524" lon="3.55024">
        <ele>67</ele>
        <time>2019-03-26T13:02:17.283Z</time>
      </trkpt>
      <trkpt lat="43.72519" lon="3.55024">
        <ele>67</ele>
        <time>2019-03-26T13:02:21.293Z</time>
      </trkpt>
      <trkpt lat="43.72512" lon="3.55026">
        <ele>69</ele>
        <time>2019-03-26T13:02:26.290Z</time>
      </trkpt>
      <trkpt lat="43.72507" lon="3.55028">
        <ele>69</ele>
        <time>2019-03-26T13:02:30.311Z</time>
      </trkpt>
      <trkpt lat="43.72501" lon="3.5503">
        <ele>69</ele>
        <time>2019-03-26T13:02:35.311Z</time>
      </trkpt>
      <trkpt lat="43.72493" lon="3.55032">
        <ele>69</ele>
        <time>2019-03-26T13:02:40.289Z</time>
      </trkpt>
      <trkpt lat="43.72487" lon="3.55032">
        <ele>69</ele>
        <time>2019-03-26T13:02:45.290Z</time>
      </trkpt>
      <trkpt lat="43.7248" lon="3.55033">
        <ele>70</ele>
        <time>2019-03-26T13:02:50.291Z</time>
      </trkpt>
      <trkpt lat="43.72476" lon="3.55034">
        <ele>70</ele>
        <time>2019-03-26T13:02:55.290Z</time>
      </trkpt>
      <trkpt lat="43.7247" lon="3.55035">
        <ele>70</ele>
        <time>2019-03-26T13:03:00.287Z</time>
      </trkpt>
      <trkpt lat="43.72465" lon="3.55034">
        <ele>70</ele>
        <time>2019-03-26T13:03:05.285Z</time>
      </trkpt>
      <trkpt lat="43.72459" lon="3.55035">
        <ele>70</ele>
        <time>2019-03-26T13:03:10.283Z</time>
      </trkpt>
      <trkpt lat="43.72453" lon="3.55037">
        <ele>69</ele>
        <time>2019-03-26T13:03:15.278Z</time>
      </trkpt>
      <trkpt lat="43.7245" lon="3.55038">
        <ele>69</ele>
        <time>2019-03-26T13:03:19.300Z</time>
      </trkpt>
      <trkpt lat="43.72444" lon="3.55046">
        <ele>65</ele>
        <time>2019-03-26T13:03:24.289Z</time>
      </trkpt>
      <trkpt lat="43.72438" lon="3.55048">
        <ele>65</ele>
        <time>2019-03-26T13:03:28.319Z</time>
      </trkpt>
      <trkpt lat="43.72431" lon="3.55051">
        <ele>65</ele>
        <time>2019-03-26T13:03:33.321Z</time>
      </trkpt>
      <trkpt lat="43.72426" lon="3.55055">
        <ele>68</ele>
        <time>2019-03-26T13:03:38.303Z</time>
      </trkpt>
      <trkpt lat="43.72421" lon="3.5506">
        <ele>68</ele>
        <time>2019-03-26T13:03:43.306Z</time>
      </trkpt>
      <trkpt lat="43.72415" lon="3.55065">
        <ele>68</ele>
        <time>2019-03-26T13:03:48.288Z</time>
      </trkpt>
      <trkpt lat="43.7241" lon="3.55071">
        <ele>64</ele>
        <time>2019-03-26T13:03:53.288Z</time>
      </trkpt>
      <trkpt lat="43.72406" lon="3.55076">
        <ele>64</ele>
        <time>2019-03-26T13:03:57.289Z</time>
      </trkpt>
      <trkpt lat="43.72401" lon="3.55083">
        <ele>72</ele>
        <time>2019-03-26T13:04:02.295Z</time>
      </trkpt>
      <trkpt lat="43.72398" lon="3.55089">
        <ele>72</ele>
        <time>2019-03-26T13:04:06.288Z</time>
      </trkpt>
      <trkpt lat="43.72393" lon="3.55097">
        <ele>72</ele>
        <time>2019-03-26T13:04:11.324Z</time>
      </trkpt>
      <trkpt lat="43.72389" lon="3.55105">
        <ele>68</ele>
        <time>2019-03-26T13:04:16.311Z</time>
      </trkpt>
      <trkpt lat="43.72388" lon="3.55111">
        <ele>68</ele>
        <time>2019-03-26T13:04:21.283Z</time>
      </trkpt>
      <trkpt lat="43.72385" lon="3.55116">
        <ele>68</ele>
        <time>2019-03-26T13:04:25.293Z</time>
      </trkpt>
      <trkpt lat="43.72382" lon="3.55118">
        <ele>68</ele>
        <time>2019-03-26T13:04:30.321Z</time>
      </trkpt>
      <trkpt lat="43.72379" lon="3.55116">
        <ele>68</ele>
        <time>2019-03-26T13:04:35.286Z</time>
      </trkpt>
      <trkpt lat="43.72378" lon="3.55117">
        <ele>68</ele>
        <time>2019-03-26T13:04:39.292Z</time>
      </trkpt>
      <trkpt lat="43.72371" lon="3.55122">
        <ele>76</ele>
        <time>2019-03-26T13:04:44.288Z</time>
      </trkpt>
      <trkpt lat="43.72367" lon="3.55128">
        <ele>70</ele>
        <time>2019-03-26T13:04:48.291Z</time>
      </trkpt>
      <trkpt lat="43.72361" lon="3.55133">
        <ele>70</ele>
        <time>2019-03-26T13:04:53.286Z</time>
      </trkpt>
      <trkpt lat="43.72358" lon="3.55138">
        <ele>70</ele>
        <time>2019-03-26T13:04:57.289Z</time>
      </trkpt>
      <trkpt lat="43.72353" lon="3.55143">
        <ele>70</ele>
        <time>2019-03-26T13:05:02.289Z</time>
      </trkpt>
      <trkpt lat="43.7234" lon="3.55152">
        <ele>80</ele>
        <time>2019-03-26T13:05:20.321Z</time>
      </trkpt>
      <trkpt lat="43.72338" lon="3.55152">
        <ele>80</ele>
        <time>2019-03-26T13:05:25.297Z</time>
      </trkpt>
      <trkpt lat="43.72337" lon="3.5516">
        <ele>74</ele>
        <time>2019-03-26T13:05:30.295Z</time>
      </trkpt>
      <trkpt lat="43.72334" lon="3.55166">
        <ele>74</ele>
        <time>2019-03-26T13:05:35.283Z</time>
      </trkpt>
      <trkpt lat="43.72333" lon="3.55171">
        <ele>74</ele>
        <time>2019-03-26T13:05:39.287Z</time>
      </trkpt>
      <trkpt lat="43.72331" lon="3.55176">
        <ele>74</ele>
        <time>2019-03-26T13:05:43.290Z</time>
      </trkpt>
      <trkpt lat="43.72328" lon="3.55184">
        <ele>72</ele>
        <time>2019-03-26T13:05:48.289Z</time>
      </trkpt>
      <trkpt lat="43.72325" lon="3.55189">
        <ele>72</ele>
        <time>2019-03-26T13:05:52.340Z</time>
      </trkpt>
      <trkpt lat="43.72322" lon="3.55197">
        <ele>72</ele>
        <time>2019-03-26T13:05:57.280Z</time>
      </trkpt>
      <trkpt lat="43.72318" lon="3.55203">
        <ele>82</ele>
        <time>2019-03-26T13:06:01.293Z</time>
      </trkpt>
      <trkpt lat="43.72316" lon="3.55211">
        <ele>75</ele>
        <time>2019-03-26T13:06:06.293Z</time>
      </trkpt>
      <trkpt lat="43.72313" lon="3.55216">
        <ele>75</ele>
        <time>2019-03-26T13:06:11.285Z</time>
      </trkpt>
      <trkpt lat="43.72311" lon="3.55219">
        <ele>75</ele>
        <time>2019-03-26T13:06:15.295Z</time>
      </trkpt>
      <trkpt lat="43.7231" lon="3.55221">
        <ele>75</ele>
        <time>2019-03-26T13:06:20.333Z</time>
      </trkpt>
      <trkpt lat="43.7231" lon="3.55222">
        <ele>75</ele>
        <time>2019-03-26T13:06:44.284Z</time>
      </trkpt>
      <trkpt lat="43.72311" lon="3.55228">
        <ele>75</ele>
        <time>2019-03-26T13:06:48.312Z</time>
      </trkpt>
      <trkpt lat="43.72307" lon="3.55236">
        <ele>75</ele>
        <time>2019-03-26T13:06:53.285Z</time>
      </trkpt>
      <trkpt lat="43.72303" lon="3.55241">
        <ele>71</ele>
        <time>2019-03-26T13:06:58.293Z</time>
      </trkpt>
      <trkpt lat="43.723" lon="3.55246">
        <ele>71</ele>
        <time>2019-03-26T13:07:03.314Z</time>
      </trkpt>
      <trkpt lat="43.72295" lon="3.55251">
        <ele>71</ele>
        <time>2019-03-26T13:07:08.287Z</time>
      </trkpt>
      <trkpt lat="43.72291" lon="3.55256">
        <ele>79</ele>
        <time>2019-03-26T13:07:13.288Z</time>
      </trkpt>
      <trkpt lat="43.72287" lon="3.55261">
        <ele>79</ele>
        <time>2019-03-26T13:07:18.290Z</time>
      </trkpt>
      <trkpt lat="43.72284" lon="3.55265">
        <ele>68</ele>
        <time>2019-03-26T13:07:23.290Z</time>
      </trkpt>
      <trkpt lat="43.72278" lon="3.55271">
        <ele>68</ele>
        <time>2019-03-26T13:07:28.285Z</time>
      </trkpt>
      <trkpt lat="43.7227" lon="3.55274">
        <ele>68</ele>
        <time>2019-03-26T13:07:33.289Z</time>
      </trkpt>
      <trkpt lat="43.72264" lon="3.55278">
        <ele>69</ele>
        <time>2019-03-26T13:07:38.287Z</time>
      </trkpt>
      <trkpt lat="43.72258" lon="3.55279">
        <ele>69</ele>
        <time>2019-03-26T13:07:43.316Z</time>
      </trkpt>
      <trkpt lat="43.72252" lon="3.5528">
        <ele>69</ele>
        <time>2019-03-26T13:07:48.280Z</time>
      </trkpt>
      <trkpt lat="43.72247" lon="3.5528">
        <ele>69</ele>
        <time>2019-03-26T13:07:52.292Z</time>
      </trkpt>
      <trkpt lat="43.72242" lon="3.55282">
        <ele>69</ele>
        <time>2019-03-26T13:07:57.290Z</time>
      </trkpt>
      <trkpt lat="43.72237" lon="3.55283">
        <ele>69</ele>
        <time>2019-03-26T13:08:02.288Z</time>
      </trkpt>
      <trkpt lat="43.72232" lon="3.55284">
        <ele>84</ele>
        <time>2019-03-26T13:08:07.288Z</time>
      </trkpt>
      <trkpt lat="43.72228" lon="3.55284">
        <ele>84</ele>
        <time>2019-03-26T13:08:11.287Z</time>
      </trkpt>
      <trkpt lat="43.72222" lon="3.55285">
        <ele>84</ele>
        <time>2019-03-26T13:08:16.285Z</time>
      </trkpt>
      <trkpt lat="43.72216" lon="3.55287">
        <ele>84</ele>
        <time>2019-03-26T13:08:20.309Z</time>
      </trkpt>
      <trkpt lat="43.7221" lon="3.55287">
        <ele>84</ele>
        <time>2019-03-26T13:08:25.337Z</time>
      </trkpt>
      <trkpt lat="43.72204" lon="3.55288">
        <ele>90</ele>
        <time>2019-03-26T13:08:30.287Z</time>
      </trkpt>
      <trkpt lat="43.72197" lon="3.5529">
        <ele>90</ele>
        <time>2019-03-26T13:08:35.291Z</time>
      </trkpt>
      <trkpt lat="43.72191" lon="3.55289">
        <ele>90</ele>
        <time>2019-03-26T13:08:40.284Z</time>
      </trkpt>
      <trkpt lat="43.72185" lon="3.55289">
        <ele>90</ele>
        <time>2019-03-26T13:08:45.286Z</time>
      </trkpt>
      <trkpt lat="43.7218" lon="3.5529">
        <ele>94</ele>
        <time>2019-03-26T13:08:49.293Z</time>
      </trkpt>
      <trkpt lat="43.72173" lon="3.55294">
        <ele>76</ele>
        <time>2019-03-26T13:08:54.286Z</time>
      </trkpt>
      <trkpt lat="43.72167" lon="3.55295">
        <ele>76</ele>
        <time>2019-03-26T13:08:59.287Z</time>
      </trkpt>
      <trkpt lat="43.72162" lon="3.55297">
        <ele>76</ele>
        <time>2019-03-26T13:09:04.279Z</time>
      </trkpt>
      <trkpt lat="43.72155" lon="3.553">
        <ele>76</ele>
        <time>2019-03-26T13:09:09.284Z</time>
      </trkpt>
      <trkpt lat="43.72149" lon="3.55303">
        <ele>79</ele>
        <time>2019-03-26T13:09:14.300Z</time>
      </trkpt>
      <trkpt lat="43.72144" lon="3.55307">
        <ele>79</ele>
        <time>2019-03-26T13:09:19.293Z</time>
      </trkpt>
      <trkpt lat="43.72139" lon="3.5531">
        <ele>79</ele>
        <time>2019-03-26T13:09:24.295Z</time>
      </trkpt>
      <trkpt lat="43.72133" lon="3.55312">
        <ele>79</ele>
        <time>2019-03-26T13:09:29.281Z</time>
      </trkpt>
      <trkpt lat="43.72128" lon="3.55314">
        <ele>79</ele>
        <time>2019-03-26T13:09:33.286Z</time>
      </trkpt>
      <trkpt lat="43.72122" lon="3.55315">
        <ele>85</ele>
        <time>2019-03-26T13:09:37.295Z</time>
      </trkpt>
      <trkpt lat="43.72115" lon="3.55316">
        <ele>85</ele>
        <time>2019-03-26T13:09:42.296Z</time>
      </trkpt>
      <trkpt lat="43.72108" lon="3.55318">
        <ele>85</ele>
        <time>2019-03-26T13:09:47.304Z</time>
      </trkpt>
      <trkpt lat="43.72099" lon="3.55319">
        <ele>85</ele>
        <time>2019-03-26T13:09:52.299Z</time>
      </trkpt>
      <trkpt lat="43.72092" lon="3.55321">
        <ele>69</ele>
        <time>2019-03-26T13:09:57.290Z</time>
      </trkpt>
      <trkpt lat="43.72087" lon="3.55323">
        <ele>69</ele>
        <time>2019-03-26T13:10:02.297Z</time>
      </trkpt>
      <trkpt lat="43.72081" lon="3.55324">
        <ele>69</ele>
        <time>2019-03-26T13:10:07.298Z</time>
      </trkpt>
      <trkpt lat="43.72075" lon="3.55326">
        <ele>69</ele>
        <time>2019-03-26T13:10:12.291Z</time>
      </trkpt>
      <trkpt lat="43.7207" lon="3.55328">
        <ele>69</ele>
        <time>2019-03-26T13:10:16.315Z</time>
      </trkpt>
      <trkpt lat="43.72064" lon="3.55329">
        <ele>82</ele>
        <time>2019-03-26T13:10:21.296Z</time>
      </trkpt>
      <trkpt lat="43.7206" lon="3.55329">
        <ele>82</ele>
        <time>2019-03-26T13:10:25.317Z</time>
      </trkpt>
      <trkpt lat="43.72054" lon="3.55329">
        <ele>82</ele>
        <time>2019-03-26T13:10:30.291Z</time>
      </trkpt>
      <trkpt lat="43.72049" lon="3.55329">
        <ele>82</ele>
        <time>2019-03-26T13:10:35.291Z</time>
      </trkpt>
      <trkpt lat="43.72044" lon="3.55329">
        <ele>82</ele>
        <time>2019-03-26T13:10:40.288Z</time>
      </trkpt>
      <trkpt lat="43.72039" lon="3.55331">
        <ele>86</ele>
        <time>2019-03-26T13:10:45.290Z</time>
      </trkpt>
      <trkpt lat="43.72035" lon="3.5533">
        <ele>86</ele>
        <time>2019-03-26T13:10:50.282Z</time>
      </trkpt>
      <trkpt lat="43.72031" lon="3.55331">
        <ele>86</ele>
        <time>2019-03-26T13:10:54.293Z</time>
      </trkpt>
      <trkpt lat="43.72026" lon="3.55329">
        <ele>86</ele>
        <time>2019-03-26T13:10:59.316Z</time>
      </trkpt>
      <trkpt lat="43.72021" lon="3.55327">
        <ele>86</ele>
        <time>2019-03-26T13:11:04.288Z</time>
      </trkpt>
      <trkpt lat="43.72016" lon="3.55327">
        <ele>86</ele>
        <time>2019-03-26T13:11:08.320Z</time>
      </trkpt>
      <trkpt lat="43.72011" lon="3.55322">
        <ele>81</ele>
        <time>2019-03-26T13:11:13.285Z</time>
      </trkpt>
      <trkpt lat="43.72004" lon="3.55323">
        <ele>81</ele>
        <time>2019-03-26T13:11:18.297Z</time>
      </trkpt>
      <trkpt lat="43.71997" lon="3.55324">
        <ele>81</ele>
        <time>2019-03-26T13:11:23.297Z</time>
      </trkpt>
      <trkpt lat="43.7199" lon="3.55326">
        <ele>81</ele>
        <time>2019-03-26T13:11:28.288Z</time>
      </trkpt>
      <trkpt lat="43.71982" lon="3.55329">
        <ele>83</ele>
        <time>2019-03-26T13:11:33.285Z</time>
      </trkpt>
      <trkpt lat="43.71976" lon="3.55329">
        <ele>83</ele>
        <time>2019-03-26T13:11:38.290Z</time>
      </trkpt>
      <trkpt lat="43.71969" lon="3.5533">
        <ele>83</ele>
        <time>2019-03-26T13:11:43.286Z</time>
      </trkpt>
      <trkpt lat="43.71962" lon="3.5533">
        <ele>83</ele>
        <time>2019-03-26T13:11:48.291Z</time>
      </trkpt>
      <trkpt lat="43.71957" lon="3.55329">
        <ele>81</ele>
        <time>2019-03-26T13:11:52.321Z</time>
      </trkpt>
      <trkpt lat="43.7195" lon="3.55328">
        <ele>81</ele>
        <time>2019-03-26T13:11:57.291Z</time>
      </trkpt>
      <trkpt lat="43.71942" lon="3.55329">
        <ele>81</ele>
        <time>2019-03-26T13:12:02.297Z</time>
      </trkpt>
      <trkpt lat="43.71934" lon="3.55329">
        <ele>81</ele>
        <time>2019-03-26T13:12:07.290Z</time>
      </trkpt>
      <trkpt lat="43.71929" lon="3.5533">
        <ele>78</ele>
        <time>2019-03-26T13:12:11.312Z</time>
      </trkpt>
      <trkpt lat="43.71922" lon="3.55329">
        <ele>78</ele>
        <time>2019-03-26T13:12:16.280Z</time>
      </trkpt>
      <trkpt lat="43.71917" lon="3.55329">
        <ele>78</ele>
        <time>2019-03-26T13:12:20.294Z</time>
      </trkpt>
      <trkpt lat="43.71911" lon="3.55329">
        <ele>78</ele>
        <time>2019-03-26T13:12:25.282Z</time>
      </trkpt>
      <trkpt lat="43.71904" lon="3.55327">
        <ele>78</ele>
        <time>2019-03-26T13:12:30.297Z</time>
      </trkpt>
      <trkpt lat="43.71898" lon="3.55325">
        <ele>76</ele>
        <time>2019-03-26T13:12:34.291Z</time>
      </trkpt>
      <trkpt lat="43.71892" lon="3.55325">
        <ele>76</ele>
        <time>2019-03-26T13:12:39.289Z</time>
      </trkpt>
      <trkpt lat="43.71886" lon="3.55325">
        <ele>76</ele>
        <time>2019-03-26T13:12:44.293Z</time>
      </trkpt>
      <trkpt lat="43.71879" lon="3.55325">
        <ele>76</ele>
        <time>2019-03-26T13:12:49.313Z</time>
      </trkpt>
      <trkpt lat="43.71875" lon="3.55325">
        <ele>74</ele>
        <time>2019-03-26T13:12:53.322Z</time>
      </trkpt>
      <trkpt lat="43.71868" lon="3.55325">
        <ele>74</ele>
        <time>2019-03-26T13:12:58.291Z</time>
      </trkpt>
      <trkpt lat="43.71863" lon="3.55327">
        <ele>74</ele>
        <time>2019-03-26T13:13:02.322Z</time>
      </trkpt>
      <trkpt lat="43.71856" lon="3.55328">
        <ele>74</ele>
        <time>2019-03-26T13:13:07.287Z</time>
      </trkpt>
      <trkpt lat="43.7185" lon="3.55329">
        <ele>74</ele>
        <time>2019-03-26T13:13:12.290Z</time>
      </trkpt>
      <trkpt lat="43.71843" lon="3.55328">
        <ele>71</ele>
        <time>2019-03-26T13:13:17.286Z</time>
      </trkpt>
      <trkpt lat="43.71838" lon="3.55327">
        <ele>71</ele>
        <time>2019-03-26T13:13:21.320Z</time>
      </trkpt>
      <trkpt lat="43.71832" lon="3.55326">
        <ele>71</ele>
        <time>2019-03-26T13:13:26.284Z</time>
      </trkpt>
      <trkpt lat="43.71828" lon="3.55326">
        <ele>71</ele>
        <time>2019-03-26T13:13:30.294Z</time>
      </trkpt>
      <trkpt lat="43.71823" lon="3.55324">
        <ele>71</ele>
        <time>2019-03-26T13:13:35.294Z</time>
      </trkpt>
      <trkpt lat="43.71817" lon="3.55323">
        <ele>68</ele>
        <time>2019-03-26T13:13:40.296Z</time>
      </trkpt>
      <trkpt lat="43.71812" lon="3.55323">
        <ele>68</ele>
        <time>2019-03-26T13:13:45.283Z</time>
      </trkpt>
      <trkpt lat="43.71806" lon="3.55321">
        <ele>68</ele>
        <time>2019-03-26T13:13:50.286Z</time>
      </trkpt>
      <trkpt lat="43.71801" lon="3.55322">
        <ele>68</ele>
        <time>2019-03-26T13:13:55.310Z</time>
      </trkpt>
      <trkpt lat="43.71795" lon="3.5532">
        <ele>68</ele>
        <time>2019-03-26T13:14:00.290Z</time>
      </trkpt>
      <trkpt lat="43.7179" lon="3.55317">
        <ele>76</ele>
        <time>2019-03-26T13:14:05.310Z</time>
      </trkpt>
      <trkpt lat="43.71783" lon="3.55314">
        <ele>76</ele>
        <time>2019-03-26T13:14:10.284Z</time>
      </trkpt>
      <trkpt lat="43.71779" lon="3.55312">
        <ele>76</ele>
        <time>2019-03-26T13:14:14.293Z</time>
      </trkpt>
      <trkpt lat="43.71775" lon="3.55311">
        <ele>76</ele>
        <time>2019-03-26T13:14:18.300Z</time>
      </trkpt>
      <trkpt lat="43.71772" lon="3.55309">
        <ele>76</ele>
        <time>2019-03-26T13:14:22.315Z</time>
      </trkpt>
      <trkpt lat="43.71768" lon="3.55306">
        <ele>76</ele>
        <time>2019-03-26T13:14:27.282Z</time>
      </trkpt>
      <trkpt lat="43.71762" lon="3.55302">
        <ele>69</ele>
        <time>2019-03-26T13:14:32.299Z</time>
      </trkpt>
      <trkpt lat="43.71757" lon="3.55298">
        <ele>69</ele>
        <time>2019-03-26T13:14:37.294Z</time>
      </trkpt>
      <trkpt lat="43.71752" lon="3.55293">
        <ele>69</ele>
        <time>2019-03-26T13:14:42.289Z</time>
      </trkpt>
      <trkpt lat="43.71747" lon="3.5529">
        <ele>83</ele>
        <time>2019-03-26T13:14:46.306Z</time>
      </trkpt>
      <trkpt lat="43.71742" lon="3.55285">
        <ele>83</ele>
        <time>2019-03-26T13:14:51.286Z</time>
      </trkpt>
      <trkpt lat="43.71739" lon="3.5528">
        <ele>83</ele>
        <time>2019-03-26T13:14:55.288Z</time>
      </trkpt>
      <trkpt lat="43.71733" lon="3.55278">
        <ele>78</ele>
        <time>2019-03-26T13:15:00.286Z</time>
      </trkpt>
      <trkpt lat="43.71727" lon="3.55275">
        <ele>78</ele>
        <time>2019-03-26T13:15:05.291Z</time>
      </trkpt>
      <trkpt lat="43.71721" lon="3.55272">
        <ele>78</ele>
        <time>2019-03-26T13:15:10.291Z</time>
      </trkpt>
      <trkpt lat="43.71715" lon="3.55267">
        <ele>78</ele>
        <time>2019-03-26T13:15:15.293Z</time>
      </trkpt>
      <trkpt lat="43.71711" lon="3.55261">
        <ele>86</ele>
        <time>2019-03-26T13:15:20.294Z</time>
      </trkpt>
      <trkpt lat="43.71705" lon="3.55255">
        <ele>83</ele>
        <time>2019-03-26T13:15:25.291Z</time>
      </trkpt>
      <trkpt lat="43.71699" lon="3.55252">
        <ele>83</ele>
        <time>2019-03-26T13:15:30.284Z</time>
      </trkpt>
      <trkpt lat="43.71694" lon="3.5525">
        <ele>83</ele>
        <time>2019-03-26T13:15:35.298Z</time>
      </trkpt>
      <trkpt lat="43.71688" lon="3.55246">
        <ele>83</ele>
        <time>2019-03-26T13:15:40.280Z</time>
      </trkpt>
      <trkpt lat="43.71683" lon="3.55244">
        <ele>83</ele>
        <time>2019-03-26T13:15:44.294Z</time>
      </trkpt>
      <trkpt lat="43.71678" lon="3.55244">
        <ele>79</ele>
        <time>2019-03-26T13:15:48.294Z</time>
      </trkpt>
      <trkpt lat="43.71671" lon="3.55242">
        <ele>79</ele>
        <time>2019-03-26T13:15:53.279Z</time>
      </trkpt>
      <trkpt lat="43.71665" lon="3.5524">
        <ele>79</ele>
        <time>2019-03-26T13:15:58.291Z</time>
      </trkpt>
      <trkpt lat="43.71661" lon="3.55238">
        <ele>79</ele>
        <time>2019-03-26T13:16:02.308Z</time>
      </trkpt>
      <trkpt lat="43.71654" lon="3.55237">
        <ele>79</ele>
        <time>2019-03-26T13:16:07.290Z</time>
      </trkpt>
      <trkpt lat="43.71646" lon="3.55238">
        <ele>74</ele>
        <time>2019-03-26T13:16:12.315Z</time>
      </trkpt>
      <trkpt lat="43.71639" lon="3.55238">
        <ele>74</ele>
        <time>2019-03-26T13:16:17.301Z</time>
      </trkpt>
      <trkpt lat="43.71632" lon="3.55238">
        <ele>74</ele>
        <time>2019-03-26T13:16:22.311Z</time>
      </trkpt>
      <trkpt lat="43.71624" lon="3.55238">
        <ele>72</ele>
        <time>2019-03-26T13:16:27.313Z</time>
      </trkpt>
      <trkpt lat="43.71617" lon="3.55238">
        <ele>72</ele>
        <time>2019-03-26T13:16:32.284Z</time>
      </trkpt>
      <trkpt lat="43.71612" lon="3.55237">
        <ele>72</ele>
        <time>2019-03-26T13:16:36.318Z</time>
      </trkpt>
      <trkpt lat="43.71605" lon="3.55237">
        <ele>72</ele>
        <time>2019-03-26T13:16:41.283Z</time>
      </trkpt>
      <trkpt lat="43.71599" lon="3.55237">
        <ele>72</ele>
        <time>2019-03-26T13:16:45.291Z</time>
      </trkpt>
      <trkpt lat="43.71593" lon="3.55238">
        <ele>69</ele>
        <time>2019-03-26T13:16:50.302Z</time>
      </trkpt>
      <trkpt lat="43.71586" lon="3.55239">
        <ele>69</ele>
        <time>2019-03-26T13:16:55.314Z</time>
      </trkpt>
      <trkpt lat="43.71579" lon="3.55238">
        <ele>69</ele>
        <time>2019-03-26T13:17:00.288Z</time>
      </trkpt>
      <trkpt lat="43.71573" lon="3.55238">
        <ele>69</ele>
        <time>2019-03-26T13:17:05.302Z</time>
      </trkpt>
      <trkpt lat="43.71566" lon="3.55238">
        <ele>68</ele>
        <time>2019-03-26T13:17:10.289Z</time>
      </trkpt>
      <trkpt lat="43.71559" lon="3.55238">
        <ele>68</ele>
        <time>2019-03-26T13:17:15.289Z</time>
      </trkpt>
      <trkpt lat="43.71553" lon="3.55237">
        <ele>68</ele>
        <time>2019-03-26T13:17:20.280Z</time>
      </trkpt>
      <trkpt lat="43.71547" lon="3.55236">
        <ele>79</ele>
        <time>2019-03-26T13:17:25.291Z</time>
      </trkpt>
      <trkpt lat="43.71542" lon="3.55236">
        <ele>79</ele>
        <time>2019-03-26T13:17:29.312Z</time>
      </trkpt>
      <trkpt lat="43.71535" lon="3.55235">
        <ele>82</ele>
        <time>2019-03-26T13:17:34.288Z</time>
      </trkpt>
      <trkpt lat="43.71529" lon="3.55235">
        <ele>82</ele>
        <time>2019-03-26T13:17:39.281Z</time>
      </trkpt>
      <trkpt lat="43.71524" lon="3.55235">
        <ele>82</ele>
        <time>2019-03-26T13:17:43.292Z</time>
      </trkpt>
      <trkpt lat="43.71517" lon="3.55236">
        <ele>82</ele>
        <time>2019-03-26T13:17:48.280Z</time>
      </trkpt>
      <trkpt lat="43.71512" lon="3.55237">
        <ele>73</ele>
        <time>2019-03-26T13:17:52.303Z</time>
      </trkpt>
      <trkpt lat="43.71505" lon="3.55237">
        <ele>73</ele>
        <time>2019-03-26T13:17:57.312Z</time>
      </trkpt>
      <trkpt lat="43.71501" lon="3.55236">
        <ele>87</ele>
        <time>2019-03-26T13:18:02.297Z</time>
      </trkpt>
      <trkpt lat="43.71494" lon="3.55235">
        <ele>87</ele>
        <time>2019-03-26T13:18:07.324Z</time>
      </trkpt>
      <trkpt lat="43.71488" lon="3.55235">
        <ele>87</ele>
        <time>2019-03-26T13:18:12.296Z</time>
      </trkpt>
      <trkpt lat="43.71482" lon="3.55233">
        <ele>90</ele>
        <time>2019-03-26T13:18:17.288Z</time>
      </trkpt>
      <trkpt lat="43.71476" lon="3.55231">
        <ele>90</ele>
        <time>2019-03-26T13:18:22.286Z</time>
      </trkpt>
      <trkpt lat="43.71472" lon="3.55229">
        <ele>90</ele>
        <time>2019-03-26T13:18:26.307Z</time>
      </trkpt>
      <trkpt lat="43.71465" lon="3.55229">
        <ele>90</ele>
        <time>2019-03-26T13:18:31.296Z</time>
      </trkpt>
      <trkpt lat="43.71459" lon="3.55231">
        <ele>90</ele>
        <time>2019-03-26T13:18:36.321Z</time>
      </trkpt>
      <trkpt lat="43.71451" lon="3.55232">
        <ele>84</ele>
        <time>2019-03-26T13:18:41.288Z</time>
      </trkpt>
      <trkpt lat="43.71445" lon="3.55233">
        <ele>84</ele>
        <time>2019-03-26T13:18:46.290Z</time>
      </trkpt>
      <trkpt lat="43.71437" lon="3.55234">
        <ele>84</ele>
        <time>2019-03-26T13:18:51.284Z</time>
      </trkpt>
      <trkpt lat="43.71429" lon="3.55238">
        <ele>69</ele>
        <time>2019-03-26T13:18:55.324Z</time>
      </trkpt>
      <trkpt lat="43.71422" lon="3.55239">
        <ele>69</ele>
        <time>2019-03-26T13:19:00.287Z</time>
      </trkpt>
      <trkpt lat="43.71416" lon="3.55238">
        <ele>69</ele>
        <time>2019-03-26T13:19:05.291Z</time>
      </trkpt>
      <trkpt lat="43.71412" lon="3.55239">
        <ele>69</ele>
        <time>2019-03-26T13:19:09.293Z</time>
      </trkpt>
      <trkpt lat="43.71406" lon="3.55237">
        <ele>69</ele>
        <time>2019-03-26T13:19:14.299Z</time>
      </trkpt>
      <trkpt lat="43.71401" lon="3.55238">
        <ele>74</ele>
        <time>2019-03-26T13:19:19.302Z</time>
      </trkpt>
      <trkpt lat="43.71394" lon="3.55241">
        <ele>74</ele>
        <time>2019-03-26T13:19:24.280Z</time>
      </trkpt>
      <trkpt lat="43.71389" lon="3.55241">
        <ele>74</ele>
        <time>2019-03-26T13:19:28.286Z</time>
      </trkpt>
      <trkpt lat="43.71382" lon="3.55243">
        <ele>74</ele>
        <time>2019-03-26T13:19:33.294Z</time>
      </trkpt>
      <trkpt lat="43.71375" lon="3.55243">
        <ele>78</ele>
        <time>2019-03-26T13:19:38.281Z</time>
      </trkpt>
      <trkpt lat="43.7137" lon="3.55244">
        <ele>78</ele>
        <time>2019-03-26T13:19:42.339Z</time>
      </trkpt>
      <trkpt lat="43.71365" lon="3.55246">
        <ele>78</ele>
        <time>2019-03-26T13:19:47.289Z</time>
      </trkpt>
      <trkpt lat="43.71359" lon="3.55247">
        <ele>78</ele>
        <time>2019-03-26T13:19:52.292Z</time>
      </trkpt>
      <trkpt lat="43.71353" lon="3.55247">
        <ele>78</ele>
        <time>2019-03-26T13:19:57.291Z</time>
      </trkpt>
      <trkpt lat="43.71347" lon="3.55249">
        <ele>80</ele>
        <time>2019-03-26T13:20:02.284Z</time>
      </trkpt>
      <trkpt lat="43.71342" lon="3.55248">
        <ele>80</ele>
        <time>2019-03-26T13:20:06.296Z</time>
      </trkpt>
      <trkpt lat="43.71336" lon="3.55249">
        <ele>80</ele>
        <time>2019-03-26T13:20:11.283Z</time>
      </trkpt>
      <trkpt lat="43.71333" lon="3.55248">
        <ele>80</ele>
        <time>2019-03-26T13:20:15.298Z</time>
      </trkpt>
      <trkpt lat="43.71328" lon="3.55247">
        <ele>80</ele>
        <time>2019-03-26T13:20:20.284Z</time>
      </trkpt>
      <trkpt lat="43.71323" lon="3.55246">
        <ele>80</ele>
        <time>2019-03-26T13:20:24.287Z</time>
      </trkpt>
      <trkpt lat="43.71318" lon="3.55245">
        <ele>78</ele>
        <time>2019-03-26T13:20:28.334Z</time>
      </trkpt>
      <trkpt lat="43.71312" lon="3.55243">
        <ele>78</ele>
        <time>2019-03-26T13:20:33.285Z</time>
      </trkpt>
      <trkpt lat="43.71309" lon="3.5524">
        <ele>78</ele>
        <time>2019-03-26T13:20:37.291Z</time>
      </trkpt>
      <trkpt lat="43.71306" lon="3.55237">
        <ele>78</ele>
        <time>2019-03-26T13:20:41.318Z</time>
      </trkpt>
      <trkpt lat="43.71302" lon="3.55233">
        <ele>87</ele>
        <time>2019-03-26T13:20:46.291Z</time>
      </trkpt>
      <trkpt lat="43.71298" lon="3.55231">
        <ele>87</ele>
        <time>2019-03-26T13:20:50.291Z</time>
      </trkpt>
      <trkpt lat="43.71294" lon="3.55229">
        <ele>87</ele>
        <time>2019-03-26T13:20:54.320Z</time>
      </trkpt>
      <trkpt lat="43.71288" lon="3.55228">
        <ele>81</ele>
        <time>2019-03-26T13:20:59.300Z</time>
      </trkpt>
      <trkpt lat="43.71282" lon="3.55225">
        <ele>81</ele>
        <time>2019-03-26T13:21:04.286Z</time>
      </trkpt>
      <trkpt lat="43.71276" lon="3.55223">
        <ele>81</ele>
        <time>2019-03-26T13:21:09.291Z</time>
      </trkpt>
      <trkpt lat="43.71271" lon="3.55221">
        <ele>81</ele>
        <time>2019-03-26T13:21:13.317Z</time>
      </trkpt>
      <trkpt lat="43.71265" lon="3.5522">
        <ele>81</ele>
        <time>2019-03-26T13:21:18.290Z</time>
      </trkpt>
      <trkpt lat="43.7126" lon="3.55219">
        <ele>79</ele>
        <time>2019-03-26T13:21:22.308Z</time>
      </trkpt>
      <trkpt lat="43.71253" lon="3.55217">
        <ele>79</ele>
        <time>2019-03-26T13:21:27.290Z</time>
      </trkpt>
      <trkpt lat="43.71248" lon="3.55217">
        <ele>79</ele>
        <time>2019-03-26T13:21:31.332Z</time>
      </trkpt>
      <trkpt lat="43.71241" lon="3.55217">
        <ele>79</ele>
        <time>2019-03-26T13:21:36.312Z</time>
      </trkpt>
      <trkpt lat="43.71235" lon="3.55215">
        <ele>73</ele>
        <time>2019-03-26T13:21:41.289Z</time>
      </trkpt>
      <trkpt lat="43.71229" lon="3.55216">
        <ele>73</ele>
        <time>2019-03-26T13:21:46.283Z</time>
      </trkpt>
      <trkpt lat="43.71223" lon="3.5522">
        <ele>73</ele>
        <time>2019-03-26T13:21:51.293Z</time>
      </trkpt>
      <trkpt lat="43.71217" lon="3.55221">
        <ele>73</ele>
        <time>2019-03-26T13:21:56.285Z</time>
      </trkpt>
      <trkpt lat="43.7121" lon="3.55223">
        <ele>73</ele>
        <time>2019-03-26T13:22:01.294Z</time>
      </trkpt>
      <trkpt lat="43.71204" lon="3.55222">
        <ele>77</ele>
        <time>2019-03-26T13:22:06.291Z</time>
      </trkpt>
      <trkpt lat="43.71198" lon="3.55222">
        <ele>77</ele>
        <time>2019-03-26T13:22:11.294Z</time>
      </trkpt>
      <trkpt lat="43.71192" lon="3.55222">
        <ele>77</ele>
        <time>2019-03-26T13:22:16.285Z</time>
      </trkpt>
      <trkpt lat="43.71186" lon="3.5522">
        <ele>77</ele>
        <time>2019-03-26T13:22:21.291Z</time>
      </trkpt>
      <trkpt lat="43.7118" lon="3.5522">
        <ele>80</ele>
        <time>2019-03-26T13:22:26.307Z</time>
      </trkpt>
      <trkpt lat="43.71173" lon="3.55221">
        <ele>80</ele>
        <time>2019-03-26T13:22:31.285Z</time>
      </trkpt>
      <trkpt lat="43.71167" lon="3.55222">
        <ele>80</ele>
        <time>2019-03-26T13:22:36.289Z</time>
      </trkpt>
      <trkpt lat="43.71163" lon="3.55222">
        <ele>80</ele>
        <time>2019-03-26T13:22:40.288Z</time>
      </trkpt>
      <trkpt lat="43.71156" lon="3.55223">
        <ele>80</ele>
        <time>2019-03-26T13:22:45.291Z</time>
      </trkpt>
      <trkpt lat="43.7115" lon="3.55227">
        <ele>82</ele>
        <time>2019-03-26T13:22:49.290Z</time>
      </trkpt>
      <trkpt lat="43.71143" lon="3.55231">
        <ele>82</ele>
        <time>2019-03-26T13:22:54.282Z</time>
      </trkpt>
      <trkpt lat="43.71136" lon="3.55237">
        <ele>73</ele>
        <time>2019-03-26T13:22:59.299Z</time>
      </trkpt>
      <trkpt lat="43.7113" lon="3.5524">
        <ele>73</ele>
        <time>2019-03-26T13:23:04.291Z</time>
      </trkpt>
      <trkpt lat="43.71123" lon="3.55244">
        <ele>72</ele>
        <time>2019-03-26T13:23:09.326Z</time>
      </trkpt>
      <trkpt lat="43.71117" lon="3.55246">
        <ele>72</ele>
        <time>2019-03-26T13:23:14.281Z</time>
      </trkpt>
      <trkpt lat="43.71111" lon="3.5525">
        <ele>72</ele>
        <time>2019-03-26T13:23:19.268Z</time>
      </trkpt>
      <trkpt lat="43.71107" lon="3.55253">
        <ele>72</ele>
        <time>2019-03-26T13:23:23.286Z</time>
      </trkpt>
      <trkpt lat="43.71102" lon="3.55254">
        <ele>72</ele>
        <time>2019-03-26T13:23:28.290Z</time>
      </trkpt>
      <trkpt lat="43.71097" lon="3.55255">
        <ele>69</ele>
        <time>2019-03-26T13:23:33.322Z</time>
      </trkpt>
      <trkpt lat="43.71091" lon="3.55255">
        <ele>69</ele>
        <time>2019-03-26T13:23:38.304Z</time>
      </trkpt>
      <trkpt lat="43.71085" lon="3.55256">
        <ele>69</ele>
        <time>2019-03-26T13:23:43.301Z</time>
      </trkpt>
      <trkpt lat="43.71079" lon="3.55259">
        <ele>69</ele>
        <time>2019-03-26T13:23:48.293Z</time>
      </trkpt>
      <trkpt lat="43.71073" lon="3.55261">
        <ele>69</ele>
        <time>2019-03-26T13:23:53.295Z</time>
      </trkpt>
      <trkpt lat="43.7107" lon="3.55265">
        <ele>63</ele>
        <time>2019-03-26T13:23:58.299Z</time>
      </trkpt>
      <trkpt lat="43.7107" lon="3.55268">
        <ele>63</ele>
        <time>2019-03-26T13:24:03.288Z</time>
      </trkpt>
    </trkseg>
  </trk>
</gpx>